<?xml version='1.0' encoding='UTF-8'?><gpx version="1.1" creator="JPX - https://github.com/jenetics/jpx" xmlns="http://www.topografix.com/GPX/1/1"><trk><trkseg><trkpt lat="42.66903653295615" lon="11.76303315117602"><ele>475.0</ele><time>2026-04-18T07:57:39.999Z</time></trkpt><trkpt lat="42.66910335886617" lon="11.762950340528057"><ele>475.0</ele><time>2026-04-18T07:57:41.999Z</time></trkpt><trkpt lat="42.669104921055485" lon="11.762781216456599"><ele>475.0</ele><time>2026-04-18T07:57:42.999Z</time></trkpt><trkpt lat="42.66888678997505" lon="11.762603770100506"><ele>475.8</ele><time>2026-04-18T07:57:44.999Z</time></trkpt><trkpt lat="42.66879464244218" lon="11.762576668575377"><ele>476.6</ele><time>2026-04-18T07:57:46.999Z</time></trkpt><trkpt lat="42.66868739694899" lon="11.762576003982097"><ele>477.4</ele><time>2026-04-18T07:57:48.999Z</time></trkpt><trkpt lat="42.668600313741685" lon="11.762487235460632"><ele>478.2</ele><time>2026-04-18T07:57:50.999Z</time></trkpt><trkpt lat="42.66858458099413" lon="11.762395687554958"><ele>479.0</ele><time>2026-04-18T07:57:53.998Z</time></trkpt><trkpt lat="42.66870828997408" lon="11.762431671974323"><ele>478.99999999999994</ele><time>2026-04-18T07:57:56.998Z</time></trkpt><trkpt lat="42.66878705432022" lon="11.76243002223375"><ele>479.0</ele><time>2026-04-18T07:57:57.998Z</time></trkpt><trkpt lat="42.66885959751548" lon="11.762424147937024"><ele>479.0</ele><time>2026-04-18T07:57:58.998Z</time></trkpt><trkpt lat="42.66892793472906" lon="11.762403873162887"><ele>479.0</ele><time>2026-04-18T07:57:59.998Z</time></trkpt><trkpt lat="42.66902104927648" lon="11.762365941414684"><ele>478.99999999999994</ele><time>2026-04-18T07:58:01.998Z</time></trkpt><trkpt lat="42.669136076313485" lon="11.762305139972574"><ele>479.0</ele><time>2026-04-18T07:58:03.998Z</time></trkpt><trkpt lat="42.66919979668803" lon="11.762321696879756"><ele>479.0</ele><time>2026-04-18T07:58:04.998Z</time></trkpt><trkpt lat="42.66926427664402" lon="11.762317615098656"><ele>479.0</ele><time>2026-04-18T07:58:05.998Z</time></trkpt><trkpt lat="42.669329711413525" lon="11.762294278294757"><ele>479.0</ele><time>2026-04-18T07:58:06.998Z</time></trkpt><trkpt lat="42.66939564355063" lon="11.762282975956465"><ele>479.0</ele><time>2026-04-18T07:58:07.998Z</time></trkpt><trkpt lat="42.66946499339318" lon="11.762266168508678"><ele>479.0</ele><time>2026-04-18T07:58:08.998Z</time></trkpt><trkpt lat="42.66955056701615" lon="11.76225786986288"><ele>479.0</ele><time>2026-04-18T07:58:09.998Z</time></trkpt><trkpt lat="42.66963922782097" lon="11.762218331900884"><ele>479.0</ele><time>2026-04-18T07:58:10.998Z</time></trkpt><trkpt lat="42.669709618087914" lon="11.762155677491076"><ele>478.3333333333333</ele><time>2026-04-18T07:58:11.998Z</time></trkpt><trkpt lat="42.669785327613106" lon="11.762110703516605"><ele>477.66666666666663</ele><time>2026-04-18T07:58:12.998Z</time></trkpt><trkpt lat="42.669845931703684" lon="11.762067899435186"><ele>477.0</ele><time>2026-04-18T07:58:13.998Z</time></trkpt><trkpt lat="42.66992899165664" lon="11.762006441208143"><ele>476.33333333333337</ele><time>2026-04-18T07:58:15.998Z</time></trkpt><trkpt lat="42.66995334727882" lon="11.761915642686592"><ele>475.6666666666667</ele><time>2026-04-18T07:58:19.998Z</time></trkpt><trkpt lat="42.6699012653471" lon="11.762017315970283"><ele>475.0</ele><time>2026-04-18T07:58:22.998Z</time></trkpt><trkpt lat="42.66982225788754" lon="11.762024934374871"><ele>475.0</ele><time>2026-04-18T07:58:23.998Z</time></trkpt><trkpt lat="42.669761450631036" lon="11.76207705906041"><ele>475.0</ele><time>2026-04-18T07:58:43.997Z</time></trkpt><trkpt lat="42.66967491386159" lon="11.762144621185207"><ele>475.0</ele><time>2026-04-18T07:58:45.997Z</time></trkpt><trkpt lat="42.66954694299452" lon="11.762209554478652"><ele>475.0</ele><time>2026-04-18T07:58:47.997Z</time></trkpt><trkpt lat="42.66946940611112" lon="11.762233915812114"><ele>475.0</ele><time>2026-04-18T07:58:48.997Z</time></trkpt><trkpt lat="42.6693925760303" lon="11.762252815121114"><ele>475.6666666666667</ele><time>2026-04-18T07:58:49.999Z</time></trkpt><trkpt lat="42.669316048186886" lon="11.762264435369616"><ele>476.33333333333337</ele><time>2026-04-18T07:58:50.999Z</time></trkpt><trkpt lat="42.66924502058447" lon="11.762270009775637"><ele>477.0</ele><time>2026-04-18T07:58:51.999Z</time></trkpt><trkpt lat="42.66918120923413" lon="11.76227431368179"><ele>477.66666666666663</ele><time>2026-04-18T07:58:52.999Z</time></trkpt><trkpt lat="42.66907993408483" lon="11.762279292880221"><ele>478.3333333333333</ele><time>2026-04-18T07:58:54.999Z</time></trkpt><trkpt lat="42.66898768970906" lon="11.762197596921927"><ele>479.0</ele><time>2026-04-18T07:58:56.999Z</time></trkpt><trkpt lat="42.668921494782175" lon="11.762157112062003"><ele>478.99999999999994</ele><time>2026-04-18T07:58:57.999Z</time></trkpt><trkpt lat="42.66885402290592" lon="11.762133015187128"><ele>479.0</ele><time>2026-04-18T07:58:58.999Z</time></trkpt><trkpt lat="42.668774718654824" lon="11.762133296765322"><ele>479.0</ele><time>2026-04-18T07:58:59.999Z</time></trkpt><trkpt lat="42.66869867270077" lon="11.762119724328247"><ele>479.0</ele><time>2026-04-18T07:59:00.999Z</time></trkpt><trkpt lat="42.66863019764532" lon="11.762107074495722"><ele>478.99999999999994</ele><time>2026-04-18T07:59:01.999Z</time></trkpt><trkpt lat="42.668516851732306" lon="11.762058029580619"><ele>479.0</ele><time>2026-04-18T07:59:03.999Z</time></trkpt><trkpt lat="42.668478095937644" lon="11.761977999803994"><ele>479.3333333333333</ele><time>2026-04-18T07:59:04.999Z</time></trkpt><trkpt lat="42.66842910474713" lon="11.76191806261155"><ele>479.66666666666663</ele><time>2026-04-18T07:59:05.999Z</time></trkpt><trkpt lat="42.668377603693564" lon="11.761839476448268"><ele>480.0</ele><time>2026-04-18T07:59:06.999Z</time></trkpt><trkpt lat="42.66830913386509" lon="11.76177135221923"><ele>480.33333333333337</ele><time>2026-04-18T07:59:07.999Z</time></trkpt><trkpt lat="42.66823367835201" lon="11.761701382969694"><ele>480.6666666666667</ele><time>2026-04-18T07:59:08.999Z</time></trkpt><trkpt lat="42.66815991791" lon="11.761653903025527"><ele>481.0</ele><time>2026-04-18T07:59:09.999Z</time></trkpt><trkpt lat="42.66807120351317" lon="11.761634628861223"><ele>482.83333333333337</ele><time>2026-04-18T07:59:10.999Z</time></trkpt><trkpt lat="42.66800273826556" lon="11.761564787760276"><ele>484.6666666666667</ele><time>2026-04-18T07:59:11.999Z</time></trkpt><trkpt lat="42.66793527441954" lon="11.761511803435925"><ele>486.5</ele><time>2026-04-18T07:59:12.999Z</time></trkpt><trkpt lat="42.667866165069285" lon="11.761455224249667"><ele>488.33333333333337</ele><time>2026-04-18T07:59:13.999Z</time></trkpt><trkpt lat="42.66778827734806" lon="11.761389372289864"><ele>490.1666666666667</ele><time>2026-04-18T07:59:14.999Z</time></trkpt><trkpt lat="42.667725171222166" lon="11.761318608689894"><ele>492.0</ele><time>2026-04-18T07:59:15.999Z</time></trkpt><trkpt lat="42.66763447485801" lon="11.761259991073075"><ele>492.0</ele><time>2026-04-18T07:59:16.999Z</time></trkpt><trkpt lat="42.667538493633074" lon="11.761178944378484"><ele>492.00000000000006</ele><time>2026-04-18T07:59:17.999Z</time></trkpt><trkpt lat="42.66743649739771" lon="11.761138772689378"><ele>492.00000000000006</ele><time>2026-04-18T07:59:18.999Z</time></trkpt><trkpt lat="42.66734668603116" lon="11.761068862815401"><ele>492.0</ele><time>2026-04-18T07:59:19.999Z</time></trkpt><trkpt lat="42.66725727960742" lon="11.761011252310574"><ele>492.0</ele><time>2026-04-18T07:59:20.999Z</time></trkpt><trkpt lat="42.66717675378001" lon="11.760952667384146"><ele>493.20000000000005</ele><time>2026-04-18T07:59:21.999Z</time></trkpt><trkpt lat="42.66708425339805" lon="11.760880975366065"><ele>494.40000000000003</ele><time>2026-04-18T07:59:22.999Z</time></trkpt><trkpt lat="42.666985976883076" lon="11.760808040235526"><ele>495.59999999999997</ele><time>2026-04-18T07:59:23.999Z</time></trkpt><trkpt lat="42.66688555029395" lon="11.760763023265795"><ele>496.79999999999995</ele><time>2026-04-18T07:59:24.999Z</time></trkpt><trkpt lat="42.66680088312291" lon="11.760693547507818"><ele>498.0</ele><time>2026-04-18T07:59:25.999Z</time></trkpt><trkpt lat="42.666694322006215" lon="11.760646017969497"><ele>498.2</ele><time>2026-04-18T07:59:26.999Z</time></trkpt><trkpt lat="42.666595960864974" lon="11.760551806499212"><ele>498.4</ele><time>2026-04-18T07:59:27.999Z</time></trkpt><trkpt lat="42.66649418268925" lon="11.760496251217132"><ele>498.59999999999997</ele><time>2026-04-18T07:59:28.999Z</time></trkpt><trkpt lat="42.666407621348064" lon="11.760422276615646"><ele>498.79999999999995</ele><time>2026-04-18T07:59:29.999Z</time></trkpt><trkpt lat="42.666338665874214" lon="11.760313440821728"><ele>499.0</ele><time>2026-04-18T07:59:30.999Z</time></trkpt><trkpt lat="42.66628029412917" lon="11.760189761063225"><ele>498.25</ele><time>2026-04-18T07:59:31.999Z</time></trkpt><trkpt lat="42.666199977462156" lon="11.760088461670012"><ele>497.5</ele><time>2026-04-18T07:59:32.999Z</time></trkpt><trkpt lat="42.66611487142389" lon="11.759979200253905"><ele>496.75</ele><time>2026-04-18T07:59:33.999Z</time></trkpt><trkpt lat="42.666038043443706" lon="11.759869636266062"><ele>496.0</ele><time>2026-04-18T07:59:34.999Z</time></trkpt><trkpt lat="42.66595906353436" lon="11.75974870489899"><ele>497.20000000000005</ele><time>2026-04-18T07:59:35.999Z</time></trkpt><trkpt lat="42.6658817734855" lon="11.75962818554155"><ele>498.40000000000003</ele><time>2026-04-18T07:59:36.999Z</time></trkpt><trkpt lat="42.66580517903124" lon="11.759509095174936"><ele>499.6</ele><time>2026-04-18T07:59:37.999Z</time></trkpt><trkpt lat="42.66573366910311" lon="11.759400782249156"><ele>500.8</ele><time>2026-04-18T07:59:38.999Z</time></trkpt><trkpt lat="42.66566441901897" lon="11.759306890585322"><ele>502.0</ele><time>2026-04-18T07:59:39.999Z</time></trkpt><trkpt lat="42.66559725663648" lon="11.759193902037026"><ele>502.0</ele><time>2026-04-18T07:59:40.999Z</time></trkpt><trkpt lat="42.66550221831297" lon="11.759072621543668"><ele>502.0</ele><time>2026-04-18T07:59:41.999Z</time></trkpt><trkpt lat="42.66541215892822" lon="11.758932747018944"><ele>502.0</ele><time>2026-04-18T07:59:42.999Z</time></trkpt><trkpt lat="42.66531495635555" lon="11.758775115188907"><ele>502.0</ele><time>2026-04-18T07:59:43.999Z</time></trkpt><trkpt lat="42.66522468942674" lon="11.758615787638805"><ele>501.6666666666667</ele><time>2026-04-18T07:59:44.999Z</time></trkpt><trkpt lat="42.66513742059005" lon="11.758439784088013"><ele>501.33333333333337</ele><time>2026-04-18T07:59:45.999Z</time></trkpt><trkpt lat="42.66503385918103" lon="11.758279576914266"><ele>501.0</ele><time>2026-04-18T07:59:46.999Z</time></trkpt><trkpt lat="42.66496363543512" lon="11.758083345176896"><ele>501.0</ele><time>2026-04-18T07:59:47.999Z</time></trkpt><trkpt lat="42.66487612923034" lon="11.75791240950913"><ele>501.0</ele><time>2026-04-18T07:59:48.999Z</time></trkpt><trkpt lat="42.66481646339171" lon="11.757721050501695"><ele>501.0</ele><time>2026-04-18T07:59:49.998Z</time></trkpt><trkpt lat="42.664755156456835" lon="11.757514497705184"><ele>500.66666666666663</ele><time>2026-04-18T07:59:50.998Z</time></trkpt><trkpt lat="42.66469364011127" lon="11.757302842044574"><ele>500.3333333333333</ele><time>2026-04-18T07:59:51.998Z</time></trkpt><trkpt lat="42.66462151839374" lon="11.757089686397407"><ele>500.0</ele><time>2026-04-18T07:59:52.998Z</time></trkpt><trkpt lat="42.66455083176111" lon="11.756898356472998"><ele>500.0</ele><time>2026-04-18T07:59:53.998Z</time></trkpt><trkpt lat="42.66448139429975" lon="11.756715840757064"><ele>500.0</ele><time>2026-04-18T07:59:54.998Z</time></trkpt><trkpt lat="42.664394880564515" lon="11.756532504228803"><ele>500.0</ele><time>2026-04-18T07:59:55.998Z</time></trkpt><trkpt lat="42.664325917892434" lon="11.75633398570701"><ele>500.0</ele><time>2026-04-18T07:59:56.998Z</time></trkpt><trkpt lat="42.66424157192416" lon="11.756151189719516"><ele>500.0</ele><time>2026-04-18T07:59:57.998Z</time></trkpt><trkpt lat="42.66417204976444" lon="11.755961939640999"><ele>500.0</ele><time>2026-04-18T07:59:58.998Z</time></trkpt><trkpt lat="42.66409147856412" lon="11.755789589392652"><ele>499.25</ele><time>2026-04-18T07:59:59.998Z</time></trkpt><trkpt lat="42.663997586557635" lon="11.755640551156253"><ele>498.5</ele><time>2026-04-18T08:00:00.998Z</time></trkpt><trkpt lat="42.66391665516897" lon="11.755470752379765"><ele>497.75</ele><time>2026-04-18T08:00:01.998Z</time></trkpt><trkpt lat="42.663836969804336" lon="11.755311144183391"><ele>497.0</ele><time>2026-04-18T08:00:02.998Z</time></trkpt><trkpt lat="42.66373159957783" lon="11.755151302294921"><ele>495.66666666666663</ele><time>2026-04-18T08:00:03.998Z</time></trkpt><trkpt lat="42.663617072348565" lon="11.7549720552395"><ele>494.33333333333337</ele><time>2026-04-18T08:00:04.998Z</time></trkpt><trkpt lat="42.66354892941877" lon="11.7547844318397"><ele>493.0</ele><time>2026-04-18T08:00:05.998Z</time></trkpt><trkpt lat="42.66346684361486" lon="11.75462375513214"><ele>493.0</ele><time>2026-04-18T08:00:06.998Z</time></trkpt><trkpt lat="42.66340746398555" lon="11.754455583153828"><ele>493.0</ele><time>2026-04-18T08:00:07.998Z</time></trkpt><trkpt lat="42.6633552397215" lon="11.75427898677827"><ele>493.0</ele><time>2026-04-18T08:00:08.998Z</time></trkpt><trkpt lat="42.66330727867466" lon="11.75410309793708"><ele>493.0</ele><time>2026-04-18T08:00:09.998Z</time></trkpt><trkpt lat="42.66326492481719" lon="11.753922337439159"><ele>493.0</ele><time>2026-04-18T08:00:10.998Z</time></trkpt><trkpt lat="42.66323169329521" lon="11.753758867381796"><ele>493.0</ele><time>2026-04-18T08:00:11.998Z</time></trkpt><trkpt lat="42.66318055158579" lon="11.753605334266446"><ele>493.0</ele><time>2026-04-18T08:00:12.998Z</time></trkpt><trkpt lat="42.66310322637283" lon="11.753464877673753"><ele>493.0</ele><time>2026-04-18T08:00:13.998Z</time></trkpt><trkpt lat="42.66303636827568" lon="11.753278905685058"><ele>494.33333333333337</ele><time>2026-04-18T08:00:14.998Z</time></trkpt><trkpt lat="42.662931713655034" lon="11.753095708515607"><ele>495.66666666666663</ele><time>2026-04-18T08:00:15.998Z</time></trkpt><trkpt lat="42.66286145197585" lon="11.752922742312403"><ele>497.0</ele><time>2026-04-18T08:00:16.998Z</time></trkpt><trkpt lat="42.66277601958663" lon="11.752776932889233"><ele>497.25</ele><time>2026-04-18T08:00:17.998Z</time></trkpt><trkpt lat="42.662712473558976" lon="11.752615212810587"><ele>497.5</ele><time>2026-04-18T08:00:18.998Z</time></trkpt><trkpt lat="42.662625160367284" lon="11.752479456396966"><ele>497.75</ele><time>2026-04-18T08:00:19.998Z</time></trkpt><trkpt lat="42.66254747821146" lon="11.752337707174535"><ele>498.0</ele><time>2026-04-18T08:00:20.998Z</time></trkpt><trkpt lat="42.66247693997884" lon="11.75216726382718"><ele>498.0</ele><time>2026-04-18T08:00:21.998Z</time></trkpt><trkpt lat="42.66241290724771" lon="11.752007108118756"><ele>498.0</ele><time>2026-04-18T08:00:22.998Z</time></trkpt><trkpt lat="42.66234642598437" lon="11.751859983582145"><ele>498.0</ele><time>2026-04-18T08:00:23.998Z</time></trkpt><trkpt lat="42.66227987489098" lon="11.751729990565797"><ele>498.0</ele><time>2026-04-18T08:00:24.998Z</time></trkpt><trkpt lat="42.662220206409756" lon="11.751627057514145"><ele>497.79999999999995</ele><time>2026-04-18T08:00:25.998Z</time></trkpt><trkpt lat="42.66215586860743" lon="11.751553612492097"><ele>497.59999999999997</ele><time>2026-04-18T08:00:26.998Z</time></trkpt><trkpt lat="42.662096573180705" lon="11.751500942685793"><ele>497.40000000000003</ele><time>2026-04-18T08:00:28.998Z</time></trkpt><trkpt lat="42.662181228858785" lon="11.751379323570037"><ele>497.20000000000005</ele><time>2026-04-18T08:00:31.998Z</time></trkpt><trkpt lat="42.662241248254894" lon="11.751284602418988"><ele>497.0</ele><time>2026-04-18T08:00:32.998Z</time></trkpt><trkpt lat="42.66230847216974" lon="11.751148354613047"><ele>496.5</ele><time>2026-04-18T08:00:33.998Z</time></trkpt><trkpt lat="42.66238265238959" lon="11.751033717104537"><ele>496.0</ele><time>2026-04-18T08:00:34.998Z</time></trkpt><trkpt lat="42.66246280090331" lon="11.75091992240703"><ele>495.5</ele><time>2026-04-18T08:00:35.998Z</time></trkpt><trkpt lat="42.66254852352042" lon="11.750790771593593"><ele>495.0</ele><time>2026-04-18T08:00:36.998Z</time></trkpt><trkpt lat="42.66261897193616" lon="11.750680123900631"><ele>495.0</ele><time>2026-04-18T08:00:37.997Z</time></trkpt><trkpt lat="42.662689627739006" lon="11.750573141258245"><ele>495.0</ele><time>2026-04-18T08:00:38.997Z</time></trkpt><trkpt lat="42.66276308688108" lon="11.75046217519019"><ele>495.0</ele><time>2026-04-18T08:00:39.997Z</time></trkpt><trkpt lat="42.66283574550073" lon="11.750339298751914"><ele>495.0</ele><time>2026-04-18T08:00:40.997Z</time></trkpt><trkpt lat="42.662908051913085" lon="11.750231016010105"><ele>495.0</ele><time>2026-04-18T08:00:41.997Z</time></trkpt><trkpt lat="42.662972961482936" lon="11.750119663240621"><ele>494.6</ele><time>2026-04-18T08:00:42.997Z</time></trkpt><trkpt lat="42.66302561168543" lon="11.749999397231733"><ele>494.2</ele><time>2026-04-18T08:00:43.997Z</time></trkpt><trkpt lat="42.66310772492246" lon="11.749902712723818"><ele>493.79999999999995</ele><time>2026-04-18T08:00:44.997Z</time></trkpt><trkpt lat="42.66318016918431" lon="11.749792044841632"><ele>493.4</ele><time>2026-04-18T08:00:45.997Z</time></trkpt><trkpt lat="42.66325713182763" lon="11.749683277674148"><ele>493.0</ele><time>2026-04-18T08:00:46.997Z</time></trkpt><trkpt lat="42.66331558456275" lon="11.749571149693427"><ele>493.0</ele><time>2026-04-18T08:00:47.997Z</time></trkpt><trkpt lat="42.663400722499034" lon="11.749475234204816"><ele>492.99999999999994</ele><time>2026-04-18T08:00:48.997Z</time></trkpt><trkpt lat="42.66346934328152" lon="11.749383667499774"><ele>492.99999999999994</ele><time>2026-04-18T08:00:49.997Z</time></trkpt><trkpt lat="42.66353810452809" lon="11.749284224854375"><ele>493.0</ele><time>2026-04-18T08:00:50.997Z</time></trkpt><trkpt lat="42.66360044286735" lon="11.749182432051498"><ele>493.0</ele><time>2026-04-18T08:00:51.997Z</time></trkpt><trkpt lat="42.66365977307656" lon="11.749092382148563"><ele>493.33333333333337</ele><time>2026-04-18T08:00:52.997Z</time></trkpt><trkpt lat="42.66370108295024" lon="11.749016142595735"><ele>493.6666666666667</ele><time>2026-04-18T08:00:53.997Z</time></trkpt><trkpt lat="42.66375442072263" lon="11.748901818538084"><ele>494.0</ele><time>2026-04-18T08:00:55.999Z</time></trkpt><trkpt lat="42.66379759272786" lon="11.748831968869379"><ele>494.33333333333337</ele><time>2026-04-18T08:00:57.999Z</time></trkpt><trkpt lat="42.663837121407305" lon="11.748743065889844"><ele>494.6666666666667</ele><time>2026-04-18T08:01:00.999Z</time></trkpt><trkpt lat="42.663892066120795" lon="11.748678474950193"><ele>495.0</ele><time>2026-04-18T08:01:02.999Z</time></trkpt><trkpt lat="42.663946352146304" lon="11.74857416619064"><ele>495.2</ele><time>2026-04-18T08:01:04.999Z</time></trkpt><trkpt lat="42.66401584472609" lon="11.748486506143383"><ele>495.4</ele><time>2026-04-18T08:01:07.999Z</time></trkpt><trkpt lat="42.66408422215269" lon="11.74841095210943"><ele>495.6</ele><time>2026-04-18T08:01:09.999Z</time></trkpt><trkpt lat="42.66416704071942" lon="11.748330148998953"><ele>495.8</ele><time>2026-04-18T08:01:11.999Z</time></trkpt><trkpt lat="42.66423986441008" lon="11.748245121751934"><ele>496.0</ele><time>2026-04-18T08:01:13.999Z</time></trkpt><trkpt lat="42.66430425171498" lon="11.748176739842625"><ele>496.0</ele><time>2026-04-18T08:01:14.999Z</time></trkpt><trkpt lat="42.66440640363956" lon="11.748116793682472"><ele>496.0</ele><time>2026-04-18T08:01:15.999Z</time></trkpt><trkpt lat="42.664503171631075" lon="11.748067922748575"><ele>496.0</ele><time>2026-04-18T08:01:16.999Z</time></trkpt><trkpt lat="42.664591466819196" lon="11.748061448262355"><ele>496.0</ele><time>2026-04-18T08:01:17.999Z</time></trkpt><trkpt lat="42.664677355468214" lon="11.748019713947409"><ele>496.0</ele><time>2026-04-18T08:01:18.999Z</time></trkpt><trkpt lat="42.6647607118785" lon="11.747959733248445"><ele>496.0</ele><time>2026-04-18T08:01:19.999Z</time></trkpt><trkpt lat="42.664834336628196" lon="11.747890792173525"><ele>496.0</ele><time>2026-04-18T08:01:20.999Z</time></trkpt><trkpt lat="42.664909336576486" lon="11.747808211612952"><ele>496.0</ele><time>2026-04-18T08:01:21.999Z</time></trkpt><trkpt lat="42.664984922708705" lon="11.747717593267826"><ele>496.0</ele><time>2026-04-18T08:01:22.999Z</time></trkpt><trkpt lat="42.6650603264984" lon="11.747615831349163"><ele>496.0</ele><time>2026-04-18T08:01:23.999Z</time></trkpt><trkpt lat="42.66512371684827" lon="11.747520617819589"><ele>496.0</ele><time>2026-04-18T08:01:24.999Z</time></trkpt><trkpt lat="42.66519179598123" lon="11.747401448040323"><ele>496.0</ele><time>2026-04-18T08:01:25.999Z</time></trkpt><trkpt lat="42.66525564355025" lon="11.747260705186987"><ele>496.0</ele><time>2026-04-18T08:01:26.999Z</time></trkpt><trkpt lat="42.6653105767037" lon="11.74713498925"><ele>496.0</ele><time>2026-04-18T08:01:27.999Z</time></trkpt><trkpt lat="42.66537730235072" lon="11.746988539249402"><ele>495.5</ele><time>2026-04-18T08:01:28.999Z</time></trkpt><trkpt lat="42.66544896326334" lon="11.746832576489307"><ele>495.0</ele><time>2026-04-18T08:01:29.999Z</time></trkpt><trkpt lat="42.66550615540296" lon="11.746711091626807"><ele>494.5</ele><time>2026-04-18T08:01:30.999Z</time></trkpt><trkpt lat="42.66557252286218" lon="11.746587233807805"><ele>494.0</ele><time>2026-04-18T08:01:31.999Z</time></trkpt><trkpt lat="42.665643888770774" lon="11.746467858180036"><ele>494.0</ele><time>2026-04-18T08:01:32.999Z</time></trkpt><trkpt lat="42.66571114781329" lon="11.746363057570825"><ele>494.0</ele><time>2026-04-18T08:01:33.999Z</time></trkpt><trkpt lat="42.66578169465033" lon="11.746258136997623"><ele>494.0</ele><time>2026-04-18T08:01:34.999Z</time></trkpt><trkpt lat="42.66584713759306" lon="11.746167096172059"><ele>494.0</ele><time>2026-04-18T08:01:35.999Z</time></trkpt><trkpt lat="42.66592272178607" lon="11.746074077119173"><ele>494.0</ele><time>2026-04-18T08:01:36.999Z</time></trkpt><trkpt lat="42.66599754173293" lon="11.745985240569194"><ele>494.0</ele><time>2026-04-18T08:01:37.999Z</time></trkpt><trkpt lat="42.666058453426174" lon="11.745894249503744"><ele>494.0</ele><time>2026-04-18T08:01:38.999Z</time></trkpt><trkpt lat="42.66614392164798" lon="11.745829830130965"><ele>494.0</ele><time>2026-04-18T08:01:39.999Z</time></trkpt><trkpt lat="42.66621665603713" lon="11.74573872714148"><ele>494.0</ele><time>2026-04-18T08:01:40.999Z</time></trkpt><trkpt lat="42.66629202143417" lon="11.745643380144053"><ele>494.0</ele><time>2026-04-18T08:01:41.999Z</time></trkpt><trkpt lat="42.66636691432282" lon="11.74555864789785"><ele>493.75</ele><time>2026-04-18T08:01:42.999Z</time></trkpt><trkpt lat="42.66645568021497" lon="11.745457159715047"><ele>493.5</ele><time>2026-04-18T08:01:43.999Z</time></trkpt><trkpt lat="42.66656632720079" lon="11.74530633757174"><ele>493.25</ele><time>2026-04-18T08:01:44.999Z</time></trkpt><trkpt lat="42.66665267978067" lon="11.745155527564101"><ele>493.0</ele><time>2026-04-18T08:01:45.999Z</time></trkpt><trkpt lat="42.666736015650145" lon="11.745035304468097"><ele>493.00000000000006</ele><time>2026-04-18T08:01:46.999Z</time></trkpt><trkpt lat="42.66680493191948" lon="11.744934634671935"><ele>493.0</ele><time>2026-04-18T08:01:47.999Z</time></trkpt><trkpt lat="42.6668512526224" lon="11.74484259612414"><ele>493.0</ele><time>2026-04-18T08:01:48.999Z</time></trkpt><trkpt lat="42.66688561847422" lon="11.74474966745679"><ele>493.0</ele><time>2026-04-18T08:01:49.999Z</time></trkpt><trkpt lat="42.66690038236836" lon="11.744653679211348"><ele>493.00000000000006</ele><time>2026-04-18T08:01:50.999Z</time></trkpt><trkpt lat="42.666905218103786" lon="11.744530088919099"><ele>493.0</ele><time>2026-04-18T08:01:51.998Z</time></trkpt><trkpt lat="42.66690295244384" lon="11.744372935387217"><ele>493.0</ele><time>2026-04-18T08:01:52.998Z</time></trkpt><trkpt lat="42.666902952444424" lon="11.744192908091538"><ele>493.0</ele><time>2026-04-18T08:01:53.998Z</time></trkpt><trkpt lat="42.66690295244607" lon="11.744035681377595"><ele>493.0</ele><time>2026-04-18T08:01:54.998Z</time></trkpt><trkpt lat="42.66690341161142" lon="11.743890352755054"><ele>493.0</ele><time>2026-04-18T08:01:55.998Z</time></trkpt><trkpt lat="42.66690455365" lon="11.743737980481212"><ele>493.0</ele><time>2026-04-18T08:01:56.998Z</time></trkpt><trkpt lat="42.666907440876386" lon="11.743581514276775"><ele>492.99999999999994</ele><time>2026-04-18T08:01:57.998Z</time></trkpt><trkpt lat="42.666913481645466" lon="11.743421277174075"><ele>492.99999999999994</ele><time>2026-04-18T08:01:58.998Z</time></trkpt><trkpt lat="42.66691882823441" lon="11.74327754303959"><ele>493.0</ele><time>2026-04-18T08:01:59.998Z</time></trkpt><trkpt lat="42.66692050879416" lon="11.743153601855234"><ele>493.0</ele><time>2026-04-18T08:02:00.998Z</time></trkpt><trkpt lat="42.66691916625191" lon="11.743029136294542"><ele>492.79999999999995</ele><time>2026-04-18T08:02:01.998Z</time></trkpt><trkpt lat="42.66691699497277" lon="11.742892384619271"><ele>492.59999999999997</ele><time>2026-04-18T08:02:02.998Z</time></trkpt><trkpt lat="42.666913389677504" lon="11.742756210989999"><ele>492.40000000000003</ele><time>2026-04-18T08:02:03.998Z</time></trkpt><trkpt lat="42.66690963978613" lon="11.742614575278722"><ele>492.20000000000005</ele><time>2026-04-18T08:02:04.998Z</time></trkpt><trkpt lat="42.66690646530738" lon="11.742473705789475"><ele>492.0</ele><time>2026-04-18T08:02:05.998Z</time></trkpt><trkpt lat="42.66690479540459" lon="11.742319155927003"><ele>491.8</ele><time>2026-04-18T08:02:06.998Z</time></trkpt><trkpt lat="42.66690770285694" lon="11.742196948696984"><ele>491.6</ele><time>2026-04-18T08:02:07.998Z</time></trkpt><trkpt lat="42.66691132020063" lon="11.74207443386366"><ele>491.40000000000003</ele><time>2026-04-18T08:02:08.998Z</time></trkpt><trkpt lat="42.666914716553414" lon="11.741959404000454"><ele>491.20000000000005</ele><time>2026-04-18T08:02:09.998Z</time></trkpt><trkpt lat="42.666917269137556" lon="11.74181735788823"><ele>491.0</ele><time>2026-04-18T08:02:10.998Z</time></trkpt><trkpt lat="42.66691647480751" lon="11.741679479165494"><ele>491.0</ele><time>2026-04-18T08:02:11.998Z</time></trkpt><trkpt lat="42.66691340065246" lon="11.741593405513532"><ele>491.0</ele><time>2026-04-18T08:02:12.998Z</time></trkpt><trkpt lat="42.66689828440667" lon="11.741455446055967"><ele>491.0</ele><time>2026-04-18T08:02:13.998Z</time></trkpt><trkpt lat="42.666890828416584" lon="11.741320002316055"><ele>491.0</ele><time>2026-04-18T08:02:14.998Z</time></trkpt><trkpt lat="42.66690330639557" lon="11.741196758365964"><ele>491.0</ele><time>2026-04-18T08:02:15.998Z</time></trkpt><trkpt lat="42.66691152030482" lon="11.741059686368969"><ele>491.0</ele><time>2026-04-18T08:02:16.998Z</time></trkpt><trkpt lat="42.66692178620379" lon="11.740954000017151"><ele>491.0</ele><time>2026-04-18T08:02:17.998Z</time></trkpt><trkpt lat="42.66694445597393" lon="11.740837079197506"><ele>491.0</ele><time>2026-04-18T08:02:18.998Z</time></trkpt><trkpt lat="42.666991963004286" lon="11.74068652105757"><ele>491.0</ele><time>2026-04-18T08:02:19.998Z</time></trkpt><trkpt lat="42.66706516494765" lon="11.74051467179889"><ele>491.0</ele><time>2026-04-18T08:02:20.998Z</time></trkpt><trkpt lat="42.667118960681925" lon="11.740391783114815"><ele>490.6</ele><time>2026-04-18T08:02:21.998Z</time></trkpt><trkpt lat="42.66717818758409" lon="11.74026429383759"><ele>490.20000000000005</ele><time>2026-04-18T08:02:22.998Z</time></trkpt><trkpt lat="42.66722952252617" lon="11.74015224946893"><ele>489.79999999999995</ele><time>2026-04-18T08:02:23.998Z</time></trkpt><trkpt lat="42.6672815506385" lon="11.740031793764507"><ele>489.4</ele><time>2026-04-18T08:02:24.998Z</time></trkpt><trkpt lat="42.66733519316169" lon="11.739897362657334"><ele>489.0</ele><time>2026-04-18T08:02:25.998Z</time></trkpt><trkpt lat="42.667398760561845" lon="11.739736979151724"><ele>488.75</ele><time>2026-04-18T08:02:26.998Z</time></trkpt><trkpt lat="42.667468878311155" lon="11.739560068849594"><ele>488.5</ele><time>2026-04-18T08:02:27.998Z</time></trkpt><trkpt lat="42.66752013050705" lon="11.739396877277231"><ele>488.25</ele><time>2026-04-18T08:02:28.998Z</time></trkpt><trkpt lat="42.66757952103609" lon="11.739267028388323"><ele>488.0</ele><time>2026-04-18T08:02:29.998Z</time></trkpt><trkpt lat="42.667626698871054" lon="11.739131520423065"><ele>489.5</ele><time>2026-04-18T08:02:30.998Z</time></trkpt><trkpt lat="42.66768350360291" lon="11.738988631273635"><ele>491.0</ele><time>2026-04-18T08:02:31.998Z</time></trkpt><trkpt lat="42.6677393940053" lon="11.738847749849397"><ele>492.5</ele><time>2026-04-18T08:02:32.998Z</time></trkpt><trkpt lat="42.66779169629337" lon="11.738724060490782"><ele>494.0</ele><time>2026-04-18T08:02:33.998Z</time></trkpt><trkpt lat="42.667844045143596" lon="11.73859261667779"><ele>492.2</ele><time>2026-04-18T08:02:34.998Z</time></trkpt><trkpt lat="42.667909123032416" lon="11.738485729833648"><ele>490.4</ele><time>2026-04-18T08:02:35.998Z</time></trkpt><trkpt lat="42.66796144062311" lon="11.738373282231379"><ele>488.6</ele><time>2026-04-18T08:02:36.998Z</time></trkpt><trkpt lat="42.66802027344753" lon="11.738256791341188"><ele>486.8</ele><time>2026-04-18T08:02:37.998Z</time></trkpt><trkpt lat="42.66805110851551" lon="11.738164086310046"><ele>485.0</ele><time>2026-04-18T08:02:38.998Z</time></trkpt><trkpt lat="42.668109769382966" lon="11.73802275155562"><ele>485.0</ele><time>2026-04-18T08:02:40.998Z</time></trkpt><trkpt lat="42.66816712411434" lon="11.737900085414472"><ele>485.0</ele><time>2026-04-18T08:02:42.997Z</time></trkpt><trkpt lat="42.668092764990334" lon="11.737754642479208"><ele>485.0</ele><time>2026-04-18T08:02:43.997Z</time></trkpt><trkpt lat="42.66808477193462" lon="11.737591489225142"><ele>485.0</ele><time>2026-04-18T08:02:44.997Z</time></trkpt><trkpt lat="42.66805538542525" lon="11.73746528036812"><ele>483.6</ele><time>2026-04-18T08:02:45.997Z</time></trkpt><trkpt lat="42.66800742580565" lon="11.737371133156609"><ele>482.2</ele><time>2026-04-18T08:02:46.997Z</time></trkpt><trkpt lat="42.66797905953139" lon="11.737280035127283"><ele>480.79999999999995</ele><time>2026-04-18T08:02:47.997Z</time></trkpt><trkpt lat="42.66794011830523" lon="11.737117063205472"><ele>479.4</ele><time>2026-04-18T08:02:49.997Z</time></trkpt><trkpt lat="42.66790253285935" lon="11.737007086189578"><ele>478.0</ele><time>2026-04-18T08:02:50.997Z</time></trkpt><trkpt lat="42.667846798271455" lon="11.736863343952264"><ele>477.5</ele><time>2026-04-18T08:02:51.997Z</time></trkpt><trkpt lat="42.667792497389286" lon="11.7367157795256"><ele>477.0</ele><time>2026-04-18T08:02:52.997Z</time></trkpt><trkpt lat="42.667769046979025" lon="11.736555088157345"><ele>476.5</ele><time>2026-04-18T08:02:53.997Z</time></trkpt><trkpt lat="42.66771535237561" lon="11.736397928678587"><ele>476.0</ele><time>2026-04-18T08:02:54.997Z</time></trkpt><trkpt lat="42.66767227702627" lon="11.73623915993187"><ele>476.0</ele><time>2026-04-18T08:02:55.997Z</time></trkpt><trkpt lat="42.667632596017995" lon="11.736080133542849"><ele>476.0</ele><time>2026-04-18T08:02:56.997Z</time></trkpt><trkpt lat="42.66758985605026" lon="11.7359172400253"><ele>476.0</ele><time>2026-04-18T08:02:57.997Z</time></trkpt><trkpt lat="42.66755437278347" lon="11.735770240981758"><ele>476.0</ele><time>2026-04-18T08:02:58.997Z</time></trkpt><trkpt lat="42.66752154224326" lon="11.735637241662484"><ele>476.0</ele><time>2026-04-18T08:02:59.997Z</time></trkpt><trkpt lat="42.66748419540148" lon="11.735512979525769"><ele>476.0</ele><time>2026-04-18T08:03:00.997Z</time></trkpt><trkpt lat="42.66744235747828" lon="11.735377725508762"><ele>476.0</ele><time>2026-04-18T08:03:01.999Z</time></trkpt><trkpt lat="42.667402232719695" lon="11.73523897236009"><ele>476.0</ele><time>2026-04-18T08:03:02.999Z</time></trkpt><trkpt lat="42.667364004957385" lon="11.73510372429517"><ele>476.0</ele><time>2026-04-18T08:03:03.999Z</time></trkpt><trkpt lat="42.66732547879893" lon="11.734968866342186"><ele>476.0</ele><time>2026-04-18T08:03:04.999Z</time></trkpt><trkpt lat="42.66729192464464" lon="11.734833017434195"><ele>476.0</ele><time>2026-04-18T08:03:05.999Z</time></trkpt><trkpt lat="42.667255290521275" lon="11.734695721158088"><ele>476.0</ele><time>2026-04-18T08:03:06.999Z</time></trkpt><trkpt lat="42.66721583716403" lon="11.734561801599371"><ele>476.0</ele><time>2026-04-18T08:03:07.999Z</time></trkpt><trkpt lat="42.66718576025906" lon="11.734438354606695"><ele>476.0</ele><time>2026-04-18T08:03:08.999Z</time></trkpt><trkpt lat="42.66715073264723" lon="11.734330979734603"><ele>475.99999999999994</ele><time>2026-04-18T08:03:09.999Z</time></trkpt><trkpt lat="42.66711809066674" lon="11.734230216068655"><ele>476.0</ele><time>2026-04-18T08:03:10.999Z</time></trkpt><trkpt lat="42.66710301700745" lon="11.734127289645942"><ele>476.0</ele><time>2026-04-18T08:03:11.999Z</time></trkpt><trkpt lat="42.667055573995185" lon="11.733980050519893"><ele>476.0</ele><time>2026-04-18T08:03:13.999Z</time></trkpt><trkpt lat="42.66701977821739" lon="11.733874354095528"><ele>475.99999999999994</ele><time>2026-04-18T08:03:15.999Z</time></trkpt><trkpt lat="42.666983520960954" lon="11.733771225465206"><ele>476.0</ele><time>2026-04-18T08:03:17.999Z</time></trkpt><trkpt lat="42.66694985694719" lon="11.733675472777769"><ele>476.0</ele><time>2026-04-18T08:03:19.999Z</time></trkpt><trkpt lat="42.66691276720312" lon="11.733569976236812"><ele>476.0</ele><time>2026-04-18T08:03:21.999Z</time></trkpt><trkpt lat="42.66687758127774" lon="11.733469894789705"><ele>476.0</ele><time>2026-04-18T08:03:23.999Z</time></trkpt><trkpt lat="42.666833164493625" lon="11.733340751824311"><ele>476.0</ele><time>2026-04-18T08:03:25.999Z</time></trkpt><trkpt lat="42.66679494711152" lon="11.73321720738945"><ele>476.0</ele><time>2026-04-18T08:03:27.999Z</time></trkpt><trkpt lat="42.666758391096636" lon="11.733086941799272"><ele>475.99999999999994</ele><time>2026-04-18T08:03:29.999Z</time></trkpt><trkpt lat="42.66672079437003" lon="11.73298759559935"><ele>476.0</ele><time>2026-04-18T08:03:31.999Z</time></trkpt><trkpt lat="42.66669448213002" lon="11.732867815352304"><ele>476.0</ele><time>2026-04-18T08:03:34.999Z</time></trkpt><trkpt lat="42.66667350728795" lon="11.732781073137128"><ele>476.0</ele><time>2026-04-18T08:03:36.999Z</time></trkpt><trkpt lat="42.66666242621765" lon="11.732681942395963"><ele>475.99999999999994</ele><time>2026-04-18T08:03:38.999Z</time></trkpt><trkpt lat="42.6666524912634" lon="11.732584461129013"><ele>476.0</ele><time>2026-04-18T08:03:40.999Z</time></trkpt><trkpt lat="42.66664999297921" lon="11.732484670854546"><ele>475.20000000000005</ele><time>2026-04-18T08:03:42.999Z</time></trkpt><trkpt lat="42.6666325810506" lon="11.73235379808615"><ele>474.40000000000003</ele><time>2026-04-18T08:03:44.999Z</time></trkpt><trkpt lat="42.66662194444387" lon="11.732238954250896"><ele>473.6</ele><time>2026-04-18T08:03:46.999Z</time></trkpt><trkpt lat="42.66660853414559" lon="11.73210153978316"><ele>472.8</ele><time>2026-04-18T08:03:48.999Z</time></trkpt><trkpt lat="42.66659334935367" lon="11.731952521682128"><ele>472.0</ele><time>2026-04-18T08:03:50.999Z</time></trkpt><trkpt lat="42.66657129162922" lon="11.731811744628944"><ele>471.8</ele><time>2026-04-18T08:03:52.999Z</time></trkpt><trkpt lat="42.66655006777352" lon="11.731662952029"><ele>471.6</ele><time>2026-04-18T08:03:54.999Z</time></trkpt><trkpt lat="42.66652575852035" lon="11.731516225310006"><ele>471.40000000000003</ele><time>2026-04-18T08:03:56.999Z</time></trkpt><trkpt lat="42.666503626418255" lon="11.731408092235815"><ele>471.20000000000005</ele><time>2026-04-18T08:03:58.999Z</time></trkpt><trkpt lat="42.66649730631071" lon="11.73128962913074"><ele>471.0</ele><time>2026-04-18T08:04:00.998Z</time></trkpt><trkpt lat="42.66647612606233" lon="11.731195473973766"><ele>471.0</ele><time>2026-04-18T08:04:02.998Z</time></trkpt><trkpt lat="42.66644723528195" lon="11.731091301029515"><ele>471.0</ele><time>2026-04-18T08:04:04.998Z</time></trkpt><trkpt lat="42.666402921205155" lon="11.730961680436241"><ele>471.0</ele><time>2026-04-18T08:04:06.998Z</time></trkpt><trkpt lat="42.666358992106076" lon="11.730853006891044"><ele>471.0</ele><time>2026-04-18T08:04:08.998Z</time></trkpt><trkpt lat="42.666293678646674" lon="11.730721805308136"><ele>471.0</ele><time>2026-04-18T08:04:10.998Z</time></trkpt><trkpt lat="42.66623694565993" lon="11.730611231468119"><ele>471.1666666666667</ele><time>2026-04-18T08:04:12.998Z</time></trkpt><trkpt lat="42.666179191432356" lon="11.730486415000037"><ele>471.33333333333337</ele><time>2026-04-18T08:04:14.998Z</time></trkpt><trkpt lat="42.666140114201454" lon="11.730416371835421"><ele>471.5</ele><time>2026-04-18T08:04:15.998Z</time></trkpt><trkpt lat="42.66611567723926" lon="11.730332028154733"><ele>471.6666666666667</ele><time>2026-04-18T08:04:16.998Z</time></trkpt><trkpt lat="42.66607631506827" lon="11.730251118764954"><ele>471.83333333333337</ele><time>2026-04-18T08:04:17.998Z</time></trkpt><trkpt lat="42.666041138395215" lon="11.73017708608833"><ele>472.0</ele><time>2026-04-18T08:04:18.998Z</time></trkpt><trkpt lat="42.66598398142222" lon="11.730043358577898"><ele>471.25</ele><time>2026-04-18T08:04:20.998Z</time></trkpt><trkpt lat="42.66593650284491" lon="11.729923219814353"><ele>470.5</ele><time>2026-04-18T08:04:22.998Z</time></trkpt><trkpt lat="42.665884521812124" lon="11.72979032525674"><ele>469.75</ele><time>2026-04-18T08:04:24.998Z</time></trkpt><trkpt lat="42.66582355024955" lon="11.729639410314292"><ele>469.0</ele><time>2026-04-18T08:04:26.998Z</time></trkpt><trkpt lat="42.66576449027307" lon="11.729509439639543"><ele>469.00000000000006</ele><time>2026-04-18T08:04:28.998Z</time></trkpt><trkpt lat="42.66572936267944" lon="11.729435376294342"><ele>469.0</ele><time>2026-04-18T08:04:29.998Z</time></trkpt><trkpt lat="42.66568546033999" lon="11.729359116861051"><ele>469.0</ele><time>2026-04-18T08:04:30.998Z</time></trkpt><trkpt lat="42.66564278121787" lon="11.729287792976038"><ele>469.0</ele><time>2026-04-18T08:04:31.998Z</time></trkpt><trkpt lat="42.66556476811372" lon="11.729159938931812"><ele>469.00000000000006</ele><time>2026-04-18T08:04:33.998Z</time></trkpt><trkpt lat="42.66551621735213" lon="11.72908354313759"><ele>469.0</ele><time>2026-04-18T08:04:34.998Z</time></trkpt><trkpt lat="42.665440206756756" lon="11.728963938840018"><ele>468.25</ele><time>2026-04-18T08:04:36.998Z</time></trkpt><trkpt lat="42.66536314523021" lon="11.728842680572763"><ele>467.5</ele><time>2026-04-18T08:04:38.998Z</time></trkpt><trkpt lat="42.66530718458449" lon="11.728752601478464"><ele>466.75</ele><time>2026-04-18T08:04:39.998Z</time></trkpt><trkpt lat="42.66523442184509" lon="11.728633064877487"><ele>466.0</ele><time>2026-04-18T08:04:40.998Z</time></trkpt><trkpt lat="42.6651546101881" lon="11.728484461442271"><ele>465.33333333333337</ele><time>2026-04-18T08:04:41.998Z</time></trkpt><trkpt lat="42.66507573878932" lon="11.728317736191135"><ele>464.66666666666663</ele><time>2026-04-18T08:04:42.998Z</time></trkpt><trkpt lat="42.664985630846566" lon="11.728094587019447"><ele>464.0</ele><time>2026-04-18T08:04:43.998Z</time></trkpt><trkpt lat="42.66492053576605" lon="11.727901353511161"><ele>463.3333333333333</ele><time>2026-04-18T08:04:44.998Z</time></trkpt><trkpt lat="42.664844955765396" lon="11.727712890562225"><ele>462.66666666666663</ele><time>2026-04-18T08:04:45.998Z</time></trkpt><trkpt lat="42.664787246472216" lon="11.727528227285179"><ele>462.0</ele><time>2026-04-18T08:04:46.998Z</time></trkpt><trkpt lat="42.664720941989394" lon="11.72733877807689"><ele>462.0</ele><time>2026-04-18T08:04:47.998Z</time></trkpt><trkpt lat="42.66464951780446" lon="11.727150881116792"><ele>462.0</ele><time>2026-04-18T08:04:48.998Z</time></trkpt><trkpt lat="42.66457921575201" lon="11.726977663811107"><ele>462.0</ele><time>2026-04-18T08:04:49.998Z</time></trkpt><trkpt lat="42.66451784401367" lon="11.726792119276935"><ele>460.75</ele><time>2026-04-18T08:04:50.998Z</time></trkpt><trkpt lat="42.66442487919469" lon="11.726630851094551"><ele>459.5</ele><time>2026-04-18T08:04:51.998Z</time></trkpt><trkpt lat="42.664352357281096" lon="11.726484289963965"><ele>458.25</ele><time>2026-04-18T08:04:52.998Z</time></trkpt><trkpt lat="42.66428603645122" lon="11.726364156204587"><ele>457.0</ele><time>2026-04-18T08:04:53.997Z</time></trkpt><trkpt lat="42.664232197018684" lon="11.726244305879458"><ele>457.0</ele><time>2026-04-18T08:04:54.997Z</time></trkpt><trkpt lat="42.6641762060625" lon="11.726102290100533"><ele>457.0</ele><time>2026-04-18T08:04:55.997Z</time></trkpt><trkpt lat="42.66412469758246" lon="11.725942449041762"><ele>457.0</ele><time>2026-04-18T08:04:56.997Z</time></trkpt><trkpt lat="42.66407733711765" lon="11.725775807053974"><ele>457.0</ele><time>2026-04-18T08:04:57.997Z</time></trkpt><trkpt lat="42.66402432543926" lon="11.725604858163754"><ele>456.25</ele><time>2026-04-18T08:04:58.997Z</time></trkpt><trkpt lat="42.663976977033805" lon="11.72543477485243"><ele>455.5</ele><time>2026-04-18T08:04:59.997Z</time></trkpt><trkpt lat="42.66393254648182" lon="11.72525887174656"><ele>454.75</ele><time>2026-04-18T08:05:00.997Z</time></trkpt><trkpt lat="42.663906604170755" lon="11.725078626833353"><ele>454.0</ele><time>2026-04-18T08:05:01.997Z</time></trkpt><trkpt lat="42.66386908103512" lon="11.724910530660074"><ele>453.0</ele><time>2026-04-18T08:05:02.997Z</time></trkpt><trkpt lat="42.66383638992626" lon="11.724753254805798"><ele>452.0</ele><time>2026-04-18T08:05:03.997Z</time></trkpt><trkpt lat="42.663807986071475" lon="11.724604480344928"><ele>451.0</ele><time>2026-04-18T08:05:04.997Z</time></trkpt><trkpt lat="42.66378477211667" lon="11.724454415612412"><ele>450.0</ele><time>2026-04-18T08:05:05.997Z</time></trkpt><trkpt lat="42.66376719557693" lon="11.724302150680664"><ele>449.6</ele><time>2026-04-18T08:05:06.997Z</time></trkpt><trkpt lat="42.66375223003777" lon="11.724141989289814"><ele>449.2</ele><time>2026-04-18T08:05:07.999Z</time></trkpt><trkpt lat="42.66373491179401" lon="11.723988270187952"><ele>448.79999999999995</ele><time>2026-04-18T08:05:08.999Z</time></trkpt><trkpt lat="42.66371986831442" lon="11.723840813212096"><ele>448.4</ele><time>2026-04-18T08:05:09.999Z</time></trkpt><trkpt lat="42.66370164536323" lon="11.723700027955449"><ele>448.0</ele><time>2026-04-18T08:05:10.999Z</time></trkpt><trkpt lat="42.66365534421014" lon="11.723551763373232"><ele>445.5</ele><time>2026-04-18T08:05:11.999Z</time></trkpt><trkpt lat="42.66356075816353" lon="11.723430203735912"><ele>443.0</ele><time>2026-04-18T08:05:12.999Z</time></trkpt><trkpt lat="42.6634471527714" lon="11.723322656244171"><ele>440.5</ele><time>2026-04-18T08:05:13.999Z</time></trkpt><trkpt lat="42.66338333411672" lon="11.723190046098978"><ele>438.0</ele><time>2026-04-18T08:05:14.999Z</time></trkpt><trkpt lat="42.66335290938077" lon="11.723097915535277"><ele>438.0</ele><time>2026-04-18T08:05:15.999Z</time></trkpt><trkpt lat="42.663333370041514" lon="11.722992504998139"><ele>437.99999999999994</ele><time>2026-04-18T08:05:16.999Z</time></trkpt><trkpt lat="42.66331441204855" lon="11.722855283815361"><ele>437.99999999999994</ele><time>2026-04-18T08:05:17.999Z</time></trkpt><trkpt lat="42.663279032365324" lon="11.722692767371756"><ele>438.0</ele><time>2026-04-18T08:05:18.999Z</time></trkpt><trkpt lat="42.66325909820363" lon="11.722502890349222"><ele>438.0</ele><time>2026-04-18T08:05:19.999Z</time></trkpt><trkpt lat="42.66325243193941" lon="11.722314698501675"><ele>437.4</ele><time>2026-04-18T08:05:20.999Z</time></trkpt><trkpt lat="42.66323757066159" lon="11.722158050093961"><ele>436.79999999999995</ele><time>2026-04-18T08:05:21.999Z</time></trkpt><trkpt lat="42.66322727486759" lon="11.722001656927828"><ele>436.2</ele><time>2026-04-18T08:05:22.999Z</time></trkpt><trkpt lat="42.66321263731271" lon="11.721869169132871"><ele>435.6</ele><time>2026-04-18T08:05:23.999Z</time></trkpt><trkpt lat="42.663195788176495" lon="11.721747772277523"><ele>435.0</ele><time>2026-04-18T08:05:24.999Z</time></trkpt><trkpt lat="42.663171604875615" lon="11.721657198014388"><ele>434.5</ele><time>2026-04-18T08:05:25.999Z</time></trkpt><trkpt lat="42.66313483255759" lon="11.72153101193702"><ele>434.0</ele><time>2026-04-18T08:05:27.999Z</time></trkpt><trkpt lat="42.663061135940595" lon="11.721499884416708"><ele>433.5</ele><time>2026-04-18T08:05:28.999Z</time></trkpt><trkpt lat="42.662961451629904" lon="11.721487103351878"><ele>433.0</ele><time>2026-04-18T08:05:29.999Z</time></trkpt><trkpt lat="42.66289937601263" lon="11.721472031211738"><ele>432.5</ele><time>2026-04-18T08:05:30.999Z</time></trkpt><trkpt lat="42.662854579142966" lon="11.721399365382908"><ele>432.0</ele><time>2026-04-18T08:05:32.999Z</time></trkpt><trkpt lat="42.662837315972006" lon="11.721298935440661"><ele>432.0</ele><time>2026-04-18T08:05:33.999Z</time></trkpt><trkpt lat="42.66281263606956" lon="11.721170276819423"><ele>432.0</ele><time>2026-04-18T08:05:34.999Z</time></trkpt><trkpt lat="42.66277627676721" lon="11.720995398879266"><ele>432.0</ele><time>2026-04-18T08:05:35.999Z</time></trkpt><trkpt lat="42.66273858294138" lon="11.720842053406285"><ele>432.0</ele><time>2026-04-18T08:05:36.999Z</time></trkpt><trkpt lat="42.66270661225082" lon="11.720708942831571"><ele>431.20000000000005</ele><time>2026-04-18T08:05:37.999Z</time></trkpt><trkpt lat="42.66267639650795" lon="11.720604194128533"><ele>430.40000000000003</ele><time>2026-04-18T08:05:38.999Z</time></trkpt><trkpt lat="42.66265590328655" lon="11.720489145029697"><ele>429.59999999999997</ele><time>2026-04-18T08:05:39.999Z</time></trkpt><trkpt lat="42.66263335584819" lon="11.720367951939876"><ele>428.79999999999995</ele><time>2026-04-18T08:05:40.999Z</time></trkpt><trkpt lat="42.662609511808576" lon="11.720229765595406"><ele>428.0</ele><time>2026-04-18T08:05:41.999Z</time></trkpt><trkpt lat="42.662584990142165" lon="11.720096589648348"><ele>427.99999999999994</ele><time>2026-04-18T08:05:42.999Z</time></trkpt><trkpt lat="42.66256538320861" lon="11.719988212882887"><ele>428.0</ele><time>2026-04-18T08:05:43.999Z</time></trkpt><trkpt lat="42.66254789394691" lon="11.71989460877067"><ele>428.0</ele><time>2026-04-18T08:05:44.999Z</time></trkpt><trkpt lat="42.66253017168449" lon="11.719802716346196"><ele>428.0</ele><time>2026-04-18T08:05:45.999Z</time></trkpt><trkpt lat="42.66252063268239" lon="11.719676662632239"><ele>427.99999999999994</ele><time>2026-04-18T08:05:47.999Z</time></trkpt><trkpt lat="42.662581968415594" lon="11.719627437801025"><ele>428.0</ele><time>2026-04-18T08:05:50.999Z</time></trkpt><trkpt lat="42.66261212045057" lon="11.719735063919648"><ele>428.0</ele><time>2026-04-18T08:05:51.999Z</time></trkpt><trkpt lat="42.66268026127147" lon="11.719821224970872"><ele>428.0</ele><time>2026-04-18T08:05:52.999Z</time></trkpt><trkpt lat="42.6627666995812" lon="11.719906963238259"><ele>428.0</ele><time>2026-04-18T08:05:53.999Z</time></trkpt><trkpt lat="42.66285916083537" lon="11.720007361859572"><ele>428.0</ele><time>2026-04-18T08:05:54.999Z</time></trkpt><trkpt lat="42.662998559211864" lon="11.7201088352538"><ele>427.66666666666663</ele><time>2026-04-18T08:05:55.999Z</time></trkpt><trkpt lat="42.66317791179625" lon="11.72017704161044"><ele>427.33333333333337</ele><time>2026-04-18T08:05:56.999Z</time></trkpt><trkpt lat="42.6633737347089" lon="11.720212968992799"><ele>427.0</ele><time>2026-04-18T08:05:57.999Z</time></trkpt><trkpt lat="42.66361018071768" lon="11.720234923475243"><ele>428.0</ele><time>2026-04-18T08:05:58.999Z</time></trkpt><trkpt lat="42.663854355960176" lon="11.720271328192563"><ele>429.0</ele><time>2026-04-18T08:05:59.999Z</time></trkpt><trkpt lat="42.664068694203976" lon="11.720304587230201"><ele>429.0</ele><time>2026-04-18T08:06:00.999Z</time></trkpt><trkpt lat="42.664260092810395" lon="11.720330141630267"><ele>429.0</ele><time>2026-04-18T08:06:01.999Z</time></trkpt><trkpt lat="42.66444180745093" lon="11.72035134582778"><ele>429.0</ele><time>2026-04-18T08:06:02.999Z</time></trkpt><trkpt lat="42.66460980599472" lon="11.720367396709996"><ele>428.25</ele><time>2026-04-18T08:06:03.999Z</time></trkpt><trkpt lat="42.664765101707154" lon="11.720416982912877"><ele>427.5</ele><time>2026-04-18T08:06:04.998Z</time></trkpt><trkpt lat="42.664902055467415" lon="11.720468434323172"><ele>426.75</ele><time>2026-04-18T08:06:05.998Z</time></trkpt><trkpt lat="42.6650169373431" lon="11.72055373065693"><ele>426.0</ele><time>2026-04-18T08:06:06.998Z</time></trkpt><trkpt lat="42.66511894617877" lon="11.720678560878657"><ele>426.0</ele><time>2026-04-18T08:06:07.998Z</time></trkpt><trkpt lat="42.66522630743445" lon="11.72082210465943"><ele>426.0</ele><time>2026-04-18T08:06:08.998Z</time></trkpt><trkpt lat="42.665356600039615" lon="11.720908290050843"><ele>426.0</ele><time>2026-04-18T08:06:09.998Z</time></trkpt><trkpt lat="42.66549761763761" lon="11.720975623841753"><ele>426.0</ele><time>2026-04-18T08:06:10.998Z</time></trkpt><trkpt lat="42.66562909409869" lon="11.721027827926552"><ele>424.5</ele><time>2026-04-18T08:06:11.998Z</time></trkpt><trkpt lat="42.66574414239257" lon="11.721076541549268"><ele>423.0</ele><time>2026-04-18T08:06:12.998Z</time></trkpt><trkpt lat="42.665851239385645" lon="11.72111105449658"><ele>421.5</ele><time>2026-04-18T08:06:13.998Z</time></trkpt><trkpt lat="42.66596669297598" lon="11.721118366743788"><ele>420.0</ele><time>2026-04-18T08:06:14.998Z</time></trkpt><trkpt lat="42.666079075930604" lon="11.721055919076463"><ele>423.75</ele><time>2026-04-18T08:06:15.998Z</time></trkpt><trkpt lat="42.666179815651766" lon="11.720933240416194"><ele>427.5</ele><time>2026-04-18T08:06:16.998Z</time></trkpt><trkpt lat="42.66626728327253" lon="11.720775306267628"><ele>431.25</ele><time>2026-04-18T08:06:17.998Z</time></trkpt><trkpt lat="42.66635493026285" lon="11.72061703206719"><ele>435.0</ele><time>2026-04-18T08:06:18.998Z</time></trkpt><trkpt lat="42.666448823609606" lon="11.72047152549535"><ele>435.0</ele><time>2026-04-18T08:06:19.998Z</time></trkpt><trkpt lat="42.66655821634417" lon="11.720382773863133"><ele>435.0</ele><time>2026-04-18T08:06:20.998Z</time></trkpt><trkpt lat="42.66667660164933" lon="11.720344079491317"><ele>435.0</ele><time>2026-04-18T08:06:21.998Z</time></trkpt><trkpt lat="42.66680335002416" lon="11.720348963530958"><ele>435.0</ele><time>2026-04-18T08:06:22.998Z</time></trkpt><trkpt lat="42.66693530068016" lon="11.720392999895623"><ele>433.0</ele><time>2026-04-18T08:06:23.998Z</time></trkpt><trkpt lat="42.66707770846543" lon="11.720449185306865"><ele>431.0</ele><time>2026-04-18T08:06:24.998Z</time></trkpt><trkpt lat="42.66722678599" lon="11.720513594007839"><ele>429.0</ele><time>2026-04-18T08:06:25.998Z</time></trkpt><trkpt lat="42.667372691082235" lon="11.720576668557118"><ele>429.0</ele><time>2026-04-18T08:06:26.998Z</time></trkpt><trkpt lat="42.66751883669378" lon="11.720643773591032"><ele>429.0</ele><time>2026-04-18T08:06:27.998Z</time></trkpt><trkpt lat="42.667639976560196" lon="11.720712653138468"><ele>429.0</ele><time>2026-04-18T08:06:28.998Z</time></trkpt><trkpt lat="42.667736247784" lon="11.720813715451886"><ele>429.0</ele><time>2026-04-18T08:06:29.998Z</time></trkpt><trkpt lat="42.6678323268324" lon="11.720927984139403"><ele>430.25</ele><time>2026-04-18T08:06:30.998Z</time></trkpt><trkpt lat="42.66789487977317" lon="11.721086747204414"><ele>431.5</ele><time>2026-04-18T08:06:31.998Z</time></trkpt><trkpt lat="42.668012034545555" lon="11.721181013923518"><ele>432.75</ele><time>2026-04-18T08:06:32.998Z</time></trkpt><trkpt lat="42.66817030723198" lon="11.721239765251179"><ele>434.0</ele><time>2026-04-18T08:06:33.998Z</time></trkpt><trkpt lat="42.66834132638782" lon="11.721277029004689"><ele>434.0</ele><time>2026-04-18T08:06:34.998Z</time></trkpt><trkpt lat="42.668503417343096" lon="11.721336995115543"><ele>434.0</ele><time>2026-04-18T08:06:35.998Z</time></trkpt><trkpt lat="42.668661275372074" lon="11.721356107411077"><ele>434.0</ele><time>2026-04-18T08:06:36.998Z</time></trkpt><trkpt lat="42.6688171180068" lon="11.721401529398092"><ele>433.0</ele><time>2026-04-18T08:06:37.998Z</time></trkpt><trkpt lat="42.668976738358374" lon="11.721470384236909"><ele>432.0</ele><time>2026-04-18T08:06:38.998Z</time></trkpt><trkpt lat="42.66912916577587" lon="11.721515192701988"><ele>431.0</ele><time>2026-04-18T08:06:39.998Z</time></trkpt><trkpt lat="42.669273458391146" lon="11.721531209082864"><ele>431.0</ele><time>2026-04-18T08:06:40.998Z</time></trkpt><trkpt lat="42.66939913113298" lon="11.721567223267419"><ele>431.0</ele><time>2026-04-18T08:06:41.998Z</time></trkpt><trkpt lat="42.6695142650475" lon="11.721569638089017"><ele>431.0</ele><time>2026-04-18T08:06:42.998Z</time></trkpt><trkpt lat="42.66963294756" lon="11.721523133543448"><ele>431.0</ele><time>2026-04-18T08:06:43.998Z</time></trkpt><trkpt lat="42.6697292674125" lon="11.721399217484379"><ele>430.5</ele><time>2026-04-18T08:06:44.998Z</time></trkpt><trkpt lat="42.669788685995236" lon="11.721227416614095"><ele>430.0</ele><time>2026-04-18T08:06:45.998Z</time></trkpt><trkpt lat="42.66982242322352" lon="11.72103124993082"><ele>429.5</ele><time>2026-04-18T08:06:46.998Z</time></trkpt><trkpt lat="42.669865416196465" lon="11.720859878682285"><ele>429.0</ele><time>2026-04-18T08:06:47.998Z</time></trkpt><trkpt lat="42.66994630898078" lon="11.72069836577911"><ele>429.33333333333337</ele><time>2026-04-18T08:06:48.998Z</time></trkpt><trkpt lat="42.670067984893265" lon="11.720597089021865"><ele>429.6666666666667</ele><time>2026-04-18T08:06:49.998Z</time></trkpt><trkpt lat="42.670194574336186" lon="11.720464988718613"><ele>430.0</ele><time>2026-04-18T08:06:50.998Z</time></trkpt><trkpt lat="42.67033253210048" lon="11.720365017780749"><ele>430.0</ele><time>2026-04-18T08:06:51.998Z</time></trkpt><trkpt lat="42.67044408104709" lon="11.72026926169494"><ele>430.0</ele><time>2026-04-18T08:06:52.998Z</time></trkpt><trkpt lat="42.67057817913124" lon="11.720144814395594"><ele>430.0</ele><time>2026-04-18T08:06:53.998Z</time></trkpt><trkpt lat="42.67073803551046" lon="11.720000785695044"><ele>428.33333333333337</ele><time>2026-04-18T08:06:54.998Z</time></trkpt><trkpt lat="42.67089245590668" lon="11.719861945089741"><ele>426.66666666666663</ele><time>2026-04-18T08:06:55.998Z</time></trkpt><trkpt lat="42.67102617826872" lon="11.719739605460683"><ele>425.0</ele><time>2026-04-18T08:06:56.998Z</time></trkpt><trkpt lat="42.67114954986949" lon="11.71962814336221"><ele>425.0</ele><time>2026-04-18T08:06:57.998Z</time></trkpt><trkpt lat="42.671274203297564" lon="11.719552479176983"><ele>425.0</ele><time>2026-04-18T08:06:58.998Z</time></trkpt><trkpt lat="42.67140727346528" lon="11.719522972251184"><ele>425.0</ele><time>2026-04-18T08:06:59.998Z</time></trkpt><trkpt lat="42.67155258929327" lon="11.719527220116985"><ele>425.0</ele><time>2026-04-18T08:07:00.998Z</time></trkpt><trkpt lat="42.67170529960739" lon="11.719551352860305"><ele>425.0</ele><time>2026-04-18T08:07:01.998Z</time></trkpt><trkpt lat="42.67186061870461" lon="11.719578431810007"><ele>425.0</ele><time>2026-04-18T08:07:02.997Z</time></trkpt><trkpt lat="42.67200172612763" lon="11.719649547869118"><ele>425.0</ele><time>2026-04-18T08:07:03.997Z</time></trkpt><trkpt lat="42.672131969552574" lon="11.7197273437767"><ele>425.0</ele><time>2026-04-18T08:07:04.997Z</time></trkpt><trkpt lat="42.67224490659166" lon="11.719837462259411"><ele>426.0</ele><time>2026-04-18T08:07:05.997Z</time></trkpt><trkpt lat="42.67237248740184" lon="11.71994992035405"><ele>427.0</ele><time>2026-04-18T08:07:06.997Z</time></trkpt><trkpt lat="42.67247424893856" lon="11.720096766996352"><ele>428.0</ele><time>2026-04-18T08:07:07.997Z</time></trkpt><trkpt lat="42.672564643576194" lon="11.72024195889264"><ele>429.0</ele><time>2026-04-18T08:07:08.997Z</time></trkpt><trkpt lat="42.672641545928734" lon="11.720385376472986"><ele>429.0</ele><time>2026-04-18T08:07:09.997Z</time></trkpt><trkpt lat="42.672721248874666" lon="11.720509066776673"><ele>429.0</ele><time>2026-04-18T08:07:10.997Z</time></trkpt><trkpt lat="42.6728398208812" lon="11.720566752877318"><ele>429.0</ele><time>2026-04-18T08:07:11.997Z</time></trkpt><trkpt lat="42.67299554989849" lon="11.720582159946261"><ele>429.0</ele><time>2026-04-18T08:07:12.997Z</time></trkpt><trkpt lat="42.67319528634708" lon="11.720555715168159"><ele>427.0</ele><time>2026-04-18T08:07:13.999Z</time></trkpt><trkpt lat="42.67340389112351" lon="11.720555955966073"><ele>425.0</ele><time>2026-04-18T08:07:14.999Z</time></trkpt><trkpt lat="42.67358577631539" lon="11.720538225560336"><ele>423.0</ele><time>2026-04-18T08:07:15.999Z</time></trkpt><trkpt lat="42.67374419168527" lon="11.720508064285152"><ele>423.0</ele><time>2026-04-18T08:07:16.999Z</time></trkpt><trkpt lat="42.673895858027166" lon="11.720501887760895"><ele>423.0</ele><time>2026-04-18T08:07:17.999Z</time></trkpt><trkpt lat="42.674030911478084" lon="11.720484110685215"><ele>423.0</ele><time>2026-04-18T08:07:18.999Z</time></trkpt><trkpt lat="42.67415690833248" lon="11.72040782332649"><ele>423.0</ele><time>2026-04-18T08:07:19.999Z</time></trkpt><trkpt lat="42.6742823881673" lon="11.720281161819642"><ele>421.5</ele><time>2026-04-18T08:07:20.999Z</time></trkpt><trkpt lat="42.674410782514165" lon="11.72014275326874"><ele>420.0</ele><time>2026-04-18T08:07:21.999Z</time></trkpt><trkpt lat="42.674537630872656" lon="11.720052200303215"><ele>418.5</ele><time>2026-04-18T08:07:22.999Z</time></trkpt><trkpt lat="42.67465476841337" lon="11.71996171295164"><ele>417.0</ele><time>2026-04-18T08:07:23.999Z</time></trkpt><trkpt lat="42.67477842499119" lon="11.719902630618588"><ele>417.0</ele><time>2026-04-18T08:07:24.999Z</time></trkpt><trkpt lat="42.674925081601394" lon="11.719868729464125"><ele>417.0</ele><time>2026-04-18T08:07:25.999Z</time></trkpt><trkpt lat="42.675086886329424" lon="11.719835807702957"><ele>417.0</ele><time>2026-04-18T08:07:26.999Z</time></trkpt><trkpt lat="42.67525496490683" lon="11.719802534624291"><ele>417.66666666666663</ele><time>2026-04-18T08:07:27.999Z</time></trkpt><trkpt lat="42.67542192897415" lon="11.719770947501072"><ele>418.3333333333333</ele><time>2026-04-18T08:07:28.999Z</time></trkpt><trkpt lat="42.675579647829814" lon="11.719743171897578"><ele>419.0</ele><time>2026-04-18T08:07:29.999Z</time></trkpt><trkpt lat="42.67572236914375" lon="11.719730502528684"><ele>419.0</ele><time>2026-04-18T08:07:30.999Z</time></trkpt><trkpt lat="42.67586370699977" lon="11.719716563379505"><ele>419.0</ele><time>2026-04-18T08:07:31.999Z</time></trkpt><trkpt lat="42.676014039239426" lon="11.719743632860816"><ele>419.0</ele><time>2026-04-18T08:07:32.999Z</time></trkpt><trkpt lat="42.67616249251797" lon="11.719810547874047"><ele>418.0</ele><time>2026-04-18T08:07:33.999Z</time></trkpt><trkpt lat="42.676316008818446" lon="11.719865580064432"><ele>417.0</ele><time>2026-04-18T08:07:34.999Z</time></trkpt><trkpt lat="42.67647177356312" lon="11.71992680419964"><ele>416.0</ele><time>2026-04-18T08:07:35.999Z</time></trkpt><trkpt lat="42.67663276811956" lon="11.71998884575871"><ele>416.0</ele><time>2026-04-18T08:07:36.999Z</time></trkpt><trkpt lat="42.67679024557602" lon="11.720047085730247"><ele>416.0</ele><time>2026-04-18T08:07:37.999Z</time></trkpt><trkpt lat="42.67695019327222" lon="11.720086972387058"><ele>416.0</ele><time>2026-04-18T08:07:38.999Z</time></trkpt><trkpt lat="42.67710473171578" lon="11.720149629437593"><ele>415.0</ele><time>2026-04-18T08:07:39.999Z</time></trkpt><trkpt lat="42.6772427177752" lon="11.72020822259872"><ele>414.0</ele><time>2026-04-18T08:07:40.999Z</time></trkpt><trkpt lat="42.677372942799146" lon="11.720260708898914"><ele>413.0</ele><time>2026-04-18T08:07:41.999Z</time></trkpt><trkpt lat="42.6775055640583" lon="11.720302683434891"><ele>412.0</ele><time>2026-04-18T08:07:42.999Z</time></trkpt><trkpt lat="42.67764223873721" lon="11.720326956434448"><ele>412.0</ele><time>2026-04-18T08:07:43.999Z</time></trkpt><trkpt lat="42.67777771388826" lon="11.720315975344558"><ele>412.0</ele><time>2026-04-18T08:07:44.999Z</time></trkpt><trkpt lat="42.67791340881845" lon="11.72027513567552"><ele>412.0</ele><time>2026-04-18T08:07:45.999Z</time></trkpt><trkpt lat="42.67804223664179" lon="11.720219608259294"><ele>412.0</ele><time>2026-04-18T08:07:46.999Z</time></trkpt><trkpt lat="42.6781751572496" lon="11.720190645033535"><ele>412.0</ele><time>2026-04-18T08:07:47.999Z</time></trkpt><trkpt lat="42.67830273058056" lon="11.720145702963833"><ele>412.0</ele><time>2026-04-18T08:07:48.999Z</time></trkpt><trkpt lat="42.67843340698105" lon="11.720079355876043"><ele>412.0</ele><time>2026-04-18T08:07:49.999Z</time></trkpt><trkpt lat="42.67857665196529" lon="11.720053135677835"><ele>412.0</ele><time>2026-04-18T08:07:50.999Z</time></trkpt><trkpt lat="42.67871714879216" lon="11.719995441363965"><ele>411.5</ele><time>2026-04-18T08:07:51.999Z</time></trkpt><trkpt lat="42.678861395652135" lon="11.719952715993653"><ele>411.0</ele><time>2026-04-18T08:07:52.999Z</time></trkpt><trkpt lat="42.67899919794085" lon="11.719956231579133"><ele>410.5</ele><time>2026-04-18T08:07:53.999Z</time></trkpt><trkpt lat="42.67915705122766" lon="11.71996224734617"><ele>410.0</ele><time>2026-04-18T08:07:54.999Z</time></trkpt><trkpt lat="42.67931579641513" lon="11.719972822716098"><ele>409.66666666666663</ele><time>2026-04-18T08:07:55.999Z</time></trkpt><trkpt lat="42.679482615205046" lon="11.719985227240775"><ele>409.33333333333337</ele><time>2026-04-18T08:07:56.999Z</time></trkpt><trkpt lat="42.679649045180355" lon="11.720001929976153"><ele>409.0</ele><time>2026-04-18T08:07:57.999Z</time></trkpt><trkpt lat="42.67980820445048" lon="11.720016746603068"><ele>409.0</ele><time>2026-04-18T08:07:58.999Z</time></trkpt><trkpt lat="42.679959752126265" lon="11.720029297121934"><ele>409.0</ele><time>2026-04-18T08:07:59.999Z</time></trkpt><trkpt lat="42.68010502487406" lon="11.720031539149218"><ele>409.0</ele><time>2026-04-18T08:08:00.999Z</time></trkpt><trkpt lat="42.68024560433018" lon="11.72002491945377"><ele>409.0</ele><time>2026-04-18T08:08:01.999Z</time></trkpt><trkpt lat="42.68037916567325" lon="11.720004787264575"><ele>408.25</ele><time>2026-04-18T08:08:02.999Z</time></trkpt><trkpt lat="42.680510790108265" lon="11.719973228821324"><ele>407.5</ele><time>2026-04-18T08:08:03.999Z</time></trkpt><trkpt lat="42.68062847731965" lon="11.719910059197371"><ele>406.75</ele><time>2026-04-18T08:08:04.999Z</time></trkpt><trkpt lat="42.68072888881799" lon="11.71980906719425"><ele>406.0</ele><time>2026-04-18T08:08:05.999Z</time></trkpt><trkpt lat="42.680787404349836" lon="11.719655494450334"><ele>406.0</ele><time>2026-04-18T08:08:06.999Z</time></trkpt><trkpt lat="42.6808092855234" lon="11.71949951071054"><ele>406.0</ele><time>2026-04-18T08:08:07.999Z</time></trkpt><trkpt lat="42.68079050905338" lon="11.719356556401161"><ele>406.0</ele><time>2026-04-18T08:08:08.999Z</time></trkpt><trkpt lat="42.68072037623272" lon="11.719250871849683"><ele>406.0</ele><time>2026-04-18T08:08:09.999Z</time></trkpt><trkpt lat="42.68062337748282" lon="11.719154484983841"><ele>406.0</ele><time>2026-04-18T08:08:10.999Z</time></trkpt><trkpt lat="42.680490831981544" lon="11.719051018101165"><ele>407.0</ele><time>2026-04-18T08:08:11.999Z</time></trkpt><trkpt lat="42.680331179037545" lon="11.71891421504456"><ele>408.0</ele><time>2026-04-18T08:08:12.999Z</time></trkpt><trkpt lat="42.68019139116729" lon="11.718770614185892"><ele>409.0</ele><time>2026-04-18T08:08:13.998Z</time></trkpt><trkpt lat="42.68006880799257" lon="11.718651723206875"><ele>408.0</ele><time>2026-04-18T08:08:14.998Z</time></trkpt><trkpt lat="42.679954726593685" lon="11.71853502308636"><ele>407.0</ele><time>2026-04-18T08:08:15.998Z</time></trkpt><trkpt lat="42.67984685647452" lon="11.71841648344916"><ele>406.0</ele><time>2026-04-18T08:08:16.998Z</time></trkpt><trkpt lat="42.6797796412814" lon="11.71826156518035"><ele>405.0</ele><time>2026-04-18T08:08:17.998Z</time></trkpt><trkpt lat="42.679735931245304" lon="11.718075397619883"><ele>405.0</ele><time>2026-04-18T08:08:18.998Z</time></trkpt><trkpt lat="42.67971765587637" lon="11.717880458324387"><ele>405.0</ele><time>2026-04-18T08:08:19.998Z</time></trkpt><trkpt lat="42.67968108983906" lon="11.717688983825333"><ele>405.0</ele><time>2026-04-18T08:08:20.998Z</time></trkpt><trkpt lat="42.67960311410057" lon="11.71751821217005"><ele>405.0</ele><time>2026-04-18T08:08:21.998Z</time></trkpt><trkpt lat="42.67947420337978" lon="11.717388521184118"><ele>403.0</ele><time>2026-04-18T08:08:22.998Z</time></trkpt><trkpt lat="42.679348302126414" lon="11.717278988254202"><ele>401.0</ele><time>2026-04-18T08:08:23.998Z</time></trkpt><trkpt lat="42.67927830855263" lon="11.717123633028157"><ele>399.0</ele><time>2026-04-18T08:08:24.998Z</time></trkpt><trkpt lat="42.67923931678081" lon="11.716975230185078"><ele>397.0</ele><time>2026-04-18T08:08:25.998Z</time></trkpt><trkpt lat="42.679243274845305" lon="11.716810970092064"><ele>396.0</ele><time>2026-04-18T08:08:26.998Z</time></trkpt><trkpt lat="42.679293423787996" lon="11.716643171726156"><ele>395.0</ele><time>2026-04-18T08:08:27.998Z</time></trkpt><trkpt lat="42.679366589496475" lon="11.716476604391142"><ele>394.0</ele><time>2026-04-18T08:08:28.998Z</time></trkpt><trkpt lat="42.67943119065499" lon="11.716316390394258"><ele>393.0</ele><time>2026-04-18T08:08:29.998Z</time></trkpt><trkpt lat="42.67946758924469" lon="11.716178181634891"><ele>392.25</ele><time>2026-04-18T08:08:30.998Z</time></trkpt><trkpt lat="42.67942008767544" lon="11.716034938722462"><ele>391.5</ele><time>2026-04-18T08:08:31.998Z</time></trkpt><trkpt lat="42.679344762658474" lon="11.715904129228562"><ele>390.75</ele><time>2026-04-18T08:08:32.998Z</time></trkpt><trkpt lat="42.67922915567643" lon="11.715789751840349"><ele>390.0</ele><time>2026-04-18T08:08:33.998Z</time></trkpt><trkpt lat="42.67915745780708" lon="11.715678347814427"><ele>390.0</ele><time>2026-04-18T08:08:34.998Z</time></trkpt><trkpt lat="42.67910219903156" lon="11.715518527741542"><ele>390.0</ele><time>2026-04-18T08:08:35.998Z</time></trkpt><trkpt lat="42.6790919129562" lon="11.715340308890138"><ele>390.0</ele><time>2026-04-18T08:08:36.998Z</time></trkpt><trkpt lat="42.679108370139964" lon="11.715165143623087"><ele>390.0</ele><time>2026-04-18T08:08:37.998Z</time></trkpt><trkpt lat="42.67920413203529" lon="11.715046566839414"><ele>389.66666666666663</ele><time>2026-04-18T08:08:38.998Z</time></trkpt><trkpt lat="42.67928500490235" lon="11.714878729645974"><ele>389.3333333333333</ele><time>2026-04-18T08:08:39.998Z</time></trkpt><trkpt lat="42.67939596853883" lon="11.714728723374153"><ele>389.0</ele><time>2026-04-18T08:08:40.998Z</time></trkpt><trkpt lat="42.679494076985264" lon="11.7145758078906"><ele>392.5</ele><time>2026-04-18T08:08:41.998Z</time></trkpt><trkpt lat="42.67959329647367" lon="11.714428802313023"><ele>396.0</ele><time>2026-04-18T08:08:42.998Z</time></trkpt><trkpt lat="42.67968851470293" lon="11.714275327356294"><ele>399.5</ele><time>2026-04-18T08:08:43.998Z</time></trkpt><trkpt lat="42.679788433113785" lon="11.714133108696778"><ele>403.0</ele><time>2026-04-18T08:08:44.998Z</time></trkpt><trkpt lat="42.67988313901841" lon="11.713982658241227"><ele>403.0</ele><time>2026-04-18T08:08:45.998Z</time></trkpt><trkpt lat="42.67997761137555" lon="11.713834513201327"><ele>403.0</ele><time>2026-04-18T08:08:46.998Z</time></trkpt><trkpt lat="42.6800637800599" lon="11.71369786408931"><ele>403.0</ele><time>2026-04-18T08:08:47.998Z</time></trkpt><trkpt lat="42.680141260843484" lon="11.713584491375727"><ele>403.0</ele><time>2026-04-18T08:08:48.998Z</time></trkpt><trkpt lat="42.68021375124941" lon="11.713476448302414"><ele>401.83333333333337</ele><time>2026-04-18T08:08:49.998Z</time></trkpt><trkpt lat="42.680273923934145" lon="11.713379541886937"><ele>400.6666666666667</ele><time>2026-04-18T08:08:50.998Z</time></trkpt><trkpt lat="42.680326158543046" lon="11.713299110885655"><ele>399.5</ele><time>2026-04-18T08:08:51.998Z</time></trkpt><trkpt lat="42.680373787857114" lon="11.71323474337061"><ele>398.33333333333337</ele><time>2026-04-18T08:08:52.998Z</time></trkpt><trkpt lat="42.680427153160984" lon="11.713175412565082"><ele>397.1666666666667</ele><time>2026-04-18T08:08:53.998Z</time></trkpt><trkpt lat="42.680487540699104" lon="11.713120072058878"><ele>396.0</ele><time>2026-04-18T08:08:54.998Z</time></trkpt><trkpt lat="42.68054911943414" lon="11.713076821271189"><ele>396.0</ele><time>2026-04-18T08:08:55.998Z</time></trkpt><trkpt lat="42.68061543696912" lon="11.713036581522521"><ele>396.0</ele><time>2026-04-18T08:08:56.998Z</time></trkpt><trkpt lat="42.68071522713611" lon="11.713014491556834"><ele>396.0</ele><time>2026-04-18T08:08:58.998Z</time></trkpt><trkpt lat="42.68079441206408" lon="11.713078556807377"><ele>396.0</ele><time>2026-04-18T08:09:01.998Z</time></trkpt><trkpt lat="42.680756977686976" lon="11.713175596326579"><ele>396.0</ele><time>2026-04-18T08:09:02.998Z</time></trkpt><trkpt lat="42.680752472765406" lon="11.713277355913036"><ele>396.0</ele><time>2026-04-18T08:09:03.998Z</time></trkpt><trkpt lat="42.680754461671455" lon="11.713373898624878"><ele>396.0</ele><time>2026-04-18T08:09:04.998Z</time></trkpt><trkpt lat="42.68075455917856" lon="11.713471700856267"><ele>396.0</ele><time>2026-04-18T08:09:05.998Z</time></trkpt><trkpt lat="42.68075770578195" lon="11.713565436097694"><ele>396.0</ele><time>2026-04-18T08:09:06.998Z</time></trkpt><trkpt lat="42.68076727072848" lon="11.713676082574858"><ele>396.0</ele><time>2026-04-18T08:09:07.998Z</time></trkpt><trkpt lat="42.680779798001375" lon="11.713834216340423"><ele>396.0</ele><time>2026-04-18T08:09:09.998Z</time></trkpt><trkpt lat="42.680788296277626" lon="11.713986747152397"><ele>396.0</ele><time>2026-04-18T08:09:11.998Z</time></trkpt><trkpt lat="42.680802435382894" lon="11.714074706432532"><ele>396.0</ele><time>2026-04-18T08:09:14.998Z</time></trkpt><trkpt lat="42.68074453616249" lon="11.713956562212445"><ele>396.0</ele><time>2026-04-18T08:09:27.999Z</time></trkpt><trkpt lat="42.68079560423624" lon="11.71376702485538"><ele>396.0</ele><time>2026-04-18T08:09:28.999Z</time></trkpt><trkpt lat="42.68077787175164" lon="11.713640315357052"><ele>396.0</ele><time>2026-04-18T08:09:29.999Z</time></trkpt><trkpt lat="42.68076775391557" lon="11.713525354873386"><ele>396.0</ele><time>2026-04-18T08:09:30.999Z</time></trkpt><trkpt lat="42.68076244112886" lon="11.713418113589908"><ele>396.0</ele><time>2026-04-18T08:09:31.999Z</time></trkpt><trkpt lat="42.68075553224872" lon="11.713316793536789"><ele>396.0</ele><time>2026-04-18T08:09:32.999Z</time></trkpt><trkpt lat="42.68075732096901" lon="11.713197610881227"><ele>396.0</ele><time>2026-04-18T08:09:34.999Z</time></trkpt><trkpt lat="42.68076086201151" lon="11.713096487109887"><ele>396.0</ele><time>2026-04-18T08:09:37.999Z</time></trkpt><trkpt lat="42.680798107080285" lon="11.713010623570998"><ele>396.0</ele><time>2026-04-18T08:09:40.999Z</time></trkpt><trkpt lat="42.68086801466578" lon="11.713042945200906"><ele>396.0</ele><time>2026-04-18T08:09:41.999Z</time></trkpt><trkpt lat="42.68090635646678" lon="11.713145190795807"><ele>396.0</ele><time>2026-04-18T08:09:42.999Z</time></trkpt><trkpt lat="42.68090721424751" lon="11.71325546768603"><ele>396.0</ele><time>2026-04-18T08:09:43.999Z</time></trkpt><trkpt lat="42.680921770833336" lon="11.713358409474033"><ele>396.0</ele><time>2026-04-18T08:09:44.999Z</time></trkpt><trkpt lat="42.680942280575664" lon="11.713476988598078"><ele>396.0</ele><time>2026-04-18T08:09:45.999Z</time></trkpt><trkpt lat="42.68095791431215" lon="11.713611823272712"><ele>396.0</ele><time>2026-04-18T08:09:46.999Z</time></trkpt><trkpt lat="42.68097842108019" lon="11.713757318549375"><ele>396.8</ele><time>2026-04-18T08:09:47.999Z</time></trkpt><trkpt lat="42.68100299279277" lon="11.713911672187253"><ele>397.6</ele><time>2026-04-18T08:09:48.999Z</time></trkpt><trkpt lat="42.68102925581958" lon="11.714066070533566"><ele>398.4</ele><time>2026-04-18T08:09:49.999Z</time></trkpt><trkpt lat="42.681056894960605" lon="11.714205861711429"><ele>399.2</ele><time>2026-04-18T08:09:50.999Z</time></trkpt><trkpt lat="42.6810855000787" lon="11.714335499422551"><ele>400.0</ele><time>2026-04-18T08:09:51.999Z</time></trkpt><trkpt lat="42.68112572359551" lon="11.714453685428602"><ele>400.33333333333337</ele><time>2026-04-18T08:09:52.999Z</time></trkpt><trkpt lat="42.68116950467811" lon="11.71456358417196"><ele>400.6666666666667</ele><time>2026-04-18T08:09:53.999Z</time></trkpt><trkpt lat="42.68122092021375" lon="11.714663662187085"><ele>401.0</ele><time>2026-04-18T08:09:54.999Z</time></trkpt><trkpt lat="42.68128529557418" lon="11.714735603166451"><ele>401.33333333333337</ele><time>2026-04-18T08:09:55.999Z</time></trkpt><trkpt lat="42.68136599792101" lon="11.714769796882242"><ele>401.6666666666667</ele><time>2026-04-18T08:09:56.999Z</time></trkpt><trkpt lat="42.68145188855554" lon="11.714783999836063"><ele>402.0</ele><time>2026-04-18T08:09:57.999Z</time></trkpt><trkpt lat="42.681536563598144" lon="11.71478481286751"><ele>402.0</ele><time>2026-04-18T08:09:58.999Z</time></trkpt><trkpt lat="42.68160585258741" lon="11.714775119698505"><ele>402.0</ele><time>2026-04-18T08:09:59.999Z</time></trkpt><trkpt lat="42.68172998357989" lon="11.714711156346576"><ele>402.0</ele><time>2026-04-18T08:10:01.999Z</time></trkpt><trkpt lat="42.68179329494152" lon="11.714666779325205"><ele>402.0</ele><time>2026-04-18T08:10:02.999Z</time></trkpt><trkpt lat="42.6818529192955" lon="11.714611531881944"><ele>402.0</ele><time>2026-04-18T08:10:03.999Z</time></trkpt><trkpt lat="42.68194673203785" lon="11.71451849279938"><ele>402.0</ele><time>2026-04-18T08:10:05.999Z</time></trkpt><trkpt lat="42.68184633434488" lon="11.714421071962583"><ele>402.0</ele><time>2026-04-18T08:10:10.999Z</time></trkpt><trkpt lat="42.68177171073523" lon="11.714491964678619"><ele>402.0</ele><time>2026-04-18T08:10:12.999Z</time></trkpt><trkpt lat="42.681686558452135" lon="11.714494126513905"><ele>402.0</ele><time>2026-04-18T08:10:14.999Z</time></trkpt><trkpt lat="42.681601932921296" lon="11.714423833045146"><ele>402.0</ele><time>2026-04-18T08:10:16.999Z</time></trkpt><trkpt lat="42.68153822751487" lon="11.714330319741732"><ele>398.20000000000005</ele><time>2026-04-18T08:10:18.999Z</time></trkpt><trkpt lat="42.68151805838824" lon="11.714227266499512"><ele>394.4</ele><time>2026-04-18T08:10:20.999Z</time></trkpt><trkpt lat="42.68159026499189" lon="11.714146317258948"><ele>390.6</ele><time>2026-04-18T08:10:22.999Z</time></trkpt><trkpt lat="42.68170566539674" lon="11.714105193272431"><ele>386.79999999999995</ele><time>2026-04-18T08:10:24.999Z</time></trkpt><trkpt lat="42.681799031678" lon="11.714015360254773"><ele>383.0</ele><time>2026-04-18T08:10:26.999Z</time></trkpt><trkpt lat="42.681851159791954" lon="11.713929898147242"><ele>383.0</ele><time>2026-04-18T08:10:28.999Z</time></trkpt><trkpt lat="42.681855543863726" lon="11.713801239643509"><ele>383.0</ele><time>2026-04-18T08:10:31.999Z</time></trkpt><trkpt lat="42.68195494869116" lon="11.713661187982687"><ele>383.0</ele><time>2026-04-18T08:10:32.999Z</time></trkpt><trkpt lat="42.68182426024399" lon="11.713641786913788"><ele>383.0</ele><time>2026-04-18T08:10:33.999Z</time></trkpt><trkpt lat="42.68179017481809" lon="11.713555727142163"><ele>383.0</ele><time>2026-04-18T08:10:34.999Z</time></trkpt><trkpt lat="42.68174588121366" lon="11.713461734756878"><ele>380.83333333333337</ele><time>2026-04-18T08:10:35.999Z</time></trkpt><trkpt lat="42.68167415956778" lon="11.71338161537777"><ele>378.6666666666667</ele><time>2026-04-18T08:10:36.999Z</time></trkpt><trkpt lat="42.68160882268013" lon="11.713284876754617"><ele>376.5</ele><time>2026-04-18T08:10:37.999Z</time></trkpt><trkpt lat="42.68156142438996" lon="11.713192799165698"><ele>374.3333333333333</ele><time>2026-04-18T08:10:38.999Z</time></trkpt><trkpt lat="42.68151694206641" lon="11.713102330976586"><ele>372.16666666666663</ele><time>2026-04-18T08:10:39.998Z</time></trkpt><trkpt lat="42.681473288770825" lon="11.712997563721807"><ele>370.0</ele><time>2026-04-18T08:10:40.998Z</time></trkpt><trkpt lat="42.68142397672582" lon="11.712879191820406"><ele>370.0</ele><time>2026-04-18T08:10:41.998Z</time></trkpt><trkpt lat="42.68137085923966" lon="11.712761855402148"><ele>370.0</ele><time>2026-04-18T08:10:42.998Z</time></trkpt><trkpt lat="42.68131536358368" lon="11.712640824746998"><ele>370.0</ele><time>2026-04-18T08:10:43.998Z</time></trkpt><trkpt lat="42.68126129782349" lon="11.712509207904201"><ele>370.0</ele><time>2026-04-18T08:10:44.998Z</time></trkpt><trkpt lat="42.681210567001855" lon="11.712369316023935"><ele>370.0</ele><time>2026-04-18T08:10:45.998Z</time></trkpt><trkpt lat="42.681149767538805" lon="11.712211220863708"><ele>372.75</ele><time>2026-04-18T08:10:46.998Z</time></trkpt><trkpt lat="42.68108587268691" lon="11.712038370394364"><ele>375.5</ele><time>2026-04-18T08:10:47.998Z</time></trkpt><trkpt lat="42.68103507999323" lon="11.71188858204203"><ele>378.25</ele><time>2026-04-18T08:10:48.998Z</time></trkpt><trkpt lat="42.68100398361378" lon="11.711749078088362"><ele>381.0</ele><time>2026-04-18T08:10:49.998Z</time></trkpt><trkpt lat="42.680987608180594" lon="11.7116281000136"><ele>381.0</ele><time>2026-04-18T08:10:50.998Z</time></trkpt><trkpt lat="42.68100863235528" lon="11.711489538866788"><ele>381.0</ele><time>2026-04-18T08:10:52.998Z</time></trkpt><trkpt lat="42.68110894294423" lon="11.71146188801761"><ele>381.0</ele><time>2026-04-18T08:10:54.998Z</time></trkpt><trkpt lat="42.68116177884217" lon="11.711563120023692"><ele>381.0</ele><time>2026-04-18T08:10:55.998Z</time></trkpt><trkpt lat="42.681138285045435" lon="11.711684156778151"><ele>381.0</ele><time>2026-04-18T08:10:56.998Z</time></trkpt><trkpt lat="42.68114623382721" lon="11.711814784703144"><ele>375.0</ele><time>2026-04-18T08:10:57.998Z</time></trkpt><trkpt lat="42.681166484357284" lon="11.711947099930182"><ele>369.0</ele><time>2026-04-18T08:10:58.998Z</time></trkpt><trkpt lat="42.681215527375215" lon="11.712079051259657"><ele>363.0</ele><time>2026-04-18T08:10:59.998Z</time></trkpt><trkpt lat="42.681258751479625" lon="11.71220902175997"><ele>357.0</ele><time>2026-04-18T08:11:00.998Z</time></trkpt><trkpt lat="42.68130711561649" lon="11.712338617338464"><ele>351.0</ele><time>2026-04-18T08:11:01.998Z</time></trkpt><trkpt lat="42.6813634369195" lon="11.71246584539223"><ele>351.0</ele><time>2026-04-18T08:11:02.998Z</time></trkpt><trkpt lat="42.681418432978475" lon="11.712599449950885"><ele>351.0</ele><time>2026-04-18T08:11:03.998Z</time></trkpt><trkpt lat="42.68147477409931" lon="11.712728325126667"><ele>351.0</ele><time>2026-04-18T08:11:04.998Z</time></trkpt><trkpt lat="42.68152935896243" lon="11.712848343096113"><ele>351.0</ele><time>2026-04-18T08:11:05.998Z</time></trkpt><trkpt lat="42.6815774957057" lon="11.71296290855085"><ele>351.0</ele><time>2026-04-18T08:11:06.998Z</time></trkpt><trkpt lat="42.68162000096347" lon="11.713073168032048"><ele>354.8</ele><time>2026-04-18T08:11:07.998Z</time></trkpt><trkpt lat="42.681660768191044" lon="11.713180173827725"><ele>358.6</ele><time>2026-04-18T08:11:08.998Z</time></trkpt><trkpt lat="42.681695231915505" lon="11.713277368662796"><ele>362.4</ele><time>2026-04-18T08:11:09.998Z</time></trkpt><trkpt lat="42.68174717533701" lon="11.713334833609405"><ele>366.2</ele><time>2026-04-18T08:11:10.998Z</time></trkpt><trkpt lat="42.681857872472534" lon="11.713281865587895"><ele>370.0</ele><time>2026-04-18T08:11:12.998Z</time></trkpt><trkpt lat="42.68183792907394" lon="11.713139630800645"><ele>370.0</ele><time>2026-04-18T08:11:13.998Z</time></trkpt><trkpt lat="42.68178002960432" lon="11.713006786466833"><ele>370.0</ele><time>2026-04-18T08:11:14.998Z</time></trkpt><trkpt lat="42.681689119903616" lon="11.712828319064204"><ele>370.0</ele><time>2026-04-18T08:11:15.998Z</time></trkpt><trkpt lat="42.68159533045883" lon="11.712626626253142"><ele>370.0</ele><time>2026-04-18T08:11:16.998Z</time></trkpt><trkpt lat="42.68151483139372" lon="11.712451210073464"><ele>365.25</ele><time>2026-04-18T08:11:17.998Z</time></trkpt><trkpt lat="42.68144419085033" lon="11.712300895312538"><ele>360.5</ele><time>2026-04-18T08:11:18.998Z</time></trkpt><trkpt lat="42.681376611206865" lon="11.712153369426177"><ele>355.75</ele><time>2026-04-18T08:11:19.998Z</time></trkpt><trkpt lat="42.68133454023192" lon="11.712007595874312"><ele>351.0</ele><time>2026-04-18T08:11:20.998Z</time></trkpt><trkpt lat="42.681302978792694" lon="11.711860147098458"><ele>348.4</ele><time>2026-04-18T08:11:21.998Z</time></trkpt><trkpt lat="42.68128835802877" lon="11.711709713610208"><ele>345.8</ele><time>2026-04-18T08:11:22.998Z</time></trkpt><trkpt lat="42.68128894356798" lon="11.711565556803157"><ele>343.2</ele><time>2026-04-18T08:11:23.998Z</time></trkpt><trkpt lat="42.68128955277323" lon="11.7114223202583"><ele>340.59999999999997</ele><time>2026-04-18T08:11:24.998Z</time></trkpt><trkpt lat="42.68129005215612" lon="11.71127646506715"><ele>338.0</ele><time>2026-04-18T08:11:25.999Z</time></trkpt><trkpt lat="42.68128132585071" lon="11.711139059143921"><ele>338.0</ele><time>2026-04-18T08:11:26.999Z</time></trkpt><trkpt lat="42.68128451123692" lon="11.71102173423456"><ele>338.0</ele><time>2026-04-18T08:11:27.999Z</time></trkpt><trkpt lat="42.68129532118607" lon="11.710937137773717"><ele>338.0</ele><time>2026-04-18T08:11:28.999Z</time></trkpt><trkpt lat="42.68137820181751" lon="11.710857122140713"><ele>338.0</ele><time>2026-04-18T08:11:30.999Z</time></trkpt><trkpt lat="42.68144498261646" lon="11.710906091564846"><ele>338.0</ele><time>2026-04-18T08:11:31.999Z</time></trkpt><trkpt lat="42.681475336216245" lon="11.71099637952993"><ele>338.0</ele><time>2026-04-18T08:11:32.999Z</time></trkpt><trkpt lat="42.68146329162727" lon="11.711125371870182"><ele>338.0</ele><time>2026-04-18T08:11:33.999Z</time></trkpt><trkpt lat="42.681414499596066" lon="11.711237189244788"><ele>338.0</ele><time>2026-04-18T08:11:34.999Z</time></trkpt><trkpt lat="42.681374031757606" lon="11.711334935135602"><ele>338.0</ele><time>2026-04-18T08:11:35.999Z</time></trkpt><trkpt lat="42.68134105241893" lon="11.711438584547949"><ele>338.0</ele><time>2026-04-18T08:11:36.999Z</time></trkpt><trkpt lat="42.681330473237416" lon="11.7115459000557"><ele>338.0</ele><time>2026-04-18T08:11:37.999Z</time></trkpt><trkpt lat="42.68134612622065" lon="11.711646345682976"><ele>338.0</ele><time>2026-04-18T08:11:38.999Z</time></trkpt><trkpt lat="42.681402980061065" lon="11.711728946222571"><ele>338.0</ele><time>2026-04-18T08:11:39.999Z</time></trkpt><trkpt lat="42.681495135987085" lon="11.711769269742193"><ele>338.0</ele><time>2026-04-18T08:11:40.999Z</time></trkpt><trkpt lat="42.68157173433129" lon="11.711727723821094"><ele>338.0</ele><time>2026-04-18T08:11:41.999Z</time></trkpt><trkpt lat="42.68161715845154" lon="11.711643980371083"><ele>338.0</ele><time>2026-04-18T08:11:42.999Z</time></trkpt><trkpt lat="42.68160668598511" lon="11.711500082448568"><ele>338.0</ele><time>2026-04-18T08:11:43.999Z</time></trkpt><trkpt lat="42.68160131226801" lon="11.711345142419262"><ele>338.0</ele><time>2026-04-18T08:11:44.999Z</time></trkpt><trkpt lat="42.68159421352653" lon="11.711183764090766"><ele>338.0</ele><time>2026-04-18T08:11:45.999Z</time></trkpt><trkpt lat="42.68159339628757" lon="11.711026981044453"><ele>338.0</ele><time>2026-04-18T08:11:46.999Z</time></trkpt><trkpt lat="42.68156874966546" lon="11.710867264514807"><ele>338.0</ele><time>2026-04-18T08:11:47.999Z</time></trkpt><trkpt lat="42.68154108045325" lon="11.710698571386104"><ele>338.2</ele><time>2026-04-18T08:11:48.999Z</time></trkpt><trkpt lat="42.68151220652217" lon="11.710542541377556"><ele>338.4</ele><time>2026-04-18T08:11:49.999Z</time></trkpt><trkpt lat="42.68149779608301" lon="11.710401673390216"><ele>338.59999999999997</ele><time>2026-04-18T08:11:50.999Z</time></trkpt><trkpt lat="42.6815176105637" lon="11.710269961718174"><ele>338.79999999999995</ele><time>2026-04-18T08:11:51.999Z</time></trkpt><trkpt lat="42.68154268884263" lon="11.710134489151336"><ele>339.0</ele><time>2026-04-18T08:11:52.999Z</time></trkpt><trkpt lat="42.68159967719493" lon="11.71001776884691"><ele>339.0</ele><time>2026-04-18T08:11:53.999Z</time></trkpt><trkpt lat="42.68167630964819" lon="11.709938387657317"><ele>339.0</ele><time>2026-04-18T08:11:54.999Z</time></trkpt><trkpt lat="42.681782149510234" lon="11.709891886947748"><ele>339.0</ele><time>2026-04-18T08:11:55.999Z</time></trkpt><trkpt lat="42.68190729168678" lon="11.709832212806766"><ele>339.0</ele><time>2026-04-18T08:11:56.999Z</time></trkpt><trkpt lat="42.68203155820521" lon="11.709765312021629"><ele>327.3333333333333</ele><time>2026-04-18T08:11:57.999Z</time></trkpt><trkpt lat="42.68216869546071" lon="11.70967440628545"><ele>315.66666666666663</ele><time>2026-04-18T08:11:58.999Z</time></trkpt><trkpt lat="42.682309198409094" lon="11.709579707303986"><ele>304.0</ele><time>2026-04-18T08:11:59.999Z</time></trkpt><trkpt lat="42.6824361118655" lon="11.709491185074258"><ele>303.4</ele><time>2026-04-18T08:12:00.999Z</time></trkpt><trkpt lat="42.68255094082133" lon="11.709405011530755"><ele>302.79999999999995</ele><time>2026-04-18T08:12:01.999Z</time></trkpt><trkpt lat="42.682655254768484" lon="11.709333752439326"><ele>302.20000000000005</ele><time>2026-04-18T08:12:02.999Z</time></trkpt><trkpt lat="42.682741178282114" lon="11.70928572716144"><ele>301.6</ele><time>2026-04-18T08:12:03.999Z</time></trkpt><trkpt lat="42.68282110729287" lon="11.709261115699293"><ele>301.0</ele><time>2026-04-18T08:12:04.999Z</time></trkpt><trkpt lat="42.68290197010548" lon="11.70929917804624"><ele>304.25</ele><time>2026-04-18T08:12:05.999Z</time></trkpt><trkpt lat="42.68294736018443" lon="11.709416156312997"><ele>307.5</ele><time>2026-04-18T08:12:06.999Z</time></trkpt><trkpt lat="42.68299680310474" lon="11.709531625209541"><ele>310.75</ele><time>2026-04-18T08:12:07.999Z</time></trkpt><trkpt lat="42.68305156834184" lon="11.709685653140548"><ele>314.0</ele><time>2026-04-18T08:12:08.999Z</time></trkpt><trkpt lat="42.68311694306434" lon="11.709844021753966"><ele>314.0</ele><time>2026-04-18T08:12:09.999Z</time></trkpt><trkpt lat="42.68318275972827" lon="11.709988163873629"><ele>314.0</ele><time>2026-04-18T08:12:10.999Z</time></trkpt><trkpt lat="42.68324072489266" lon="11.710119193891229"><ele>314.0</ele><time>2026-04-18T08:12:11.999Z</time></trkpt><trkpt lat="42.68329208035299" lon="11.710234411428022"><ele>314.0</ele><time>2026-04-18T08:12:12.999Z</time></trkpt><trkpt lat="42.68335001357299" lon="11.710327765100484"><ele>314.0</ele><time>2026-04-18T08:12:13.999Z</time></trkpt><trkpt lat="42.6834298371368" lon="11.710355273234727"><ele>314.0</ele><time>2026-04-18T08:12:14.999Z</time></trkpt><trkpt lat="42.68350613426013" lon="11.71031099057371"><ele>314.0</ele><time>2026-04-18T08:12:15.999Z</time></trkpt><trkpt lat="42.68357791584338" lon="11.710213097200066"><ele>314.0</ele><time>2026-04-18T08:12:16.999Z</time></trkpt><trkpt lat="42.68365356624576" lon="11.710100156385884"><ele>314.0</ele><time>2026-04-18T08:12:17.999Z</time></trkpt><trkpt lat="42.68373967142989" lon="11.709968444325284"><ele>314.0</ele><time>2026-04-18T08:12:18.999Z</time></trkpt><trkpt lat="42.6838207711922" lon="11.709852287461397"><ele>322.2</ele><time>2026-04-18T08:12:19.999Z</time></trkpt><trkpt lat="42.683887801382554" lon="11.709741766802095"><ele>330.4</ele><time>2026-04-18T08:12:20.999Z</time></trkpt><trkpt lat="42.683928158019455" lon="11.709620513249522"><ele>338.6</ele><time>2026-04-18T08:12:21.999Z</time></trkpt><trkpt lat="42.68394247261909" lon="11.709487629113033"><ele>346.8</ele><time>2026-04-18T08:12:22.999Z</time></trkpt><trkpt lat="42.68392744554378" lon="11.709343735162376"><ele>355.0</ele><time>2026-04-18T08:12:23.999Z</time></trkpt><trkpt lat="42.68389072286243" lon="11.70920164981232"><ele>355.0</ele><time>2026-04-18T08:12:24.999Z</time></trkpt><trkpt lat="42.68383814386657" lon="11.709060988320212"><ele>355.0</ele><time>2026-04-18T08:12:25.999Z</time></trkpt><trkpt lat="42.6838030595275" lon="11.708902423156248"><ele>355.0</ele><time>2026-04-18T08:12:26.999Z</time></trkpt><trkpt lat="42.68377899781667" lon="11.708746210509668"><ele>355.0</ele><time>2026-04-18T08:12:27.999Z</time></trkpt><trkpt lat="42.68376989234931" lon="11.708580310566694"><ele>356.5</ele><time>2026-04-18T08:12:28.999Z</time></trkpt><trkpt lat="42.68374099470419" lon="11.708421251351755"><ele>358.0</ele><time>2026-04-18T08:12:29.999Z</time></trkpt><trkpt lat="42.683681353220955" lon="11.70828020652255"><ele>359.5</ele><time>2026-04-18T08:12:30.999Z</time></trkpt><trkpt lat="42.683606681216254" lon="11.708145022655648"><ele>361.0</ele><time>2026-04-18T08:12:31.999Z</time></trkpt><trkpt lat="42.68354402047252" lon="11.708018756555019"><ele>353.8</ele><time>2026-04-18T08:12:32.999Z</time></trkpt><trkpt lat="42.68347052513946" lon="11.707928974449263"><ele>346.6</ele><time>2026-04-18T08:12:33.999Z</time></trkpt><trkpt lat="42.68338822865709" lon="11.707880502034897"><ele>339.4</ele><time>2026-04-18T08:12:34.999Z</time></trkpt><trkpt lat="42.68326724468308" lon="11.707930510586666"><ele>332.2</ele><time>2026-04-18T08:12:35.999Z</time></trkpt><trkpt lat="42.683161417020585" lon="11.707944578703582"><ele>325.0</ele><time>2026-04-18T08:12:36.999Z</time></trkpt><trkpt lat="42.683063880447556" lon="11.707949430250437"><ele>325.0</ele><time>2026-04-18T08:12:37.999Z</time></trkpt><trkpt lat="42.682962664748175" lon="11.707915111201036"><ele>325.0</ele><time>2026-04-18T08:12:38.999Z</time></trkpt><trkpt lat="42.6828899971197" lon="11.707793265505593"><ele>325.0</ele><time>2026-04-18T08:12:39.999Z</time></trkpt><trkpt lat="42.68282650821581" lon="11.707667832142747"><ele>325.0</ele><time>2026-04-18T08:12:40.999Z</time></trkpt><trkpt lat="42.68275905699492" lon="11.70755913152256"><ele>325.0</ele><time>2026-04-18T08:12:41.999Z</time></trkpt><trkpt lat="42.682713454239945" lon="11.707460022236594"><ele>323.8</ele><time>2026-04-18T08:12:42.999Z</time></trkpt><trkpt lat="42.68270766040017" lon="11.707338855758929"><ele>322.6</ele><time>2026-04-18T08:12:43.999Z</time></trkpt><trkpt lat="42.68273159117509" lon="11.707195151483965"><ele>321.4</ele><time>2026-04-18T08:12:44.999Z</time></trkpt><trkpt lat="42.68276175285906" lon="11.707051774834627"><ele>320.2</ele><time>2026-04-18T08:12:45.999Z</time></trkpt><trkpt lat="42.68278768439463" lon="11.706911380955525"><ele>319.0</ele><time>2026-04-18T08:12:46.999Z</time></trkpt><trkpt lat="42.68281612816635" lon="11.706768269732052"><ele>327.2</ele><time>2026-04-18T08:12:47.999Z</time></trkpt><trkpt lat="42.68285095746949" lon="11.706620744760809"><ele>335.4</ele><time>2026-04-18T08:12:48.999Z</time></trkpt><trkpt lat="42.68289073666067" lon="11.706475284625501"><ele>343.6</ele><time>2026-04-18T08:12:49.999Z</time></trkpt><trkpt lat="42.682953244436725" lon="11.70635107932158"><ele>351.8</ele><time>2026-04-18T08:12:50.999Z</time></trkpt><trkpt lat="42.68303715208705" lon="11.706255946875535"><ele>360.0</ele><time>2026-04-18T08:12:51.999Z</time></trkpt><trkpt lat="42.683140954545685" lon="11.706197025170928"><ele>360.0</ele><time>2026-04-18T08:12:52.999Z</time></trkpt><trkpt lat="42.683256728613635" lon="11.706176377758206"><ele>360.0</ele><time>2026-04-18T08:12:53.998Z</time></trkpt><trkpt lat="42.68337800194386" lon="11.706197141047193"><ele>360.0</ele><time>2026-04-18T08:12:54.998Z</time></trkpt><trkpt lat="42.683499899319806" lon="11.706257241289311"><ele>360.0</ele><time>2026-04-18T08:12:55.998Z</time></trkpt><trkpt lat="42.68363893285388" lon="11.706315370049913"><ele>362.75</ele><time>2026-04-18T08:12:56.998Z</time></trkpt><trkpt lat="42.68378329011936" lon="11.706348070492545"><ele>365.5</ele><time>2026-04-18T08:12:57.998Z</time></trkpt><trkpt lat="42.68392408028415" lon="11.706364398674983"><ele>368.25</ele><time>2026-04-18T08:12:58.998Z</time></trkpt><trkpt lat="42.68404839266908" lon="11.706349049356652"><ele>371.0</ele><time>2026-04-18T08:12:59.998Z</time></trkpt><trkpt lat="42.684152138503" lon="11.70631195738517"><ele>371.0</ele><time>2026-04-18T08:13:00.998Z</time></trkpt><trkpt lat="42.68423200558297" lon="11.706288336090825"><ele>371.0</ele><time>2026-04-18T08:13:01.998Z</time></trkpt><trkpt lat="42.68430402694361" lon="11.706273212968693"><ele>371.0</ele><time>2026-04-18T08:13:02.998Z</time></trkpt><trkpt lat="42.68436372850944" lon="11.706305250760352"><ele>371.0</ele><time>2026-04-18T08:13:03.998Z</time></trkpt><trkpt lat="42.68438158163429" lon="11.70640161521097"><ele>371.0</ele><time>2026-04-18T08:13:04.998Z</time></trkpt><trkpt lat="42.68437265584249" lon="11.706490485422819"><ele>371.0</ele><time>2026-04-18T08:13:05.998Z</time></trkpt><trkpt lat="42.68431041214526" lon="11.706570029313855"><ele>371.0</ele><time>2026-04-18T08:13:06.998Z</time></trkpt><trkpt lat="42.684224540559846" lon="11.706583557708592"><ele>371.0</ele><time>2026-04-18T08:13:07.998Z</time></trkpt><trkpt lat="42.68413308732867" lon="11.706550841916192"><ele>371.0</ele><time>2026-04-18T08:13:08.998Z</time></trkpt><trkpt lat="42.68404002363061" lon="11.706503506550211"><ele>371.0</ele><time>2026-04-18T08:13:09.998Z</time></trkpt><trkpt lat="42.68395208598111" lon="11.706487325844243"><ele>371.0</ele><time>2026-04-18T08:13:10.998Z</time></trkpt><trkpt lat="42.68388220360927" lon="11.706498993947408"><ele>371.0</ele><time>2026-04-18T08:13:11.998Z</time></trkpt><trkpt lat="42.683817650392484" lon="11.706565648480087"><ele>371.0</ele><time>2026-04-18T08:13:12.998Z</time></trkpt><trkpt lat="42.68379013128214" lon="11.706682551595122"><ele>371.0</ele><time>2026-04-18T08:13:13.998Z</time></trkpt><trkpt lat="42.68379236524379" lon="11.70681465697573"><ele>371.0</ele><time>2026-04-18T08:13:14.998Z</time></trkpt><trkpt lat="42.683812619087206" lon="11.70694177876479"><ele>371.0</ele><time>2026-04-18T08:13:15.998Z</time></trkpt><trkpt lat="42.6838144477572" lon="11.707065898429066"><ele>371.0</ele><time>2026-04-18T08:13:16.998Z</time></trkpt><trkpt lat="42.68382696630639" lon="11.707162262639345"><ele>371.0</ele><time>2026-04-18T08:13:17.998Z</time></trkpt><trkpt lat="42.68384453224389" lon="11.707245552573921"><ele>371.0</ele><time>2026-04-18T08:13:18.998Z</time></trkpt><trkpt lat="42.68387984889931" lon="11.707326273104204"><ele>372.0</ele><time>2026-04-18T08:13:19.998Z</time></trkpt><trkpt lat="42.683976137472875" lon="11.707411071733741"><ele>373.0</ele><time>2026-04-18T08:13:20.998Z</time></trkpt><trkpt lat="42.68406738681417" lon="11.707475167828937"><ele>374.0</ele><time>2026-04-18T08:13:21.998Z</time></trkpt><trkpt lat="42.68413834809965" lon="11.70752652147895"><ele>375.0</ele><time>2026-04-18T08:13:22.998Z</time></trkpt><trkpt lat="42.6842698924016" lon="11.707628113640641"><ele>376.0</ele><time>2026-04-18T08:13:24.998Z</time></trkpt><trkpt lat="42.68433755865595" lon="11.707684141773004"><ele>373.5</ele><time>2026-04-18T08:13:25.998Z</time></trkpt><trkpt lat="42.68440922609085" lon="11.70775117600672"><ele>371.0</ele><time>2026-04-18T08:13:26.998Z</time></trkpt><trkpt lat="42.684469031274546" lon="11.707829992845184"><ele>368.5</ele><time>2026-04-18T08:13:27.998Z</time></trkpt><trkpt lat="42.68452799062387" lon="11.70792366912124"><ele>366.0</ele><time>2026-04-18T08:13:28.998Z</time></trkpt><trkpt lat="42.68457834823737" lon="11.708042464862618"><ele>363.5</ele><time>2026-04-18T08:13:29.998Z</time></trkpt><trkpt lat="42.684611978738836" lon="11.708146433205725"><ele>361.0</ele><time>2026-04-18T08:13:30.998Z</time></trkpt><trkpt lat="42.68464145616909" lon="11.70824410673344"><ele>365.5</ele><time>2026-04-18T08:13:32Z</time></trkpt><trkpt lat="42.68467847642601" lon="11.708339449677148"><ele>370.0</ele><time>2026-04-18T08:13:33Z</time></trkpt><trkpt lat="42.684710509704466" lon="11.708450379452456"><ele>374.5</ele><time>2026-04-18T08:13:34Z</time></trkpt><trkpt lat="42.684742360596324" lon="11.708564707386389"><ele>379.0</ele><time>2026-04-18T08:13:35Z</time></trkpt><trkpt lat="42.684767687243045" lon="11.70866849931284"><ele>383.50000000000006</ele><time>2026-04-18T08:13:36Z</time></trkpt><trkpt lat="42.684796744867214" lon="11.70876491524758"><ele>388.0</ele><time>2026-04-18T08:13:37Z</time></trkpt><trkpt lat="42.68482100136242" lon="11.70885279815152"><ele>388.0</ele><time>2026-04-18T08:13:38Z</time></trkpt><trkpt lat="42.68485636699036" lon="11.708933570233604"><ele>388.0</ele><time>2026-04-18T08:13:39Z</time></trkpt><trkpt lat="42.684899778740466" lon="11.709012654406028"><ele>388.0</ele><time>2026-04-18T08:13:40Z</time></trkpt><trkpt lat="42.684957164153694" lon="11.7090749989493"><ele>388.0</ele><time>2026-04-18T08:13:41Z</time></trkpt><trkpt lat="42.68502202513147" lon="11.709127928187778"><ele>388.0</ele><time>2026-04-18T08:13:42Z</time></trkpt><trkpt lat="42.68509456322973" lon="11.709166256402343"><ele>388.0</ele><time>2026-04-18T08:13:43Z</time></trkpt><trkpt lat="42.6851614420348" lon="11.709202868283104"><ele>388.0</ele><time>2026-04-18T08:13:44Z</time></trkpt><trkpt lat="42.685262424095015" lon="11.709228270751158"><ele>388.00000000000006</ele><time>2026-04-18T08:13:46Z</time></trkpt><trkpt lat="42.68536711299274" lon="11.709158845243463"><ele>388.0</ele><time>2026-04-18T08:13:48Z</time></trkpt><trkpt lat="42.685395254595576" lon="11.70907284486504"><ele>388.0</ele><time>2026-04-18T08:13:49Z</time></trkpt><trkpt lat="42.685395239407015" lon="11.708983253192434"><ele>388.0</ele><time>2026-04-18T08:13:50Z</time></trkpt><trkpt lat="42.68537473636416" lon="11.708894945138933"><ele>388.00000000000006</ele><time>2026-04-18T08:13:51Z</time></trkpt><trkpt lat="42.68532739063401" lon="11.708831736647742"><ele>388.0</ele><time>2026-04-18T08:13:52Z</time></trkpt><trkpt lat="42.685261047109776" lon="11.70878421699373"><ele>388.00000000000006</ele><time>2026-04-18T08:13:53Z</time></trkpt><trkpt lat="42.68519614689609" lon="11.70871226747067"><ele>388.0</ele><time>2026-04-18T08:13:54Z</time></trkpt><trkpt lat="42.68513200778559" lon="11.708646863640306"><ele>388.0</ele><time>2026-04-18T08:13:55Z</time></trkpt><trkpt lat="42.68505660153829" lon="11.708583406553727"><ele>388.0</ele><time>2026-04-18T08:13:56Z</time></trkpt><trkpt lat="42.68499910417915" lon="11.708502037331254"><ele>388.00000000000006</ele><time>2026-04-18T08:13:57Z</time></trkpt><trkpt lat="42.684960467794156" lon="11.708403725433838"><ele>388.0</ele><time>2026-04-18T08:13:58Z</time></trkpt><trkpt lat="42.684913386474435" lon="11.708247880610491"><ele>390.6666666666667</ele><time>2026-04-18T08:13:59Z</time></trkpt><trkpt lat="42.684899670375536" lon="11.708070316041079"><ele>393.33333333333337</ele><time>2026-04-18T08:13:59.999Z</time></trkpt><trkpt lat="42.68485949012752" lon="11.707840937938164"><ele>396.0</ele><time>2026-04-18T08:14:00.999Z</time></trkpt><trkpt lat="42.684808163170345" lon="11.707614972101688"><ele>396.6</ele><time>2026-04-18T08:14:01.999Z</time></trkpt><trkpt lat="42.68478070838144" lon="11.707429796982032"><ele>397.20000000000005</ele><time>2026-04-18T08:14:02.999Z</time></trkpt><trkpt lat="42.684754884027974" lon="11.707277388036902"><ele>397.79999999999995</ele><time>2026-04-18T08:14:03.999Z</time></trkpt><trkpt lat="42.68473707484174" lon="11.707138757766373"><ele>398.4</ele><time>2026-04-18T08:14:04.999Z</time></trkpt><trkpt lat="42.68474570126546" lon="11.707044822539173"><ele>399.0</ele><time>2026-04-18T08:14:05.999Z</time></trkpt><trkpt lat="42.68479311956006" lon="11.706986003381633"><ele>399.0</ele><time>2026-04-18T08:14:06.999Z</time></trkpt><trkpt lat="42.68497819018425" lon="11.707032539309196"><ele>399.0</ele><time>2026-04-18T08:14:08.999Z</time></trkpt><trkpt lat="42.685107845393205" lon="11.707067376494768"><ele>399.0</ele><time>2026-04-18T08:14:09.999Z</time></trkpt><trkpt lat="42.685236332192524" lon="11.707112270458808"><ele>401.75</ele><time>2026-04-18T08:14:10.999Z</time></trkpt><trkpt lat="42.68536693262481" lon="11.707171853165354"><ele>404.5</ele><time>2026-04-18T08:14:11.999Z</time></trkpt><trkpt lat="42.68549940809674" lon="11.707220247052781"><ele>407.25</ele><time>2026-04-18T08:14:12.999Z</time></trkpt><trkpt lat="42.68562978460673" lon="11.707241580906738"><ele>410.0</ele><time>2026-04-18T08:14:13.999Z</time></trkpt><trkpt lat="42.68576689504563" lon="11.707187543684988"><ele>410.0</ele><time>2026-04-18T08:14:14.999Z</time></trkpt><trkpt lat="42.68594795515283" lon="11.707087491511473"><ele>410.0</ele><time>2026-04-18T08:14:15.999Z</time></trkpt><trkpt lat="42.686130281217075" lon="11.706976794164234"><ele>410.0</ele><time>2026-04-18T08:14:16.999Z</time></trkpt><trkpt lat="42.68630448640214" lon="11.706882675481657"><ele>411.0</ele><time>2026-04-18T08:14:17.999Z</time></trkpt><trkpt lat="42.686460443679074" lon="11.706805640156158"><ele>412.0</ele><time>2026-04-18T08:14:18.999Z</time></trkpt><trkpt lat="42.68660052478081" lon="11.706740107609118"><ele>413.0</ele><time>2026-04-18T08:14:19.999Z</time></trkpt><trkpt lat="42.686722213342804" lon="11.706661300276325"><ele>414.0</ele><time>2026-04-18T08:14:20.999Z</time></trkpt><trkpt lat="42.686833987039414" lon="11.706546821417833"><ele>414.0</ele><time>2026-04-18T08:14:21.999Z</time></trkpt><trkpt lat="42.6869407165351" lon="11.70638402064262"><ele>414.0</ele><time>2026-04-18T08:14:22.999Z</time></trkpt><trkpt lat="42.68704678660844" lon="11.706220815520519"><ele>414.0</ele><time>2026-04-18T08:14:23.999Z</time></trkpt><trkpt lat="42.68715303782946" lon="11.706060210704171"><ele>414.0</ele><time>2026-04-18T08:14:24.999Z</time></trkpt><trkpt lat="42.68726673423862" lon="11.705911289976186"><ele>414.0</ele><time>2026-04-18T08:14:25.999Z</time></trkpt><trkpt lat="42.68737210455602" lon="11.705777999303526"><ele>414.0</ele><time>2026-04-18T08:14:26.999Z</time></trkpt><trkpt lat="42.68745528919386" lon="11.705654579661584"><ele>414.0</ele><time>2026-04-18T08:14:27.999Z</time></trkpt><trkpt lat="42.68751337241405" lon="11.705501027421182"><ele>414.0</ele><time>2026-04-18T08:14:28.999Z</time></trkpt><trkpt lat="42.68755081740579" lon="11.7053137650797"><ele>414.0</ele><time>2026-04-18T08:14:29.999Z</time></trkpt><trkpt lat="42.68757018359079" lon="11.705102803911355"><ele>414.0</ele><time>2026-04-18T08:14:30.999Z</time></trkpt><trkpt lat="42.68759596895334" lon="11.704888809875223"><ele>413.66666666666663</ele><time>2026-04-18T08:14:31.999Z</time></trkpt><trkpt lat="42.687631328600425" lon="11.704670386337977"><ele>413.3333333333333</ele><time>2026-04-18T08:14:32.999Z</time></trkpt><trkpt lat="42.68766474625323" lon="11.704447284795723"><ele>413.0</ele><time>2026-04-18T08:14:33.999Z</time></trkpt><trkpt lat="42.687697284171776" lon="11.704209268823478"><ele>414.0</ele><time>2026-04-18T08:14:34.999Z</time></trkpt><trkpt lat="42.687732958256625" lon="11.703958082604393"><ele>415.0</ele><time>2026-04-18T08:14:35.999Z</time></trkpt><trkpt lat="42.687770954141776" lon="11.703704654024754"><ele>416.0</ele><time>2026-04-18T08:14:36.999Z</time></trkpt><trkpt lat="42.687810172653315" lon="11.703464815032225"><ele>416.75</ele><time>2026-04-18T08:14:37.999Z</time></trkpt><trkpt lat="42.68784598032838" lon="11.703257819397175"><ele>417.5</ele><time>2026-04-18T08:14:38.999Z</time></trkpt><trkpt lat="42.687878138756" lon="11.703061185884737"><ele>418.25</ele><time>2026-04-18T08:14:39.999Z</time></trkpt><trkpt lat="42.687909845097245" lon="11.702886772106593"><ele>419.0</ele><time>2026-04-18T08:14:40.999Z</time></trkpt><trkpt lat="42.68793235546353" lon="11.70270325926732"><ele>419.0</ele><time>2026-04-18T08:14:41.999Z</time></trkpt><trkpt lat="42.68792463187514" lon="11.702506667475125"><ele>419.0</ele><time>2026-04-18T08:14:42.999Z</time></trkpt><trkpt lat="42.6878964919975" lon="11.702300302552374"><ele>419.0</ele><time>2026-04-18T08:14:43.999Z</time></trkpt><trkpt lat="42.68784348047995" lon="11.702101216619681"><ele>418.66666666666663</ele><time>2026-04-18T08:14:44.999Z</time></trkpt><trkpt lat="42.6877575034204" lon="11.70191876158343"><ele>418.33333333333337</ele><time>2026-04-18T08:14:45.999Z</time></trkpt><trkpt lat="42.68764377895857" lon="11.701761266477869"><ele>418.0</ele><time>2026-04-18T08:14:46.999Z</time></trkpt><trkpt lat="42.687510209122145" lon="11.701632581454158"><ele>418.0</ele><time>2026-04-18T08:14:47.999Z</time></trkpt><trkpt lat="42.68736412616516" lon="11.701523657097194"><ele>418.0</ele><time>2026-04-18T08:14:48.999Z</time></trkpt><trkpt lat="42.687209074648806" lon="11.701426326949093"><ele>418.0</ele><time>2026-04-18T08:14:49.999Z</time></trkpt><trkpt lat="42.687062482418156" lon="11.701312947030871"><ele>417.33333333333337</ele><time>2026-04-18T08:14:50.999Z</time></trkpt><trkpt lat="42.686918051711075" lon="11.701191790059633"><ele>416.66666666666663</ele><time>2026-04-18T08:14:51.999Z</time></trkpt><trkpt lat="42.68676784656711" lon="11.701067644965992"><ele>416.0</ele><time>2026-04-18T08:14:52.999Z</time></trkpt><trkpt lat="42.686613156097984" lon="11.70094550300947"><ele>416.0</ele><time>2026-04-18T08:14:53.999Z</time></trkpt><trkpt lat="42.68646020560021" lon="11.700825400200687"><ele>416.0</ele><time>2026-04-18T08:14:54.999Z</time></trkpt><trkpt lat="42.686306849928215" lon="11.70070280404839"><ele>416.0</ele><time>2026-04-18T08:14:55.999Z</time></trkpt><trkpt lat="42.68615009862591" lon="11.700574304473065"><ele>416.0</ele><time>2026-04-18T08:14:56.999Z</time></trkpt><trkpt lat="42.6859934871806" lon="11.70044969943783"><ele>416.0</ele><time>2026-04-18T08:14:57.999Z</time></trkpt><trkpt lat="42.685821671562934" lon="11.700321913019526"><ele>416.0</ele><time>2026-04-18T08:14:58.999Z</time></trkpt><trkpt lat="42.685634661300426" lon="11.70017877214739"><ele>415.5</ele><time>2026-04-18T08:14:59.999Z</time></trkpt><trkpt lat="42.68543382130031" lon="11.700018852366812"><ele>415.0</ele><time>2026-04-18T08:15:00.999Z</time></trkpt><trkpt lat="42.68522195087686" lon="11.699852359579966"><ele>415.0</ele><time>2026-04-18T08:15:01.999Z</time></trkpt><trkpt lat="42.685003726498195" lon="11.69968496426262"><ele>415.0</ele><time>2026-04-18T08:15:02.999Z</time></trkpt><trkpt lat="42.68477870842199" lon="11.699514446984173"><ele>413.5</ele><time>2026-04-18T08:15:03.999Z</time></trkpt><trkpt lat="42.68454992516422" lon="11.699343341052849"><ele>412.0</ele><time>2026-04-18T08:15:04.999Z</time></trkpt><trkpt lat="42.684334071993746" lon="11.699179963108637"><ele>411.0</ele><time>2026-04-18T08:15:05.999Z</time></trkpt><trkpt lat="42.68414042372775" lon="11.699027691390212"><ele>410.0</ele><time>2026-04-18T08:15:06.999Z</time></trkpt><trkpt lat="42.68395489923877" lon="11.698880749987106"><ele>409.0</ele><time>2026-04-18T08:15:07.998Z</time></trkpt><trkpt lat="42.683767414637536" lon="11.698727097209254"><ele>409.0</ele><time>2026-04-18T08:15:08.998Z</time></trkpt><trkpt lat="42.68357821179535" lon="11.698568906499196"><ele>409.0</ele><time>2026-04-18T08:15:09.998Z</time></trkpt><trkpt lat="42.683390731965424" lon="11.69840214007555"><ele>409.0</ele><time>2026-04-18T08:15:10.998Z</time></trkpt><trkpt lat="42.68320137098635" lon="11.69822384730896"><ele>409.0</ele><time>2026-04-18T08:15:11.998Z</time></trkpt><trkpt lat="42.68301442898416" lon="11.698041209550261"><ele>409.0</ele><time>2026-04-18T08:15:12.998Z</time></trkpt><trkpt lat="42.68282498808452" lon="11.697852586484373"><ele>407.5</ele><time>2026-04-18T08:15:13.998Z</time></trkpt><trkpt lat="42.68261729953431" lon="11.697648673465268"><ele>406.0</ele><time>2026-04-18T08:15:14.998Z</time></trkpt><trkpt lat="42.68241302884898" lon="11.697443457230488"><ele>406.0</ele><time>2026-04-18T08:15:15.998Z</time></trkpt><trkpt lat="42.68222137705589" lon="11.697250294857994"><ele>406.0</ele><time>2026-04-18T08:15:16.998Z</time></trkpt><trkpt lat="42.68204972775968" lon="11.697078691169464"><ele>405.6666666666667</ele><time>2026-04-18T08:15:17.998Z</time></trkpt><trkpt lat="42.681896198800594" lon="11.696927444203865"><ele>405.33333333333337</ele><time>2026-04-18T08:15:18.998Z</time></trkpt><trkpt lat="42.68176351800507" lon="11.696793500941578"><ele>405.0</ele><time>2026-04-18T08:15:19.998Z</time></trkpt><trkpt lat="42.68163955138747" lon="11.696667699864083"><ele>405.0</ele><time>2026-04-18T08:15:20.998Z</time></trkpt><trkpt lat="42.68151891233159" lon="11.696542890906057"><ele>405.0</ele><time>2026-04-18T08:15:21.998Z</time></trkpt><trkpt lat="42.68141146911041" lon="11.696431270871829"><ele>405.0</ele><time>2026-04-18T08:15:22.998Z</time></trkpt><trkpt lat="42.68131427716243" lon="11.696338199284229"><ele>405.0</ele><time>2026-04-18T08:15:23.998Z</time></trkpt><trkpt lat="42.68123298422353" lon="11.696266373325974"><ele>405.0</ele><time>2026-04-18T08:15:24.998Z</time></trkpt><trkpt lat="42.68117532407461" lon="11.696211855269315"><ele>405.0</ele><time>2026-04-18T08:15:25.998Z</time></trkpt><trkpt lat="42.68113047376451" lon="11.696100385834193"><ele>405.0</ele><time>2026-04-18T08:15:27.998Z</time></trkpt><trkpt lat="42.68120495203777" lon="11.696001033049509"><ele>405.0</ele><time>2026-04-18T08:15:29.998Z</time></trkpt><trkpt lat="42.68125652240003" lon="11.695915902647867"><ele>405.0</ele><time>2026-04-18T08:15:30.998Z</time></trkpt><trkpt lat="42.68134123004281" lon="11.69577622870719"><ele>404.5</ele><time>2026-04-18T08:15:31.998Z</time></trkpt><trkpt lat="42.681440647486525" lon="11.695612299432618"><ele>404.0</ele><time>2026-04-18T08:15:32.998Z</time></trkpt><trkpt lat="42.68153016373611" lon="11.695464696242704"><ele>403.5</ele><time>2026-04-18T08:15:33.998Z</time></trkpt><trkpt lat="42.68161300918339" lon="11.695328092705873"><ele>403.0</ele><time>2026-04-18T08:15:34.998Z</time></trkpt><trkpt lat="42.68169302587308" lon="11.695196153408983"><ele>403.0</ele><time>2026-04-18T08:15:35.998Z</time></trkpt><trkpt lat="42.68176874389828" lon="11.695071302281049"><ele>403.0</ele><time>2026-04-18T08:15:36.998Z</time></trkpt><trkpt lat="42.68183499223166" lon="11.6949586720835"><ele>403.0</ele><time>2026-04-18T08:15:38Z</time></trkpt><trkpt lat="42.68188812957625" lon="11.694867660357147"><ele>403.0</ele><time>2026-04-18T08:15:39Z</time></trkpt><trkpt lat="42.68193745495134" lon="11.694781511474027"><ele>403.0</ele><time>2026-04-18T08:15:40Z</time></trkpt><trkpt lat="42.681979224270044" lon="11.694707875930161"><ele>403.0</ele><time>2026-04-18T08:15:41Z</time></trkpt><trkpt lat="42.68201811309396" lon="11.694639318332575"><ele>403.0</ele><time>2026-04-18T08:15:42Z</time></trkpt><trkpt lat="42.68208921171409" lon="11.694513977732976"><ele>403.0</ele><time>2026-04-18T08:15:44Z</time></trkpt><trkpt lat="42.68215624344008" lon="11.694398232576924"><ele>403.0</ele><time>2026-04-18T08:15:46Z</time></trkpt><trkpt lat="42.68222879546428" lon="11.694274838871857"><ele>403.0</ele><time>2026-04-18T08:15:48Z</time></trkpt><trkpt lat="42.68229460034348" lon="11.694170531964337"><ele>403.1666666666667</ele><time>2026-04-18T08:15:50Z</time></trkpt><trkpt lat="42.68238181374686" lon="11.694060880700967"><ele>403.33333333333337</ele><time>2026-04-18T08:15:52Z</time></trkpt><trkpt lat="42.682430954125316" lon="11.693985040367634"><ele>403.5</ele><time>2026-04-18T08:15:53Z</time></trkpt><trkpt lat="42.68249996749013" lon="11.693937919725657"><ele>403.66666666666663</ele><time>2026-04-18T08:15:54Z</time></trkpt><trkpt lat="42.682569277616494" lon="11.693890456058462"><ele>403.8333333333333</ele><time>2026-04-18T08:15:55Z</time></trkpt><trkpt lat="42.6826267680883" lon="11.693836704264308"><ele>404.0</ele><time>2026-04-18T08:15:56Z</time></trkpt><trkpt lat="42.682705824509" lon="11.693793329466454"><ele>404.25</ele><time>2026-04-18T08:15:57Z</time></trkpt><trkpt lat="42.682801831225746" lon="11.693721157521065"><ele>404.5</ele><time>2026-04-18T08:15:58Z</time></trkpt><trkpt lat="42.682904190987095" lon="11.693645186975154"><ele>404.75</ele><time>2026-04-18T08:15:59Z</time></trkpt><trkpt lat="42.683014081091734" lon="11.69356686103075"><ele>405.0</ele><time>2026-04-18T08:16:00Z</time></trkpt><trkpt lat="42.68311598717165" lon="11.693481663754499"><ele>404.5</ele><time>2026-04-18T08:16:01Z</time></trkpt><trkpt lat="42.683196908986524" lon="11.693386503500294"><ele>404.0</ele><time>2026-04-18T08:16:02Z</time></trkpt><trkpt lat="42.68325706138724" lon="11.693241522365506"><ele>403.5</ele><time>2026-04-18T08:16:03Z</time></trkpt><trkpt lat="42.683347706961904" lon="11.693075182724352"><ele>403.0</ele><time>2026-04-18T08:16:04Z</time></trkpt><trkpt lat="42.68341806527793" lon="11.692910660195485"><ele>403.0</ele><time>2026-04-18T08:16:04.999Z</time></trkpt><trkpt lat="42.683470400714896" lon="11.692778792217688"><ele>403.0</ele><time>2026-04-18T08:16:05.999Z</time></trkpt><trkpt lat="42.68351205611671" lon="11.692658721466188"><ele>403.0</ele><time>2026-04-18T08:16:06.999Z</time></trkpt><trkpt lat="42.68355021836585" lon="11.692542475824226"><ele>403.0</ele><time>2026-04-18T08:16:07.999Z</time></trkpt><trkpt lat="42.68358083459075" lon="11.692434224951274"><ele>403.0</ele><time>2026-04-18T08:16:08.999Z</time></trkpt><trkpt lat="42.68359038717435" lon="11.692323712949529"><ele>402.4</ele><time>2026-04-18T08:16:09.999Z</time></trkpt><trkpt lat="42.68357840146787" lon="11.692208893641089"><ele>401.79999999999995</ele><time>2026-04-18T08:16:10.999Z</time></trkpt><trkpt lat="42.68353222881074" lon="11.692094593163763"><ele>401.2</ele><time>2026-04-18T08:16:11.999Z</time></trkpt><trkpt lat="42.68346768150862" lon="11.691988894526155"><ele>400.6</ele><time>2026-04-18T08:16:12.999Z</time></trkpt><trkpt lat="42.68338464935696" lon="11.69184115990341"><ele>400.0</ele><time>2026-04-18T08:16:13.999Z</time></trkpt><trkpt lat="42.68328013804361" lon="11.691672337179567"><ele>399.25</ele><time>2026-04-18T08:16:14.999Z</time></trkpt><trkpt lat="42.68317608117542" lon="11.691548267960416"><ele>398.5</ele><time>2026-04-18T08:16:15.999Z</time></trkpt><trkpt lat="42.683081999965886" lon="11.691398012112725"><ele>397.75</ele><time>2026-04-18T08:16:16.999Z</time></trkpt><trkpt lat="42.68298984442908" lon="11.691242201370772"><ele>397.0</ele><time>2026-04-18T08:16:17.999Z</time></trkpt><trkpt lat="42.682911568128134" lon="11.69104516017885"><ele>398.0</ele><time>2026-04-18T08:16:18.999Z</time></trkpt><trkpt lat="42.68281514837865" lon="11.690819078768937"><ele>399.0</ele><time>2026-04-18T08:16:19.999Z</time></trkpt><trkpt lat="42.68271151470996" lon="11.690595008515402"><ele>400.0</ele><time>2026-04-18T08:16:20.999Z</time></trkpt><trkpt lat="42.6826141328959" lon="11.69042795627157"><ele>400.0</ele><time>2026-04-18T08:16:21.999Z</time></trkpt><trkpt lat="42.682535480627664" lon="11.6902709981754"><ele>400.0</ele><time>2026-04-18T08:16:22.999Z</time></trkpt><trkpt lat="42.682464820912095" lon="11.690136599174226"><ele>400.0</ele><time>2026-04-18T08:16:23.999Z</time></trkpt><trkpt lat="42.68239176055464" lon="11.689990316533443"><ele>400.0</ele><time>2026-04-18T08:16:24.999Z</time></trkpt><trkpt lat="42.68231847689084" lon="11.689826835246427"><ele>399.33333333333337</ele><time>2026-04-18T08:16:25.999Z</time></trkpt><trkpt lat="42.68227403990063" lon="11.689608624644015"><ele>398.66666666666663</ele><time>2026-04-18T08:16:26.999Z</time></trkpt><trkpt lat="42.68219123443931" lon="11.689389011801286"><ele>398.0</ele><time>2026-04-18T08:16:27.999Z</time></trkpt><trkpt lat="42.68212126383321" lon="11.689170344185124"><ele>399.0</ele><time>2026-04-18T08:16:28.999Z</time></trkpt><trkpt lat="42.682039209825156" lon="11.688965156471353"><ele>400.0</ele><time>2026-04-18T08:16:29.999Z</time></trkpt><trkpt lat="42.681957344868565" lon="11.688758410150283"><ele>401.0</ele><time>2026-04-18T08:16:30.999Z</time></trkpt><trkpt lat="42.681872287812475" lon="11.688552360916812"><ele>401.0</ele><time>2026-04-18T08:16:31.999Z</time></trkpt><trkpt lat="42.68179040964427" lon="11.688367719805624"><ele>401.0</ele><time>2026-04-18T08:16:32.999Z</time></trkpt><trkpt lat="42.681701616498685" lon="11.688185456562781"><ele>401.0</ele><time>2026-04-18T08:16:33.999Z</time></trkpt><trkpt lat="42.68162040170079" lon="11.688004245207745"><ele>401.0</ele><time>2026-04-18T08:16:34.999Z</time></trkpt><trkpt lat="42.6815414348807" lon="11.687816234657154"><ele>401.0</ele><time>2026-04-18T08:16:35.999Z</time></trkpt><trkpt lat="42.681488993535396" lon="11.687607328474373"><ele>401.0</ele><time>2026-04-18T08:16:36.999Z</time></trkpt><trkpt lat="42.68140109704769" lon="11.68741695905204"><ele>399.0</ele><time>2026-04-18T08:16:37.999Z</time></trkpt><trkpt lat="42.68133672113175" lon="11.68724509301163"><ele>397.0</ele><time>2026-04-18T08:16:38.999Z</time></trkpt><trkpt lat="42.68126420706993" lon="11.687076435798819"><ele>395.0</ele><time>2026-04-18T08:16:39.999Z</time></trkpt><trkpt lat="42.68119656865627" lon="11.686905826581125"><ele>393.0</ele><time>2026-04-18T08:16:40.999Z</time></trkpt><trkpt lat="42.68114925723074" lon="11.686727626431185"><ele>395.33333333333337</ele><time>2026-04-18T08:16:41.999Z</time></trkpt><trkpt lat="42.68112402072993" lon="11.686523714514497"><ele>397.6666666666667</ele><time>2026-04-18T08:16:42.999Z</time></trkpt><trkpt lat="42.681079544172455" lon="11.686326127550602"><ele>400.0</ele><time>2026-04-18T08:16:43.999Z</time></trkpt><trkpt lat="42.681045098283654" lon="11.6861132045056"><ele>399.0</ele><time>2026-04-18T08:16:44.999Z</time></trkpt><trkpt lat="42.68100434457362" lon="11.685902981558582"><ele>398.0</ele><time>2026-04-18T08:16:45.999Z</time></trkpt><trkpt lat="42.6809608248596" lon="11.685692432222817"><ele>397.0</ele><time>2026-04-18T08:16:46.999Z</time></trkpt><trkpt lat="42.6809143585994" lon="11.685490478350118"><ele>397.0</ele><time>2026-04-18T08:16:47.999Z</time></trkpt><trkpt lat="42.68085991347192" lon="11.68528693794361"><ele>397.0</ele><time>2026-04-18T08:16:48.999Z</time></trkpt><trkpt lat="42.68079722183837" lon="11.685105326374075"><ele>397.0</ele><time>2026-04-18T08:16:49.999Z</time></trkpt><trkpt lat="42.68072267726987" lon="11.684952472351007"><ele>397.0</ele><time>2026-04-18T08:16:50.999Z</time></trkpt><trkpt lat="42.680631473799814" lon="11.684810911163101"><ele>395.6666666666667</ele><time>2026-04-18T08:16:51.999Z</time></trkpt><trkpt lat="42.68050936790271" lon="11.684645293741733"><ele>394.33333333333337</ele><time>2026-04-18T08:16:52.999Z</time></trkpt><trkpt lat="42.68036165095049" lon="11.684460791110588"><ele>393.0</ele><time>2026-04-18T08:16:53.999Z</time></trkpt><trkpt lat="42.68023040227409" lon="11.684291173365645"><ele>393.0</ele><time>2026-04-18T08:16:54.999Z</time></trkpt><trkpt lat="42.68011653159314" lon="11.684141947350792"><ele>393.0</ele><time>2026-04-18T08:16:55.999Z</time></trkpt><trkpt lat="42.68001473423071" lon="11.68400736841856"><ele>393.0</ele><time>2026-04-18T08:16:56.999Z</time></trkpt><trkpt lat="42.67991275419547" lon="11.683898516138546"><ele>393.0</ele><time>2026-04-18T08:16:57.999Z</time></trkpt><trkpt lat="42.67980747073346" lon="11.683804987915853"><ele>393.0</ele><time>2026-04-18T08:16:58.999Z</time></trkpt><trkpt lat="42.6796992908153" lon="11.683724652607376"><ele>393.0</ele><time>2026-04-18T08:16:59.999Z</time></trkpt><trkpt lat="42.67960039024263" lon="11.683641159530328"><ele>393.0</ele><time>2026-04-18T08:17:00.999Z</time></trkpt><trkpt lat="42.6795228538593" lon="11.683508805512206"><ele>393.0</ele><time>2026-04-18T08:17:01.999Z</time></trkpt><trkpt lat="42.67943455590119" lon="11.683359848691667"><ele>392.0</ele><time>2026-04-18T08:17:02.999Z</time></trkpt><trkpt lat="42.679342101820964" lon="11.683185594410588"><ele>391.0</ele><time>2026-04-18T08:17:03.999Z</time></trkpt><trkpt lat="42.679263576731536" lon="11.683005591968653"><ele>390.0</ele><time>2026-04-18T08:17:04.999Z</time></trkpt><trkpt lat="42.67917503116557" lon="11.682842775017379"><ele>388.0</ele><time>2026-04-18T08:17:05.999Z</time></trkpt><trkpt lat="42.67910957034737" lon="11.682690988535143"><ele>386.0</ele><time>2026-04-18T08:17:06.999Z</time></trkpt><trkpt lat="42.67905291881156" lon="11.682587276519882"><ele>384.0</ele><time>2026-04-18T08:17:07.999Z</time></trkpt><trkpt lat="42.678985600404864" lon="11.682525518112975"><ele>382.0</ele><time>2026-04-18T08:17:08.999Z</time></trkpt><trkpt lat="42.67891098204382" lon="11.68248572939466"><ele>380.0</ele><time>2026-04-18T08:17:09.999Z</time></trkpt><trkpt lat="42.6787922490585" lon="11.682524449679807"><ele>380.0</ele><time>2026-04-18T08:17:10.999Z</time></trkpt><trkpt lat="42.678678535510045" lon="11.682547136548775"><ele>380.0</ele><time>2026-04-18T08:17:11.998Z</time></trkpt><trkpt lat="42.67854811805425" lon="11.682587684181078"><ele>380.0</ele><time>2026-04-18T08:17:12.998Z</time></trkpt><trkpt lat="42.67843361023777" lon="11.682627162249094"><ele>380.0</ele><time>2026-04-18T08:17:13.998Z</time></trkpt><trkpt lat="42.67832529571718" lon="11.682655539882434"><ele>381.6</ele><time>2026-04-18T08:17:14.998Z</time></trkpt><trkpt lat="42.67822187716477" lon="11.682693371575219"><ele>383.2</ele><time>2026-04-18T08:17:15.998Z</time></trkpt><trkpt lat="42.67812987018525" lon="11.68273994671334"><ele>384.79999999999995</ele><time>2026-04-18T08:17:16.998Z</time></trkpt><trkpt lat="42.67805227322134" lon="11.682804031226052"><ele>386.4</ele><time>2026-04-18T08:17:17.998Z</time></trkpt><trkpt lat="42.67798657433516" lon="11.682897680116234"><ele>388.0</ele><time>2026-04-18T08:17:18.998Z</time></trkpt><trkpt lat="42.67792446106653" lon="11.683007412791614"><ele>388.00000000000006</ele><time>2026-04-18T08:17:19.998Z</time></trkpt><trkpt lat="42.67785551196164" lon="11.68312822388996"><ele>388.0</ele><time>2026-04-18T08:17:20.998Z</time></trkpt><trkpt lat="42.677791841358896" lon="11.683227682099012"><ele>388.0</ele><time>2026-04-18T08:17:21.998Z</time></trkpt><trkpt lat="42.677735009162134" lon="11.683305739048576"><ele>388.0</ele><time>2026-04-18T08:17:22.998Z</time></trkpt><trkpt lat="42.6776724695249" lon="11.683355520144953"><ele>388.00000000000006</ele><time>2026-04-18T08:17:23.998Z</time></trkpt><trkpt lat="42.67759770934948" lon="11.68334695645898"><ele>388.0</ele><time>2026-04-18T08:17:24.998Z</time></trkpt><trkpt lat="42.67753862258017" lon="11.683313374711874"><ele>388.0</ele><time>2026-04-18T08:17:25.998Z</time></trkpt><trkpt lat="42.67742265194231" lon="11.683222068914597"><ele>388.0</ele><time>2026-04-18T08:17:27.998Z</time></trkpt><trkpt lat="42.67734066388301" lon="11.68318931370223"><ele>388.0</ele><time>2026-04-18T08:17:28.998Z</time></trkpt><trkpt lat="42.67727007070551" lon="11.683126035450785"><ele>388.0</ele><time>2026-04-18T08:17:29.998Z</time></trkpt><trkpt lat="42.67718313537158" lon="11.683076550251407"><ele>388.0</ele><time>2026-04-18T08:17:30.998Z</time></trkpt><trkpt lat="42.6771150587511" lon="11.682999314323526"><ele>388.0</ele><time>2026-04-18T08:17:31.998Z</time></trkpt><trkpt lat="42.67705190525038" lon="11.682933012285936"><ele>388.0</ele><time>2026-04-18T08:17:32.998Z</time></trkpt><trkpt lat="42.67699837768003" lon="11.682831338159177"><ele>388.0</ele><time>2026-04-18T08:17:33.998Z</time></trkpt><trkpt lat="42.67693828615269" lon="11.682703739269503"><ele>388.0</ele><time>2026-04-18T08:17:34.998Z</time></trkpt><trkpt lat="42.67686983121594" lon="11.682557927448194"><ele>388.0</ele><time>2026-04-18T08:17:35.998Z</time></trkpt><trkpt lat="42.67679248961402" lon="11.682376615307554"><ele>388.0</ele><time>2026-04-18T08:17:36.998Z</time></trkpt><trkpt lat="42.67671916549081" lon="11.682170141245226"><ele>388.0</ele><time>2026-04-18T08:17:37.998Z</time></trkpt><trkpt lat="42.67665790154349" lon="11.681971481399104"><ele>388.0</ele><time>2026-04-18T08:17:38.998Z</time></trkpt><trkpt lat="42.67658662917038" lon="11.681802361577539"><ele>386.25</ele><time>2026-04-18T08:17:39.998Z</time></trkpt><trkpt lat="42.67653339048491" lon="11.681634433197146"><ele>384.5</ele><time>2026-04-18T08:17:40.998Z</time></trkpt><trkpt lat="42.676478866954874" lon="11.681458488064951"><ele>382.75</ele><time>2026-04-18T08:17:41.998Z</time></trkpt><trkpt lat="42.67641369277564" lon="11.681304565908835"><ele>381.0</ele><time>2026-04-18T08:17:42.998Z</time></trkpt><trkpt lat="42.676327219355166" lon="11.68119555823535"><ele>381.6666666666667</ele><time>2026-04-18T08:17:44Z</time></trkpt><trkpt lat="42.676219740220304" lon="11.681072942974613"><ele>382.33333333333337</ele><time>2026-04-18T08:17:45Z</time></trkpt><trkpt lat="42.67611960928173" lon="11.680906517761901"><ele>383.0</ele><time>2026-04-18T08:17:46Z</time></trkpt><trkpt lat="42.67601906933856" lon="11.680741597678088"><ele>383.0</ele><time>2026-04-18T08:17:47Z</time></trkpt><trkpt lat="42.675912028719445" lon="11.680638166362435"><ele>383.0</ele><time>2026-04-18T08:17:48Z</time></trkpt><trkpt lat="42.675815332642514" lon="11.680533961944516"><ele>383.0</ele><time>2026-04-18T08:17:49Z</time></trkpt><trkpt lat="42.6757286721834" lon="11.68044109726734"><ele>383.0</ele><time>2026-04-18T08:17:50Z</time></trkpt><trkpt lat="42.67563747272292" lon="11.680319617776991"><ele>381.0</ele><time>2026-04-18T08:17:51Z</time></trkpt><trkpt lat="42.67554789674013" lon="11.680146284786717"><ele>379.0</ele><time>2026-04-18T08:17:52Z</time></trkpt><trkpt lat="42.67546781488459" lon="11.67996991783561"><ele>377.0</ele><time>2026-04-18T08:17:53Z</time></trkpt><trkpt lat="42.67539392382986" lon="11.679817094174899"><ele>375.0</ele><time>2026-04-18T08:17:53.999Z</time></trkpt><trkpt lat="42.67532355234057" lon="11.679676744864121"><ele>375.6</ele><time>2026-04-18T08:17:54.999Z</time></trkpt><trkpt lat="42.67524783586991" lon="11.67955710147563"><ele>376.2</ele><time>2026-04-18T08:17:55.999Z</time></trkpt><trkpt lat="42.67516072218617" lon="11.679468909634934"><ele>376.79999999999995</ele><time>2026-04-18T08:17:56.999Z</time></trkpt><trkpt lat="42.67507197429842" lon="11.67939373474836"><ele>377.4</ele><time>2026-04-18T08:17:57.999Z</time></trkpt><trkpt lat="42.674982464656146" lon="11.679344769501766"><ele>378.0</ele><time>2026-04-18T08:17:58.999Z</time></trkpt><trkpt lat="42.67489741243508" lon="11.679319796028006"><ele>378.0</ele><time>2026-04-18T08:17:59.999Z</time></trkpt><trkpt lat="42.674817525102284" lon="11.679328733439712"><ele>378.0</ele><time>2026-04-18T08:18:00.999Z</time></trkpt><trkpt lat="42.67475229043747" lon="11.67931095885628"><ele>378.0</ele><time>2026-04-18T08:18:01.999Z</time></trkpt><trkpt lat="42.67465425732272" lon="11.679147199071387"><ele>378.0</ele><time>2026-04-18T08:18:03.999Z</time></trkpt><trkpt lat="42.674628154340745" lon="11.679052845265604"><ele>378.0</ele><time>2026-04-18T08:18:04.999Z</time></trkpt><trkpt lat="42.67461583904455" lon="11.678957855739947"><ele>378.0</ele><time>2026-04-18T08:18:05.999Z</time></trkpt><trkpt lat="42.67461689239676" lon="11.678865089401832"><ele>378.0</ele><time>2026-04-18T08:18:06.999Z</time></trkpt><trkpt lat="42.674627954430214" lon="11.678779158732045"><ele>378.0</ele><time>2026-04-18T08:18:07.999Z</time></trkpt><trkpt lat="42.674639570746464" lon="11.678685626248383"><ele>378.0</ele><time>2026-04-18T08:18:08.999Z</time></trkpt><trkpt lat="42.67463114407389" lon="11.6785790169383"><ele>378.0</ele><time>2026-04-18T08:18:09.999Z</time></trkpt><trkpt lat="42.674614559462775" lon="11.678460377342834"><ele>378.0</ele><time>2026-04-18T08:18:10.999Z</time></trkpt><trkpt lat="42.674611181659145" lon="11.678311170108637"><ele>378.0</ele><time>2026-04-18T08:18:11.999Z</time></trkpt><trkpt lat="42.674627981317286" lon="11.67816161472493"><ele>375.79999999999995</ele><time>2026-04-18T08:18:12.999Z</time></trkpt><trkpt lat="42.6746545805442" lon="11.678013757615275"><ele>373.6</ele><time>2026-04-18T08:18:13.999Z</time></trkpt><trkpt lat="42.674689078381675" lon="11.677875345400027"><ele>371.4</ele><time>2026-04-18T08:18:14.999Z</time></trkpt><trkpt lat="42.67473339400538" lon="11.677752683557639"><ele>369.20000000000005</ele><time>2026-04-18T08:18:15.999Z</time></trkpt><trkpt lat="42.67478083146209" lon="11.677639208242123"><ele>367.0</ele><time>2026-04-18T08:18:16.999Z</time></trkpt><trkpt lat="42.67480769147932" lon="11.677514005894235"><ele>364.0</ele><time>2026-04-18T08:18:17.999Z</time></trkpt><trkpt lat="42.67479341709842" lon="11.677387046572967"><ele>361.0</ele><time>2026-04-18T08:18:18.999Z</time></trkpt><trkpt lat="42.67475006655465" lon="11.677264111175143"><ele>358.0</ele><time>2026-04-18T08:18:19.999Z</time></trkpt><trkpt lat="42.674681817780474" lon="11.677148361631566"><ele>355.0</ele><time>2026-04-18T08:18:20.999Z</time></trkpt><trkpt lat="42.67458211929199" lon="11.6770291286246"><ele>352.0</ele><time>2026-04-18T08:18:21.999Z</time></trkpt><trkpt lat="42.674482633841194" lon="11.676909386547937"><ele>352.5</ele><time>2026-04-18T08:18:22.999Z</time></trkpt><trkpt lat="42.67439407996854" lon="11.676809485624766"><ele>353.0</ele><time>2026-04-18T08:18:23.999Z</time></trkpt><trkpt lat="42.67435086877068" lon="11.676659855402848"><ele>353.5</ele><time>2026-04-18T08:18:24.999Z</time></trkpt><trkpt lat="42.67430498667339" lon="11.676480242423269"><ele>354.0</ele><time>2026-04-18T08:18:25.999Z</time></trkpt><trkpt lat="42.67423366585897" lon="11.676251403344342"><ele>353.0</ele><time>2026-04-18T08:18:26.999Z</time></trkpt><trkpt lat="42.67417049767526" lon="11.67600117288954"><ele>352.0</ele><time>2026-04-18T08:18:27.999Z</time></trkpt><trkpt lat="42.67411795700382" lon="11.675791913510766"><ele>351.0</ele><time>2026-04-18T08:18:28.999Z</time></trkpt><trkpt lat="42.67406297311309" lon="11.675570584190988"><ele>351.0</ele><time>2026-04-18T08:18:29.999Z</time></trkpt><trkpt lat="42.67400910853579" lon="11.675360975163342"><ele>351.0</ele><time>2026-04-18T08:18:30.999Z</time></trkpt><trkpt lat="42.673966862817124" lon="11.675194386700653"><ele>351.0</ele><time>2026-04-18T08:18:31.999Z</time></trkpt><trkpt lat="42.673935719210284" lon="11.675050054663032"><ele>351.0</ele><time>2026-04-18T08:18:32.999Z</time></trkpt><trkpt lat="42.673920238496464" lon="11.674922748805294"><ele>351.20000000000005</ele><time>2026-04-18T08:18:33.999Z</time></trkpt><trkpt lat="42.673911495923136" lon="11.674748053647345"><ele>351.40000000000003</ele><time>2026-04-18T08:18:34.999Z</time></trkpt><trkpt lat="42.67388007314232" lon="11.674595945218844"><ele>351.6</ele><time>2026-04-18T08:18:35.999Z</time></trkpt><trkpt lat="42.673847163565654" lon="11.67446564395538"><ele>351.8</ele><time>2026-04-18T08:18:36.999Z</time></trkpt><trkpt lat="42.67380077096322" lon="11.674358484985502"><ele>352.0</ele><time>2026-04-18T08:18:37.999Z</time></trkpt><trkpt lat="42.673738687337156" lon="11.674284087628028"><ele>352.0</ele><time>2026-04-18T08:18:38.999Z</time></trkpt><trkpt lat="42.673657309577926" lon="11.674247720659045"><ele>352.0</ele><time>2026-04-18T08:18:39.999Z</time></trkpt><trkpt lat="42.673562209517904" lon="11.674199290079752"><ele>352.0</ele><time>2026-04-18T08:18:40.999Z</time></trkpt><trkpt lat="42.67347165930594" lon="11.674146455813911"><ele>352.0</ele><time>2026-04-18T08:18:41.999Z</time></trkpt><trkpt lat="42.673382527515834" lon="11.67407960836949"><ele>352.0</ele><time>2026-04-18T08:18:42.999Z</time></trkpt><trkpt lat="42.67329346660038" lon="11.67401686499709"><ele>351.5</ele><time>2026-04-18T08:18:43.999Z</time></trkpt><trkpt lat="42.67319442606714" lon="11.673957672209351"><ele>351.0</ele><time>2026-04-18T08:18:44.999Z</time></trkpt><trkpt lat="42.673087245125856" lon="11.673886409700337"><ele>350.5</ele><time>2026-04-18T08:18:45.999Z</time></trkpt><trkpt lat="42.67297879949438" lon="11.673816716437807"><ele>350.0</ele><time>2026-04-18T08:18:46.999Z</time></trkpt><trkpt lat="42.67287215169746" lon="11.673741617057503"><ele>348.0</ele><time>2026-04-18T08:18:47.999Z</time></trkpt><trkpt lat="42.672759030221016" lon="11.673670592339631"><ele>346.0</ele><time>2026-04-18T08:18:48.999Z</time></trkpt><trkpt lat="42.6726499457318" lon="11.673593130719073"><ele>344.0</ele><time>2026-04-18T08:18:49.999Z</time></trkpt><trkpt lat="42.67254378700568" lon="11.673510575536728"><ele>342.0</ele><time>2026-04-18T08:18:50.999Z</time></trkpt><trkpt lat="42.672447015814505" lon="11.6734233149892"><ele>342.0</ele><time>2026-04-18T08:18:51.999Z</time></trkpt><trkpt lat="42.672347365131316" lon="11.673330726684963"><ele>342.0</ele><time>2026-04-18T08:18:52.999Z</time></trkpt><trkpt lat="42.67224307136834" lon="11.673227672651665"><ele>342.0</ele><time>2026-04-18T08:18:53.999Z</time></trkpt><trkpt lat="42.672139432656394" lon="11.673121762489394"><ele>342.0</ele><time>2026-04-18T08:18:54.999Z</time></trkpt><trkpt lat="42.67204233867464" lon="11.673015550934846"><ele>342.0</ele><time>2026-04-18T08:18:55.999Z</time></trkpt><trkpt lat="42.671950259571005" lon="11.672914969256691"><ele>342.0</ele><time>2026-04-18T08:18:56.999Z</time></trkpt><trkpt lat="42.67185928073714" lon="11.672817743495015"><ele>342.0</ele><time>2026-04-18T08:18:57.999Z</time></trkpt><trkpt lat="42.67176308427609" lon="11.672710444702846"><ele>342.0</ele><time>2026-04-18T08:18:58.999Z</time></trkpt><trkpt lat="42.67166695561516" lon="11.672596888644298"><ele>341.0</ele><time>2026-04-18T08:18:59.999Z</time></trkpt><trkpt lat="42.67156718937913" lon="11.67247703574188"><ele>340.0</ele><time>2026-04-18T08:19:00.999Z</time></trkpt><trkpt lat="42.67147371038062" lon="11.672357277103195"><ele>339.0</ele><time>2026-04-18T08:19:01.999Z</time></trkpt><trkpt lat="42.67138245959519" lon="11.672228043339356"><ele>338.0</ele><time>2026-04-18T08:19:02.999Z</time></trkpt><trkpt lat="42.6712891798997" lon="11.672099964387904"><ele>338.0</ele><time>2026-04-18T08:19:03.999Z</time></trkpt><trkpt lat="42.671195920706225" lon="11.671978766671042"><ele>338.0</ele><time>2026-04-18T08:19:04.999Z</time></trkpt><trkpt lat="42.67111080437367" lon="11.671855920532716"><ele>338.0</ele><time>2026-04-18T08:19:05.999Z</time></trkpt><trkpt lat="42.671045315312526" lon="11.671767661011675"><ele>338.0</ele><time>2026-04-18T08:19:06.999Z</time></trkpt><trkpt lat="42.67097581620876" lon="11.671680309478194"><ele>338.0</ele><time>2026-04-18T08:19:07.999Z</time></trkpt><trkpt lat="42.6709022231495" lon="11.671606471231344"><ele>336.59999999999997</ele><time>2026-04-18T08:19:08.999Z</time></trkpt><trkpt lat="42.670814901583014" lon="11.671516502973798"><ele>335.2</ele><time>2026-04-18T08:19:09.999Z</time></trkpt><trkpt lat="42.67072686917573" lon="11.671423828728427"><ele>333.8</ele><time>2026-04-18T08:19:10.999Z</time></trkpt><trkpt lat="42.670643743244014" lon="11.671325110703474"><ele>332.4</ele><time>2026-04-18T08:19:11.999Z</time></trkpt><trkpt lat="42.6705766372054" lon="11.67124195696603"><ele>331.0</ele><time>2026-04-18T08:19:12.998Z</time></trkpt><trkpt lat="42.670509778816566" lon="11.671165673810842"><ele>331.0</ele><time>2026-04-18T08:19:13.998Z</time></trkpt><trkpt lat="42.67045059151357" lon="11.6711144172192"><ele>331.0</ele><time>2026-04-18T08:19:14.998Z</time></trkpt><trkpt lat="42.670331198388965" lon="11.671106229494995"><ele>331.0</ele><time>2026-04-18T08:19:16.998Z</time></trkpt><trkpt lat="42.670270495037066" lon="11.67116678724288"><ele>331.0</ele><time>2026-04-18T08:19:17.998Z</time></trkpt><trkpt lat="42.67024658195615" lon="11.67127297988544"><ele>331.0</ele><time>2026-04-18T08:19:18.998Z</time></trkpt><trkpt lat="42.6702058109574" lon="11.671378500351532"><ele>331.0</ele><time>2026-04-18T08:19:19.998Z</time></trkpt><trkpt lat="42.67015084379404" lon="11.671487026370237"><ele>330.20000000000005</ele><time>2026-04-18T08:19:20.998Z</time></trkpt><trkpt lat="42.67006787323072" lon="11.671583477323935"><ele>329.40000000000003</ele><time>2026-04-18T08:19:21.998Z</time></trkpt><trkpt lat="42.66998901073292" lon="11.671654433842004"><ele>328.6</ele><time>2026-04-18T08:19:22.998Z</time></trkpt><trkpt lat="42.66990583647643" lon="11.671712048573964"><ele>327.8</ele><time>2026-04-18T08:19:23.998Z</time></trkpt><trkpt lat="42.66981754060208" lon="11.671784363976137"><ele>327.0</ele><time>2026-04-18T08:19:24.998Z</time></trkpt><trkpt lat="42.6697148551286" lon="11.671883860394292"><ele>326.75</ele><time>2026-04-18T08:19:25.998Z</time></trkpt><trkpt lat="42.66961756060371" lon="11.672009257760196"><ele>326.5</ele><time>2026-04-18T08:19:26.998Z</time></trkpt><trkpt lat="42.66953452266171" lon="11.672084225438466"><ele>326.25</ele><time>2026-04-18T08:19:27.998Z</time></trkpt><trkpt lat="42.66945644865148" lon="11.67215309972938"><ele>326.0</ele><time>2026-04-18T08:19:28.998Z</time></trkpt><trkpt lat="42.66932915653201" lon="11.672186158759931"><ele>327.0</ele><time>2026-04-18T08:19:29.998Z</time></trkpt><trkpt lat="42.66918936173877" lon="11.672228312939653"><ele>328.0</ele><time>2026-04-18T08:19:30.998Z</time></trkpt><trkpt lat="42.66903941470544" lon="11.672278399488583"><ele>329.0</ele><time>2026-04-18T08:19:31.998Z</time></trkpt><trkpt lat="42.668905240626444" lon="11.672328721657061"><ele>330.0</ele><time>2026-04-18T08:19:32.998Z</time></trkpt><trkpt lat="42.66879940500116" lon="11.67236823878031"><ele>330.0</ele><time>2026-04-18T08:19:33.998Z</time></trkpt><trkpt lat="42.66870385485467" lon="11.67237735066576"><ele>330.0</ele><time>2026-04-18T08:19:34.998Z</time></trkpt><trkpt lat="42.66861574657488" lon="11.672379033795035"><ele>330.0</ele><time>2026-04-18T08:19:35.998Z</time></trkpt><trkpt lat="42.66850865871949" lon="11.672336532154967"><ele>330.0</ele><time>2026-04-18T08:19:36.998Z</time></trkpt><trkpt lat="42.6684066036781" lon="11.672302940030765"><ele>330.0</ele><time>2026-04-18T08:19:37.998Z</time></trkpt><trkpt lat="42.668281057702245" lon="11.672277858416995"><ele>331.4</ele><time>2026-04-18T08:19:38.998Z</time></trkpt><trkpt lat="42.66816046508255" lon="11.672239893969723"><ele>332.8</ele><time>2026-04-18T08:19:39.998Z</time></trkpt><trkpt lat="42.6680608868291" lon="11.67217899326364"><ele>334.20000000000005</ele><time>2026-04-18T08:19:40.998Z</time></trkpt><trkpt lat="42.66796074899027" lon="11.67214304849904"><ele>335.6</ele><time>2026-04-18T08:19:41.998Z</time></trkpt><trkpt lat="42.667855478362206" lon="11.67213204734238"><ele>337.0</ele><time>2026-04-18T08:19:42.998Z</time></trkpt><trkpt lat="42.667749609496326" lon="11.672077644707333"><ele>337.5</ele><time>2026-04-18T08:19:43.998Z</time></trkpt><trkpt lat="42.66763756824627" lon="11.672003561315407"><ele>338.0</ele><time>2026-04-18T08:19:44.998Z</time></trkpt><trkpt lat="42.66752571377915" lon="11.671924406402097"><ele>338.5</ele><time>2026-04-18T08:19:45.998Z</time></trkpt><trkpt lat="42.667406997908095" lon="11.67184442424852"><ele>339.0</ele><time>2026-04-18T08:19:46.998Z</time></trkpt><trkpt lat="42.667287819859894" lon="11.671765455214835"><ele>338.75</ele><time>2026-04-18T08:19:47.998Z</time></trkpt><trkpt lat="42.667161950934485" lon="11.671684782265912"><ele>338.5</ele><time>2026-04-18T08:19:48.998Z</time></trkpt><trkpt lat="42.66703642567688" lon="11.67160215823203"><ele>338.25</ele><time>2026-04-18T08:19:49.999Z</time></trkpt><trkpt lat="42.666920649060934" lon="11.67152007892271"><ele>338.0</ele><time>2026-04-18T08:19:50.999Z</time></trkpt><trkpt lat="42.666817434515046" lon="11.671455153237584"><ele>338.0</ele><time>2026-04-18T08:19:51.999Z</time></trkpt><trkpt lat="42.666729429947914" lon="11.671395843241717"><ele>338.0</ele><time>2026-04-18T08:19:52.999Z</time></trkpt><trkpt lat="42.666645864087506" lon="11.67134213907899"><ele>338.0</ele><time>2026-04-18T08:19:53.999Z</time></trkpt><trkpt lat="42.66670967356841" lon="11.671266763692834"><ele>338.0</ele><time>2026-04-18T08:19:57.999Z</time></trkpt><trkpt lat="42.66680331477346" lon="11.671269432168558"><ele>338.0</ele><time>2026-04-18T08:19:58.999Z</time></trkpt><trkpt lat="42.666924390822324" lon="11.67127076747153"><ele>336.5</ele><time>2026-04-18T08:19:59.999Z</time></trkpt><trkpt lat="42.6670373492428" lon="11.671211852342514"><ele>335.0</ele><time>2026-04-18T08:20:00.999Z</time></trkpt><trkpt lat="42.6671165599114" lon="11.671091317030141"><ele>333.5</ele><time>2026-04-18T08:20:01.999Z</time></trkpt><trkpt lat="42.667183466460074" lon="11.67092070008546"><ele>332.0</ele><time>2026-04-18T08:20:02.999Z</time></trkpt><trkpt lat="42.6672497067631" lon="11.670710914056537"><ele>332.0</ele><time>2026-04-18T08:20:03.999Z</time></trkpt><trkpt lat="42.667307352169175" lon="11.670515929034691"><ele>332.0</ele><time>2026-04-18T08:20:04.999Z</time></trkpt><trkpt lat="42.66734636158751" lon="11.670345276838132"><ele>332.0</ele><time>2026-04-18T08:20:05.999Z</time></trkpt><trkpt lat="42.667372547197346" lon="11.670187681810047"><ele>332.0</ele><time>2026-04-18T08:20:06.999Z</time></trkpt><trkpt lat="42.66740022023665" lon="11.670015923019864"><ele>332.0</ele><time>2026-04-18T08:20:07.999Z</time></trkpt><trkpt lat="42.66740271728236" lon="11.669832535203861"><ele>332.0</ele><time>2026-04-18T08:20:08.999Z</time></trkpt><trkpt lat="42.66739471319385" lon="11.66964725350125"><ele>332.0</ele><time>2026-04-18T08:20:09.999Z</time></trkpt><trkpt lat="42.66737982592645" lon="11.669477979272505"><ele>332.0</ele><time>2026-04-18T08:20:10.999Z</time></trkpt><trkpt lat="42.667358046986365" lon="11.669333515121037"><ele>332.0</ele><time>2026-04-18T08:20:11.999Z</time></trkpt><trkpt lat="42.667352758672" lon="11.66921420520629"><ele>332.0</ele><time>2026-04-18T08:20:12.999Z</time></trkpt><trkpt lat="42.66737879362173" lon="11.669109196317347"><ele>332.0</ele><time>2026-04-18T08:20:13.999Z</time></trkpt><trkpt lat="42.66745656378" lon="11.669026970514789"><ele>332.0</ele><time>2026-04-18T08:20:14.999Z</time></trkpt><trkpt lat="42.667577773145545" lon="11.668953159883161"><ele>332.0</ele><time>2026-04-18T08:20:15.999Z</time></trkpt><trkpt lat="42.66769395963046" lon="11.668858934532848"><ele>332.0</ele><time>2026-04-18T08:20:16.999Z</time></trkpt><trkpt lat="42.667780779809505" lon="11.668724610156678"><ele>332.0</ele><time>2026-04-18T08:20:17.999Z</time></trkpt><trkpt lat="42.667855232013174" lon="11.66855220981677"><ele>332.0</ele><time>2026-04-18T08:20:18.999Z</time></trkpt><trkpt lat="42.66792644812586" lon="11.668398917484339"><ele>332.0</ele><time>2026-04-18T08:20:19.999Z</time></trkpt><trkpt lat="42.66801600786507" lon="11.668277379385742"><ele>331.25</ele><time>2026-04-18T08:20:20.999Z</time></trkpt><trkpt lat="42.668132747488826" lon="11.668183090249244"><ele>330.5</ele><time>2026-04-18T08:20:21.999Z</time></trkpt><trkpt lat="42.66825026403147" lon="11.668081252770152"><ele>329.75</ele><time>2026-04-18T08:20:22.999Z</time></trkpt><trkpt lat="42.66837876255391" lon="11.667978792758007"><ele>329.0</ele><time>2026-04-18T08:20:23.999Z</time></trkpt><trkpt lat="42.66851415436546" lon="11.667901822972938"><ele>329.0</ele><time>2026-04-18T08:20:24.999Z</time></trkpt><trkpt lat="42.66866149470381" lon="11.667832578242724"><ele>329.0</ele><time>2026-04-18T08:20:25.999Z</time></trkpt><trkpt lat="42.66879817215036" lon="11.667767731939712"><ele>329.0</ele><time>2026-04-18T08:20:26.999Z</time></trkpt><trkpt lat="42.66892443918862" lon="11.667706544202032"><ele>329.0</ele><time>2026-04-18T08:20:27.999Z</time></trkpt><trkpt lat="42.669045557125266" lon="11.667639417656838"><ele>329.0</ele><time>2026-04-18T08:20:28.999Z</time></trkpt><trkpt lat="42.66916218570323" lon="11.667560769827181"><ele>329.0</ele><time>2026-04-18T08:20:29.999Z</time></trkpt><trkpt lat="42.669262261803766" lon="11.66747611103627"><ele>329.0</ele><time>2026-04-18T08:20:30.999Z</time></trkpt><trkpt lat="42.66935528046137" lon="11.66736330145624"><ele>329.0</ele><time>2026-04-18T08:20:31.999Z</time></trkpt><trkpt lat="42.669439966939954" lon="11.667213090676439"><ele>328.0</ele><time>2026-04-18T08:20:32.999Z</time></trkpt><trkpt lat="42.66952700957763" lon="11.667046077198465"><ele>327.0</ele><time>2026-04-18T08:20:33.999Z</time></trkpt><trkpt lat="42.66961772097639" lon="11.666877757406667"><ele>326.0</ele><time>2026-04-18T08:20:34.999Z</time></trkpt><trkpt lat="42.669715233582956" lon="11.666728842268334"><ele>325.0</ele><time>2026-04-18T08:20:35.999Z</time></trkpt><trkpt lat="42.66981418009268" lon="11.66660542767403"><ele>324.0</ele><time>2026-04-18T08:20:36.999Z</time></trkpt><trkpt lat="42.66991418201791" lon="11.66649248908516"><ele>323.0</ele><time>2026-04-18T08:20:37.999Z</time></trkpt><trkpt lat="42.67002030466364" lon="11.666387874385425"><ele>322.0</ele><time>2026-04-18T08:20:38.999Z</time></trkpt><trkpt lat="42.67011819191908" lon="11.666290674773162"><ele>322.0</ele><time>2026-04-18T08:20:39.999Z</time></trkpt><trkpt lat="42.67021833288051" lon="11.666203141036029"><ele>322.0</ele><time>2026-04-18T08:20:40.999Z</time></trkpt><trkpt lat="42.67031620151055" lon="11.666123291367324"><ele>322.0</ele><time>2026-04-18T08:20:41.999Z</time></trkpt><trkpt lat="42.67040759613326" lon="11.666038132656393"><ele>322.0</ele><time>2026-04-18T08:20:42.999Z</time></trkpt><trkpt lat="42.670489689756295" lon="11.665959124893062"><ele>322.0</ele><time>2026-04-18T08:20:43.999Z</time></trkpt><trkpt lat="42.670579262368186" lon="11.665889704340755"><ele>318.8</ele><time>2026-04-18T08:20:44.999Z</time></trkpt><trkpt lat="42.67067362491405" lon="11.665836080225583"><ele>315.6</ele><time>2026-04-18T08:20:45.999Z</time></trkpt><trkpt lat="42.67077399058974" lon="11.665791310418973"><ele>312.40000000000003</ele><time>2026-04-18T08:20:46.999Z</time></trkpt><trkpt lat="42.67085852872046" lon="11.665722224846867"><ele>309.20000000000005</ele><time>2026-04-18T08:20:47.999Z</time></trkpt><trkpt lat="42.670935005300166" lon="11.665604976383268"><ele>306.0</ele><time>2026-04-18T08:20:48.999Z</time></trkpt><trkpt lat="42.67101004214388" lon="11.665437476823405"><ele>301.0</ele><time>2026-04-18T08:20:49.999Z</time></trkpt><trkpt lat="42.671120138793206" lon="11.665277230727563"><ele>296.0</ele><time>2026-04-18T08:20:50.999Z</time></trkpt><trkpt lat="42.67126695443924" lon="11.665120607735766"><ele>291.0</ele><time>2026-04-18T08:20:51.999Z</time></trkpt><trkpt lat="42.67142137775719" lon="11.664969483087392"><ele>291.0</ele><time>2026-04-18T08:20:52.999Z</time></trkpt><trkpt lat="42.67156975214666" lon="11.66480610496218"><ele>291.0</ele><time>2026-04-18T08:20:53.999Z</time></trkpt><trkpt lat="42.67169868302476" lon="11.66464401769535"><ele>291.0</ele><time>2026-04-18T08:20:54.999Z</time></trkpt><trkpt lat="42.6718203806461" lon="11.664493563597972"><ele>290.5</ele><time>2026-04-18T08:20:55.999Z</time></trkpt><trkpt lat="42.67193290358611" lon="11.664362733330691"><ele>290.0</ele><time>2026-04-18T08:20:56.999Z</time></trkpt><trkpt lat="42.67203748224963" lon="11.664268733157805"><ele>289.5</ele><time>2026-04-18T08:20:57.999Z</time></trkpt><trkpt lat="42.67213449222069" lon="11.664161254281838"><ele>289.0</ele><time>2026-04-18T08:20:58.999Z</time></trkpt><trkpt lat="42.67219972252577" lon="11.664028855502636"><ele>291.75</ele><time>2026-04-18T08:20:59.999Z</time></trkpt><trkpt lat="42.67223782666619" lon="11.663857471504967"><ele>294.5</ele><time>2026-04-18T08:21:00.999Z</time></trkpt><trkpt lat="42.67225628659475" lon="11.66366340750444"><ele>297.25</ele><time>2026-04-18T08:21:01.999Z</time></trkpt><trkpt lat="42.6722632488237" lon="11.663512536137839"><ele>300.0</ele><time>2026-04-18T08:21:02.999Z</time></trkpt><trkpt lat="42.67228110841231" lon="11.663419708858273"><ele>301.75</ele><time>2026-04-18T08:21:03.999Z</time></trkpt><trkpt lat="42.67236169978764" lon="11.66327972039975"><ele>303.5</ele><time>2026-04-18T08:21:05.999Z</time></trkpt><trkpt lat="42.67244571826694" lon="11.66325151449716"><ele>305.25</ele><time>2026-04-18T08:21:06.999Z</time></trkpt><trkpt lat="42.67256105821884" lon="11.663273461284945"><ele>307.0</ele><time>2026-04-18T08:21:07.999Z</time></trkpt><trkpt lat="42.67267328065531" lon="11.6633331727928"><ele>311.5</ele><time>2026-04-18T08:21:08.999Z</time></trkpt><trkpt lat="42.67280695848642" lon="11.663423813142563"><ele>316.0</ele><time>2026-04-18T08:21:09.999Z</time></trkpt><trkpt lat="42.672943926819826" lon="11.663537931098725"><ele>320.5</ele><time>2026-04-18T08:21:10.999Z</time></trkpt><trkpt lat="42.6730447612509" lon="11.663646659973416"><ele>325.0</ele><time>2026-04-18T08:21:11.999Z</time></trkpt><trkpt lat="42.67312975521788" lon="11.663789166680814"><ele>325.0</ele><time>2026-04-18T08:21:12.999Z</time></trkpt><trkpt lat="42.67320733763981" lon="11.66394986966057"><ele>325.0</ele><time>2026-04-18T08:21:13.999Z</time></trkpt><trkpt lat="42.67328537078885" lon="11.664092982074592"><ele>325.0</ele><time>2026-04-18T08:21:14.999Z</time></trkpt><trkpt lat="42.67337364930716" lon="11.664213936413708"><ele>325.0</ele><time>2026-04-18T08:21:15.999Z</time></trkpt><trkpt lat="42.67347952748827" lon="11.664306903867468"><ele>325.0</ele><time>2026-04-18T08:21:16.998Z</time></trkpt><trkpt lat="42.673598541685635" lon="11.664374870776943"><ele>325.0</ele><time>2026-04-18T08:21:17.998Z</time></trkpt><trkpt lat="42.67372397580783" lon="11.664420079785975"><ele>325.0</ele><time>2026-04-18T08:21:18.998Z</time></trkpt><trkpt lat="42.67380912611672" lon="11.66446219672644"><ele>325.0</ele><time>2026-04-18T08:21:19.998Z</time></trkpt><trkpt lat="42.67387321624407" lon="11.664470848118574"><ele>325.0</ele><time>2026-04-18T08:21:20.998Z</time></trkpt><trkpt lat="42.67394845131634" lon="11.664357649128602"><ele>330.0</ele><time>2026-04-18T08:21:22.998Z</time></trkpt><trkpt lat="42.673937849135704" lon="11.664255959602375"><ele>335.0</ele><time>2026-04-18T08:21:23.998Z</time></trkpt><trkpt lat="42.673862908869786" lon="11.66410237354946"><ele>340.0</ele><time>2026-04-18T08:21:24.998Z</time></trkpt><trkpt lat="42.67378016951458" lon="11.663935952088224"><ele>345.0</ele><time>2026-04-18T08:21:25.998Z</time></trkpt><trkpt lat="42.67371374231564" lon="11.663760636211848"><ele>347.0</ele><time>2026-04-18T08:21:26.998Z</time></trkpt><trkpt lat="42.67365754835899" lon="11.66358179201658"><ele>349.0</ele><time>2026-04-18T08:21:27.998Z</time></trkpt><trkpt lat="42.67359983356335" lon="11.663426748997791"><ele>351.0</ele><time>2026-04-18T08:21:28.998Z</time></trkpt><trkpt lat="42.67353175988185" lon="11.663293480824546"><ele>353.0</ele><time>2026-04-18T08:21:29.998Z</time></trkpt><trkpt lat="42.67348536371461" lon="11.663192573073562"><ele>350.25</ele><time>2026-04-18T08:21:30.998Z</time></trkpt><trkpt lat="42.67344019891688" lon="11.663087459657977"><ele>347.5</ele><time>2026-04-18T08:21:31.998Z</time></trkpt><trkpt lat="42.673358422615415" lon="11.66294430799679"><ele>344.75</ele><time>2026-04-18T08:21:32.998Z</time></trkpt><trkpt lat="42.67327023754271" lon="11.662801374751032"><ele>342.0</ele><time>2026-04-18T08:21:33.998Z</time></trkpt><trkpt lat="42.673194840918626" lon="11.662650698913707"><ele>342.0</ele><time>2026-04-18T08:21:34.998Z</time></trkpt><trkpt lat="42.673131283927795" lon="11.662516182195086"><ele>342.0</ele><time>2026-04-18T08:21:35.998Z</time></trkpt><trkpt lat="42.673091377749465" lon="11.66235105120425"><ele>342.0</ele><time>2026-04-18T08:21:36.998Z</time></trkpt><trkpt lat="42.67304722446818" lon="11.662233786078541"><ele>342.0</ele><time>2026-04-18T08:21:37.998Z</time></trkpt><trkpt lat="42.67297524941387" lon="11.66213686502305"><ele>342.0</ele><time>2026-04-18T08:21:38.998Z</time></trkpt><trkpt lat="42.67286103473349" lon="11.662037132626017"><ele>339.25</ele><time>2026-04-18T08:21:39.998Z</time></trkpt><trkpt lat="42.67273834442659" lon="11.661960726381535"><ele>336.5</ele><time>2026-04-18T08:21:40.998Z</time></trkpt><trkpt lat="42.67261618859353" lon="11.66188017335073"><ele>333.75</ele><time>2026-04-18T08:21:41.998Z</time></trkpt><trkpt lat="42.67252499780747" lon="11.661751478018921"><ele>331.0</ele><time>2026-04-18T08:21:42.998Z</time></trkpt><trkpt lat="42.672431253471444" lon="11.66157333909667"><ele>331.0</ele><time>2026-04-18T08:21:43.998Z</time></trkpt><trkpt lat="42.67230433706855" lon="11.661361855410433"><ele>331.0</ele><time>2026-04-18T08:21:44.998Z</time></trkpt><trkpt lat="42.67218787625116" lon="11.661153688764642"><ele>331.0</ele><time>2026-04-18T08:21:45.998Z</time></trkpt><trkpt lat="42.672082341183376" lon="11.66097212756997"><ele>333.66666666666663</ele><time>2026-04-18T08:21:46.998Z</time></trkpt><trkpt lat="42.67197367947034" lon="11.66079757077159"><ele>336.3333333333333</ele><time>2026-04-18T08:21:47.998Z</time></trkpt><trkpt lat="42.67187029053205" lon="11.660617660870024"><ele>339.0</ele><time>2026-04-18T08:21:48.998Z</time></trkpt><trkpt lat="42.67176876833039" lon="11.6604482453221"><ele>336.75</ele><time>2026-04-18T08:21:49.998Z</time></trkpt><trkpt lat="42.67167499769842" lon="11.66028810369611"><ele>334.5</ele><time>2026-04-18T08:21:50.998Z</time></trkpt><trkpt lat="42.67158586029176" lon="11.660153387705773"><ele>332.25</ele><time>2026-04-18T08:21:51.998Z</time></trkpt><trkpt lat="42.671499276543436" lon="11.660007152478721"><ele>330.0</ele><time>2026-04-18T08:21:52.998Z</time></trkpt><trkpt lat="42.671418060255164" lon="11.659875875205069"><ele>330.0</ele><time>2026-04-18T08:21:53.998Z</time></trkpt><trkpt lat="42.671352234645134" lon="11.659744299166068"><ele>330.0</ele><time>2026-04-18T08:21:54.998Z</time></trkpt><trkpt lat="42.67130394812798" lon="11.659604683840957"><ele>330.0</ele><time>2026-04-18T08:21:55.999Z</time></trkpt><trkpt lat="42.671291209021405" lon="11.659462540227073"><ele>330.0</ele><time>2026-04-18T08:21:56.999Z</time></trkpt><trkpt lat="42.67129083224816" lon="11.659300906644527"><ele>330.8</ele><time>2026-04-18T08:21:57.999Z</time></trkpt><trkpt lat="42.67129702222793" lon="11.659163585375385"><ele>331.6</ele><time>2026-04-18T08:21:58.999Z</time></trkpt><trkpt lat="42.67128230851769" lon="11.65904380389058"><ele>332.4</ele><time>2026-04-18T08:21:59.999Z</time></trkpt><trkpt lat="42.67123483455052" lon="11.658946097254757"><ele>333.2</ele><time>2026-04-18T08:22:00.999Z</time></trkpt><trkpt lat="42.67117106947395" lon="11.658868252382335"><ele>334.0</ele><time>2026-04-18T08:22:01.999Z</time></trkpt><trkpt lat="42.67106270153296" lon="11.658808131567696"><ele>331.75</ele><time>2026-04-18T08:22:02.999Z</time></trkpt><trkpt lat="42.670931214287016" lon="11.658773058237196"><ele>329.5</ele><time>2026-04-18T08:22:03.999Z</time></trkpt><trkpt lat="42.6707900192938" lon="11.658765973942428"><ele>327.25</ele><time>2026-04-18T08:22:04.999Z</time></trkpt><trkpt lat="42.67064342759021" lon="11.658781541280527"><ele>325.0</ele><time>2026-04-18T08:22:05.999Z</time></trkpt><trkpt lat="42.67051984017855" lon="11.658789506638207"><ele>325.0</ele><time>2026-04-18T08:22:06.999Z</time></trkpt><trkpt lat="42.670407963959285" lon="11.6587865795725"><ele>325.0</ele><time>2026-04-18T08:22:07.999Z</time></trkpt><trkpt lat="42.6702943976284" lon="11.658745398343086"><ele>325.0</ele><time>2026-04-18T08:22:08.999Z</time></trkpt><trkpt lat="42.67018187814641" lon="11.658659538664066"><ele>325.0</ele><time>2026-04-18T08:22:09.999Z</time></trkpt><trkpt lat="42.67008141600057" lon="11.65855106414719"><ele>325.75</ele><time>2026-04-18T08:22:10.999Z</time></trkpt><trkpt lat="42.669970199187006" lon="11.658438304334517"><ele>326.5</ele><time>2026-04-18T08:22:11.999Z</time></trkpt><trkpt lat="42.66985051659507" lon="11.658343005231043"><ele>327.25</ele><time>2026-04-18T08:22:12.999Z</time></trkpt><trkpt lat="42.66974141925962" lon="11.658244011415565"><ele>328.0</ele><time>2026-04-18T08:22:13.999Z</time></trkpt><trkpt lat="42.66965152183689" lon="11.658133881942833"><ele>328.0</ele><time>2026-04-18T08:22:14.999Z</time></trkpt><trkpt lat="42.669572828576364" lon="11.65798743897112"><ele>328.0</ele><time>2026-04-18T08:22:15.999Z</time></trkpt><trkpt lat="42.669494171271964" lon="11.657838070217327"><ele>328.0</ele><time>2026-04-18T08:22:16.999Z</time></trkpt><trkpt lat="42.669407638214416" lon="11.657674210870198"><ele>328.0</ele><time>2026-04-18T08:22:17.999Z</time></trkpt><trkpt lat="42.66931372156477" lon="11.657500220525222"><ele>326.75</ele><time>2026-04-18T08:22:18.999Z</time></trkpt><trkpt lat="42.66924494563227" lon="11.657340405122493"><ele>325.5</ele><time>2026-04-18T08:22:19.999Z</time></trkpt><trkpt lat="42.66918234742246" lon="11.657173521735752"><ele>324.25</ele><time>2026-04-18T08:22:20.999Z</time></trkpt><trkpt lat="42.66912181002286" lon="11.657016338928836"><ele>323.0</ele><time>2026-04-18T08:22:21.999Z</time></trkpt><trkpt lat="42.66904780480395" lon="11.65685982207693"><ele>323.0</ele><time>2026-04-18T08:22:22.999Z</time></trkpt><trkpt lat="42.6689629488246" lon="11.656703282499306"><ele>323.0</ele><time>2026-04-18T08:22:23.999Z</time></trkpt><trkpt lat="42.66887267005391" lon="11.656545100782473"><ele>323.0</ele><time>2026-04-18T08:22:24.999Z</time></trkpt><trkpt lat="42.66877809130267" lon="11.656390459213279"><ele>323.0</ele><time>2026-04-18T08:22:25.999Z</time></trkpt><trkpt lat="42.66868569130512" lon="11.656258783558107"><ele>322.25</ele><time>2026-04-18T08:22:26.999Z</time></trkpt><trkpt lat="42.668569817591084" lon="11.656150852868482"><ele>321.5</ele><time>2026-04-18T08:22:27.999Z</time></trkpt><trkpt lat="42.66843667463896" lon="11.656053935850135"><ele>320.75</ele><time>2026-04-18T08:22:28.999Z</time></trkpt><trkpt lat="42.66829824863101" lon="11.655952261659369"><ele>320.0</ele><time>2026-04-18T08:22:29.999Z</time></trkpt><trkpt lat="42.66816470165052" lon="11.655849666306842"><ele>320.0</ele><time>2026-04-18T08:22:30.999Z</time></trkpt><trkpt lat="42.66802949044433" lon="11.655755724899374"><ele>320.0</ele><time>2026-04-18T08:22:31.999Z</time></trkpt><trkpt lat="42.66790562832996" lon="11.655672249714089"><ele>320.0</ele><time>2026-04-18T08:22:32.999Z</time></trkpt><trkpt lat="42.66777684044414" lon="11.655591185273282"><ele>320.0</ele><time>2026-04-18T08:22:33.999Z</time></trkpt><trkpt lat="42.66764705969537" lon="11.65546791193109"><ele>318.33333333333337</ele><time>2026-04-18T08:22:34.999Z</time></trkpt><trkpt lat="42.66752057215694" lon="11.655331215056249"><ele>316.6666666666667</ele><time>2026-04-18T08:22:35.999Z</time></trkpt><trkpt lat="42.66739809477523" lon="11.655184092679427"><ele>315.0</ele><time>2026-04-18T08:22:36.999Z</time></trkpt><trkpt lat="42.66727186301384" lon="11.655051049991828"><ele>315.0</ele><time>2026-04-18T08:22:37.999Z</time></trkpt><trkpt lat="42.667148153534875" lon="11.654931468918193"><ele>315.0</ele><time>2026-04-18T08:22:38.999Z</time></trkpt><trkpt lat="42.667026814711846" lon="11.654825579963228"><ele>315.0</ele><time>2026-04-18T08:22:39.999Z</time></trkpt><trkpt lat="42.666913460670415" lon="11.654684538598797"><ele>314.0</ele><time>2026-04-18T08:22:40.999Z</time></trkpt><trkpt lat="42.666799440802556" lon="11.654555401827887"><ele>313.0</ele><time>2026-04-18T08:22:41.999Z</time></trkpt><trkpt lat="42.66668133527379" lon="11.654414066906456"><ele>312.0</ele><time>2026-04-18T08:22:42.999Z</time></trkpt><trkpt lat="42.6665633729456" lon="11.654267429345753"><ele>312.0</ele><time>2026-04-18T08:22:43.999Z</time></trkpt><trkpt lat="42.66644207126394" lon="11.65410825359022"><ele>312.0</ele><time>2026-04-18T08:22:44.999Z</time></trkpt><trkpt lat="42.666334732292825" lon="11.653964812064391"><ele>312.0</ele><time>2026-04-18T08:22:45.999Z</time></trkpt><trkpt lat="42.666225754796564" lon="11.65382156479277"><ele>312.0</ele><time>2026-04-18T08:22:46.999Z</time></trkpt><trkpt lat="42.66611510145763" lon="11.653700600351254"><ele>312.0</ele><time>2026-04-18T08:22:47.999Z</time></trkpt><trkpt lat="42.66600756531715" lon="11.653584215282534"><ele>312.0</ele><time>2026-04-18T08:22:48.999Z</time></trkpt><trkpt lat="42.665906599764476" lon="11.653471706827343"><ele>312.0</ele><time>2026-04-18T08:22:49.999Z</time></trkpt><trkpt lat="42.66580690540933" lon="11.653361202099616"><ele>310.75</ele><time>2026-04-18T08:22:50.999Z</time></trkpt><trkpt lat="42.665690997608664" lon="11.653281963034987"><ele>309.5</ele><time>2026-04-18T08:22:51.999Z</time></trkpt><trkpt lat="42.66557729947408" lon="11.653208211941743"><ele>308.25</ele><time>2026-04-18T08:22:52.999Z</time></trkpt><trkpt lat="42.665465255958466" lon="11.653151650823009"><ele>307.0</ele><time>2026-04-18T08:22:53.999Z</time></trkpt><trkpt lat="42.66537109120763" lon="11.653078067305477"><ele>307.0</ele><time>2026-04-18T08:22:54.999Z</time></trkpt><trkpt lat="42.66528959855124" lon="11.653043993153142"><ele>307.0</ele><time>2026-04-18T08:22:55.999Z</time></trkpt><trkpt lat="42.66523142491697" lon="11.652981164881826"><ele>307.0</ele><time>2026-04-18T08:22:56.999Z</time></trkpt><trkpt lat="42.66516624046743" lon="11.652918135294223"><ele>307.0</ele><time>2026-04-18T08:22:57.999Z</time></trkpt><trkpt lat="42.665159838588814" lon="11.652787471759867"><ele>307.0</ele><time>2026-04-18T08:22:58.999Z</time></trkpt><trkpt lat="42.665175952927456" lon="11.652691588873681"><ele>307.0</ele><time>2026-04-18T08:22:59.999Z</time></trkpt><trkpt lat="42.66518082565983" lon="11.65260314223652"><ele>305.99999999999994</ele><time>2026-04-18T08:23:00.999Z</time></trkpt><trkpt lat="42.66517446622936" lon="11.652510577012372"><ele>305.0</ele><time>2026-04-18T08:23:01.999Z</time></trkpt><trkpt lat="42.66517740525346" lon="11.652412029450792"><ele>304.0</ele><time>2026-04-18T08:23:02.999Z</time></trkpt><trkpt lat="42.66517377260356" lon="11.652314555631309"><ele>303.0</ele><time>2026-04-18T08:23:03.999Z</time></trkpt><trkpt lat="42.66515928642824" lon="11.652231201717518"><ele>302.0</ele><time>2026-04-18T08:23:04.999Z</time></trkpt><trkpt lat="42.66512885895926" lon="11.652144163538425"><ele>300.99999999999994</ele><time>2026-04-18T08:23:05.999Z</time></trkpt><trkpt lat="42.66510926299631" lon="11.652048886564817"><ele>300.0</ele><time>2026-04-18T08:23:06.999Z</time></trkpt><trkpt lat="42.66509022217217" lon="11.651955521352152"><ele>300.0</ele><time>2026-04-18T08:23:07.999Z</time></trkpt><trkpt lat="42.66507053647271" lon="11.651802767376644"><ele>300.0</ele><time>2026-04-18T08:23:09.999Z</time></trkpt><trkpt lat="42.6650909664912" lon="11.651670413639309"><ele>300.0</ele><time>2026-04-18T08:23:11.999Z</time></trkpt><trkpt lat="42.665186135629156" lon="11.65165398296386"><ele>300.0</ele><time>2026-04-18T08:23:13.999Z</time></trkpt><trkpt lat="42.66524369414287" lon="11.651610723804884"><ele>300.0</ele><time>2026-04-18T08:23:14.999Z</time></trkpt><trkpt lat="42.665321777379035" lon="11.651556037130685"><ele>300.6</ele><time>2026-04-18T08:23:15.999Z</time></trkpt><trkpt lat="42.665412559313886" lon="11.651492456660954"><ele>301.2</ele><time>2026-04-18T08:23:16.999Z</time></trkpt><trkpt lat="42.6655137991554" lon="11.651421551876687"><ele>301.8</ele><time>2026-04-18T08:23:17.999Z</time></trkpt><trkpt lat="42.66559831032489" lon="11.65136309459281"><ele>302.4</ele><time>2026-04-18T08:23:18.999Z</time></trkpt><trkpt lat="42.66568487897122" lon="11.651278894538095"><ele>303.0</ele><time>2026-04-18T08:23:19.999Z</time></trkpt><trkpt lat="42.66579795934475" lon="11.651202787759232"><ele>303.0</ele><time>2026-04-18T08:23:20.999Z</time></trkpt><trkpt lat="42.665932386272296" lon="11.65113384236301"><ele>303.0</ele><time>2026-04-18T08:23:21.999Z</time></trkpt><trkpt lat="42.666047533660716" lon="11.651042653268203"><ele>303.0</ele><time>2026-04-18T08:23:22.999Z</time></trkpt><trkpt lat="42.66618711478493" lon="11.650959817911666"><ele>303.0</ele><time>2026-04-18T08:23:23.998Z</time></trkpt><trkpt lat="42.66632803782985" lon="11.650849545068915"><ele>303.25</ele><time>2026-04-18T08:23:24.998Z</time></trkpt><trkpt lat="42.666453267221776" lon="11.650771392959857"><ele>303.5</ele><time>2026-04-18T08:23:25.998Z</time></trkpt><trkpt lat="42.66655893340026" lon="11.650697104060212"><ele>303.75</ele><time>2026-04-18T08:23:26.998Z</time></trkpt><trkpt lat="42.66664403218317" lon="11.650634594181316"><ele>304.0</ele><time>2026-04-18T08:23:27.998Z</time></trkpt><trkpt lat="42.66673405085097" lon="11.650579765307345"><ele>304.0</ele><time>2026-04-18T08:23:28.998Z</time></trkpt><trkpt lat="42.66679196057476" lon="11.650536884135306"><ele>304.0</ele><time>2026-04-18T08:23:29.998Z</time></trkpt><trkpt lat="42.666882652717796" lon="11.650478606463308"><ele>304.0</ele><time>2026-04-18T08:23:31.998Z</time></trkpt><trkpt lat="42.66696269704025" lon="11.650412317552728"><ele>304.0</ele><time>2026-04-18T08:23:33.998Z</time></trkpt><trkpt lat="42.66704116233401" lon="11.650366924382855"><ele>304.0</ele><time>2026-04-18T08:23:35.998Z</time></trkpt><trkpt lat="42.667104838757226" lon="11.650308703655181"><ele>304.0</ele><time>2026-04-18T08:23:37.998Z</time></trkpt><trkpt lat="42.66717814089322" lon="11.650234744323209"><ele>301.5</ele><time>2026-04-18T08:23:39.998Z</time></trkpt><trkpt lat="42.66720399003607" lon="11.650152389114847"><ele>299.0</ele><time>2026-04-18T08:23:40.998Z</time></trkpt><trkpt lat="42.667201554536746" lon="11.650065187994684"><ele>296.5</ele><time>2026-04-18T08:23:41.998Z</time></trkpt><trkpt lat="42.66716723127319" lon="11.649943656241915"><ele>294.0</ele><time>2026-04-18T08:23:42.998Z</time></trkpt><trkpt lat="42.6671116389097" lon="11.64984345023191"><ele>291.5</ele><time>2026-04-18T08:23:43.998Z</time></trkpt><trkpt lat="42.667041367629366" lon="11.64973957923287"><ele>289.0</ele><time>2026-04-18T08:23:44.998Z</time></trkpt><trkpt lat="42.66698177091538" lon="11.649634953792624"><ele>291.4</ele><time>2026-04-18T08:23:45.998Z</time></trkpt><trkpt lat="42.666903602926915" lon="11.649564284782002"><ele>293.79999999999995</ele><time>2026-04-18T08:23:46.998Z</time></trkpt><trkpt lat="42.66678029621004" lon="11.649525200125373"><ele>296.20000000000005</ele><time>2026-04-18T08:23:47.998Z</time></trkpt><trkpt lat="42.66666142360382" lon="11.649547587532824"><ele>298.6</ele><time>2026-04-18T08:23:48.998Z</time></trkpt><trkpt lat="42.66657312116546" lon="11.649537601827184"><ele>301.0</ele><time>2026-04-18T08:23:49.998Z</time></trkpt><trkpt lat="42.66648674652766" lon="11.649527757935962"><ele>301.0</ele><time>2026-04-18T08:23:50.998Z</time></trkpt><trkpt lat="42.66642066287018" lon="11.649491218781423"><ele>301.0</ele><time>2026-04-18T08:23:51.998Z</time></trkpt><trkpt lat="42.6663600390713" lon="11.64941817764275"><ele>301.0</ele><time>2026-04-18T08:23:52.998Z</time></trkpt><trkpt lat="42.66632010750177" lon="11.64929253339748"><ele>301.0</ele><time>2026-04-18T08:23:53.998Z</time></trkpt><trkpt lat="42.66623981519027" lon="11.649141965513085"><ele>301.0</ele><time>2026-04-18T08:23:54.998Z</time></trkpt><trkpt lat="42.666132599549314" lon="11.64896581048644"><ele>300.3333333333333</ele><time>2026-04-18T08:23:55.998Z</time></trkpt><trkpt lat="42.66603266081784" lon="11.6487989048112"><ele>299.6666666666667</ele><time>2026-04-18T08:23:56.998Z</time></trkpt><trkpt lat="42.66592602400344" lon="11.648628581525518"><ele>299.0</ele><time>2026-04-18T08:23:57.998Z</time></trkpt><trkpt lat="42.66581973399094" lon="11.648484725716164"><ele>294.33333333333337</ele><time>2026-04-18T08:23:58.998Z</time></trkpt><trkpt lat="42.66571226416297" lon="11.648343837605408"><ele>289.6666666666667</ele><time>2026-04-18T08:23:59.998Z</time></trkpt><trkpt lat="42.665607781885384" lon="11.64819474379225"><ele>285.0</ele><time>2026-04-18T08:24:00.999Z</time></trkpt><trkpt lat="42.6655117864527" lon="11.648033919175434"><ele>285.0</ele><time>2026-04-18T08:24:01.999Z</time></trkpt><trkpt lat="42.665410160798146" lon="11.647913234212973"><ele>285.0</ele><time>2026-04-18T08:24:02.999Z</time></trkpt><trkpt lat="42.66531723372966" lon="11.647764787422343"><ele>285.0</ele><time>2026-04-18T08:24:03.999Z</time></trkpt><trkpt lat="42.66522509804008" lon="11.647618480526518"><ele>285.0</ele><time>2026-04-18T08:24:04.999Z</time></trkpt><trkpt lat="42.66513724597445" lon="11.647488509350906"><ele>286.5</ele><time>2026-04-18T08:24:05.999Z</time></trkpt><trkpt lat="42.6650784200235" lon="11.647354217847118"><ele>288.0</ele><time>2026-04-18T08:24:06.999Z</time></trkpt><trkpt lat="42.66499036197088" lon="11.647231258921668"><ele>289.5</ele><time>2026-04-18T08:24:07.999Z</time></trkpt><trkpt lat="42.66489027011777" lon="11.647125261473759"><ele>291.0</ele><time>2026-04-18T08:24:08.999Z</time></trkpt><trkpt lat="42.66476181291731" lon="11.647044319260514"><ele>291.0</ele><time>2026-04-18T08:24:09.999Z</time></trkpt><trkpt lat="42.664643403725435" lon="11.646963371683503"><ele>291.0</ele><time>2026-04-18T08:24:10.999Z</time></trkpt><trkpt lat="42.66452510973951" lon="11.646888375309443"><ele>291.0</ele><time>2026-04-18T08:24:11.999Z</time></trkpt><trkpt lat="42.66441384792444" lon="11.646793662768719"><ele>291.0</ele><time>2026-04-18T08:24:12.999Z</time></trkpt><trkpt lat="42.6643139447058" lon="11.646663686209173"><ele>290.5</ele><time>2026-04-18T08:24:13.999Z</time></trkpt><trkpt lat="42.66420434805215" lon="11.64653328554132"><ele>290.0</ele><time>2026-04-18T08:24:14.999Z</time></trkpt><trkpt lat="42.66409779265579" lon="11.646403536563227"><ele>289.5</ele><time>2026-04-18T08:24:15.999Z</time></trkpt><trkpt lat="42.66398907200485" lon="11.646282093123704"><ele>289.0</ele><time>2026-04-18T08:24:16.999Z</time></trkpt><trkpt lat="42.66387411214744" lon="11.646163967429123"><ele>287.25</ele><time>2026-04-18T08:24:17.999Z</time></trkpt><trkpt lat="42.66377778376209" lon="11.646038566695449"><ele>285.5</ele><time>2026-04-18T08:24:18.999Z</time></trkpt><trkpt lat="42.66369225086981" lon="11.645936421299638"><ele>283.75</ele><time>2026-04-18T08:24:19.999Z</time></trkpt><trkpt lat="42.66360311626181" lon="11.645834123408541"><ele>282.0</ele><time>2026-04-18T08:24:20.999Z</time></trkpt><trkpt lat="42.66350875265335" lon="11.645740206486067"><ele>282.0</ele><time>2026-04-18T08:24:21.999Z</time></trkpt><trkpt lat="42.663443336580826" lon="11.645613520251906"><ele>282.0</ele><time>2026-04-18T08:24:22.999Z</time></trkpt><trkpt lat="42.66337075509933" lon="11.645479500342825"><ele>282.0</ele><time>2026-04-18T08:24:23.999Z</time></trkpt><trkpt lat="42.66329575388312" lon="11.64536005239943"><ele>282.0</ele><time>2026-04-18T08:24:24.999Z</time></trkpt><trkpt lat="42.66324798305633" lon="11.64518506562514"><ele>278.5</ele><time>2026-04-18T08:24:25.999Z</time></trkpt><trkpt lat="42.663182870964356" lon="11.64501577937512"><ele>275.0</ele><time>2026-04-18T08:24:26.999Z</time></trkpt><trkpt lat="42.66311685088704" lon="11.644831171998444"><ele>271.5</ele><time>2026-04-18T08:24:27.999Z</time></trkpt><trkpt lat="42.66303813304551" lon="11.644653298592946"><ele>268.0</ele><time>2026-04-18T08:24:28.999Z</time></trkpt><trkpt lat="42.662951355912156" lon="11.644480540168184"><ele>272.0</ele><time>2026-04-18T08:24:29.999Z</time></trkpt><trkpt lat="42.66286749773273" lon="11.644290761069334"><ele>276.0</ele><time>2026-04-18T08:24:30.999Z</time></trkpt><trkpt lat="42.66277624612408" lon="11.644065315331744"><ele>280.0</ele><time>2026-04-18T08:24:31.999Z</time></trkpt><trkpt lat="42.6626741844354" lon="11.643834458874643"><ele>280.0</ele><time>2026-04-18T08:24:32.999Z</time></trkpt><trkpt lat="42.66259323947353" lon="11.643639229343517"><ele>280.0</ele><time>2026-04-18T08:24:33.999Z</time></trkpt><trkpt lat="42.66252158069557" lon="11.64345814054797"><ele>280.0</ele><time>2026-04-18T08:24:34.999Z</time></trkpt><trkpt lat="42.6624393867936" lon="11.643273583159882"><ele>278.66666666666663</ele><time>2026-04-18T08:24:35.999Z</time></trkpt><trkpt lat="42.66235727281992" lon="11.643087412971477"><ele>277.3333333333333</ele><time>2026-04-18T08:24:36.999Z</time></trkpt><trkpt lat="42.66228014212281" lon="11.642898187104889"><ele>276.0</ele><time>2026-04-18T08:24:37.999Z</time></trkpt><trkpt lat="42.66220360285981" lon="11.642701070840271"><ele>270.6666666666667</ele><time>2026-04-18T08:24:38.999Z</time></trkpt><trkpt lat="42.66212509417877" lon="11.642500614602671"><ele>265.33333333333337</ele><time>2026-04-18T08:24:39.999Z</time></trkpt><trkpt lat="42.66204254753518" lon="11.642315215174369"><ele>260.0</ele><time>2026-04-18T08:24:40.999Z</time></trkpt><trkpt lat="42.661973704168304" lon="11.64214101643584"><ele>264.0</ele><time>2026-04-18T08:24:41.999Z</time></trkpt><trkpt lat="42.66189664920361" lon="11.641985619361611"><ele>268.0</ele><time>2026-04-18T08:24:42.999Z</time></trkpt><trkpt lat="42.66182228322671" lon="11.641859512800105"><ele>272.0</ele><time>2026-04-18T08:24:43.999Z</time></trkpt><trkpt lat="42.66173438680149" lon="11.641736984950976"><ele>276.0</ele><time>2026-04-18T08:24:44.999Z</time></trkpt><trkpt lat="42.66163335708321" lon="11.641631654414246"><ele>276.0</ele><time>2026-04-18T08:24:45.999Z</time></trkpt><trkpt lat="42.661498016779205" lon="11.641531460400929"><ele>276.0</ele><time>2026-04-18T08:24:46.999Z</time></trkpt><trkpt lat="42.66135015867482" lon="11.641432321623817"><ele>276.0</ele><time>2026-04-18T08:24:47.999Z</time></trkpt><trkpt lat="42.661179340707406" lon="11.641306213209441"><ele>275.6666666666667</ele><time>2026-04-18T08:24:48.999Z</time></trkpt><trkpt lat="42.66102048195149" lon="11.641167846976444"><ele>275.33333333333337</ele><time>2026-04-18T08:24:49.999Z</time></trkpt><trkpt lat="42.66087002056726" lon="11.641036331735657"><ele>275.0</ele><time>2026-04-18T08:24:50.999Z</time></trkpt><trkpt lat="42.66073558498118" lon="11.640916621878892"><ele>274.33333333333337</ele><time>2026-04-18T08:24:51.999Z</time></trkpt><trkpt lat="42.66061796067232" lon="11.640803622288608"><ele>273.6666666666667</ele><time>2026-04-18T08:24:52.999Z</time></trkpt><trkpt lat="42.66049374124549" lon="11.640675787513109"><ele>273.0</ele><time>2026-04-18T08:24:53.999Z</time></trkpt><trkpt lat="42.660379438989935" lon="11.640532257508864"><ele>272.5</ele><time>2026-04-18T08:24:54.999Z</time></trkpt><trkpt lat="42.660260934644604" lon="11.640381676312685"><ele>272.0</ele><time>2026-04-18T08:24:55.999Z</time></trkpt><trkpt lat="42.660170878717324" lon="11.640238511943958"><ele>271.5</ele><time>2026-04-18T08:24:56.999Z</time></trkpt><trkpt lat="42.660090979368825" lon="11.640096511975893"><ele>271.0</ele><time>2026-04-18T08:24:57.999Z</time></trkpt><trkpt lat="42.660027406118914" lon="11.639950295992389"><ele>271.0</ele><time>2026-04-18T08:24:58.999Z</time></trkpt><trkpt lat="42.659971688424406" lon="11.639798149968787"><ele>271.0</ele><time>2026-04-18T08:24:59.999Z</time></trkpt><trkpt lat="42.659906436634294" lon="11.639625104878954"><ele>271.0</ele><time>2026-04-18T08:25:00.999Z</time></trkpt><trkpt lat="42.659849250495476" lon="11.639462465415429"><ele>271.0</ele><time>2026-04-18T08:25:01.999Z</time></trkpt><trkpt lat="42.65979402448876" lon="11.639302785471969"><ele>268.5</ele><time>2026-04-18T08:25:02.999Z</time></trkpt><trkpt lat="42.659726444830056" lon="11.639152092247668"><ele>266.0</ele><time>2026-04-18T08:25:03.999Z</time></trkpt><trkpt lat="42.65967367702263" lon="11.639016610140045"><ele>263.5</ele><time>2026-04-18T08:25:04.999Z</time></trkpt><trkpt lat="42.65963539265258" lon="11.63886795446717"><ele>261.0</ele><time>2026-04-18T08:25:05.999Z</time></trkpt><trkpt lat="42.659570355792674" lon="11.638738562529886"><ele>264.0</ele><time>2026-04-18T08:25:06.999Z</time></trkpt><trkpt lat="42.6595133617647" lon="11.638592581636276"><ele>267.0</ele><time>2026-04-18T08:25:07.999Z</time></trkpt><trkpt lat="42.65945222320692" lon="11.638433676873062"><ele>270.0</ele><time>2026-04-18T08:25:08.999Z</time></trkpt><trkpt lat="42.65939174900673" lon="11.638287349129898"><ele>273.0</ele><time>2026-04-18T08:25:09.999Z</time></trkpt><trkpt lat="42.65933238634666" lon="11.638139368668652"><ele>273.0</ele><time>2026-04-18T08:25:10.999Z</time></trkpt><trkpt lat="42.65927056987096" lon="11.638005646649056"><ele>273.0</ele><time>2026-04-18T08:25:11.999Z</time></trkpt><trkpt lat="42.659209022031824" lon="11.637861900268236"><ele>273.0</ele><time>2026-04-18T08:25:12.999Z</time></trkpt><trkpt lat="42.659147174770176" lon="11.637728865895397"><ele>273.0</ele><time>2026-04-18T08:25:13.999Z</time></trkpt><trkpt lat="42.65908927209437" lon="11.63757715417822"><ele>270.25</ele><time>2026-04-18T08:25:14.999Z</time></trkpt><trkpt lat="42.659031994009666" lon="11.637433134605665"><ele>267.5</ele><time>2026-04-18T08:25:15.999Z</time></trkpt><trkpt lat="42.658973925720765" lon="11.637292205419955"><ele>264.75</ele><time>2026-04-18T08:25:16.999Z</time></trkpt><trkpt lat="42.658900572923294" lon="11.637145164871136"><ele>262.0</ele><time>2026-04-18T08:25:17.999Z</time></trkpt><trkpt lat="42.658820493516245" lon="11.637031225772393"><ele>259.6</ele><time>2026-04-18T08:25:18.999Z</time></trkpt><trkpt lat="42.6587381381046" lon="11.636933232139812"><ele>257.2</ele><time>2026-04-18T08:25:19.999Z</time></trkpt><trkpt lat="42.65867241990208" lon="11.636825332894654"><ele>254.8</ele><time>2026-04-18T08:25:20.999Z</time></trkpt><trkpt lat="42.658609411285504" lon="11.636692007563887"><ele>252.4</ele><time>2026-04-18T08:25:21.999Z</time></trkpt><trkpt lat="42.65852429935162" lon="11.636581687768912"><ele>250.0</ele><time>2026-04-18T08:25:22.999Z</time></trkpt><trkpt lat="42.658435206583015" lon="11.636474044806281"><ele>249.99999999999997</ele><time>2026-04-18T08:25:23.999Z</time></trkpt><trkpt lat="42.65836781127504" lon="11.63636945277061"><ele>250.0</ele><time>2026-04-18T08:25:24.999Z</time></trkpt><trkpt lat="42.65830036176298" lon="11.636283329414072"><ele>250.0</ele><time>2026-04-18T08:25:25.999Z</time></trkpt><trkpt lat="42.65822614985709" lon="11.636219325495627"><ele>250.0</ele><time>2026-04-18T08:25:26.999Z</time></trkpt><trkpt lat="42.65816567844364" lon="11.636144246852075"><ele>249.99999999999997</ele><time>2026-04-18T08:25:27.999Z</time></trkpt><trkpt lat="42.6581162249989" lon="11.636079304343319"><ele>250.0</ele><time>2026-04-18T08:25:28.998Z</time></trkpt><trkpt lat="42.65802459451439" lon="11.636022262536569"><ele>245.6</ele><time>2026-04-18T08:25:30.998Z</time></trkpt><trkpt lat="42.65795648579954" lon="11.636020283251144"><ele>241.2</ele><time>2026-04-18T08:25:32.998Z</time></trkpt><trkpt lat="42.65788658780887" lon="11.636019226879569"><ele>236.8</ele><time>2026-04-18T08:25:35.998Z</time></trkpt><trkpt lat="42.65791194717389" lon="11.635834636176765"><ele>232.4</ele><time>2026-04-18T08:25:40.998Z</time></trkpt><trkpt lat="42.6579553240978" lon="11.635682615056307"><ele>228.0</ele><time>2026-04-18T08:25:42.998Z</time></trkpt><trkpt lat="42.657981858386556" lon="11.63558483510086"><ele>228.0</ele><time>2026-04-18T08:25:43.998Z</time></trkpt><trkpt lat="42.65801343774165" lon="11.635477893238141"><ele>228.0</ele><time>2026-04-18T08:25:44.998Z</time></trkpt><trkpt lat="42.65805154654242" lon="11.635359648454223"><ele>228.0</ele><time>2026-04-18T08:25:45.998Z</time></trkpt><trkpt lat="42.65808652922051" lon="11.635231104805179"><ele>228.0</ele><time>2026-04-18T08:25:46.998Z</time></trkpt><trkpt lat="42.65811793346188" lon="11.635113678518712"><ele>228.0</ele><time>2026-04-18T08:25:47.998Z</time></trkpt><trkpt lat="42.65814454435094" lon="11.63501452542183"><ele>227.60000000000002</ele><time>2026-04-18T08:25:48.998Z</time></trkpt><trkpt lat="42.65819191561379" lon="11.634885450687491"><ele>227.20000000000002</ele><time>2026-04-18T08:25:50.998Z</time></trkpt><trkpt lat="42.65831865014111" lon="11.634906039870662"><ele>226.8</ele><time>2026-04-18T08:25:53.998Z</time></trkpt><trkpt lat="42.658439608485445" lon="11.634957039027237"><ele>226.4</ele><time>2026-04-18T08:25:55.998Z</time></trkpt><trkpt lat="42.658507907837034" lon="11.63499325417918"><ele>226.0</ele><time>2026-04-18T08:25:56.998Z</time></trkpt><trkpt lat="42.65857427067917" lon="11.635031376228977"><ele>226.60000000000002</ele><time>2026-04-18T08:25:57.998Z</time></trkpt><trkpt lat="42.65865023103472" lon="11.635079455238557"><ele>227.20000000000002</ele><time>2026-04-18T08:25:58.998Z</time></trkpt><trkpt lat="42.65874247174032" lon="11.635146698806766"><ele>227.79999999999998</ele><time>2026-04-18T08:25:59.998Z</time></trkpt><trkpt lat="42.65882369073559" lon="11.635217964830302"><ele>228.39999999999998</ele><time>2026-04-18T08:26:00.998Z</time></trkpt><trkpt lat="42.65891562200672" lon="11.635264304344515"><ele>229.0</ele><time>2026-04-18T08:26:01.998Z</time></trkpt><trkpt lat="42.65899891175424" lon="11.63531719346516"><ele>229.0</ele><time>2026-04-18T08:26:02.998Z</time></trkpt><trkpt lat="42.65909722134808" lon="11.635349437932462"><ele>228.99999999999997</ele><time>2026-04-18T08:26:03.998Z</time></trkpt><trkpt lat="42.65920766605131" lon="11.635360928017214"><ele>228.99999999999997</ele><time>2026-04-18T08:26:04.998Z</time></trkpt><trkpt lat="42.65931170425026" lon="11.635367062719418"><ele>229.0</ele><time>2026-04-18T08:26:05.998Z</time></trkpt><trkpt lat="42.6594070325867" lon="11.635357431773878"><ele>229.0</ele><time>2026-04-18T08:26:06.999Z</time></trkpt><trkpt lat="42.65950629833212" lon="11.635344265525436"><ele>232.2</ele><time>2026-04-18T08:26:07.999Z</time></trkpt><trkpt lat="42.65959782620364" lon="11.635317443302371"><ele>235.39999999999998</ele><time>2026-04-18T08:26:08.999Z</time></trkpt><trkpt lat="42.65969970765338" lon="11.63528149694758"><ele>238.6</ele><time>2026-04-18T08:26:09.999Z</time></trkpt><trkpt lat="42.65980139276777" lon="11.635304573382564"><ele>241.8</ele><time>2026-04-18T08:26:10.999Z</time></trkpt><trkpt lat="42.65989106181085" lon="11.635327107792097"><ele>245.0</ele><time>2026-04-18T08:26:11.999Z</time></trkpt><trkpt lat="42.65998563539767" lon="11.635367675681056"><ele>245.0</ele><time>2026-04-18T08:26:12.999Z</time></trkpt><trkpt lat="42.66006630832839" lon="11.635405209305565"><ele>245.0</ele><time>2026-04-18T08:26:13.999Z</time></trkpt><trkpt lat="42.660153179994204" lon="11.635452159991136"><ele>245.0</ele><time>2026-04-18T08:26:14.999Z</time></trkpt><trkpt lat="42.66026383738394" lon="11.63551707181008"><ele>245.0</ele><time>2026-04-18T08:26:15.999Z</time></trkpt><trkpt lat="42.66037932824151" lon="11.635584818950987"><ele>245.0</ele><time>2026-04-18T08:26:16.999Z</time></trkpt><trkpt lat="42.66046656584805" lon="11.635637556159857"><ele>248.33333333333334</ele><time>2026-04-18T08:26:17.999Z</time></trkpt><trkpt lat="42.66053892681238" lon="11.635681798969822"><ele>251.66666666666669</ele><time>2026-04-18T08:26:18.999Z</time></trkpt><trkpt lat="42.660616203152514" lon="11.63572904720788"><ele>255.0</ele><time>2026-04-18T08:26:19.999Z</time></trkpt><trkpt lat="42.66070154789128" lon="11.635760012173092"><ele>258.3333333333333</ele><time>2026-04-18T08:26:20.999Z</time></trkpt><trkpt lat="42.660766915672184" lon="11.635795947150799"><ele>261.66666666666663</ele><time>2026-04-18T08:26:21.999Z</time></trkpt><trkpt lat="42.66084979144004" lon="11.635856453643472"><ele>265.0</ele><time>2026-04-18T08:26:22.999Z</time></trkpt><trkpt lat="42.66093794901532" lon="11.635881629802023"><ele>265.0</ele><time>2026-04-18T08:26:23.999Z</time></trkpt><trkpt lat="42.66100340580303" lon="11.63593868425684"><ele>265.0</ele><time>2026-04-18T08:26:24.999Z</time></trkpt><trkpt lat="42.661109201289406" lon="11.635959385260541"><ele>265.0</ele><time>2026-04-18T08:26:25.999Z</time></trkpt><trkpt lat="42.66120422281581" lon="11.635966629365331"><ele>265.0</ele><time>2026-04-18T08:26:26.999Z</time></trkpt><trkpt lat="42.66130474370811" lon="11.635949343147358"><ele>265.0</ele><time>2026-04-18T08:26:27.999Z</time></trkpt><trkpt lat="42.66138373225107" lon="11.63595673752871"><ele>265.71428571428567</ele><time>2026-04-18T08:26:28.999Z</time></trkpt><trkpt lat="42.6614511849414" lon="11.635934918930595"><ele>266.42857142857144</ele><time>2026-04-18T08:26:29.999Z</time></trkpt><trkpt lat="42.66151563117666" lon="11.635935918017218"><ele>267.1428571428571</ele><time>2026-04-18T08:26:30.999Z</time></trkpt><trkpt lat="42.66158595398544" lon="11.635934625877054"><ele>267.85714285714283</ele><time>2026-04-18T08:26:31.999Z</time></trkpt><trkpt lat="42.6616574102008" lon="11.635969496627174"><ele>268.57142857142856</ele><time>2026-04-18T08:26:32.999Z</time></trkpt><trkpt lat="42.66172129642537" lon="11.635979534897924"><ele>269.2857142857143</ele><time>2026-04-18T08:26:33.999Z</time></trkpt><trkpt lat="42.66178729343844" lon="11.635989279729367"><ele>270.0</ele><time>2026-04-18T08:26:34.999Z</time></trkpt><trkpt lat="42.66186660693161" lon="11.636020969946758"><ele>270.0</ele><time>2026-04-18T08:26:35.999Z</time></trkpt><trkpt lat="42.6619470112325" lon="11.636024070976596"><ele>270.0</ele><time>2026-04-18T08:26:36.999Z</time></trkpt><trkpt lat="42.662045099861544" lon="11.635992328736895"><ele>270.0</ele><time>2026-04-18T08:26:37.999Z</time></trkpt><trkpt lat="42.6621126813752" lon="11.636029248107867"><ele>270.0</ele><time>2026-04-18T08:26:38.999Z</time></trkpt><trkpt lat="42.66219729338213" lon="11.636044286881589"><ele>270.0</ele><time>2026-04-18T08:26:39.999Z</time></trkpt><trkpt lat="42.66232232793493" lon="11.63612975674669"><ele>270.6</ele><time>2026-04-18T08:26:41.999Z</time></trkpt><trkpt lat="42.662400166722385" lon="11.636177956876514"><ele>271.2</ele><time>2026-04-18T08:26:42.999Z</time></trkpt><trkpt lat="42.66250395387513" lon="11.636250125323043"><ele>271.8</ele><time>2026-04-18T08:26:44.999Z</time></trkpt><trkpt lat="42.66259123141876" lon="11.636288947752323"><ele>272.4</ele><time>2026-04-18T08:26:45.999Z</time></trkpt><trkpt lat="42.66266756257507" lon="11.636333102388342"><ele>273.0</ele><time>2026-04-18T08:26:46.999Z</time></trkpt><trkpt lat="42.66274707326363" lon="11.636385017677153"><ele>272.6666666666667</ele><time>2026-04-18T08:26:47.999Z</time></trkpt><trkpt lat="42.66279827828326" lon="11.636445119570732"><ele>272.3333333333333</ele><time>2026-04-18T08:26:48.999Z</time></trkpt><trkpt lat="42.66286765431839" lon="11.636503205879823"><ele>272.0</ele><time>2026-04-18T08:26:49.999Z</time></trkpt><trkpt lat="42.6629463891891" lon="11.63658823997903"><ele>271.66666666666663</ele><time>2026-04-18T08:26:50.999Z</time></trkpt><trkpt lat="42.6630223228236" lon="11.636667413616596"><ele>271.3333333333333</ele><time>2026-04-18T08:26:51.999Z</time></trkpt><trkpt lat="42.66309001396628" lon="11.636744885388957"><ele>271.0</ele><time>2026-04-18T08:26:52.999Z</time></trkpt><trkpt lat="42.66313131762966" lon="11.636828286440702"><ele>271.0</ele><time>2026-04-18T08:26:53.999Z</time></trkpt><trkpt lat="42.663176379827426" lon="11.636895073596808"><ele>271.0</ele><time>2026-04-18T08:26:54.999Z</time></trkpt><trkpt lat="42.66321564866137" lon="11.636980433576216"><ele>271.0</ele><time>2026-04-18T08:26:56.999Z</time></trkpt><trkpt lat="42.66316291153655" lon="11.637109332620764"><ele>271.0</ele><time>2026-04-18T08:26:58.999Z</time></trkpt><trkpt lat="42.663144379916204" lon="11.637194188716792"><ele>271.0</ele><time>2026-04-18T08:26:59.999Z</time></trkpt><trkpt lat="42.66313962582907" lon="11.63729590685359"><ele>271.0</ele><time>2026-04-18T08:27:00.999Z</time></trkpt><trkpt lat="42.66318330210502" lon="11.637379612409223"><ele>272.2</ele><time>2026-04-18T08:27:01.999Z</time></trkpt><trkpt lat="42.66324201944644" lon="11.637460576238821"><ele>273.40000000000003</ele><time>2026-04-18T08:27:02.999Z</time></trkpt><trkpt lat="42.66332373139604" lon="11.637560980394781"><ele>274.6</ele><time>2026-04-18T08:27:03.999Z</time></trkpt><trkpt lat="42.66340432681626" lon="11.637671625583437"><ele>275.8</ele><time>2026-04-18T08:27:04.999Z</time></trkpt><trkpt lat="42.66347675817367" lon="11.637788302231687"><ele>277.0</ele><time>2026-04-18T08:27:05.999Z</time></trkpt><trkpt lat="42.663543126150515" lon="11.637903527174018"><ele>277.0</ele><time>2026-04-18T08:27:06.999Z</time></trkpt><trkpt lat="42.663607788757055" lon="11.638002014917479"><ele>277.0</ele><time>2026-04-18T08:27:07.999Z</time></trkpt><trkpt lat="42.66368782143408" lon="11.63808601352974"><ele>277.0</ele><time>2026-04-18T08:27:08.999Z</time></trkpt><trkpt lat="42.6637776713206" lon="11.638152815475193"><ele>277.0</ele><time>2026-04-18T08:27:09.999Z</time></trkpt><trkpt lat="42.66386681567386" lon="11.638221921743753"><ele>277.0</ele><time>2026-04-18T08:27:10.999Z</time></trkpt><trkpt lat="42.6639231343432" lon="11.638333633952348"><ele>277.0</ele><time>2026-04-18T08:27:11.999Z</time></trkpt><trkpt lat="42.663968331611706" lon="11.638439486193292"><ele>277.0</ele><time>2026-04-18T08:27:12.999Z</time></trkpt><trkpt lat="42.66401547967617" lon="11.638561830637167"><ele>277.0</ele><time>2026-04-18T08:27:13.999Z</time></trkpt><trkpt lat="42.66405100132818" lon="11.63868048338722"><ele>277.0</ele><time>2026-04-18T08:27:14.999Z</time></trkpt><trkpt lat="42.66409461062421" lon="11.63879469653184"><ele>277.0</ele><time>2026-04-18T08:27:15.999Z</time></trkpt><trkpt lat="42.66411100835114" lon="11.638924451638927"><ele>277.0</ele><time>2026-04-18T08:27:16.999Z</time></trkpt><trkpt lat="42.664120636652726" lon="11.63905606055619"><ele>277.0</ele><time>2026-04-18T08:27:17.999Z</time></trkpt><trkpt lat="42.664101662973174" lon="11.639178837388986"><ele>277.0</ele><time>2026-04-18T08:27:18.999Z</time></trkpt><trkpt lat="42.664152731719724" lon="11.639307587886787"><ele>277.0</ele><time>2026-04-18T08:27:19.999Z</time></trkpt><trkpt lat="42.66420356619043" lon="11.639422123081024"><ele>277.0</ele><time>2026-04-18T08:27:20.999Z</time></trkpt><trkpt lat="42.66426374069396" lon="11.639534060580143"><ele>276.6</ele><time>2026-04-18T08:27:21.999Z</time></trkpt><trkpt lat="42.664303402906654" lon="11.639662782311582"><ele>276.2</ele><time>2026-04-18T08:27:22.999Z</time></trkpt><trkpt lat="42.66433201883464" lon="11.639779549395184"><ele>275.8</ele><time>2026-04-18T08:27:23.999Z</time></trkpt><trkpt lat="42.664357236582674" lon="11.639909323236662"><ele>275.4</ele><time>2026-04-18T08:27:24.999Z</time></trkpt><trkpt lat="42.66437409955463" lon="11.640024271084945"><ele>275.0</ele><time>2026-04-18T08:27:25.999Z</time></trkpt><trkpt lat="42.66441989786694" lon="11.640140102403066"><ele>276.0</ele><time>2026-04-18T08:27:26.999Z</time></trkpt><trkpt lat="42.66448869295844" lon="11.64024080331611"><ele>277.0</ele><time>2026-04-18T08:27:27.999Z</time></trkpt><trkpt lat="42.66458258262279" lon="11.64030399954881"><ele>278.0</ele><time>2026-04-18T08:27:28.999Z</time></trkpt><trkpt lat="42.66466960597977" lon="11.640358462807132"><ele>279.0</ele><time>2026-04-18T08:27:29.999Z</time></trkpt><trkpt lat="42.664741633759924" lon="11.640402536843274"><ele>280.0</ele><time>2026-04-18T08:27:30.999Z</time></trkpt><trkpt lat="42.66480455786815" lon="11.64046071432865"><ele>280.4</ele><time>2026-04-18T08:27:31.999Z</time></trkpt><trkpt lat="42.66485718437422" lon="11.64061512113474"><ele>280.8</ele><time>2026-04-18T08:27:33.998Z</time></trkpt><trkpt lat="42.6648487469953" lon="11.640701831423478"><ele>281.2</ele><time>2026-04-18T08:27:34.998Z</time></trkpt><trkpt lat="42.66484657056301" lon="11.640822749844093"><ele>281.6</ele><time>2026-04-18T08:27:35.998Z</time></trkpt><trkpt lat="42.664852186985314" lon="11.640916832615671"><ele>282.0</ele><time>2026-04-18T08:27:36.998Z</time></trkpt><trkpt lat="42.66486116906847" lon="11.641063212744156"><ele>281.8</ele><time>2026-04-18T08:27:38.998Z</time></trkpt><trkpt lat="42.66493895716651" lon="11.64119789431108"><ele>281.6</ele><time>2026-04-18T08:27:40.998Z</time></trkpt><trkpt lat="42.66503437492568" lon="11.641238949547537"><ele>281.40000000000003</ele><time>2026-04-18T08:27:41.998Z</time></trkpt><trkpt lat="42.6651120946466" lon="11.641280797268026"><ele>281.2</ele><time>2026-04-18T08:27:42.998Z</time></trkpt><trkpt lat="42.66518500802337" lon="11.641344320609885"><ele>281.0</ele><time>2026-04-18T08:27:43.998Z</time></trkpt><trkpt lat="42.665252607965286" lon="11.641417754462234"><ele>282.0</ele><time>2026-04-18T08:27:44.998Z</time></trkpt><trkpt lat="42.66531914621722" lon="11.641492933584015"><ele>283.0</ele><time>2026-04-18T08:27:45.998Z</time></trkpt><trkpt lat="42.665394237225435" lon="11.641578368620722"><ele>284.0</ele><time>2026-04-18T08:27:46.998Z</time></trkpt><trkpt lat="42.66547320658372" lon="11.641665026018032"><ele>285.0</ele><time>2026-04-18T08:27:47.998Z</time></trkpt><trkpt lat="42.66556541469863" lon="11.64175934992498"><ele>286.0</ele><time>2026-04-18T08:27:48.998Z</time></trkpt><trkpt lat="42.66564741680849" lon="11.641845284537238"><ele>286.0</ele><time>2026-04-18T08:27:49.998Z</time></trkpt><trkpt lat="42.66573074705784" lon="11.64193453852614"><ele>286.0</ele><time>2026-04-18T08:27:50.998Z</time></trkpt><trkpt lat="42.66580048941004" lon="11.641999676866915"><ele>286.0</ele><time>2026-04-18T08:27:51.998Z</time></trkpt><trkpt lat="42.665862609516594" lon="11.642048440814564"><ele>286.0</ele><time>2026-04-18T08:27:52.998Z</time></trkpt><trkpt lat="42.66593840824661" lon="11.642086228791001"><ele>286.0</ele><time>2026-04-18T08:27:53.998Z</time></trkpt><trkpt lat="42.66603431523311" lon="11.642075694233316"><ele>286.0</ele><time>2026-04-18T08:27:54.998Z</time></trkpt><trkpt lat="42.66612743789601" lon="11.642114165634418"><ele>288.16666666666663</ele><time>2026-04-18T08:27:55.998Z</time></trkpt><trkpt lat="42.66622481793188" lon="11.642144184838552"><ele>290.3333333333333</ele><time>2026-04-18T08:27:56.998Z</time></trkpt><trkpt lat="42.6662979454507" lon="11.642192556016116"><ele>292.5</ele><time>2026-04-18T08:27:57.998Z</time></trkpt><trkpt lat="42.66635581280186" lon="11.64225646503555"><ele>294.6666666666667</ele><time>2026-04-18T08:27:58.998Z</time></trkpt><trkpt lat="42.66640995372533" lon="11.642340348216553"><ele>296.83333333333337</ele><time>2026-04-18T08:27:59.998Z</time></trkpt><trkpt lat="42.66647224043991" lon="11.642443371099086"><ele>299.0</ele><time>2026-04-18T08:28:00.998Z</time></trkpt><trkpt lat="42.66654506697774" lon="11.64254428224456"><ele>299.0</ele><time>2026-04-18T08:28:01.998Z</time></trkpt><trkpt lat="42.66660698130462" lon="11.64263770496695"><ele>299.0</ele><time>2026-04-18T08:28:02.998Z</time></trkpt><trkpt lat="42.66667142993666" lon="11.642708698970198"><ele>299.0</ele><time>2026-04-18T08:28:03.998Z</time></trkpt><trkpt lat="42.6667598926382" lon="11.642785360665922"><ele>299.0</ele><time>2026-04-18T08:28:04.998Z</time></trkpt><trkpt lat="42.66686573533791" lon="11.642846818468545"><ele>299.0</ele><time>2026-04-18T08:28:05.998Z</time></trkpt><trkpt lat="42.66696141391325" lon="11.642908311007696"><ele>301.5</ele><time>2026-04-18T08:28:06.998Z</time></trkpt><trkpt lat="42.6670397922205" lon="11.643010726333962"><ele>304.0</ele><time>2026-04-18T08:28:07.998Z</time></trkpt><trkpt lat="42.667141816771895" lon="11.643084922501231"><ele>306.5</ele><time>2026-04-18T08:28:08.998Z</time></trkpt><trkpt lat="42.66724165666916" lon="11.64316588263582"><ele>309.0</ele><time>2026-04-18T08:28:09.998Z</time></trkpt><trkpt lat="42.66732907299228" lon="11.643276669981747"><ele>309.0</ele><time>2026-04-18T08:28:10.998Z</time></trkpt><trkpt lat="42.66741937500447" lon="11.643367892352853"><ele>309.0</ele><time>2026-04-18T08:28:11.998Z</time></trkpt><trkpt lat="42.667527077467206" lon="11.64345497351548"><ele>309.0</ele><time>2026-04-18T08:28:13Z</time></trkpt><trkpt lat="42.66761558116932" lon="11.643573000858064"><ele>309.0</ele><time>2026-04-18T08:28:14Z</time></trkpt><trkpt lat="42.667714050024436" lon="11.643662752842822"><ele>310.25</ele><time>2026-04-18T08:28:15Z</time></trkpt><trkpt lat="42.667806808498604" lon="11.643769735533626"><ele>311.5</ele><time>2026-04-18T08:28:16Z</time></trkpt><trkpt lat="42.66787835691895" lon="11.64386262167411"><ele>312.75</ele><time>2026-04-18T08:28:17Z</time></trkpt><trkpt lat="42.66794904791246" lon="11.643979928642977"><ele>314.0</ele><time>2026-04-18T08:28:17.999Z</time></trkpt><trkpt lat="42.668021306208225" lon="11.644107608039905"><ele>314.0</ele><time>2026-04-18T08:28:19Z</time></trkpt><trkpt lat="42.66810057570658" lon="11.644230457263587"><ele>314.0</ele><time>2026-04-18T08:28:20Z</time></trkpt><trkpt lat="42.6681822240492" lon="11.644360587694623"><ele>314.0</ele><time>2026-04-18T08:28:21Z</time></trkpt><trkpt lat="42.66827001241357" lon="11.644481964634064"><ele>314.0</ele><time>2026-04-18T08:28:22Z</time></trkpt><trkpt lat="42.66834858324531" lon="11.64461283437806"><ele>314.75</ele><time>2026-04-18T08:28:23Z</time></trkpt><trkpt lat="42.66844772367672" lon="11.644711780519593"><ele>315.5</ele><time>2026-04-18T08:28:24Z</time></trkpt><trkpt lat="42.66853031609772" lon="11.644815226909383"><ele>316.25</ele><time>2026-04-18T08:28:25Z</time></trkpt><trkpt lat="42.66861960619776" lon="11.644910314920475"><ele>317.0</ele><time>2026-04-18T08:28:26Z</time></trkpt><trkpt lat="42.6687212555759" lon="11.644991981698094"><ele>317.5</ele><time>2026-04-18T08:28:26.999Z</time></trkpt><trkpt lat="42.66882344476365" lon="11.645060172198503"><ele>318.0</ele><time>2026-04-18T08:28:27.999Z</time></trkpt><trkpt lat="42.668932216559675" lon="11.645116643420423"><ele>318.5</ele><time>2026-04-18T08:28:28.999Z</time></trkpt><trkpt lat="42.66904974829773" lon="11.645154652348745"><ele>319.0</ele><time>2026-04-18T08:28:29.999Z</time></trkpt><trkpt lat="42.669181473571406" lon="11.64518931665646"><ele>319.0</ele><time>2026-04-18T08:28:30.999Z</time></trkpt><trkpt lat="42.66931430648158" lon="11.64523207441729"><ele>319.0</ele><time>2026-04-18T08:28:31.999Z</time></trkpt><trkpt lat="42.669454237344866" lon="11.645277305411945"><ele>319.0</ele><time>2026-04-18T08:28:32.999Z</time></trkpt><trkpt lat="42.66959631232006" lon="11.645332977530758"><ele>319.0</ele><time>2026-04-18T08:28:33.999Z</time></trkpt><trkpt lat="42.66972998046467" lon="11.64537610169159"><ele>319.5</ele><time>2026-04-18T08:28:34.999Z</time></trkpt><trkpt lat="42.66986497689174" lon="11.645430141138698"><ele>320.0</ele><time>2026-04-18T08:28:35.999Z</time></trkpt><trkpt lat="42.67000415665115" lon="11.645486707524737"><ele>320.5</ele><time>2026-04-18T08:28:36.999Z</time></trkpt><trkpt lat="42.67016025845479" lon="11.645545523254764"><ele>321.0</ele><time>2026-04-18T08:28:37.999Z</time></trkpt><trkpt lat="42.67032707530559" lon="11.6456206223486"><ele>322.0</ele><time>2026-04-18T08:28:38.999Z</time></trkpt><trkpt lat="42.670467620965184" lon="11.645677557827266"><ele>323.0</ele><time>2026-04-18T08:28:39.999Z</time></trkpt><trkpt lat="42.670602298475735" lon="11.64569883866355"><ele>324.0</ele><time>2026-04-18T08:28:40.999Z</time></trkpt><trkpt lat="42.670717817947605" lon="11.645766798591534"><ele>325.0</ele><time>2026-04-18T08:28:41.999Z</time></trkpt><trkpt lat="42.67085615374646" lon="11.645838955092373"><ele>325.0</ele><time>2026-04-18T08:28:42.999Z</time></trkpt><trkpt lat="42.67102432036814" lon="11.645926411140486"><ele>325.0</ele><time>2026-04-18T08:28:43.999Z</time></trkpt><trkpt lat="42.67117049463259" lon="11.646004514442415"><ele>325.0</ele><time>2026-04-18T08:28:44.999Z</time></trkpt><trkpt lat="42.67131686827431" lon="11.64607436700837"><ele>326.66666666666663</ele><time>2026-04-18T08:28:45.999Z</time></trkpt><trkpt lat="42.6714616361678" lon="11.64609421682418"><ele>328.3333333333333</ele><time>2026-04-18T08:28:46.999Z</time></trkpt><trkpt lat="42.67161184906115" lon="11.646143978813933"><ele>330.0</ele><time>2026-04-18T08:28:47.999Z</time></trkpt><trkpt lat="42.67176408962413" lon="11.646181476793622"><ele>330.6666666666667</ele><time>2026-04-18T08:28:48.999Z</time></trkpt><trkpt lat="42.671947665919774" lon="11.646228536306708"><ele>331.33333333333337</ele><time>2026-04-18T08:28:49.999Z</time></trkpt><trkpt lat="42.67210670041565" lon="11.646271168604507"><ele>332.0</ele><time>2026-04-18T08:28:50.999Z</time></trkpt><trkpt lat="42.672253423535565" lon="11.646317340182112"><ele>332.0</ele><time>2026-04-18T08:28:51.999Z</time></trkpt><trkpt lat="42.67239645642023" lon="11.64636666965939"><ele>332.0</ele><time>2026-04-18T08:28:52.999Z</time></trkpt><trkpt lat="42.672533858632086" lon="11.64641709655689"><ele>332.0</ele><time>2026-04-18T08:28:53.999Z</time></trkpt><trkpt lat="42.67267115859837" lon="11.646470470489838"><ele>332.0</ele><time>2026-04-18T08:28:54.999Z</time></trkpt><trkpt lat="42.67281559928845" lon="11.646538732639534"><ele>333.25</ele><time>2026-04-18T08:28:55.999Z</time></trkpt><trkpt lat="42.67294786954465" lon="11.64661710208783"><ele>334.5</ele><time>2026-04-18T08:28:56.999Z</time></trkpt><trkpt lat="42.67305160402818" lon="11.64669200126075"><ele>335.75</ele><time>2026-04-18T08:28:57.999Z</time></trkpt><trkpt lat="42.673139065448005" lon="11.646768835082943"><ele>337.0</ele><time>2026-04-18T08:28:58.999Z</time></trkpt><trkpt lat="42.67322372376332" lon="11.646835255938647"><ele>337.5</ele><time>2026-04-18T08:28:59.999Z</time></trkpt><trkpt lat="42.67328429423605" lon="11.646997827894248"><ele>338.0</ele><time>2026-04-18T08:29:00.999Z</time></trkpt><trkpt lat="42.67339734470132" lon="11.647118621450314"><ele>338.5</ele><time>2026-04-18T08:29:01.999Z</time></trkpt><trkpt lat="42.673473800811294" lon="11.647236761635966"><ele>339.0</ele><time>2026-04-18T08:29:02.999Z</time></trkpt><trkpt lat="42.67355269294508" lon="11.647348418457543"><ele>339.0</ele><time>2026-04-18T08:29:03.999Z</time></trkpt><trkpt lat="42.67358441427281" lon="11.647484826565526"><ele>339.0</ele><time>2026-04-18T08:29:04.999Z</time></trkpt><trkpt lat="42.67367134472685" lon="11.647560156762385"><ele>339.0</ele><time>2026-04-18T08:29:05.999Z</time></trkpt><trkpt lat="42.67376200273061" lon="11.647649510265378"><ele>339.0</ele><time>2026-04-18T08:29:06.999Z</time></trkpt><trkpt lat="42.67385346252563" lon="11.647769803821653"><ele>339.0</ele><time>2026-04-18T08:29:07.999Z</time></trkpt><trkpt lat="42.673927072553354" lon="11.647883564923246"><ele>339.4</ele><time>2026-04-18T08:29:08.999Z</time></trkpt><trkpt lat="42.67399558378667" lon="11.647973595095982"><ele>339.79999999999995</ele><time>2026-04-18T08:29:09.999Z</time></trkpt><trkpt lat="42.674069069073965" lon="11.648065447776965"><ele>340.20000000000005</ele><time>2026-04-18T08:29:10.999Z</time></trkpt><trkpt lat="42.674144343777805" lon="11.648156516481093"><ele>340.6</ele><time>2026-04-18T08:29:11.999Z</time></trkpt><trkpt lat="42.674225879619236" lon="11.64823890328111"><ele>341.0</ele><time>2026-04-18T08:29:12.999Z</time></trkpt><trkpt lat="42.67431880480115" lon="11.648312138266704"><ele>341.0</ele><time>2026-04-18T08:29:13.999Z</time></trkpt><trkpt lat="42.67443554634729" lon="11.648361345610502"><ele>341.0</ele><time>2026-04-18T08:29:14.999Z</time></trkpt><trkpt lat="42.67455493519134" lon="11.648408722701397"><ele>341.0</ele><time>2026-04-18T08:29:15.999Z</time></trkpt><trkpt lat="42.67468376039248" lon="11.648454422096286"><ele>341.0</ele><time>2026-04-18T08:29:16.999Z</time></trkpt><trkpt lat="42.67480442965814" lon="11.64850638131172"><ele>341.20000000000005</ele><time>2026-04-18T08:29:17.999Z</time></trkpt><trkpt lat="42.674925438812174" lon="11.648557865770355"><ele>341.40000000000003</ele><time>2026-04-18T08:29:18.999Z</time></trkpt><trkpt lat="42.675033568977746" lon="11.648593573323565"><ele>341.6</ele><time>2026-04-18T08:29:19.999Z</time></trkpt><trkpt lat="42.67513654670422" lon="11.64862154759081"><ele>341.8</ele><time>2026-04-18T08:29:20.999Z</time></trkpt><trkpt lat="42.675232697790285" lon="11.648640991014476"><ele>342.0</ele><time>2026-04-18T08:29:21.999Z</time></trkpt><trkpt lat="42.675308751544875" lon="11.648657169619982"><ele>343.0</ele><time>2026-04-18T08:29:22.999Z</time></trkpt><trkpt lat="42.675416856092646" lon="11.648676700174676"><ele>344.0</ele><time>2026-04-18T08:29:24.999Z</time></trkpt><trkpt lat="42.67548180814462" lon="11.648661943392863"><ele>345.0</ele><time>2026-04-18T08:29:25.999Z</time></trkpt><trkpt lat="42.67554898478622" lon="11.648595852625947"><ele>346.0</ele><time>2026-04-18T08:29:26.999Z</time></trkpt><trkpt lat="42.67556706400219" lon="11.648446423331242"><ele>347.0</ele><time>2026-04-18T08:29:27.999Z</time></trkpt><trkpt lat="42.675619654711845" lon="11.648320932487907"><ele>347.25</ele><time>2026-04-18T08:29:28.999Z</time></trkpt><trkpt lat="42.67567184680905" lon="11.648168891029943"><ele>347.5</ele><time>2026-04-18T08:29:29.999Z</time></trkpt><trkpt lat="42.67572728069035" lon="11.648009178635377"><ele>347.75</ele><time>2026-04-18T08:29:30.999Z</time></trkpt><trkpt lat="42.67578679637295" lon="11.647835692829524"><ele>348.0</ele><time>2026-04-18T08:29:31.999Z</time></trkpt><trkpt lat="42.675851000165004" lon="11.64765503257941"><ele>346.6666666666667</ele><time>2026-04-18T08:29:32.999Z</time></trkpt><trkpt lat="42.6759143697109" lon="11.647436058414451"><ele>345.33333333333337</ele><time>2026-04-18T08:29:33.999Z</time></trkpt><trkpt lat="42.67595582179545" lon="11.647205000754285"><ele>344.0</ele><time>2026-04-18T08:29:34.999Z</time></trkpt><trkpt lat="42.67599568518555" lon="11.646986330831943"><ele>343.75</ele><time>2026-04-18T08:29:35.999Z</time></trkpt><trkpt lat="42.676053672974604" lon="11.64679208019722"><ele>343.5</ele><time>2026-04-18T08:29:36.999Z</time></trkpt><trkpt lat="42.67606552924755" lon="11.646608468269749"><ele>343.25</ele><time>2026-04-18T08:29:37.999Z</time></trkpt><trkpt lat="42.676095461710545" lon="11.646440416881056"><ele>343.0</ele><time>2026-04-18T08:29:38.999Z</time></trkpt><trkpt lat="42.67613256810966" lon="11.64630246343975"><ele>343.75</ele><time>2026-04-18T08:29:39.999Z</time></trkpt><trkpt lat="42.6761891078492" lon="11.646169536002425"><ele>344.5</ele><time>2026-04-18T08:29:40.999Z</time></trkpt><trkpt lat="42.6762930700834" lon="11.646098909273583"><ele>345.25</ele><time>2026-04-18T08:29:41.999Z</time></trkpt><trkpt lat="42.67635684137708" lon="11.64595034344006"><ele>346.0</ele><time>2026-04-18T08:29:42.998Z</time></trkpt><trkpt lat="42.67642530349308" lon="11.645747882469527"><ele>346.0</ele><time>2026-04-18T08:29:43.998Z</time></trkpt><trkpt lat="42.676474118702984" lon="11.64557048365544"><ele>346.0</ele><time>2026-04-18T08:29:44.998Z</time></trkpt><trkpt lat="42.6765208292332" lon="11.645419301082159"><ele>346.0</ele><time>2026-04-18T08:29:45.998Z</time></trkpt><trkpt lat="42.676561329873465" lon="11.645289638677474"><ele>346.0</ele><time>2026-04-18T08:29:46.998Z</time></trkpt><trkpt lat="42.67659060793142" lon="11.645181010954545"><ele>346.0</ele><time>2026-04-18T08:29:47.998Z</time></trkpt><trkpt lat="42.676640383112236" lon="11.645063458208684"><ele>345.3333333333333</ele><time>2026-04-18T08:29:49.998Z</time></trkpt><trkpt lat="42.6764838753143" lon="11.644835211258075"><ele>344.6666666666667</ele><time>2026-04-18T08:29:51.998Z</time></trkpt><trkpt lat="42.67636533848111" lon="11.644682368191067"><ele>344.0</ele><time>2026-04-18T08:29:52.998Z</time></trkpt><trkpt lat="42.67623439427787" lon="11.644515168884782"><ele>343.0</ele><time>2026-04-18T08:29:53.998Z</time></trkpt><trkpt lat="42.67610059802367" lon="11.644326654427282"><ele>342.0</ele><time>2026-04-18T08:29:54.998Z</time></trkpt><trkpt lat="42.67594132826816" lon="11.644103185764003"><ele>341.0</ele><time>2026-04-18T08:29:55.998Z</time></trkpt><trkpt lat="42.675778555754206" lon="11.643871227036477"><ele>341.5</ele><time>2026-04-18T08:29:56.998Z</time></trkpt><trkpt lat="42.67560723080545" lon="11.643626779083263"><ele>342.0</ele><time>2026-04-18T08:29:57.998Z</time></trkpt><trkpt lat="42.67545282352596" lon="11.643404514296687"><ele>342.0</ele><time>2026-04-18T08:29:58.998Z</time></trkpt><trkpt lat="42.67531383417546" lon="11.643201948214703"><ele>342.0</ele><time>2026-04-18T08:29:59.998Z</time></trkpt><trkpt lat="42.67517457113758" lon="11.643002476736656"><ele>342.0</ele><time>2026-04-18T08:30:00.998Z</time></trkpt><trkpt lat="42.67502703566661" lon="11.642801385879752"><ele>341.3333333333333</ele><time>2026-04-18T08:30:01.998Z</time></trkpt><trkpt lat="42.6748637181494" lon="11.642619575421488"><ele>340.66666666666663</ele><time>2026-04-18T08:30:02.998Z</time></trkpt><trkpt lat="42.67469057489381" lon="11.642446546291476"><ele>340.0</ele><time>2026-04-18T08:30:03.998Z</time></trkpt><trkpt lat="42.67451918896652" lon="11.642271602157582"><ele>339.3333333333333</ele><time>2026-04-18T08:30:04.998Z</time></trkpt><trkpt lat="42.67436043058682" lon="11.642105256714533"><ele>338.6666666666667</ele><time>2026-04-18T08:30:05.998Z</time></trkpt><trkpt lat="42.674204003607755" lon="11.641960992291569"><ele>338.0</ele><time>2026-04-18T08:30:06.998Z</time></trkpt><trkpt lat="42.674036854030696" lon="11.641837464906873"><ele>337.6666666666667</ele><time>2026-04-18T08:30:07.998Z</time></trkpt><trkpt lat="42.67385365845824" lon="11.641734590390174"><ele>337.3333333333333</ele><time>2026-04-18T08:30:08.998Z</time></trkpt><trkpt lat="42.67366490818994" lon="11.641641612070915"><ele>337.0</ele><time>2026-04-18T08:30:09.998Z</time></trkpt><trkpt lat="42.67346949676487" lon="11.6415347808588"><ele>336.3333333333333</ele><time>2026-04-18T08:30:10.998Z</time></trkpt><trkpt lat="42.67327501532353" lon="11.641427859224784"><ele>335.6666666666667</ele><time>2026-04-18T08:30:11.998Z</time></trkpt><trkpt lat="42.67307871016996" lon="11.641315826395877"><ele>335.0</ele><time>2026-04-18T08:30:12.998Z</time></trkpt><trkpt lat="42.672885646481625" lon="11.6411916138049"><ele>334.0</ele><time>2026-04-18T08:30:13.998Z</time></trkpt><trkpt lat="42.67270077390531" lon="11.641041049561094"><ele>333.0</ele><time>2026-04-18T08:30:14.998Z</time></trkpt><trkpt lat="42.67252847783247" lon="11.640859757497525"><ele>332.0</ele><time>2026-04-18T08:30:15.998Z</time></trkpt><trkpt lat="42.67235926939882" lon="11.640668013004623"><ele>332.0</ele><time>2026-04-18T08:30:16.998Z</time></trkpt><trkpt lat="42.67218993775422" lon="11.640471299777424"><ele>332.0</ele><time>2026-04-18T08:30:17.998Z</time></trkpt><trkpt lat="42.67202683863457" lon="11.640269912166989"><ele>332.0</ele><time>2026-04-18T08:30:19Z</time></trkpt><trkpt lat="42.67187079022426" lon="11.640053337880298"><ele>330.33333333333337</ele><time>2026-04-18T08:30:20Z</time></trkpt><trkpt lat="42.67171720318558" lon="11.639840009337076"><ele>328.6666666666667</ele><time>2026-04-18T08:30:21Z</time></trkpt><trkpt lat="42.67156764588456" lon="11.63962888877975"><ele>327.0</ele><time>2026-04-18T08:30:22Z</time></trkpt><trkpt lat="42.67141094327028" lon="11.639412426534237"><ele>326.3333333333333</ele><time>2026-04-18T08:30:23Z</time></trkpt><trkpt lat="42.67125729549396" lon="11.639196914387933"><ele>325.66666666666663</ele><time>2026-04-18T08:30:24Z</time></trkpt><trkpt lat="42.67110218007338" lon="11.638977679964338"><ele>325.0</ele><time>2026-04-18T08:30:25Z</time></trkpt><trkpt lat="42.67094594329578" lon="11.638763086117073"><ele>324.3333333333333</ele><time>2026-04-18T08:30:26Z</time></trkpt><trkpt lat="42.67078568783488" lon="11.638545244287528"><ele>323.6666666666667</ele><time>2026-04-18T08:30:27Z</time></trkpt><trkpt lat="42.67063091834693" lon="11.638335133665683"><ele>323.0</ele><time>2026-04-18T08:30:28Z</time></trkpt><trkpt lat="42.67049271462405" lon="11.638135303114545"><ele>323.0</ele><time>2026-04-18T08:30:29Z</time></trkpt><trkpt lat="42.67034203330962" lon="11.637948899746634"><ele>323.0</ele><time>2026-04-18T08:30:30Z</time></trkpt><trkpt lat="42.67017384058617" lon="11.637777259989557"><ele>323.0</ele><time>2026-04-18T08:30:31Z</time></trkpt><trkpt lat="42.669988972125346" lon="11.63760463272199"><ele>319.5</ele><time>2026-04-18T08:30:32Z</time></trkpt><trkpt lat="42.66980182177041" lon="11.637421275027696"><ele>316.0</ele><time>2026-04-18T08:30:33Z</time></trkpt><trkpt lat="42.669618038560735" lon="11.637225310693275"><ele>315.5</ele><time>2026-04-18T08:30:34Z</time></trkpt><trkpt lat="42.66943616277847" lon="11.637025453528768"><ele>315.0</ele><time>2026-04-18T08:30:35Z</time></trkpt><trkpt lat="42.66926156988501" lon="11.63682744968048"><ele>314.3333333333333</ele><time>2026-04-18T08:30:36Z</time></trkpt><trkpt lat="42.669090741851335" lon="11.63663201785834"><ele>313.66666666666663</ele><time>2026-04-18T08:30:37Z</time></trkpt><trkpt lat="42.66892329421884" lon="11.636439491692249"><ele>313.0</ele><time>2026-04-18T08:30:38Z</time></trkpt><trkpt lat="42.668770016043396" lon="11.636260089359098"><ele>312.3333333333333</ele><time>2026-04-18T08:30:39Z</time></trkpt><trkpt lat="42.66862077964906" lon="11.636083951074962"><ele>311.6666666666667</ele><time>2026-04-18T08:30:40Z</time></trkpt><trkpt lat="42.66848268995933" lon="11.635916299478298"><ele>311.0</ele><time>2026-04-18T08:30:41Z</time></trkpt><trkpt lat="42.66835182362908" lon="11.635759502545845"><ele>310.0</ele><time>2026-04-18T08:30:41.999Z</time></trkpt><trkpt lat="42.6682407198063" lon="11.63562352949995"><ele>309.0</ele><time>2026-04-18T08:30:42.999Z</time></trkpt><trkpt lat="42.668130720870124" lon="11.635491475932614"><ele>308.0</ele><time>2026-04-18T08:30:43.999Z</time></trkpt><trkpt lat="42.66802228596655" lon="11.635357544071288"><ele>307.0</ele><time>2026-04-18T08:30:44.999Z</time></trkpt><trkpt lat="42.667925749681345" lon="11.635235488441538"><ele>306.2</ele><time>2026-04-18T08:30:45.999Z</time></trkpt><trkpt lat="42.66784097250677" lon="11.635129086855105"><ele>305.4</ele><time>2026-04-18T08:30:46.999Z</time></trkpt><trkpt lat="42.667760567559334" lon="11.63505351331736"><ele>304.6</ele><time>2026-04-18T08:30:47.999Z</time></trkpt><trkpt lat="42.66766845075632" lon="11.635040813650251"><ele>303.8</ele><time>2026-04-18T08:30:48.999Z</time></trkpt><trkpt lat="42.66757393495133" lon="11.635115264306824"><ele>303.0</ele><time>2026-04-18T08:30:49.999Z</time></trkpt><trkpt lat="42.66746529961816" lon="11.635214184973446"><ele>302.2</ele><time>2026-04-18T08:30:50.999Z</time></trkpt><trkpt lat="42.667364598038404" lon="11.63526589317654"><ele>301.4</ele><time>2026-04-18T08:30:51.999Z</time></trkpt><trkpt lat="42.667275453373136" lon="11.635263740365488"><ele>300.59999999999997</ele><time>2026-04-18T08:30:52.999Z</time></trkpt><trkpt lat="42.66719453789059" lon="11.635185965932921"><ele>299.8</ele><time>2026-04-18T08:30:53.999Z</time></trkpt><trkpt lat="42.66709672338703" lon="11.635048081761528"><ele>299.0</ele><time>2026-04-18T08:30:54.999Z</time></trkpt><trkpt lat="42.666974008336624" lon="11.634870837635026"><ele>296.33333333333337</ele><time>2026-04-18T08:30:55.999Z</time></trkpt><trkpt lat="42.66683278231494" lon="11.6346819278764"><ele>293.6666666666667</ele><time>2026-04-18T08:30:56.999Z</time></trkpt><trkpt lat="42.66668499866235" lon="11.634488302686044"><ele>291.0</ele><time>2026-04-18T08:30:57.999Z</time></trkpt><trkpt lat="42.66652891222737" lon="11.634285177628136"><ele>289.0</ele><time>2026-04-18T08:30:58.999Z</time></trkpt><trkpt lat="42.66637069051617" lon="11.634078648343792"><ele>287.0</ele><time>2026-04-18T08:30:59.999Z</time></trkpt><trkpt lat="42.66620393973798" lon="11.633861547542283"><ele>285.33333333333337</ele><time>2026-04-18T08:31:00.999Z</time></trkpt><trkpt lat="42.666045239687854" lon="11.633661814716625"><ele>283.6666666666667</ele><time>2026-04-18T08:31:01.999Z</time></trkpt><trkpt lat="42.66590132380942" lon="11.633466223120582"><ele>282.0</ele><time>2026-04-18T08:31:02.999Z</time></trkpt><trkpt lat="42.66577010992419" lon="11.633286526905161"><ele>281.3333333333333</ele><time>2026-04-18T08:31:03.999Z</time></trkpt><trkpt lat="42.66567332514129" lon="11.633068061909905"><ele>280.66666666666663</ele><time>2026-04-18T08:31:04.999Z</time></trkpt><trkpt lat="42.66557574885736" lon="11.632847051481734"><ele>280.0</ele><time>2026-04-18T08:31:05.999Z</time></trkpt><trkpt lat="42.665506505656175" lon="11.632585293848905"><ele>278.3333333333333</ele><time>2026-04-18T08:31:06.999Z</time></trkpt><trkpt lat="42.66542757110403" lon="11.632316992829606"><ele>276.6666666666667</ele><time>2026-04-18T08:31:07.999Z</time></trkpt><trkpt lat="42.66534502956908" lon="11.632044928220237"><ele>275.0</ele><time>2026-04-18T08:31:08.999Z</time></trkpt><trkpt lat="42.665265072451604" lon="11.631767561953515"><ele>275.0</ele><time>2026-04-18T08:31:09.999Z</time></trkpt><trkpt lat="42.66517924509033" lon="11.631490780398456"><ele>275.0</ele><time>2026-04-18T08:31:10.999Z</time></trkpt><trkpt lat="42.66507621312992" lon="11.63123216717858"><ele>275.0</ele><time>2026-04-18T08:31:11.999Z</time></trkpt><trkpt lat="42.664938031420284" lon="11.63095481946886"><ele>273.5</ele><time>2026-04-18T08:31:12.999Z</time></trkpt><trkpt lat="42.66477033718101" lon="11.630654078925295"><ele>272.0</ele><time>2026-04-18T08:31:13.999Z</time></trkpt><trkpt lat="42.66462623805561" lon="11.630389776651453"><ele>271.6666666666667</ele><time>2026-04-18T08:31:14.999Z</time></trkpt><trkpt lat="42.66450217708976" lon="11.630152143979542"><ele>271.3333333333333</ele><time>2026-04-18T08:31:15.999Z</time></trkpt><trkpt lat="42.66440024073182" lon="11.629949976091579"><ele>271.0</ele><time>2026-04-18T08:31:16.999Z</time></trkpt><trkpt lat="42.66431500216468" lon="11.629781654248884"><ele>271.0</ele><time>2026-04-18T08:31:17.999Z</time></trkpt><trkpt lat="42.66424766363425" lon="11.629645790868238"><ele>271.0</ele><time>2026-04-18T08:31:18.999Z</time></trkpt><trkpt lat="42.66418471975102" lon="11.629536708760583"><ele>271.0</ele><time>2026-04-18T08:31:19.999Z</time></trkpt><trkpt lat="42.66410450256285" lon="11.629452955278458"><ele>271.0</ele><time>2026-04-18T08:31:20.999Z</time></trkpt><trkpt lat="42.66398799226341" lon="11.629414894930925"><ele>271.0</ele><time>2026-04-18T08:31:21.999Z</time></trkpt><trkpt lat="42.663815761868996" lon="11.62943155778822"><ele>271.25</ele><time>2026-04-18T08:31:22.999Z</time></trkpt><trkpt lat="42.66366265799554" lon="11.629458391894834"><ele>271.5</ele><time>2026-04-18T08:31:23.999Z</time></trkpt><trkpt lat="42.663541201145016" lon="11.629449653485338"><ele>271.75</ele><time>2026-04-18T08:31:24.999Z</time></trkpt><trkpt lat="42.66343175127571" lon="11.62940997825954"><ele>272.0</ele><time>2026-04-18T08:31:25.999Z</time></trkpt><trkpt lat="42.663330664877705" lon="11.629320206044582"><ele>270.33333333333337</ele><time>2026-04-18T08:31:26.999Z</time></trkpt><trkpt lat="42.66325706305094" lon="11.629164437238357"><ele>268.6666666666667</ele><time>2026-04-18T08:31:27.999Z</time></trkpt><trkpt lat="42.663164900912484" lon="11.628986626881614"><ele>267.0</ele><time>2026-04-18T08:31:28.999Z</time></trkpt><trkpt lat="42.66307174134267" lon="11.628786908333888"><ele>266.6666666666667</ele><time>2026-04-18T08:31:29.999Z</time></trkpt><trkpt lat="42.66297414960216" lon="11.628574835917115"><ele>266.33333333333337</ele><time>2026-04-18T08:31:30.999Z</time></trkpt><trkpt lat="42.662869880197725" lon="11.628348458254194"><ele>266.0</ele><time>2026-04-18T08:31:31.999Z</time></trkpt><trkpt lat="42.66276234184418" lon="11.628113046489899"><ele>263.6666666666667</ele><time>2026-04-18T08:31:32.999Z</time></trkpt><trkpt lat="42.66265874769365" lon="11.627883173273112"><ele>261.3333333333333</ele><time>2026-04-18T08:31:33.999Z</time></trkpt><trkpt lat="42.662557399262774" lon="11.627664797651196"><ele>259.0</ele><time>2026-04-18T08:31:34.999Z</time></trkpt><trkpt lat="42.662458876104516" lon="11.627453808343835"><ele>258.66666666666663</ele><time>2026-04-18T08:31:35.999Z</time></trkpt><trkpt lat="42.662360220249866" lon="11.627234752340437"><ele>258.3333333333333</ele><time>2026-04-18T08:31:36.999Z</time></trkpt><trkpt lat="42.66224843117443" lon="11.62700920722082"><ele>258.0</ele><time>2026-04-18T08:31:37.999Z</time></trkpt><trkpt lat="42.66212735762673" lon="11.626792840213886"><ele>257.6666666666667</ele><time>2026-04-18T08:31:38.999Z</time></trkpt><trkpt lat="42.66199733072835" lon="11.626579057334776"><ele>257.33333333333337</ele><time>2026-04-18T08:31:39.999Z</time></trkpt><trkpt lat="42.66185570095507" lon="11.62637008541892"><ele>257.0</ele><time>2026-04-18T08:31:40.999Z</time></trkpt><trkpt lat="42.66172460202002" lon="11.62616770202339"><ele>254.33333333333334</ele><time>2026-04-18T08:31:41.999Z</time></trkpt><trkpt lat="42.661603250356" lon="11.62594862498487"><ele>251.66666666666669</ele><time>2026-04-18T08:31:42.999Z</time></trkpt><trkpt lat="42.66149252442063" lon="11.625717086224157"><ele>249.0</ele><time>2026-04-18T08:31:43.999Z</time></trkpt><trkpt lat="42.66138831590437" lon="11.625488624976482"><ele>246.33333333333331</ele><time>2026-04-18T08:31:44.999Z</time></trkpt><trkpt lat="42.661288353341455" lon="11.625248707103164"><ele>243.66666666666666</ele><time>2026-04-18T08:31:45.999Z</time></trkpt><trkpt lat="42.66119183405594" lon="11.6250051897389"><ele>241.0</ele><time>2026-04-18T08:31:46.999Z</time></trkpt><trkpt lat="42.66109755111676" lon="11.62475540408508"><ele>240.33333333333331</ele><time>2026-04-18T08:31:47.999Z</time></trkpt><trkpt lat="42.66100043929203" lon="11.624521948503345"><ele>239.66666666666669</ele><time>2026-04-18T08:31:48.999Z</time></trkpt><trkpt lat="42.660900262605004" lon="11.624287414887508"><ele>239.0</ele><time>2026-04-18T08:31:49.998Z</time></trkpt><trkpt lat="42.66080028197866" lon="11.62404814165472"><ele>239.0</ele><time>2026-04-18T08:31:50.998Z</time></trkpt><trkpt lat="42.66071089612423" lon="11.6238205546617"><ele>239.0</ele><time>2026-04-18T08:31:51.998Z</time></trkpt><trkpt lat="42.66062850407729" lon="11.623608022210595"><ele>239.0</ele><time>2026-04-18T08:31:52.998Z</time></trkpt><trkpt lat="42.660552399508596" lon="11.623427784775942"><ele>238.33333333333334</ele><time>2026-04-18T08:31:53.998Z</time></trkpt><trkpt lat="42.66046479963042" lon="11.623271678743633"><ele>237.66666666666669</ele><time>2026-04-18T08:31:54.998Z</time></trkpt><trkpt lat="42.66034848190709" lon="11.623119147395307"><ele>237.0</ele><time>2026-04-18T08:31:55.998Z</time></trkpt><trkpt lat="42.66022220662555" lon="11.622973269875922"><ele>235.66666666666669</ele><time>2026-04-18T08:31:56.998Z</time></trkpt><trkpt lat="42.66009105127344" lon="11.622836290533531"><ele>234.33333333333334</ele><time>2026-04-18T08:31:57.998Z</time></trkpt><trkpt lat="42.65996187825611" lon="11.622717982361298"><ele>233.0</ele><time>2026-04-18T08:31:58.998Z</time></trkpt><trkpt lat="42.65982878157018" lon="11.622619455382518"><ele>232.0</ele><time>2026-04-18T08:31:59.998Z</time></trkpt><trkpt lat="42.65968703041711" lon="11.622544446130599"><ele>231.0</ele><time>2026-04-18T08:32:00.998Z</time></trkpt><trkpt lat="42.65954996431628" lon="11.622464196451908"><ele>230.0</ele><time>2026-04-18T08:32:01.998Z</time></trkpt><trkpt lat="42.65941558327441" lon="11.622373069867763"><ele>227.25</ele><time>2026-04-18T08:32:02.998Z</time></trkpt><trkpt lat="42.65928251740307" lon="11.622278409766574"><ele>224.5</ele><time>2026-04-18T08:32:03.998Z</time></trkpt><trkpt lat="42.65916147994855" lon="11.622194266446906"><ele>221.75</ele><time>2026-04-18T08:32:04.998Z</time></trkpt><trkpt lat="42.659066643789366" lon="11.622127068000712"><ele>219.0</ele><time>2026-04-18T08:32:05.998Z</time></trkpt><trkpt lat="42.658995057656874" lon="11.622078484815622"><ele>219.0</ele><time>2026-04-18T08:32:06.998Z</time></trkpt><trkpt lat="42.65893606569188" lon="11.622003306606159"><ele>219.0</ele><time>2026-04-18T08:32:08.998Z</time></trkpt><trkpt lat="42.65907238525963" lon="11.621923945116803"><ele>219.0</ele><time>2026-04-18T08:32:11.998Z</time></trkpt><trkpt lat="42.65921499179111" lon="11.621871829476362"><ele>219.0</ele><time>2026-04-18T08:32:12.998Z</time></trkpt><trkpt lat="42.65939492758617" lon="11.621807928292151"><ele>221.0</ele><time>2026-04-18T08:32:13.998Z</time></trkpt><trkpt lat="42.65956923482974" lon="11.621746210173708"><ele>223.0</ele><time>2026-04-18T08:32:14.998Z</time></trkpt><trkpt lat="42.6597120283742" lon="11.621691711189523"><ele>225.0</ele><time>2026-04-18T08:32:15.998Z</time></trkpt><trkpt lat="42.65984015798298" lon="11.621638177577589"><ele>225.0</ele><time>2026-04-18T08:32:16.998Z</time></trkpt><trkpt lat="42.65995552202398" lon="11.621561179806868"><ele>225.0</ele><time>2026-04-18T08:32:17.998Z</time></trkpt><trkpt lat="42.66004726553426" lon="11.621437145121917"><ele>225.0</ele><time>2026-04-18T08:32:18.998Z</time></trkpt><trkpt lat="42.660109030093956" lon="11.621268370686252"><ele>225.0</ele><time>2026-04-18T08:32:19.998Z</time></trkpt><trkpt lat="42.66014462915955" lon="11.621072100996422"><ele>222.33333333333331</ele><time>2026-04-18T08:32:20.998Z</time></trkpt><trkpt lat="42.66014703903892" lon="11.620851456423686"><ele>219.66666666666666</ele><time>2026-04-18T08:32:21.998Z</time></trkpt><trkpt lat="42.66013381768876" lon="11.62059394680797"><ele>217.0</ele><time>2026-04-18T08:32:22.998Z</time></trkpt><trkpt lat="42.66011957798255" lon="11.620325190836954"><ele>214.5</ele><time>2026-04-18T08:32:23.998Z</time></trkpt><trkpt lat="42.66011396872903" lon="11.620016635161072"><ele>212.0</ele><time>2026-04-18T08:32:25Z</time></trkpt><trkpt lat="42.66011176923559" lon="11.619670993958275"><ele>210.5</ele><time>2026-04-18T08:32:26Z</time></trkpt><trkpt lat="42.66010991474283" lon="11.61929805970291"><ele>209.0</ele><time>2026-04-18T08:32:27Z</time></trkpt><trkpt lat="42.66010423471902" lon="11.61890625064566"><ele>210.5</ele><time>2026-04-18T08:32:28Z</time></trkpt><trkpt lat="42.66009521030319" lon="11.618534159185733"><ele>212.0</ele><time>2026-04-18T08:32:29Z</time></trkpt><trkpt lat="42.66008959802795" lon="11.618205722989243"><ele>212.0</ele><time>2026-04-18T08:32:30Z</time></trkpt><trkpt lat="42.66008915625072" lon="11.61790831316784"><ele>212.0</ele><time>2026-04-18T08:32:31Z</time></trkpt><trkpt lat="42.66009174243727" lon="11.617654135600045"><ele>212.0</ele><time>2026-04-18T08:32:32Z</time></trkpt><trkpt lat="42.66009240230237" lon="11.617450184099006"><ele>212.75</ele><time>2026-04-18T08:32:33Z</time></trkpt><trkpt lat="42.66008425030499" lon="11.617288347273082"><ele>213.5</ele><time>2026-04-18T08:32:34Z</time></trkpt><trkpt lat="42.660045224853846" lon="11.617131082986914"><ele>214.25</ele><time>2026-04-18T08:32:35Z</time></trkpt><trkpt lat="42.65996392860762" lon="11.616976375264889"><ele>215.0</ele><time>2026-04-18T08:32:36Z</time></trkpt><trkpt lat="42.65984743859537" lon="11.616839814204738"><ele>215.0</ele><time>2026-04-18T08:32:37.001Z</time></trkpt><trkpt lat="42.65971127906832" lon="11.616739054548908"><ele>215.0</ele><time>2026-04-18T08:32:38.001Z</time></trkpt><trkpt lat="42.6595569797611" lon="11.616695197562368"><ele>215.0</ele><time>2026-04-18T08:32:39.001Z</time></trkpt><trkpt lat="42.65938858801198" lon="11.616697185831825"><ele>215.0</ele><time>2026-04-18T08:32:40.001Z</time></trkpt><trkpt lat="42.65918459826614" lon="11.616720151955139"><ele>215.0</ele><time>2026-04-18T08:32:41.001Z</time></trkpt><trkpt lat="42.658941568910805" lon="11.616746954440128"><ele>215.0</ele><time>2026-04-18T08:32:42.001Z</time></trkpt><trkpt lat="42.65867066749474" lon="11.616765645788169"><ele>214.0</ele><time>2026-04-18T08:32:43.001Z</time></trkpt><trkpt lat="42.65837033967637" lon="11.616775109798763"><ele>213.0</ele><time>2026-04-18T08:32:44.001Z</time></trkpt><trkpt lat="42.65804826694736" lon="11.616789551567148"><ele>212.0</ele><time>2026-04-18T08:32:45.001Z</time></trkpt><trkpt lat="42.657716575598364" lon="11.61680775732621"><ele>211.0</ele><time>2026-04-18T08:32:46.001Z</time></trkpt><trkpt lat="42.657423564687925" lon="11.6168259819026"><ele>211.0</ele><time>2026-04-18T08:32:47.001Z</time></trkpt><trkpt lat="42.65715804516668" lon="11.616839948482225"><ele>211.0</ele><time>2026-04-18T08:32:48Z</time></trkpt><trkpt lat="42.6569041511228" lon="11.616850454656063"><ele>210.0</ele><time>2026-04-18T08:32:49Z</time></trkpt><trkpt lat="42.65666627248817" lon="11.61685969887631"><ele>209.0</ele><time>2026-04-18T08:32:50Z</time></trkpt><trkpt lat="42.65644382536854" lon="11.616870755535002"><ele>209.0</ele><time>2026-04-18T08:32:51Z</time></trkpt><trkpt lat="42.656236378676056" lon="11.616885978119727"><ele>209.0</ele><time>2026-04-18T08:32:52Z</time></trkpt><trkpt lat="42.65603850824995" lon="11.616900616145056"><ele>209.0</ele><time>2026-04-18T08:32:53Z</time></trkpt><trkpt lat="42.65585594621828" lon="11.616910068483818"><ele>208.66666666666669</ele><time>2026-04-18T08:32:54Z</time></trkpt><trkpt lat="42.65568327473317" lon="11.616918190205851"><ele>208.33333333333331</ele><time>2026-04-18T08:32:55Z</time></trkpt><trkpt lat="42.655514022282965" lon="11.616926346724682"><ele>208.0</ele><time>2026-04-18T08:32:56Z</time></trkpt><trkpt lat="42.65535408994762" lon="11.616924685120251"><ele>207.66666666666666</ele><time>2026-04-18T08:32:57Z</time></trkpt><trkpt lat="42.655189226407494" lon="11.6168947443856"><ele>207.33333333333331</ele><time>2026-04-18T08:32:58Z</time></trkpt><trkpt lat="42.65502518419385" lon="11.616811167530123"><ele>207.0</ele><time>2026-04-18T08:32:59Z</time></trkpt><trkpt lat="42.654873637394466" lon="11.616670119294076"><ele>207.0</ele><time>2026-04-18T08:33:00Z</time></trkpt><trkpt lat="42.654731481004156" lon="11.616501216629114"><ele>207.0</ele><time>2026-04-18T08:33:01Z</time></trkpt><trkpt lat="42.6545902212121" lon="11.616303465429947"><ele>207.0</ele><time>2026-04-18T08:33:02Z</time></trkpt><trkpt lat="42.65443757930363" lon="11.616105199814882"><ele>205.66666666666669</ele><time>2026-04-18T08:33:03Z</time></trkpt><trkpt lat="42.65428269842664" lon="11.615919143110688"><ele>204.33333333333334</ele><time>2026-04-18T08:33:04Z</time></trkpt><trkpt lat="42.65412155989641" lon="11.615726050814624"><ele>203.0</ele><time>2026-04-18T08:33:05Z</time></trkpt><trkpt lat="42.65396895143557" lon="11.61554784887404"><ele>203.0</ele><time>2026-04-18T08:33:06Z</time></trkpt><trkpt lat="42.65381493502842" lon="11.615356909031266"><ele>203.0</ele><time>2026-04-18T08:33:07Z</time></trkpt><trkpt lat="42.65366420714854" lon="11.615168417827107"><ele>203.0</ele><time>2026-04-18T08:33:08Z</time></trkpt><trkpt lat="42.6535117328502" lon="11.614982354395499"><ele>203.66666666666669</ele><time>2026-04-18T08:33:09Z</time></trkpt><trkpt lat="42.6533596340039" lon="11.614801178169872"><ele>204.33333333333331</ele><time>2026-04-18T08:33:10Z</time></trkpt><trkpt lat="42.65320781533992" lon="11.614612449398951"><ele>205.0</ele><time>2026-04-18T08:33:11Z</time></trkpt><trkpt lat="42.65305985072837" lon="11.614423453929708"><ele>204.33333333333331</ele><time>2026-04-18T08:33:12Z</time></trkpt><trkpt lat="42.65291114658974" lon="11.614230295581162"><ele>203.66666666666669</ele><time>2026-04-18T08:33:13Z</time></trkpt><trkpt lat="42.65276788199634" lon="11.61403509616373"><ele>203.0</ele><time>2026-04-18T08:33:14Z</time></trkpt><trkpt lat="42.65262760099701" lon="11.613833861158918"><ele>203.66666666666669</ele><time>2026-04-18T08:33:15Z</time></trkpt><trkpt lat="42.65248891541505" lon="11.613630154322925"><ele>204.33333333333331</ele><time>2026-04-18T08:33:16Z</time></trkpt><trkpt lat="42.65234670005964" lon="11.613428519881554"><ele>205.0</ele><time>2026-04-18T08:33:17Z</time></trkpt><trkpt lat="42.652206772180165" lon="11.613223546463987"><ele>205.0</ele><time>2026-04-18T08:33:18Z</time></trkpt><trkpt lat="42.65206846846239" lon="11.613018492210076"><ele>205.0</ele><time>2026-04-18T08:33:19Z</time></trkpt><trkpt lat="42.65192829558837" lon="11.612808542376566"><ele>205.0</ele><time>2026-04-18T08:33:20Z</time></trkpt><trkpt lat="42.651786488697546" lon="11.612604118086653"><ele>205.0</ele><time>2026-04-18T08:33:21Z</time></trkpt><trkpt lat="42.65164395018892" lon="11.612396459534404"><ele>205.0</ele><time>2026-04-18T08:33:22Z</time></trkpt><trkpt lat="42.65150298426829" lon="11.612183493469695"><ele>205.0</ele><time>2026-04-18T08:33:23Z</time></trkpt><trkpt lat="42.65135765501534" lon="11.611973181207293"><ele>205.0</ele><time>2026-04-18T08:33:24Z</time></trkpt><trkpt lat="42.65120943589439" lon="11.61176380757202"><ele>205.0</ele><time>2026-04-18T08:33:25Z</time></trkpt><trkpt lat="42.65106416144615" lon="11.611556237246699"><ele>205.0</ele><time>2026-04-18T08:33:26Z</time></trkpt><trkpt lat="42.65092011232524" lon="11.611340799435046"><ele>204.33333333333331</ele><time>2026-04-18T08:33:27Z</time></trkpt><trkpt lat="42.6507782379672" lon="11.611129660821499"><ele>203.66666666666669</ele><time>2026-04-18T08:33:28Z</time></trkpt><trkpt lat="42.65063265511051" lon="11.610919487986513"><ele>203.0</ele><time>2026-04-18T08:33:29Z</time></trkpt><trkpt lat="42.650483944714786" lon="11.610704727494937"><ele>203.0</ele><time>2026-04-18T08:33:30Z</time></trkpt><trkpt lat="42.650335960903064" lon="11.610492515325165"><ele>203.0</ele><time>2026-04-18T08:33:31Z</time></trkpt><trkpt lat="42.65018868316627" lon="11.610279924110694"><ele>203.0</ele><time>2026-04-18T08:33:32Z</time></trkpt><trkpt lat="42.650042587865975" lon="11.61006620687704"><ele>203.0</ele><time>2026-04-18T08:33:33Z</time></trkpt><trkpt lat="42.64989897821604" lon="11.60985266615244"><ele>203.0</ele><time>2026-04-18T08:33:34Z</time></trkpt><trkpt lat="42.649761916574" lon="11.60964777863883"><ele>203.0</ele><time>2026-04-18T08:33:35Z</time></trkpt><trkpt lat="42.64962785618942" lon="11.609441485142542"><ele>202.33333333333334</ele><time>2026-04-18T08:33:36Z</time></trkpt><trkpt lat="42.64949255429473" lon="11.60923909824708"><ele>201.66666666666669</ele><time>2026-04-18T08:33:37Z</time></trkpt><trkpt lat="42.64935645543041" lon="11.609030535531009"><ele>201.0</ele><time>2026-04-18T08:33:38Z</time></trkpt><trkpt lat="42.64922342463685" lon="11.608799665955207"><ele>203.5</ele><time>2026-04-18T08:33:39Z</time></trkpt><trkpt lat="42.649091590145716" lon="11.60855142011473"><ele>206.0</ele><time>2026-04-18T08:33:40Z</time></trkpt><trkpt lat="42.64895855142496" lon="11.608299361963399"><ele>206.0</ele><time>2026-04-18T08:33:41Z</time></trkpt><trkpt lat="42.64882190581357" lon="11.608043058738168"><ele>206.0</ele><time>2026-04-18T08:33:42Z</time></trkpt><trkpt lat="42.64868347576183" lon="11.607783958327676"><ele>202.5</ele><time>2026-04-18T08:33:43Z</time></trkpt><trkpt lat="42.648544965444444" lon="11.60751734199973"><ele>199.0</ele><time>2026-04-18T08:33:44Z</time></trkpt><trkpt lat="42.648400650159004" lon="11.60724776340788"><ele>203.0</ele><time>2026-04-18T08:33:45Z</time></trkpt><trkpt lat="42.64825306849831" lon="11.606975807744778"><ele>207.0</ele><time>2026-04-18T08:33:46Z</time></trkpt><trkpt lat="42.64810231056671" lon="11.606708578055418"><ele>207.0</ele><time>2026-04-18T08:33:47Z</time></trkpt><trkpt lat="42.64795470402132" lon="11.606438547920725"><ele>207.0</ele><time>2026-04-18T08:33:48Z</time></trkpt><trkpt lat="42.647807679987594" lon="11.606160158269017"><ele>202.5</ele><time>2026-04-18T08:33:49Z</time></trkpt><trkpt lat="42.64766811408995" lon="11.605891396020974"><ele>198.0</ele><time>2026-04-18T08:33:50Z</time></trkpt><trkpt lat="42.64752696353909" lon="11.605624922304584"><ele>198.0</ele><time>2026-04-18T08:33:51Z</time></trkpt><trkpt lat="42.64738581835965" lon="11.605360191446339"><ele>198.0</ele><time>2026-04-18T08:33:52Z</time></trkpt><trkpt lat="42.64724436581655" lon="11.605100516558293"><ele>198.5</ele><time>2026-04-18T08:33:53Z</time></trkpt><trkpt lat="42.6471024095896" lon="11.60483813408863"><ele>199.0</ele><time>2026-04-18T08:33:54Z</time></trkpt><trkpt lat="42.64696547749639" lon="11.604587218157697"><ele>198.66666666666666</ele><time>2026-04-18T08:33:55Z</time></trkpt><trkpt lat="42.6468384353844" lon="11.604350672721486"><ele>198.33333333333331</ele><time>2026-04-18T08:33:56Z</time></trkpt><trkpt lat="42.64672207028694" lon="11.604130777423553"><ele>198.0</ele><time>2026-04-18T08:33:57Z</time></trkpt><trkpt lat="42.646608502125964" lon="11.603920632845076"><ele>198.0</ele><time>2026-04-18T08:33:57.999Z</time></trkpt><trkpt lat="42.64650687021639" lon="11.603727317676261"><ele>198.0</ele><time>2026-04-18T08:33:58.999Z</time></trkpt><trkpt lat="42.646419499537664" lon="11.603541383808482"><ele>198.0</ele><time>2026-04-18T08:33:59.999Z</time></trkpt><trkpt lat="42.6463613420774" lon="11.603374774360569"><ele>198.75</ele><time>2026-04-18T08:34:00.999Z</time></trkpt><trkpt lat="42.64634256694386" lon="11.603193099672618"><ele>199.5</ele><time>2026-04-18T08:34:01.999Z</time></trkpt><trkpt lat="42.64637468703345" lon="11.602996522002192"><ele>200.25</ele><time>2026-04-18T08:34:02.999Z</time></trkpt><trkpt lat="42.64643804305905" lon="11.602804483410814"><ele>201.0</ele><time>2026-04-18T08:34:03.999Z</time></trkpt><trkpt lat="42.64652656110386" lon="11.60264289438885"><ele>202.0</ele><time>2026-04-18T08:34:04.999Z</time></trkpt><trkpt lat="42.6466535262165" lon="11.602534644580606"><ele>203.0</ele><time>2026-04-18T08:34:05.999Z</time></trkpt><trkpt lat="42.64679368052248" lon="11.60245356609653"><ele>204.0</ele><time>2026-04-18T08:34:06.999Z</time></trkpt><trkpt lat="42.64696402992297" lon="11.602416880621039"><ele>205.33333333333331</ele><time>2026-04-18T08:34:07.999Z</time></trkpt><trkpt lat="42.64714970871487" lon="11.602386948367194"><ele>206.66666666666666</ele><time>2026-04-18T08:34:08.999Z</time></trkpt><trkpt lat="42.64736166596465" lon="11.60235340980232"><ele>208.0</ele><time>2026-04-18T08:34:09.999Z</time></trkpt><trkpt lat="42.64758406171067" lon="11.602303315444365"><ele>208.5</ele><time>2026-04-18T08:34:10.999Z</time></trkpt><trkpt lat="42.64782612633709" lon="11.602240462420752"><ele>209.0</ele><time>2026-04-18T08:34:11.999Z</time></trkpt><trkpt lat="42.64807714264611" lon="11.602177535832508"><ele>209.0</ele><time>2026-04-18T08:34:12.999Z</time></trkpt><trkpt lat="42.64832029751301" lon="11.60211892174571"><ele>209.0</ele><time>2026-04-18T08:34:13.999Z</time></trkpt><trkpt lat="42.64854514644546" lon="11.602070122335894"><ele>210.66666666666669</ele><time>2026-04-18T08:34:14.999Z</time></trkpt><trkpt lat="42.64874490240835" lon="11.602025054907559"><ele>212.33333333333331</ele><time>2026-04-18T08:34:15.999Z</time></trkpt><trkpt lat="42.648927560122644" lon="11.60197843674755"><ele>214.0</ele><time>2026-04-18T08:34:16.999Z</time></trkpt><trkpt lat="42.64909305469421" lon="11.601941325116456"><ele>215.75</ele><time>2026-04-18T08:34:17.999Z</time></trkpt><trkpt lat="42.649237606407766" lon="11.601908368280784"><ele>217.5</ele><time>2026-04-18T08:34:18.999Z</time></trkpt><trkpt lat="42.64937307927355" lon="11.601866636436256"><ele>219.25</ele><time>2026-04-18T08:34:19.999Z</time></trkpt><trkpt lat="42.64948539488813" lon="11.601794705521478"><ele>221.0</ele><time>2026-04-18T08:34:20.999Z</time></trkpt><trkpt lat="42.64958124257356" lon="11.60168105088703"><ele>221.0</ele><time>2026-04-18T08:34:21.999Z</time></trkpt><trkpt lat="42.6496578848207" lon="11.601536125276631"><ele>221.0</ele><time>2026-04-18T08:34:22.999Z</time></trkpt><trkpt lat="42.64970446861738" lon="11.601337919199569"><ele>221.0</ele><time>2026-04-18T08:34:23.999Z</time></trkpt><trkpt lat="42.64973184478775" lon="11.601100867017815"><ele>223.33333333333334</ele><time>2026-04-18T08:34:24.999Z</time></trkpt><trkpt lat="42.64974374164363" lon="11.600815311580735"><ele>225.66666666666669</ele><time>2026-04-18T08:34:25.999Z</time></trkpt><trkpt lat="42.64976689743398" lon="11.600506940407255"><ele>228.0</ele><time>2026-04-18T08:34:26.999Z</time></trkpt><trkpt lat="42.64980275878714" lon="11.600230069440931"><ele>230.0</ele><time>2026-04-18T08:34:27.999Z</time></trkpt><trkpt lat="42.649836341080466" lon="11.60000751251331"><ele>232.0</ele><time>2026-04-18T08:34:28.999Z</time></trkpt><trkpt lat="42.64985736355141" lon="11.59979945792567"><ele>234.0</ele><time>2026-04-18T08:34:29.999Z</time></trkpt><trkpt lat="42.649875475123956" lon="11.599613835798412"><ele>235.0</ele><time>2026-04-18T08:34:31.001Z</time></trkpt><trkpt lat="42.64989571382372" lon="11.599443858327017"><ele>236.0</ele><time>2026-04-18T08:34:32.001Z</time></trkpt><trkpt lat="42.64996099470163" lon="11.599313653176477"><ele>237.0</ele><time>2026-04-18T08:34:33.001Z</time></trkpt><trkpt lat="42.65004495670124" lon="11.599216730850737"><ele>238.0</ele><time>2026-04-18T08:34:34.001Z</time></trkpt><trkpt lat="42.6501554234387" lon="11.599160968703295"><ele>238.0</ele><time>2026-04-18T08:34:35.001Z</time></trkpt><trkpt lat="42.65027553137971" lon="11.5991394473056"><ele>238.0</ele><time>2026-04-18T08:34:36.001Z</time></trkpt><trkpt lat="42.65041106993286" lon="11.59919006885389"><ele>238.0</ele><time>2026-04-18T08:34:37.001Z</time></trkpt><trkpt lat="42.650573663250206" lon="11.599222241472667"><ele>238.0</ele><time>2026-04-18T08:34:38.001Z</time></trkpt><trkpt lat="42.65074435275952" lon="11.59927352998415"><ele>240.0</ele><time>2026-04-18T08:34:39.001Z</time></trkpt><trkpt lat="42.650929672048264" lon="11.599329230759585"><ele>242.0</ele><time>2026-04-18T08:34:40.001Z</time></trkpt><trkpt lat="42.65111723463396" lon="11.59939366176779"><ele>244.0</ele><time>2026-04-18T08:34:41.001Z</time></trkpt><trkpt lat="42.651296337400176" lon="11.599504002765078"><ele>245.0</ele><time>2026-04-18T08:34:42.001Z</time></trkpt><trkpt lat="42.65149366186965" lon="11.59959478488833"><ele>246.0</ele><time>2026-04-18T08:34:43.001Z</time></trkpt><trkpt lat="42.651708018335874" lon="11.599730443483528"><ele>247.0</ele><time>2026-04-18T08:34:44.001Z</time></trkpt><trkpt lat="42.65195065638509" lon="11.599870218692924"><ele>250.0</ele><time>2026-04-18T08:34:45.001Z</time></trkpt><trkpt lat="42.652202403116895" lon="11.60000535378161"><ele>253.0</ele><time>2026-04-18T08:34:46.001Z</time></trkpt><trkpt lat="42.65241497960534" lon="11.600130588894444"><ele>253.0</ele><time>2026-04-18T08:34:47.001Z</time></trkpt><trkpt lat="42.65259807867893" lon="11.600256592682253"><ele>253.0</ele><time>2026-04-18T08:34:48.001Z</time></trkpt><trkpt lat="42.65276291537686" lon="11.600422626406752"><ele>253.0</ele><time>2026-04-18T08:34:49.001Z</time></trkpt><trkpt lat="42.652939922425695" lon="11.600553772855182"><ele>255.66666666666666</ele><time>2026-04-18T08:34:50.001Z</time></trkpt><trkpt lat="42.65310415624414" lon="11.60070386343561"><ele>258.3333333333333</ele><time>2026-04-18T08:34:51Z</time></trkpt><trkpt lat="42.65327564166963" lon="11.600850853376294"><ele>261.0</ele><time>2026-04-18T08:34:52Z</time></trkpt><trkpt lat="42.65345076447388" lon="11.600988531912225"><ele>261.0</ele><time>2026-04-18T08:34:53Z</time></trkpt><trkpt lat="42.65361497342222" lon="11.601150885048144"><ele>261.0</ele><time>2026-04-18T08:34:54Z</time></trkpt><trkpt lat="42.65378787630487" lon="11.601281996274814"><ele>261.0</ele><time>2026-04-18T08:34:55Z</time></trkpt><trkpt lat="42.65395815666478" lon="11.601419676261298"><ele>265.3333333333333</ele><time>2026-04-18T08:34:56Z</time></trkpt><trkpt lat="42.65414548959583" lon="11.601521869672426"><ele>269.66666666666663</ele><time>2026-04-18T08:34:57Z</time></trkpt><trkpt lat="42.654348870607556" lon="11.601605146738999"><ele>274.0</ele><time>2026-04-18T08:34:58Z</time></trkpt><trkpt lat="42.65455028217516" lon="11.601686859562626"><ele>276.66666666666663</ele><time>2026-04-18T08:34:59Z</time></trkpt><trkpt lat="42.65475797609922" lon="11.60177360106046"><ele>279.3333333333333</ele><time>2026-04-18T08:35:00Z</time></trkpt><trkpt lat="42.65496473438879" lon="11.60186767418972"><ele>282.0</ele><time>2026-04-18T08:35:01Z</time></trkpt><trkpt lat="42.65516460841885" lon="11.60195867740245"><ele>284.3333333333333</ele><time>2026-04-18T08:35:02Z</time></trkpt><trkpt lat="42.6553343530319" lon="11.602031384008015"><ele>286.66666666666663</ele><time>2026-04-18T08:35:03Z</time></trkpt><trkpt lat="42.65548712943625" lon="11.602090522504328"><ele>289.0</ele><time>2026-04-18T08:35:04Z</time></trkpt><trkpt lat="42.655628714848866" lon="11.602122976663294"><ele>289.0</ele><time>2026-04-18T08:35:05Z</time></trkpt><trkpt lat="42.65578203176877" lon="11.602085348580909"><ele>289.0</ele><time>2026-04-18T08:35:06Z</time></trkpt><trkpt lat="42.655974452191124" lon="11.601997989407405"><ele>289.0</ele><time>2026-04-18T08:35:07Z</time></trkpt><trkpt lat="42.65618886441761" lon="11.601902587352134"><ele>292.66666666666663</ele><time>2026-04-18T08:35:08Z</time></trkpt><trkpt lat="42.65639791553015" lon="11.601813070374513"><ele>296.3333333333333</ele><time>2026-04-18T08:35:09Z</time></trkpt><trkpt lat="42.65657990546416" lon="11.60174499673476"><ele>300.0</ele><time>2026-04-18T08:35:10Z</time></trkpt><trkpt lat="42.65673132564185" lon="11.601688292768259"><ele>300.0</ele><time>2026-04-18T08:35:11Z</time></trkpt><trkpt lat="42.65686521855098" lon="11.60162612473923"><ele>300.0</ele><time>2026-04-18T08:35:12Z</time></trkpt><trkpt lat="42.65696471062939" lon="11.601534719061366"><ele>300.0</ele><time>2026-04-18T08:35:13Z</time></trkpt><trkpt lat="42.657047374779" lon="11.601392705456016"><ele>300.0</ele><time>2026-04-18T08:35:14Z</time></trkpt><trkpt lat="42.65711428911115" lon="11.60120862663527"><ele>302.0</ele><time>2026-04-18T08:35:15Z</time></trkpt><trkpt lat="42.6571746955087" lon="11.600967428484816"><ele>304.0</ele><time>2026-04-18T08:35:16Z</time></trkpt><trkpt lat="42.65723502458342" lon="11.60074202313752"><ele>306.0</ele><time>2026-04-18T08:35:17Z</time></trkpt><trkpt lat="42.65729333234789" lon="11.600584218799659"><ele>306.0</ele><time>2026-04-18T08:35:18Z</time></trkpt><trkpt lat="42.657396419888414" lon="11.600465916105492"><ele>306.0</ele><time>2026-04-18T08:35:19Z</time></trkpt><trkpt lat="42.657500519460775" lon="11.600384437798017"><ele>306.0</ele><time>2026-04-18T08:35:20Z</time></trkpt><trkpt lat="42.6576345631779" lon="11.600356306100744"><ele>306.0</ele><time>2026-04-18T08:35:21Z</time></trkpt><trkpt lat="42.65777054658969" lon="11.600361097006271"><ele>306.6666666666667</ele><time>2026-04-18T08:35:22Z</time></trkpt><trkpt lat="42.65791802974781" lon="11.60043194413026"><ele>307.33333333333337</ele><time>2026-04-18T08:35:23Z</time></trkpt><trkpt lat="42.65806633091827" lon="11.600538942283777"><ele>308.0</ele><time>2026-04-18T08:35:24Z</time></trkpt><trkpt lat="42.65825347301068" lon="11.600688482459486"><ele>308.0</ele><time>2026-04-18T08:35:25Z</time></trkpt><trkpt lat="42.65846449652651" lon="11.60083369529769"><ele>308.0</ele><time>2026-04-18T08:35:26Z</time></trkpt><trkpt lat="42.65869629891355" lon="11.601013457239548"><ele>310.0</ele><time>2026-04-18T08:35:27Z</time></trkpt><trkpt lat="42.658936535950836" lon="11.60119375081949"><ele>312.0</ele><time>2026-04-18T08:35:28Z</time></trkpt><trkpt lat="42.65916117859457" lon="11.601359645269735"><ele>312.0</ele><time>2026-04-18T08:35:29Z</time></trkpt><trkpt lat="42.659369318317516" lon="11.601513146589804"><ele>312.0</ele><time>2026-04-18T08:35:30Z</time></trkpt><trkpt lat="42.65955193409641" lon="11.601650253641314"><ele>312.0</ele><time>2026-04-18T08:35:31Z</time></trkpt><trkpt lat="42.65971707291371" lon="11.60177705365653"><ele>313.6666666666667</ele><time>2026-04-18T08:35:32Z</time></trkpt><trkpt lat="42.6598755057774" lon="11.601898781495727"><ele>315.33333333333337</ele><time>2026-04-18T08:35:33Z</time></trkpt><trkpt lat="42.660037588494305" lon="11.602019003443187"><ele>317.0</ele><time>2026-04-18T08:35:34Z</time></trkpt><trkpt lat="42.66019431735275" lon="11.602142436523836"><ele>319.0</ele><time>2026-04-18T08:35:35Z</time></trkpt><trkpt lat="42.66034516851478" lon="11.602262207943108"><ele>321.0</ele><time>2026-04-18T08:35:36Z</time></trkpt><trkpt lat="42.66050319118645" lon="11.602381475598031"><ele>323.0</ele><time>2026-04-18T08:35:37Z</time></trkpt><trkpt lat="42.66066092884822" lon="11.602502961143339"><ele>323.0</ele><time>2026-04-18T08:35:38Z</time></trkpt><trkpt lat="42.66081869784567" lon="11.6026302510964"><ele>323.0</ele><time>2026-04-18T08:35:39Z</time></trkpt><trkpt lat="42.66098354280279" lon="11.602744782712945"><ele>323.0</ele><time>2026-04-18T08:35:40Z</time></trkpt><trkpt lat="42.66115079960134" lon="11.602819997158583"><ele>324.0</ele><time>2026-04-18T08:35:41Z</time></trkpt><trkpt lat="42.66132373480595" lon="11.602849901718523"><ele>325.0</ele><time>2026-04-18T08:35:42Z</time></trkpt><trkpt lat="42.661483274686574" lon="11.602841099121507"><ele>326.0</ele><time>2026-04-18T08:35:43Z</time></trkpt><trkpt lat="42.661628409743585" lon="11.60279351185648"><ele>326.0</ele><time>2026-04-18T08:35:44Z</time></trkpt><trkpt lat="42.66177716185727" lon="11.602691225489743"><ele>326.0</ele><time>2026-04-18T08:35:45Z</time></trkpt><trkpt lat="42.66194690923803" lon="11.602553498875368"><ele>326.0</ele><time>2026-04-18T08:35:46Z</time></trkpt><trkpt lat="42.662129299243205" lon="11.602401280593854"><ele>326.6666666666667</ele><time>2026-04-18T08:35:47Z</time></trkpt><trkpt lat="42.66230725762149" lon="11.602258292304528"><ele>327.3333333333333</ele><time>2026-04-18T08:35:48Z</time></trkpt><trkpt lat="42.66248698710639" lon="11.60210797496951"><ele>328.0</ele><time>2026-04-18T08:35:49Z</time></trkpt><trkpt lat="42.662662719031005" lon="11.601969101598643"><ele>328.66666666666663</ele><time>2026-04-18T08:35:50Z</time></trkpt><trkpt lat="42.66284523793659" lon="11.601834095803577"><ele>329.3333333333333</ele><time>2026-04-18T08:35:51Z</time></trkpt><trkpt lat="42.663025581044636" lon="11.601709049399517"><ele>330.0</ele><time>2026-04-18T08:35:52Z</time></trkpt><trkpt lat="42.6632168793487" lon="11.601637818182722"><ele>330.0</ele><time>2026-04-18T08:35:53Z</time></trkpt><trkpt lat="42.66340986481623" lon="11.60157179995668"><ele>330.0</ele><time>2026-04-18T08:35:54Z</time></trkpt><trkpt lat="42.6636095734139" lon="11.601523789070402"><ele>330.0</ele><time>2026-04-18T08:35:55Z</time></trkpt><trkpt lat="42.66381201173251" lon="11.601481087697595"><ele>329.0</ele><time>2026-04-18T08:35:56Z</time></trkpt><trkpt lat="42.664006530183975" lon="11.60144014037963"><ele>328.0</ele><time>2026-04-18T08:35:57Z</time></trkpt><trkpt lat="42.664200919295745" lon="11.601379993317211"><ele>327.0</ele><time>2026-04-18T08:35:58Z</time></trkpt><trkpt lat="42.664400733791354" lon="11.601340852717417"><ele>329.6666666666667</ele><time>2026-04-18T08:35:58.999Z</time></trkpt><trkpt lat="42.66460063321066" lon="11.601298281168972"><ele>332.33333333333337</ele><time>2026-04-18T08:35:59.999Z</time></trkpt><trkpt lat="42.66479402742905" lon="11.601261450192654"><ele>335.0</ele><time>2026-04-18T08:36:00.999Z</time></trkpt><trkpt lat="42.66498414087957" lon="11.601219438131132"><ele>335.0</ele><time>2026-04-18T08:36:01.999Z</time></trkpt><trkpt lat="42.6651642335248" lon="11.601172851407785"><ele>335.0</ele><time>2026-04-18T08:36:02.999Z</time></trkpt><trkpt lat="42.66535147186775" lon="11.601082183869352"><ele>335.0</ele><time>2026-04-18T08:36:03.999Z</time></trkpt><trkpt lat="42.66554353199926" lon="11.60093736458284"><ele>340.0</ele><time>2026-04-18T08:36:04.999Z</time></trkpt><trkpt lat="42.665729639776686" lon="11.600769142329765"><ele>345.0</ele><time>2026-04-18T08:36:05.999Z</time></trkpt><trkpt lat="42.6659154711073" lon="11.600588763997385"><ele>345.0</ele><time>2026-04-18T08:36:06.999Z</time></trkpt><trkpt lat="42.66611035096606" lon="11.60041691199293"><ele>345.0</ele><time>2026-04-18T08:36:07.999Z</time></trkpt><trkpt lat="42.666306108742944" lon="11.600247017252915"><ele>348.0</ele><time>2026-04-18T08:36:08.999Z</time></trkpt><trkpt lat="42.66649360747623" lon="11.60008085738655"><ele>351.0</ele><time>2026-04-18T08:36:09.999Z</time></trkpt><trkpt lat="42.66668256151135" lon="11.599920080112971"><ele>354.0</ele><time>2026-04-18T08:36:10.999Z</time></trkpt><trkpt lat="42.666869498286836" lon="11.599754786044047"><ele>356.0</ele><time>2026-04-18T08:36:11.999Z</time></trkpt><trkpt lat="42.66704392321954" lon="11.599603234879334"><ele>358.0</ele><time>2026-04-18T08:36:12.999Z</time></trkpt><trkpt lat="42.6671964812439" lon="11.599470783112496"><ele>360.0</ele><time>2026-04-18T08:36:13.999Z</time></trkpt><trkpt lat="42.667345518896845" lon="11.599338906082533"><ele>360.3333333333333</ele><time>2026-04-18T08:36:14.999Z</time></trkpt><trkpt lat="42.66749066277627" lon="11.599211531805086"><ele>360.66666666666663</ele><time>2026-04-18T08:36:15.999Z</time></trkpt><trkpt lat="42.66764233772652" lon="11.599113007618632"><ele>361.0</ele><time>2026-04-18T08:36:16.999Z</time></trkpt><trkpt lat="42.66778762939119" lon="11.599053975262537"><ele>364.0</ele><time>2026-04-18T08:36:17.999Z</time></trkpt><trkpt lat="42.667936042939964" lon="11.59904166902327"><ele>367.0</ele><time>2026-04-18T08:36:18.999Z</time></trkpt><trkpt lat="42.66807478917023" lon="11.599080655195324"><ele>370.0</ele><time>2026-04-18T08:36:19.999Z</time></trkpt><trkpt lat="42.66824623055558" lon="11.59911815543815"><ele>370.0</ele><time>2026-04-18T08:36:20.999Z</time></trkpt><trkpt lat="42.66841098345935" lon="11.59918817016014"><ele>370.0</ele><time>2026-04-18T08:36:21.999Z</time></trkpt><trkpt lat="42.66855426709035" lon="11.599232679163736"><ele>370.0</ele><time>2026-04-18T08:36:22.999Z</time></trkpt><trkpt lat="42.66869330977312" lon="11.59922917261141"><ele>370.75</ele><time>2026-04-18T08:36:23.999Z</time></trkpt><trkpt lat="42.6688181045918" lon="11.599169850844465"><ele>371.5</ele><time>2026-04-18T08:36:24.999Z</time></trkpt><trkpt lat="42.668937890750755" lon="11.599067221226813"><ele>372.25</ele><time>2026-04-18T08:36:25.999Z</time></trkpt><trkpt lat="42.669027238449175" lon="11.598914553426328"><ele>373.0</ele><time>2026-04-18T08:36:26.999Z</time></trkpt><trkpt lat="42.66907425173169" lon="11.59872143878706"><ele>376.3333333333333</ele><time>2026-04-18T08:36:27.999Z</time></trkpt><trkpt lat="42.669090835037316" lon="11.598509123919682"><ele>379.6666666666667</ele><time>2026-04-18T08:36:28.999Z</time></trkpt><trkpt lat="42.6690510625901" lon="11.598321127256595"><ele>383.0</ele><time>2026-04-18T08:36:29.999Z</time></trkpt><trkpt lat="42.668971765162546" lon="11.598144126251162"><ele>383.0</ele><time>2026-04-18T08:36:30.999Z</time></trkpt><trkpt lat="42.66886147180089" lon="11.59798010882756"><ele>383.0</ele><time>2026-04-18T08:36:31.999Z</time></trkpt><trkpt lat="42.66874966056505" lon="11.597799464780156"><ele>383.0</ele><time>2026-04-18T08:36:32.999Z</time></trkpt><trkpt lat="42.668653710106945" lon="11.597627058909081"><ele>383.25</ele><time>2026-04-18T08:36:33.999Z</time></trkpt><trkpt lat="42.66857822635304" lon="11.597485871951154"><ele>383.5</ele><time>2026-04-18T08:36:34.999Z</time></trkpt><trkpt lat="42.66853905582171" lon="11.597337448393148"><ele>383.75</ele><time>2026-04-18T08:36:36.001Z</time></trkpt><trkpt lat="42.66852574157404" lon="11.597184129401954"><ele>384.0</ele><time>2026-04-18T08:36:37.001Z</time></trkpt><trkpt lat="42.66855788307734" lon="11.59701412456784"><ele>387.25</ele><time>2026-04-18T08:36:38.001Z</time></trkpt><trkpt lat="42.66862803784377" lon="11.596862073229353"><ele>390.5</ele><time>2026-04-18T08:36:39.001Z</time></trkpt><trkpt lat="42.668737767749796" lon="11.59677395666162"><ele>393.75</ele><time>2026-04-18T08:36:40.001Z</time></trkpt><trkpt lat="42.66883139973343" lon="11.596737930377405"><ele>397.0</ele><time>2026-04-18T08:36:41.001Z</time></trkpt><trkpt lat="42.668940468458366" lon="11.596745764397816"><ele>397.0</ele><time>2026-04-18T08:36:42.001Z</time></trkpt><trkpt lat="42.66905298182249" lon="11.596818614226434"><ele>397.0</ele><time>2026-04-18T08:36:43.001Z</time></trkpt><trkpt lat="42.66917824001261" lon="11.596921127931964"><ele>397.0</ele><time>2026-04-18T08:36:44.001Z</time></trkpt><trkpt lat="42.6693259859759" lon="11.597055679610563"><ele>397.0</ele><time>2026-04-18T08:36:45.001Z</time></trkpt><trkpt lat="42.669499849749734" lon="11.597191837852682"><ele>400.0</ele><time>2026-04-18T08:36:46.001Z</time></trkpt><trkpt lat="42.66965718436349" lon="11.597333996432738"><ele>403.0</ele><time>2026-04-18T08:36:47.001Z</time></trkpt><trkpt lat="42.66979090440652" lon="11.597445509658497"><ele>406.0</ele><time>2026-04-18T08:36:48.001Z</time></trkpt><trkpt lat="42.6699062029361" lon="11.597547100034733"><ele>406.0</ele><time>2026-04-18T08:36:49.001Z</time></trkpt><trkpt lat="42.67000772795627" lon="11.597637005233128"><ele>406.0</ele><time>2026-04-18T08:36:50.001Z</time></trkpt><trkpt lat="42.67013288522695" lon="11.597682787497652"><ele>406.0</ele><time>2026-04-18T08:36:51Z</time></trkpt><trkpt lat="42.67030091626184" lon="11.597693262048132"><ele>406.0</ele><time>2026-04-18T08:36:52Z</time></trkpt><trkpt lat="42.67048302328385" lon="11.597713934459305"><ele>405.6666666666667</ele><time>2026-04-18T08:36:53Z</time></trkpt><trkpt lat="42.67066200361291" lon="11.597770508947805"><ele>405.33333333333337</ele><time>2026-04-18T08:36:54Z</time></trkpt><trkpt lat="42.670837162531456" lon="11.597859716492911"><ele>405.0</ele><time>2026-04-18T08:36:55Z</time></trkpt><trkpt lat="42.67101553674116" lon="11.597961754433038"><ele>407.66666666666663</ele><time>2026-04-18T08:36:56Z</time></trkpt><trkpt lat="42.67119443638907" lon="11.598064921191364"><ele>410.3333333333333</ele><time>2026-04-18T08:36:57Z</time></trkpt><trkpt lat="42.67137256719269" lon="11.598167644631438"><ele>413.0</ele><time>2026-04-18T08:36:58Z</time></trkpt><trkpt lat="42.67154320970269" lon="11.598261987871746"><ele>413.0</ele><time>2026-04-18T08:36:59Z</time></trkpt><trkpt lat="42.671692231339726" lon="11.598350822706792"><ele>413.0</ele><time>2026-04-18T08:37:00Z</time></trkpt><trkpt lat="42.671818417706554" lon="11.598444112098909"><ele>413.0</ele><time>2026-04-18T08:37:01Z</time></trkpt><trkpt lat="42.671915812547724" lon="11.598554507268393"><ele>413.0</ele><time>2026-04-18T08:37:02Z</time></trkpt><trkpt lat="42.67199527540806" lon="11.598681629531937"><ele>417.0</ele><time>2026-04-18T08:37:03Z</time></trkpt><trkpt lat="42.672053949014334" lon="11.598836508324569"><ele>421.0</ele><time>2026-04-18T08:37:04Z</time></trkpt><trkpt lat="42.67210305409299" lon="11.599027341804907"><ele>425.0</ele><time>2026-04-18T08:37:05Z</time></trkpt><trkpt lat="42.67217333838251" lon="11.59925617520952"><ele>425.0</ele><time>2026-04-18T08:37:06Z</time></trkpt><trkpt lat="42.672223605261216" lon="11.59946261504703"><ele>425.0</ele><time>2026-04-18T08:37:07Z</time></trkpt><trkpt lat="42.67227283632434" lon="11.59965044717188"><ele>425.0</ele><time>2026-04-18T08:37:08Z</time></trkpt><trkpt lat="42.67232798544504" lon="11.599835717966673"><ele>423.75</ele><time>2026-04-18T08:37:09Z</time></trkpt><trkpt lat="42.67240203119784" lon="11.599991569895304"><ele>422.5</ele><time>2026-04-18T08:37:10Z</time></trkpt><trkpt lat="42.672495155617995" lon="11.600108582311082"><ele>421.25</ele><time>2026-04-18T08:37:11Z</time></trkpt><trkpt lat="42.67261652449142" lon="11.600180092889584"><ele>420.0</ele><time>2026-04-18T08:37:12Z</time></trkpt><trkpt lat="42.67275861867291" lon="11.600225200781221"><ele>421.5</ele><time>2026-04-18T08:37:13Z</time></trkpt><trkpt lat="42.672908859116426" lon="11.6002298250059"><ele>423.0</ele><time>2026-04-18T08:37:14Z</time></trkpt><trkpt lat="42.67305849145899" lon="11.60020415306505"><ele>424.5</ele><time>2026-04-18T08:37:15Z</time></trkpt><trkpt lat="42.67318177100979" lon="11.600125632569014"><ele>426.0</ele><time>2026-04-18T08:37:16Z</time></trkpt><trkpt lat="42.67329387846857" lon="11.6000033891535"><ele>426.0</ele><time>2026-04-18T08:37:17Z</time></trkpt><trkpt lat="42.67340084996875" lon="11.599846456913648"><ele>426.0</ele><time>2026-04-18T08:37:18Z</time></trkpt><trkpt lat="42.67346098049133" lon="11.599680447333272"><ele>426.0</ele><time>2026-04-18T08:37:19Z</time></trkpt><trkpt lat="42.67349276370629" lon="11.599506476215804"><ele>426.0</ele><time>2026-04-18T08:37:20Z</time></trkpt><trkpt lat="42.67348824282098" lon="11.599322988422076"><ele>427.0</ele><time>2026-04-18T08:37:21Z</time></trkpt><trkpt lat="42.67345178930228" lon="11.599138572829258"><ele>428.0</ele><time>2026-04-18T08:37:22Z</time></trkpt><trkpt lat="42.67339815378616" lon="11.598963221935469"><ele>429.0</ele><time>2026-04-18T08:37:23Z</time></trkpt><trkpt lat="42.67331186217798" lon="11.598807209600508"><ele>430.0</ele><time>2026-04-18T08:37:24Z</time></trkpt><trkpt lat="42.67320954772143" lon="11.598667387919367"><ele>431.0</ele><time>2026-04-18T08:37:25Z</time></trkpt><trkpt lat="42.673096436122165" lon="11.598531185110463"><ele>432.0</ele><time>2026-04-18T08:37:26Z</time></trkpt><trkpt lat="42.67296992439757" lon="11.59838458130718"><ele>433.0</ele><time>2026-04-18T08:37:27Z</time></trkpt><trkpt lat="42.67284742985979" lon="11.59822959255253"><ele>431.6666666666667</ele><time>2026-04-18T08:37:28Z</time></trkpt><trkpt lat="42.672726540867956" lon="11.59807817435252"><ele>430.33333333333337</ele><time>2026-04-18T08:37:29Z</time></trkpt><trkpt lat="42.67260496254702" lon="11.59792619823387"><ele>429.0</ele><time>2026-04-18T08:37:30Z</time></trkpt><trkpt lat="42.67248257402729" lon="11.597770775822378"><ele>432.0</ele><time>2026-04-18T08:37:31Z</time></trkpt><trkpt lat="42.67236534781057" lon="11.597616001928769"><ele>435.0</ele><time>2026-04-18T08:37:32Z</time></trkpt><trkpt lat="42.672247823059664" lon="11.597459257805333"><ele>438.0</ele><time>2026-04-18T08:37:33Z</time></trkpt><trkpt lat="42.67213044723787" lon="11.597301244364457"><ele>438.0</ele><time>2026-04-18T08:37:34Z</time></trkpt><trkpt lat="42.672014592989136" lon="11.597148314409122"><ele>438.0</ele><time>2026-04-18T08:37:35Z</time></trkpt><trkpt lat="42.671900693650265" lon="11.596980447357991"><ele>438.0</ele><time>2026-04-18T08:37:36Z</time></trkpt><trkpt lat="42.67180005369834" lon="11.596801849681265"><ele>439.0</ele><time>2026-04-18T08:37:37Z</time></trkpt><trkpt lat="42.67170675608806" lon="11.596614220061655"><ele>440.0</ele><time>2026-04-18T08:37:38Z</time></trkpt><trkpt lat="42.67162049963803" lon="11.596440318365625"><ele>441.0</ele><time>2026-04-18T08:37:39Z</time></trkpt><trkpt lat="42.6715418304369" lon="11.59629288934297"><ele>442.20000000000005</ele><time>2026-04-18T08:37:40Z</time></trkpt><trkpt lat="42.67146633835026" lon="11.596156860444456"><ele>443.40000000000003</ele><time>2026-04-18T08:37:41Z</time></trkpt><trkpt lat="42.67140458726845" lon="11.596026248399795"><ele>444.6</ele><time>2026-04-18T08:37:42Z</time></trkpt><trkpt lat="42.6713550836121" lon="11.59589983297721"><ele>445.8</ele><time>2026-04-18T08:37:43Z</time></trkpt><trkpt lat="42.67132754235878" lon="11.595774412580818"><ele>447.0</ele><time>2026-04-18T08:37:44Z</time></trkpt><trkpt lat="42.67134053372956" lon="11.595657810121656"><ele>447.0</ele><time>2026-04-18T08:37:45Z</time></trkpt><trkpt lat="42.67138515969206" lon="11.59555893057934"><ele>447.00000000000006</ele><time>2026-04-18T08:37:46Z</time></trkpt><trkpt lat="42.67144148937611" lon="11.59549190159431"><ele>447.00000000000006</ele><time>2026-04-18T08:37:47Z</time></trkpt><trkpt lat="42.67151225901897" lon="11.595484378554522"><ele>447.0</ele><time>2026-04-18T08:37:48Z</time></trkpt><trkpt lat="42.67147855585796" lon="11.595281579297717"><ele>447.0</ele><time>2026-04-18T08:37:50Z</time></trkpt><trkpt lat="42.67144972886799" lon="11.595162842796231"><ele>446.3333333333333</ele><time>2026-04-18T08:37:51Z</time></trkpt><trkpt lat="42.671382568200634" lon="11.595084162075517"><ele>445.66666666666663</ele><time>2026-04-18T08:37:52Z</time></trkpt><trkpt lat="42.67130954069145" lon="11.594997342079667"><ele>445.0</ele><time>2026-04-18T08:37:53Z</time></trkpt><trkpt lat="42.67125615537319" lon="11.594909681098542"><ele>444.3333333333333</ele><time>2026-04-18T08:37:54Z</time></trkpt><trkpt lat="42.671215659115674" lon="11.59484005506915"><ele>443.66666666666663</ele><time>2026-04-18T08:37:55Z</time></trkpt><trkpt lat="42.67117105693906" lon="11.59472296390986"><ele>443.0</ele><time>2026-04-18T08:37:57Z</time></trkpt><trkpt lat="42.671167106901706" lon="11.594635009194688"><ele>442.99999999999994</ele><time>2026-04-18T08:37:58Z</time></trkpt><trkpt lat="42.671150409338544" lon="11.59451261089759"><ele>443.0</ele><time>2026-04-18T08:37:59Z</time></trkpt><trkpt lat="42.67113478769129" lon="11.594423234980146"><ele>443.0</ele><time>2026-04-18T08:37:59.999Z</time></trkpt><trkpt lat="42.67111997941811" lon="11.59430768234576"><ele>443.0</ele><time>2026-04-18T08:38:00.999Z</time></trkpt><trkpt lat="42.67108725200896" lon="11.594197047312349"><ele>442.99999999999994</ele><time>2026-04-18T08:38:01.999Z</time></trkpt><trkpt lat="42.67104555395263" lon="11.594096188794888"><ele>443.0</ele><time>2026-04-18T08:38:02.999Z</time></trkpt><trkpt lat="42.67099972759834" lon="11.593985819463505"><ele>441.0</ele><time>2026-04-18T08:38:03.999Z</time></trkpt><trkpt lat="42.670962080530614" lon="11.59386478935088"><ele>438.99999999999994</ele><time>2026-04-18T08:38:04.999Z</time></trkpt><trkpt lat="42.670918759863454" lon="11.593752928071483"><ele>436.99999999999994</ele><time>2026-04-18T08:38:05.999Z</time></trkpt><trkpt lat="42.67087832304676" lon="11.593641883895032"><ele>435.0</ele><time>2026-04-18T08:38:06.999Z</time></trkpt><trkpt lat="42.670835309389496" lon="11.593533904507153"><ele>433.0</ele><time>2026-04-18T08:38:07.999Z</time></trkpt><trkpt lat="42.67079681737699" lon="11.593432001283102"><ele>431.50000000000006</ele><time>2026-04-18T08:38:08.999Z</time></trkpt><trkpt lat="42.670766307051" lon="11.593342211168505"><ele>430.0</ele><time>2026-04-18T08:38:09.999Z</time></trkpt><trkpt lat="42.670725975760654" lon="11.593238746237533"><ele>428.5</ele><time>2026-04-18T08:38:10.999Z</time></trkpt><trkpt lat="42.67067629780963" lon="11.59312798936013"><ele>427.0</ele><time>2026-04-18T08:38:11.999Z</time></trkpt><trkpt lat="42.67063311212414" lon="11.59303620319611"><ele>425.50000000000006</ele><time>2026-04-18T08:38:12.999Z</time></trkpt><trkpt lat="42.67059652712831" lon="11.592951219736992"><ele>424.0</ele><time>2026-04-18T08:38:13.999Z</time></trkpt><trkpt lat="42.6705567402759" lon="11.592870425582051"><ele>421.33333333333337</ele><time>2026-04-18T08:38:14.999Z</time></trkpt><trkpt lat="42.670485515308414" lon="11.592802631365641"><ele>418.6666666666667</ele><time>2026-04-18T08:38:15.999Z</time></trkpt><trkpt lat="42.6704032656667" lon="11.592741589254876"><ele>416.0</ele><time>2026-04-18T08:38:16.999Z</time></trkpt><trkpt lat="42.67032819487615" lon="11.592684503164508"><ele>413.33333333333337</ele><time>2026-04-18T08:38:17.999Z</time></trkpt><trkpt lat="42.670261196426345" lon="11.592626998506399"><ele>410.6666666666667</ele><time>2026-04-18T08:38:18.999Z</time></trkpt><trkpt lat="42.67020458735147" lon="11.592569157134088"><ele>408.0</ele><time>2026-04-18T08:38:19.999Z</time></trkpt><trkpt lat="42.670136499047835" lon="11.592518340707874"><ele>407.0</ele><time>2026-04-18T08:38:20.999Z</time></trkpt><trkpt lat="42.67005957552419" lon="11.592495159665313"><ele>406.0</ele><time>2026-04-18T08:38:21.999Z</time></trkpt><trkpt lat="42.669985877562745" lon="11.592479900130025"><ele>405.0</ele><time>2026-04-18T08:38:22.999Z</time></trkpt><trkpt lat="42.66989011212197" lon="11.592457084846279"><ele>404.0</ele><time>2026-04-18T08:38:24.999Z</time></trkpt><trkpt lat="42.669802628478145" lon="11.592459150294228"><ele>403.0</ele><time>2026-04-18T08:38:27.999Z</time></trkpt><trkpt lat="42.66970653235582" lon="11.592403962891689"><ele>402.0</ele><time>2026-04-18T08:38:29.999Z</time></trkpt><trkpt lat="42.66964107469031" lon="11.592365137217442"><ele>402.0</ele><time>2026-04-18T08:38:30.999Z</time></trkpt><trkpt lat="42.66957514664527" lon="11.592311256229939"><ele>402.0</ele><time>2026-04-18T08:38:31.999Z</time></trkpt><trkpt lat="42.66951018108955" lon="11.592257729842858"><ele>402.0</ele><time>2026-04-18T08:38:32.999Z</time></trkpt><trkpt lat="42.669445558394905" lon="11.592221779285012"><ele>402.0</ele><time>2026-04-18T08:38:33.999Z</time></trkpt><trkpt lat="42.66937673984163" lon="11.592201168323301"><ele>402.0</ele><time>2026-04-18T08:38:34.999Z</time></trkpt><trkpt lat="42.66925216984438" lon="11.592127050455906"><ele>402.0</ele><time>2026-04-18T08:38:36.999Z</time></trkpt><trkpt lat="42.669183806434184" lon="11.59208038367275"><ele>399.5</ele><time>2026-04-18T08:38:37.999Z</time></trkpt><trkpt lat="42.669119408221015" lon="11.59203249200315"><ele>397.0</ele><time>2026-04-18T08:38:38.999Z</time></trkpt><trkpt lat="42.6690528928026" lon="11.592009125256839"><ele>394.5</ele><time>2026-04-18T08:38:39.999Z</time></trkpt><trkpt lat="42.66897459990405" lon="11.591959069050423"><ele>392.0</ele><time>2026-04-18T08:38:40.999Z</time></trkpt><trkpt lat="42.668892756626086" lon="11.591912688157453"><ele>389.5</ele><time>2026-04-18T08:38:42Z</time></trkpt><trkpt lat="42.66880212535505" lon="11.591862469023821"><ele>387.0</ele><time>2026-04-18T08:38:43Z</time></trkpt><trkpt lat="42.66872233784136" lon="11.591818258789901"><ele>386.3333333333333</ele><time>2026-04-18T08:38:44Z</time></trkpt><trkpt lat="42.66865614658937" lon="11.591778719121866"><ele>385.6666666666667</ele><time>2026-04-18T08:38:45Z</time></trkpt><trkpt lat="42.66857671468667" lon="11.591754839820103"><ele>385.0</ele><time>2026-04-18T08:38:46Z</time></trkpt><trkpt lat="42.66849504823066" lon="11.591701122167748"><ele>384.33333333333337</ele><time>2026-04-18T08:38:47Z</time></trkpt><trkpt lat="42.66842084141549" lon="11.591650640428437"><ele>383.6666666666667</ele><time>2026-04-18T08:38:48Z</time></trkpt><trkpt lat="42.66835294240244" lon="11.591576063235623"><ele>383.0</ele><time>2026-04-18T08:38:49Z</time></trkpt><trkpt lat="42.66827969149561" lon="11.591512232815473"><ele>381.5</ele><time>2026-04-18T08:38:50Z</time></trkpt><trkpt lat="42.66820889241981" lon="11.591445493340423"><ele>380.0</ele><time>2026-04-18T08:38:51Z</time></trkpt><trkpt lat="42.668146274023385" lon="11.59138686709121"><ele>378.5</ele><time>2026-04-18T08:38:52Z</time></trkpt><trkpt lat="42.66807819287366" lon="11.591323126416313"><ele>377.0</ele><time>2026-04-18T08:38:53Z</time></trkpt><trkpt lat="42.66800669910986" lon="11.591256190677365"><ele>375.5</ele><time>2026-04-18T08:38:54Z</time></trkpt><trkpt lat="42.667927226324544" lon="11.591181919932257"><ele>374.0</ele><time>2026-04-18T08:38:55Z</time></trkpt><trkpt lat="42.667827998461185" lon="11.591086202246"><ele>372.4</ele><time>2026-04-18T08:38:56Z</time></trkpt><trkpt lat="42.66772762615963" lon="11.59098817099479"><ele>370.79999999999995</ele><time>2026-04-18T08:38:57Z</time></trkpt><trkpt lat="42.66765009159433" lon="11.590909698335132"><ele>369.20000000000005</ele><time>2026-04-18T08:38:58Z</time></trkpt><trkpt lat="42.66757451408552" lon="11.590833206834706"><ele>367.6</ele><time>2026-04-18T08:38:59Z</time></trkpt><trkpt lat="42.66748996011354" lon="11.590767920082948"><ele>366.0</ele><time>2026-04-18T08:39:00Z</time></trkpt><trkpt lat="42.66740048127818" lon="11.59067740754121"><ele>366.0</ele><time>2026-04-18T08:39:01Z</time></trkpt><trkpt lat="42.66730608302289" lon="11.59057115036912"><ele>366.0</ele><time>2026-04-18T08:39:02Z</time></trkpt><trkpt lat="42.6671965296539" lon="11.590503615415413"><ele>366.0</ele><time>2026-04-18T08:39:03Z</time></trkpt><trkpt lat="42.66709918965604" lon="11.590420090531978"><ele>366.0</ele><time>2026-04-18T08:39:04Z</time></trkpt><trkpt lat="42.66700260810717" lon="11.59035118610644"><ele>363.8</ele><time>2026-04-18T08:39:05Z</time></trkpt><trkpt lat="42.666905344535586" lon="11.590283055917768"><ele>361.6</ele><time>2026-04-18T08:39:06Z</time></trkpt><trkpt lat="42.66680895812451" lon="11.590226379002228"><ele>359.4</ele><time>2026-04-18T08:39:07Z</time></trkpt><trkpt lat="42.66672200504321" lon="11.59014310701071"><ele>357.2</ele><time>2026-04-18T08:39:08Z</time></trkpt><trkpt lat="42.66664118943152" lon="11.59008269623928"><ele>355.0</ele><time>2026-04-18T08:39:09Z</time></trkpt><trkpt lat="42.66656934917981" lon="11.59001032899508"><ele>355.0</ele><time>2026-04-18T08:39:10Z</time></trkpt><trkpt lat="42.66651418800118" lon="11.589929360943609"><ele>355.0</ele><time>2026-04-18T08:39:11Z</time></trkpt><trkpt lat="42.66645643810515" lon="11.589836601909411"><ele>355.0</ele><time>2026-04-18T08:39:12Z</time></trkpt><trkpt lat="42.66641223584926" lon="11.589723409230185"><ele>355.0</ele><time>2026-04-18T08:39:13Z</time></trkpt><trkpt lat="42.666377078550624" lon="11.589615130402382"><ele>355.0</ele><time>2026-04-18T08:39:14Z</time></trkpt><trkpt lat="42.66631447152956" lon="11.589492454175568"><ele>353.0</ele><time>2026-04-18T08:39:15Z</time></trkpt><trkpt lat="42.66625744615557" lon="11.589344098393392"><ele>351.0</ele><time>2026-04-18T08:39:16Z</time></trkpt><trkpt lat="42.66619182198258" lon="11.589202742118937"><ele>349.0</ele><time>2026-04-18T08:39:17Z</time></trkpt><trkpt lat="42.66612826424114" lon="11.589076103420265"><ele>347.0</ele><time>2026-04-18T08:39:18Z</time></trkpt><trkpt lat="42.666065737417945" lon="11.588942095255202"><ele>346.6</ele><time>2026-04-18T08:39:19Z</time></trkpt><trkpt lat="42.66601912218686" lon="11.588819655681492"><ele>346.20000000000005</ele><time>2026-04-18T08:39:20Z</time></trkpt><trkpt lat="42.66595353269526" lon="11.588705556969517"><ele>345.8</ele><time>2026-04-18T08:39:21Z</time></trkpt><trkpt lat="42.66588025199546" lon="11.588615919946896"><ele>345.4</ele><time>2026-04-18T08:39:22Z</time></trkpt><trkpt lat="42.66579054944019" lon="11.588530511931438"><ele>345.0</ele><time>2026-04-18T08:39:23Z</time></trkpt><trkpt lat="42.66571187168508" lon="11.588443577719675"><ele>345.0</ele><time>2026-04-18T08:39:24Z</time></trkpt><trkpt lat="42.66563377182383" lon="11.588343171067711"><ele>345.0</ele><time>2026-04-18T08:39:25Z</time></trkpt><trkpt lat="42.665586742604646" lon="11.588237007972934"><ele>345.0</ele><time>2026-04-18T08:39:26Z</time></trkpt><trkpt lat="42.66555236319446" lon="11.588104836899676"><ele>345.0</ele><time>2026-04-18T08:39:27Z</time></trkpt><trkpt lat="42.66552792373364" lon="11.587967211615256"><ele>345.0</ele><time>2026-04-18T08:39:28Z</time></trkpt><trkpt lat="42.66549120915156" lon="11.587804445828752"><ele>344.0</ele><time>2026-04-18T08:39:29Z</time></trkpt><trkpt lat="42.665470336909785" lon="11.587639551974524"><ele>343.0</ele><time>2026-04-18T08:39:30Z</time></trkpt><trkpt lat="42.665448627212186" lon="11.58748219674328"><ele>342.0</ele><time>2026-04-18T08:39:31Z</time></trkpt><trkpt lat="42.66542774233128" lon="11.587338364038764"><ele>341.0</ele><time>2026-04-18T08:39:32Z</time></trkpt><trkpt lat="42.665401977126486" lon="11.587198878921026"><ele>341.0</ele><time>2026-04-18T08:39:33Z</time></trkpt><trkpt lat="42.66537318823784" lon="11.587069551888376"><ele>341.0</ele><time>2026-04-18T08:39:34Z</time></trkpt><trkpt lat="42.665336231796694" lon="11.586958012612335"><ele>341.0</ele><time>2026-04-18T08:39:35Z</time></trkpt><trkpt lat="42.66528126646557" lon="11.586876631406728"><ele>341.0</ele><time>2026-04-18T08:39:36Z</time></trkpt><trkpt lat="42.665211226825974" lon="11.586815302641451"><ele>341.0</ele><time>2026-04-18T08:39:37Z</time></trkpt><trkpt lat="42.665117853332056" lon="11.586767365752113"><ele>340.5</ele><time>2026-04-18T08:39:38Z</time></trkpt><trkpt lat="42.66502533602179" lon="11.586687047307105"><ele>340.0</ele><time>2026-04-18T08:39:39Z</time></trkpt><trkpt lat="42.66491748367054" lon="11.586630570477368"><ele>339.5</ele><time>2026-04-18T08:39:40Z</time></trkpt><trkpt lat="42.66479961936483" lon="11.586530916729915"><ele>339.0</ele><time>2026-04-18T08:39:41Z</time></trkpt><trkpt lat="42.6646671103331" lon="11.586438786532158"><ele>339.0</ele><time>2026-04-18T08:39:42Z</time></trkpt><trkpt lat="42.66455687026867" lon="11.586358375903641"><ele>339.0</ele><time>2026-04-18T08:39:43Z</time></trkpt><trkpt lat="42.664451439475066" lon="11.58630587515305"><ele>339.0</ele><time>2026-04-18T08:39:44Z</time></trkpt><trkpt lat="42.66435155203519" lon="11.586256016564787"><ele>339.0</ele><time>2026-04-18T08:39:45Z</time></trkpt><trkpt lat="42.66424867528881" lon="11.58619927509381"><ele>340.4</ele><time>2026-04-18T08:39:46Z</time></trkpt><trkpt lat="42.66414337117162" lon="11.586140870531596"><ele>341.79999999999995</ele><time>2026-04-18T08:39:47Z</time></trkpt><trkpt lat="42.66404194225331" lon="11.586096443064655"><ele>343.20000000000005</ele><time>2026-04-18T08:39:48Z</time></trkpt><trkpt lat="42.66394833684131" lon="11.586042573153506"><ele>344.6</ele><time>2026-04-18T08:39:49Z</time></trkpt><trkpt lat="42.6638746492929" lon="11.585984679172064"><ele>346.0</ele><time>2026-04-18T08:39:50Z</time></trkpt><trkpt lat="42.66379315109469" lon="11.585909508557242"><ele>346.0</ele><time>2026-04-18T08:39:51Z</time></trkpt><trkpt lat="42.66372197802349" lon="11.585810732181335"><ele>346.0</ele><time>2026-04-18T08:39:52Z</time></trkpt><trkpt lat="42.6636606576741" lon="11.58568388700363"><ele>346.0</ele><time>2026-04-18T08:39:53Z</time></trkpt><trkpt lat="42.6636125804834" lon="11.585542396629208"><ele>346.0</ele><time>2026-04-18T08:39:54Z</time></trkpt><trkpt lat="42.663556668019424" lon="11.585408829072778"><ele>346.0</ele><time>2026-04-18T08:39:55Z</time></trkpt><trkpt lat="42.66350156348849" lon="11.585297136063257"><ele>344.0</ele><time>2026-04-18T08:39:56Z</time></trkpt><trkpt lat="42.66340412130839" lon="11.585216120338416"><ele>342.0</ele><time>2026-04-18T08:39:57Z</time></trkpt><trkpt lat="42.66328387794663" lon="11.585135899964067"><ele>340.0</ele><time>2026-04-18T08:39:58Z</time></trkpt><trkpt lat="42.66315524868716" lon="11.585067678360215"><ele>338.0</ele><time>2026-04-18T08:39:59Z</time></trkpt><trkpt lat="42.66303868128245" lon="11.585022288589169"><ele>338.0</ele><time>2026-04-18T08:40:00Z</time></trkpt><trkpt lat="42.662928587618936" lon="11.58498359263411"><ele>338.0</ele><time>2026-04-18T08:40:00.999Z</time></trkpt><trkpt lat="42.662821052851626" lon="11.58493897299046"><ele>338.0</ele><time>2026-04-18T08:40:01.999Z</time></trkpt><trkpt lat="42.662722112858596" lon="11.584912189044749"><ele>338.0</ele><time>2026-04-18T08:40:02.999Z</time></trkpt><trkpt lat="42.66261068703955" lon="11.584868162287846"><ele>338.0</ele><time>2026-04-18T08:40:03.999Z</time></trkpt><trkpt lat="42.66251876344392" lon="11.584802713030616"><ele>336.5</ele><time>2026-04-18T08:40:04.999Z</time></trkpt><trkpt lat="42.66242473074704" lon="11.584731091707788"><ele>335.0</ele><time>2026-04-18T08:40:05.999Z</time></trkpt><trkpt lat="42.66233810728537" lon="11.584666303717725"><ele>333.5</ele><time>2026-04-18T08:40:06.999Z</time></trkpt><trkpt lat="42.662258553286286" lon="11.584574601817115"><ele>332.0</ele><time>2026-04-18T08:40:07.999Z</time></trkpt><trkpt lat="42.66214116340255" lon="11.584456345554004"><ele>332.0</ele><time>2026-04-18T08:40:08.999Z</time></trkpt><trkpt lat="42.66203772847767" lon="11.584349397222152"><ele>332.0</ele><time>2026-04-18T08:40:09.999Z</time></trkpt><trkpt lat="42.66194114439852" lon="11.584262181863846"><ele>332.0</ele><time>2026-04-18T08:40:10.999Z</time></trkpt><trkpt lat="42.66183261625677" lon="11.584193158102456"><ele>332.0</ele><time>2026-04-18T08:40:11.999Z</time></trkpt><trkpt lat="42.66171463988342" lon="11.584146244109421"><ele>330.25</ele><time>2026-04-18T08:40:12.999Z</time></trkpt><trkpt lat="42.66159849722618" lon="11.584106683753983"><ele>328.5</ele><time>2026-04-18T08:40:13.999Z</time></trkpt><trkpt lat="42.66148079707693" lon="11.584051234901613"><ele>326.75</ele><time>2026-04-18T08:40:14.999Z</time></trkpt><trkpt lat="42.66136711728354" lon="11.584000498475756"><ele>325.0</ele><time>2026-04-18T08:40:15.999Z</time></trkpt><trkpt lat="42.661258205082916" lon="11.58394861486167"><ele>325.0</ele><time>2026-04-18T08:40:16.999Z</time></trkpt><trkpt lat="42.6611563967501" lon="11.583895117558052"><ele>325.0</ele><time>2026-04-18T08:40:17.999Z</time></trkpt><trkpt lat="42.66106342241064" lon="11.583833616977424"><ele>325.0</ele><time>2026-04-18T08:40:18.999Z</time></trkpt><trkpt lat="42.66097724359109" lon="11.583759833227656"><ele>325.0</ele><time>2026-04-18T08:40:19.999Z</time></trkpt><trkpt lat="42.66089528416349" lon="11.583671626667815"><ele>325.0</ele><time>2026-04-18T08:40:20.999Z</time></trkpt><trkpt lat="42.66081732572178" lon="11.583558218868419"><ele>322.75</ele><time>2026-04-18T08:40:21.999Z</time></trkpt><trkpt lat="42.66073165787496" lon="11.583436789104868"><ele>320.5</ele><time>2026-04-18T08:40:22.999Z</time></trkpt><trkpt lat="42.660647006864835" lon="11.58330748806944"><ele>318.25</ele><time>2026-04-18T08:40:23.999Z</time></trkpt><trkpt lat="42.66057640718021" lon="11.583177686658082"><ele>316.0</ele><time>2026-04-18T08:40:24.999Z</time></trkpt><trkpt lat="42.66050267163544" lon="11.583047886399976"><ele>316.0</ele><time>2026-04-18T08:40:25.999Z</time></trkpt><trkpt lat="42.66043136427482" lon="11.582943225239974"><ele>316.0</ele><time>2026-04-18T08:40:26.999Z</time></trkpt><trkpt lat="42.660359989955396" lon="11.5828311790818"><ele>316.0</ele><time>2026-04-18T08:40:27.999Z</time></trkpt><trkpt lat="42.66028535794389" lon="11.582728607954454"><ele>316.0</ele><time>2026-04-18T08:40:28.999Z</time></trkpt><trkpt lat="42.66020910749792" lon="11.582641930414974"><ele>316.0</ele><time>2026-04-18T08:40:29.999Z</time></trkpt><trkpt lat="42.66011631602924" lon="11.582561632421625"><ele>314.2</ele><time>2026-04-18T08:40:30.999Z</time></trkpt><trkpt lat="42.6600212773796" lon="11.582503936721542"><ele>312.40000000000003</ele><time>2026-04-18T08:40:31.999Z</time></trkpt><trkpt lat="42.659923698001016" lon="11.582462032134206"><ele>310.6</ele><time>2026-04-18T08:40:32.999Z</time></trkpt><trkpt lat="42.65984328142435" lon="11.582402482162927"><ele>308.8</ele><time>2026-04-18T08:40:33.999Z</time></trkpt><trkpt lat="42.65975624415035" lon="11.582397255170747"><ele>307.0</ele><time>2026-04-18T08:40:34.999Z</time></trkpt><trkpt lat="42.659673161768445" lon="11.5823850247767"><ele>307.0</ele><time>2026-04-18T08:40:35.999Z</time></trkpt><trkpt lat="42.659592242829795" lon="11.58240888355266"><ele>307.0</ele><time>2026-04-18T08:40:36.999Z</time></trkpt><trkpt lat="42.65947998870369" lon="11.582465168241644"><ele>307.0</ele><time>2026-04-18T08:40:37.999Z</time></trkpt><trkpt lat="42.65937073592898" lon="11.582550107479152"><ele>307.0</ele><time>2026-04-18T08:40:38.999Z</time></trkpt><trkpt lat="42.65925295854913" lon="11.582604573756921"><ele>305.4</ele><time>2026-04-18T08:40:39.999Z</time></trkpt><trkpt lat="42.65915169569906" lon="11.582668064399247"><ele>303.79999999999995</ele><time>2026-04-18T08:40:40.999Z</time></trkpt><trkpt lat="42.659051329696524" lon="11.582727654678147"><ele>302.2</ele><time>2026-04-18T08:40:41.999Z</time></trkpt><trkpt lat="42.65896128622542" lon="11.58278885513672"><ele>300.59999999999997</ele><time>2026-04-18T08:40:42.999Z</time></trkpt><trkpt lat="42.65886315437743" lon="11.582846430953886"><ele>299.0</ele><time>2026-04-18T08:40:43.999Z</time></trkpt><trkpt lat="42.65876617046813" lon="11.582903439890934"><ele>298.2</ele><time>2026-04-18T08:40:44.999Z</time></trkpt><trkpt lat="42.65866707782461" lon="11.58296192491028"><ele>297.4</ele><time>2026-04-18T08:40:45.999Z</time></trkpt><trkpt lat="42.658572092120565" lon="11.58302312604002"><ele>296.6</ele><time>2026-04-18T08:40:46.999Z</time></trkpt><trkpt lat="42.65847494988859" lon="11.583082160005981"><ele>295.8</ele><time>2026-04-18T08:40:48Z</time></trkpt><trkpt lat="42.65837204765113" lon="11.583131706982638"><ele>295.0</ele><time>2026-04-18T08:40:49Z</time></trkpt><trkpt lat="42.65827472132109" lon="11.583168796056153"><ele>292.0</ele><time>2026-04-18T08:40:50Z</time></trkpt><trkpt lat="42.6581638008705" lon="11.583187473347731"><ele>289.0</ele><time>2026-04-18T08:40:51Z</time></trkpt><trkpt lat="42.65803509689704" lon="11.583197666736877"><ele>286.0</ele><time>2026-04-18T08:40:52Z</time></trkpt><trkpt lat="42.657894892474" lon="11.58320056748321"><ele>283.0</ele><time>2026-04-18T08:40:53Z</time></trkpt><trkpt lat="42.657754050417836" lon="11.583211081245052"><ele>280.75</ele><time>2026-04-18T08:40:54Z</time></trkpt><trkpt lat="42.65761262641457" lon="11.583221385712026"><ele>278.5</ele><time>2026-04-18T08:40:55Z</time></trkpt><trkpt lat="42.65748070743846" lon="11.583230254185047"><ele>276.25</ele><time>2026-04-18T08:40:56Z</time></trkpt><trkpt lat="42.65733650060481" lon="11.58324121199985"><ele>274.0</ele><time>2026-04-18T08:40:57Z</time></trkpt><trkpt lat="42.657161840513965" lon="11.583256219768812"><ele>274.0</ele><time>2026-04-18T08:40:58Z</time></trkpt><trkpt lat="42.656999989831284" lon="11.58327167376638"><ele>274.0</ele><time>2026-04-18T08:40:59Z</time></trkpt><trkpt lat="42.656861917839215" lon="11.583297748199222"><ele>274.0</ele><time>2026-04-18T08:41:00Z</time></trkpt><trkpt lat="42.65673058641569" lon="11.583306313810713"><ele>274.0</ele><time>2026-04-18T08:41:01Z</time></trkpt><trkpt lat="42.656612626130624" lon="11.583307973683036"><ele>273.0</ele><time>2026-04-18T08:41:02Z</time></trkpt><trkpt lat="42.65649756837173" lon="11.583319289628268"><ele>272.0</ele><time>2026-04-18T08:41:03Z</time></trkpt><trkpt lat="42.65638924107172" lon="11.583336260717997"><ele>271.0</ele><time>2026-04-18T08:41:04Z</time></trkpt><trkpt lat="42.656284137867495" lon="11.583354481058239"><ele>270.0</ele><time>2026-04-18T08:41:05Z</time></trkpt><trkpt lat="42.656182935087664" lon="11.58336693602742"><ele>269.0</ele><time>2026-04-18T08:41:06Z</time></trkpt><trkpt lat="42.65609579067209" lon="11.583362636139713"><ele>268.4</ele><time>2026-04-18T08:41:07Z</time></trkpt><trkpt lat="42.65599904740492" lon="11.58334096581525"><ele>267.79999999999995</ele><time>2026-04-18T08:41:08Z</time></trkpt><trkpt lat="42.65590324543248" lon="11.583298542929288"><ele>267.20000000000005</ele><time>2026-04-18T08:41:09Z</time></trkpt><trkpt lat="42.65579662986713" lon="11.583257338657651"><ele>266.6</ele><time>2026-04-18T08:41:10Z</time></trkpt><trkpt lat="42.655699378676836" lon="11.583223441434296"><ele>266.0</ele><time>2026-04-18T08:41:11Z</time></trkpt><trkpt lat="42.655612986958644" lon="11.583200019885753"><ele>266.0</ele><time>2026-04-18T08:41:12Z</time></trkpt><trkpt lat="42.65553492116356" lon="11.583173214710861"><ele>266.0</ele><time>2026-04-18T08:41:13Z</time></trkpt><trkpt lat="42.655460720539544" lon="11.583144014221068"><ele>266.0</ele><time>2026-04-18T08:41:14Z</time></trkpt><trkpt lat="42.65539342815205" lon="11.583101484960569"><ele>266.0</ele><time>2026-04-18T08:41:15Z</time></trkpt><trkpt lat="42.65525727792783" lon="11.583081275242202"><ele>266.0</ele><time>2026-04-18T08:41:16Z</time></trkpt><trkpt lat="42.65516278936731" lon="11.583054582117914"><ele>265.0</ele><time>2026-04-18T08:41:17Z</time></trkpt><trkpt lat="42.65505510678835" lon="11.583022863366102"><ele>264.0</ele><time>2026-04-18T08:41:18Z</time></trkpt><trkpt lat="42.65495698203488" lon="11.58300401909066"><ele>263.0</ele><time>2026-04-18T08:41:19Z</time></trkpt><trkpt lat="42.654858311727445" lon="11.582983017051797"><ele>262.0</ele><time>2026-04-18T08:41:20Z</time></trkpt><trkpt lat="42.65475208556378" lon="11.582959496589693"><ele>261.0</ele><time>2026-04-18T08:41:21Z</time></trkpt><trkpt lat="42.65464962570828" lon="11.582922209926405"><ele>261.0</ele><time>2026-04-18T08:41:22Z</time></trkpt><trkpt lat="42.65454053556402" lon="11.58288799367503"><ele>261.0</ele><time>2026-04-18T08:41:23Z</time></trkpt><trkpt lat="42.65442804115852" lon="11.58284616741716"><ele>261.0</ele><time>2026-04-18T08:41:24Z</time></trkpt><trkpt lat="42.65430942868539" lon="11.582803637851107"><ele>261.0</ele><time>2026-04-18T08:41:25Z</time></trkpt><trkpt lat="42.65420152777313" lon="11.582757489058606"><ele>259.25</ele><time>2026-04-18T08:41:26Z</time></trkpt><trkpt lat="42.65409081628574" lon="11.582719822413404"><ele>257.5</ele><time>2026-04-18T08:41:27Z</time></trkpt><trkpt lat="42.65395899560186" lon="11.582673781841322"><ele>255.75</ele><time>2026-04-18T08:41:28Z</time></trkpt><trkpt lat="42.65378714250585" lon="11.582605157701103"><ele>254.0</ele><time>2026-04-18T08:41:29Z</time></trkpt><trkpt lat="42.65361971867166" lon="11.58257719337471"><ele>253.0</ele><time>2026-04-18T08:41:30Z</time></trkpt><trkpt lat="42.65348358079076" lon="11.582533814933495"><ele>252.0</ele><time>2026-04-18T08:41:31Z</time></trkpt><trkpt lat="42.65336001109984" lon="11.582497792678435"><ele>251.0</ele><time>2026-04-18T08:41:32Z</time></trkpt><trkpt lat="42.65322867767952" lon="11.58245116252488"><ele>250.0</ele><time>2026-04-18T08:41:33Z</time></trkpt><trkpt lat="42.65309458971852" lon="11.582403938246033"><ele>250.0</ele><time>2026-04-18T08:41:34Z</time></trkpt><trkpt lat="42.65294943557837" lon="11.582359345981466"><ele>250.0</ele><time>2026-04-18T08:41:35Z</time></trkpt><trkpt lat="42.65278618871925" lon="11.582315661745435"><ele>250.0</ele><time>2026-04-18T08:41:36Z</time></trkpt><trkpt lat="42.65262172499075" lon="11.582273673765018"><ele>248.66666666666666</ele><time>2026-04-18T08:41:37Z</time></trkpt><trkpt lat="42.6524707882966" lon="11.58224272913344"><ele>247.33333333333331</ele><time>2026-04-18T08:41:38Z</time></trkpt><trkpt lat="42.652328826379836" lon="11.582210957392965"><ele>246.0</ele><time>2026-04-18T08:41:39Z</time></trkpt><trkpt lat="42.652173080733554" lon="11.582172740439676"><ele>246.0</ele><time>2026-04-18T08:41:40Z</time></trkpt><trkpt lat="42.6520188612928" lon="11.58213337353556"><ele>246.0</ele><time>2026-04-18T08:41:41Z</time></trkpt><trkpt lat="42.651869464703154" lon="11.582073741969378"><ele>246.0</ele><time>2026-04-18T08:41:42Z</time></trkpt><trkpt lat="42.65171718622616" lon="11.582024806395117"><ele>245.66666666666669</ele><time>2026-04-18T08:41:43Z</time></trkpt><trkpt lat="42.65156855979763" lon="11.58197704449167"><ele>245.33333333333334</ele><time>2026-04-18T08:41:44Z</time></trkpt><trkpt lat="42.651413337783495" lon="11.581933670053303"><ele>245.0</ele><time>2026-04-18T08:41:45Z</time></trkpt><trkpt lat="42.65127114750234" lon="11.581907253136617"><ele>245.0</ele><time>2026-04-18T08:41:46Z</time></trkpt><trkpt lat="42.65114548845418" lon="11.581870364122189"><ele>245.0</ele><time>2026-04-18T08:41:47Z</time></trkpt><trkpt lat="42.65102792022942" lon="11.581832015815205"><ele>245.0</ele><time>2026-04-18T08:41:48Z</time></trkpt><trkpt lat="42.65092348306294" lon="11.581802323820845"><ele>245.0</ele><time>2026-04-18T08:41:49Z</time></trkpt><trkpt lat="42.65082608029973" lon="11.581766472331868"><ele>244.50000000000003</ele><time>2026-04-18T08:41:50Z</time></trkpt><trkpt lat="42.650731565240946" lon="11.581735730746082"><ele>244.0</ele><time>2026-04-18T08:41:51Z</time></trkpt><trkpt lat="42.65065500330292" lon="11.58171606798903"><ele>243.5</ele><time>2026-04-18T08:41:52Z</time></trkpt><trkpt lat="42.65059460492591" lon="11.581690245152693"><ele>243.0</ele><time>2026-04-18T08:41:53Z</time></trkpt><trkpt lat="42.6504936014857" lon="11.581648212892524"><ele>242.50000000000003</ele><time>2026-04-18T08:41:55Z</time></trkpt><trkpt lat="42.650421596165856" lon="11.58162223498337"><ele>242.0</ele><time>2026-04-18T08:41:57Z</time></trkpt><trkpt lat="42.65038621514057" lon="11.581542553232314"><ele>242.00000000000003</ele><time>2026-04-18T08:41:59Z</time></trkpt><trkpt lat="42.65038736700751" lon="11.581343781696356"><ele>242.0</ele><time>2026-04-18T08:42:00.999Z</time></trkpt><trkpt lat="42.65035758991623" lon="11.581240235694667"><ele>242.0</ele><time>2026-04-18T08:42:01.999Z</time></trkpt><trkpt lat="42.65034132490015" lon="11.581144696867936"><ele>242.0</ele><time>2026-04-18T08:42:02.999Z</time></trkpt><trkpt lat="42.65032933051358" lon="11.581047047094378"><ele>242.00000000000003</ele><time>2026-04-18T08:42:03.999Z</time></trkpt><trkpt lat="42.65031771557589" lon="11.580954715658583"><ele>242.0</ele><time>2026-04-18T08:42:04.999Z</time></trkpt><trkpt lat="42.65030428460307" lon="11.580837185687068"><ele>241.0</ele><time>2026-04-18T08:42:06.999Z</time></trkpt><trkpt lat="42.650321014224865" lon="11.580713014209277"><ele>240.0</ele><time>2026-04-18T08:42:08.999Z</time></trkpt><trkpt lat="42.6503705272731" lon="11.580615905345399"><ele>239.0</ele><time>2026-04-18T08:42:10.999Z</time></trkpt><trkpt lat="42.65039595316468" lon="11.580517476028938"><ele>238.0</ele><time>2026-04-18T08:42:12.999Z</time></trkpt><trkpt lat="42.650287351167506" lon="11.580408839355263"><ele>237.0</ele><time>2026-04-18T08:42:14.999Z</time></trkpt><trkpt lat="42.65022641537053" lon="11.580318497273243"><ele>234.0</ele><time>2026-04-18T08:42:15.999Z</time></trkpt><trkpt lat="42.650173892749805" lon="11.580228244148177"><ele>231.0</ele><time>2026-04-18T08:42:16.999Z</time></trkpt><trkpt lat="42.650115778222734" lon="11.58013119630007"><ele>228.0</ele><time>2026-04-18T08:42:17.999Z</time></trkpt><trkpt lat="42.650059409184635" lon="11.580042536754515"><ele>225.0</ele><time>2026-04-18T08:42:18.999Z</time></trkpt><trkpt lat="42.649981574880734" lon="11.57995886763108"><ele>222.0</ele><time>2026-04-18T08:42:19.999Z</time></trkpt><trkpt lat="42.64990375757362" lon="11.57988425421928"><ele>222.0</ele><time>2026-04-18T08:42:20.999Z</time></trkpt><trkpt lat="42.64984469986537" lon="11.57981816216696"><ele>222.0</ele><time>2026-04-18T08:42:21.999Z</time></trkpt><trkpt lat="42.649791161306794" lon="11.579746893174677"><ele>222.0</ele><time>2026-04-18T08:42:23.999Z</time></trkpt><trkpt lat="42.649758289045494" lon="11.579662904192617"><ele>222.0</ele><time>2026-04-18T08:42:28.999Z</time></trkpt><trkpt lat="42.64970364676047" lon="11.579555508967694"><ele>222.0</ele><time>2026-04-18T08:43:36Z</time></trkpt><trkpt lat="42.649674103275615" lon="11.579479827600723"><ele>222.0</ele><time>2026-04-18T08:43:37Z</time></trkpt><trkpt lat="42.64967395646176" lon="11.57936254495138"><ele>221.83333333333334</ele><time>2026-04-18T08:43:39Z</time></trkpt><trkpt lat="42.64972802303014" lon="11.579265792042866"><ele>221.66666666666669</ele><time>2026-04-18T08:43:41Z</time></trkpt><trkpt lat="42.64975911847689" lon="11.579156348063092"><ele>221.5</ele><time>2026-04-18T08:43:43Z</time></trkpt><trkpt lat="42.64974895805889" lon="11.578977297922906"><ele>221.33333333333334</ele><time>2026-04-18T08:43:45Z</time></trkpt><trkpt lat="42.64973261926555" lon="11.57889340950311"><ele>221.16666666666669</ele><time>2026-04-18T08:43:46Z</time></trkpt><trkpt lat="42.64971261382641" lon="11.578795085554198"><ele>221.0</ele><time>2026-04-18T08:43:47Z</time></trkpt><trkpt lat="42.64969256475351" lon="11.578678408386033"><ele>221.00000000000003</ele><time>2026-04-18T08:43:48Z</time></trkpt><trkpt lat="42.64966948585314" lon="11.578559317635293"><ele>221.0</ele><time>2026-04-18T08:43:49Z</time></trkpt><trkpt lat="42.64964643818156" lon="11.578441118143571"><ele>221.0</ele><time>2026-04-18T08:43:50Z</time></trkpt><trkpt lat="42.649626603456255" lon="11.578340013689687"><ele>221.0</ele><time>2026-04-18T08:43:51Z</time></trkpt><trkpt lat="42.649590096451455" lon="11.578240570866758"><ele>221.00000000000003</ele><time>2026-04-18T08:43:52Z</time></trkpt><trkpt lat="42.649559721066915" lon="11.578151259449877"><ele>221.0</ele><time>2026-04-18T08:43:53Z</time></trkpt><trkpt lat="42.649516194412065" lon="11.578051832319318"><ele>221.0</ele><time>2026-04-18T08:43:54Z</time></trkpt><trkpt lat="42.649460917415716" lon="11.577957826403072"><ele>221.00000000000003</ele><time>2026-04-18T08:43:55Z</time></trkpt><trkpt lat="42.64939743237607" lon="11.577894924187968"><ele>221.00000000000003</ele><time>2026-04-18T08:43:57Z</time></trkpt><trkpt lat="42.6493543513243" lon="11.5778250950026"><ele>221.0</ele><time>2026-04-18T08:43:59Z</time></trkpt><trkpt lat="42.64927497062544" lon="11.577751723274268"><ele>221.0</ele><time>2026-04-18T08:44:02Z</time></trkpt><trkpt lat="42.64904965438384" lon="11.57793039134628"><ele>221.14285714285717</ele><time>2026-04-18T08:44:03Z</time></trkpt><trkpt lat="42.64897672635397" lon="11.577948834227259"><ele>221.28571428571428</ele><time>2026-04-18T08:44:04Z</time></trkpt><trkpt lat="42.648910225206244" lon="11.577961716369057"><ele>221.42857142857144</ele><time>2026-04-18T08:44:05Z</time></trkpt><trkpt lat="42.648832962218464" lon="11.57796733519691"><ele>221.57142857142858</ele><time>2026-04-18T08:44:06Z</time></trkpt><trkpt lat="42.648761144464316" lon="11.577969447704184"><ele>221.71428571428572</ele><time>2026-04-18T08:44:07Z</time></trkpt><trkpt lat="42.64869621799278" lon="11.57799252176444"><ele>221.85714285714286</ele><time>2026-04-18T08:44:08Z</time></trkpt><trkpt lat="42.64861790876739" lon="11.578011622544455"><ele>222.0</ele><time>2026-04-18T08:44:09Z</time></trkpt><trkpt lat="42.64853571150086" lon="11.57802304201926"><ele>221.6</ele><time>2026-04-18T08:44:10Z</time></trkpt><trkpt lat="42.64845457304869" lon="11.578034123952168"><ele>221.2</ele><time>2026-04-18T08:44:11Z</time></trkpt><trkpt lat="42.648368595663484" lon="11.578049569536908"><ele>220.8</ele><time>2026-04-18T08:44:12Z</time></trkpt><trkpt lat="42.64828339909308" lon="11.578064944933667"><ele>220.4</ele><time>2026-04-18T08:44:13Z</time></trkpt><trkpt lat="42.6482039049044" lon="11.57807987941622"><ele>220.0</ele><time>2026-04-18T08:44:14Z</time></trkpt><trkpt lat="42.64807446930098" lon="11.578107529444894"><ele>220.0</ele><time>2026-04-18T08:44:16Z</time></trkpt><trkpt lat="42.64799605765887" lon="11.57812166885774"><ele>220.0</ele><time>2026-04-18T08:44:17Z</time></trkpt><trkpt lat="42.647925749576025" lon="11.578128417897926"><ele>220.0</ele><time>2026-04-18T08:44:17.999Z</time></trkpt><trkpt lat="42.647805326778375" lon="11.578163235572443"><ele>220.0</ele><time>2026-04-18T08:44:19.999Z</time></trkpt><trkpt lat="42.647693210383515" lon="11.57821316324002"><ele>220.0</ele><time>2026-04-18T08:44:21.999Z</time></trkpt><trkpt lat="42.647576389025765" lon="11.578287310995405"><ele>220.0</ele><time>2026-04-18T08:44:23.999Z</time></trkpt><trkpt lat="42.647462738806105" lon="11.578371332075028"><ele>220.0</ele><time>2026-04-18T08:44:24.999Z</time></trkpt><trkpt lat="42.647356360998494" lon="11.578444534953096"><ele>220.0</ele><time>2026-04-18T08:44:25.999Z</time></trkpt><trkpt lat="42.647266773695755" lon="11.578501663165278"><ele>220.0</ele><time>2026-04-18T08:44:26.999Z</time></trkpt><trkpt lat="42.64716893800767" lon="11.578564631291323"><ele>220.0</ele><time>2026-04-18T08:44:27.999Z</time></trkpt><trkpt lat="42.64706075893036" lon="11.578639172967726"><ele>220.0</ele><time>2026-04-18T08:44:28.999Z</time></trkpt><trkpt lat="42.646938691478404" lon="11.578722065017654"><ele>220.0</ele><time>2026-04-18T08:44:29.999Z</time></trkpt><trkpt lat="42.64684180886743" lon="11.57879563834422"><ele>220.0</ele><time>2026-04-18T08:44:30.999Z</time></trkpt><trkpt lat="42.646748853322606" lon="11.578884347306317"><ele>218.75</ele><time>2026-04-18T08:44:31.999Z</time></trkpt><trkpt lat="42.64665774686981" lon="11.579005044297393"><ele>217.5</ele><time>2026-04-18T08:44:32.999Z</time></trkpt><trkpt lat="42.646557497763084" lon="11.579129941994227"><ele>216.25</ele><time>2026-04-18T08:44:33.999Z</time></trkpt><trkpt lat="42.646464557163895" lon="11.579237474541182"><ele>215.0</ele><time>2026-04-18T08:44:34.999Z</time></trkpt><trkpt lat="42.6463716606754" lon="11.579329141404038"><ele>215.0</ele><time>2026-04-18T08:44:35.999Z</time></trkpt><trkpt lat="42.64628205674616" lon="11.579407645202973"><ele>215.0</ele><time>2026-04-18T08:44:36.999Z</time></trkpt><trkpt lat="42.64618474642618" lon="11.579495959105886"><ele>215.0</ele><time>2026-04-18T08:44:37.999Z</time></trkpt><trkpt lat="42.64607824959875" lon="11.57956697364708"><ele>215.0</ele><time>2026-04-18T08:44:38.999Z</time></trkpt><trkpt lat="42.645983653673085" lon="11.579663273498237"><ele>215.2</ele><time>2026-04-18T08:44:39.999Z</time></trkpt><trkpt lat="42.64590115024277" lon="11.579768454815294"><ele>215.4</ele><time>2026-04-18T08:44:40.999Z</time></trkpt><trkpt lat="42.64582805804386" lon="11.579862636060653"><ele>215.60000000000002</ele><time>2026-04-18T08:44:41.999Z</time></trkpt><trkpt lat="42.64575040023513" lon="11.579968033746363"><ele>215.8</ele><time>2026-04-18T08:44:42.999Z</time></trkpt><trkpt lat="42.64566244614349" lon="11.580070595139338"><ele>216.0</ele><time>2026-04-18T08:44:43.999Z</time></trkpt><trkpt lat="42.64555114569926" lon="11.580179573524939"><ele>216.0</ele><time>2026-04-18T08:44:44.999Z</time></trkpt><trkpt lat="42.645447963452234" lon="11.580267840758168"><ele>216.00000000000003</ele><time>2026-04-18T08:44:45.999Z</time></trkpt><trkpt lat="42.64536467238842" lon="11.58035351609416"><ele>216.00000000000003</ele><time>2026-04-18T08:44:46.999Z</time></trkpt><trkpt lat="42.64530350506415" lon="11.58042274417378"><ele>216.0</ele><time>2026-04-18T08:44:47.999Z</time></trkpt><trkpt lat="42.64523651038201" lon="11.580490519188462"><ele>216.0</ele><time>2026-04-18T08:44:48.999Z</time></trkpt><trkpt lat="42.6451458314814" lon="11.580565076032487"><ele>215.5</ele><time>2026-04-18T08:44:49.999Z</time></trkpt><trkpt lat="42.64503263050066" lon="11.580649849289404"><ele>215.0</ele><time>2026-04-18T08:44:50.999Z</time></trkpt><trkpt lat="42.64491300802953" lon="11.580749723508681"><ele>214.5</ele><time>2026-04-18T08:44:51.999Z</time></trkpt><trkpt lat="42.644780387078406" lon="11.580869902993266"><ele>214.0</ele><time>2026-04-18T08:44:52.999Z</time></trkpt><trkpt lat="42.64464659568808" lon="11.5809803996135"><ele>214.0</ele><time>2026-04-18T08:44:53.999Z</time></trkpt><trkpt lat="42.64452804341066" lon="11.581085074884491"><ele>214.0</ele><time>2026-04-18T08:44:54.999Z</time></trkpt><trkpt lat="42.64443416022046" lon="11.581171245919354"><ele>214.0</ele><time>2026-04-18T08:44:55.999Z</time></trkpt><trkpt lat="42.644337386663516" lon="11.581235969171358"><ele>214.0</ele><time>2026-04-18T08:44:56.999Z</time></trkpt><trkpt lat="42.64422179797814" lon="11.581318332152302"><ele>212.66666666666666</ele><time>2026-04-18T08:44:57.999Z</time></trkpt><trkpt lat="42.6441093520651" lon="11.581432821847873"><ele>211.33333333333331</ele><time>2026-04-18T08:44:58.999Z</time></trkpt><trkpt lat="42.64399254439025" lon="11.581572949649452"><ele>210.0</ele><time>2026-04-18T08:45:00.001Z</time></trkpt><trkpt lat="42.64387179936611" lon="11.581728928486024"><ele>210.0</ele><time>2026-04-18T08:45:01.001Z</time></trkpt><trkpt lat="42.643770329224616" lon="11.581862394670523"><ele>210.0</ele><time>2026-04-18T08:45:02.001Z</time></trkpt><trkpt lat="42.64367044171791" lon="11.58200678579168"><ele>210.0</ele><time>2026-04-18T08:45:03.001Z</time></trkpt><trkpt lat="42.64356485680502" lon="11.582145930797688"><ele>210.0</ele><time>2026-04-18T08:45:04.001Z</time></trkpt><trkpt lat="42.643454505903854" lon="11.582268455158058"><ele>210.25</ele><time>2026-04-18T08:45:05.001Z</time></trkpt><trkpt lat="42.64335948124324" lon="11.58236512506189"><ele>210.5</ele><time>2026-04-18T08:45:06.001Z</time></trkpt><trkpt lat="42.643270779235394" lon="11.582453908047858"><ele>210.75</ele><time>2026-04-18T08:45:07.001Z</time></trkpt><trkpt lat="42.64317439025372" lon="11.582546546996756"><ele>211.0</ele><time>2026-04-18T08:45:08.001Z</time></trkpt><trkpt lat="42.64308152272266" lon="11.58261824006959"><ele>211.0</ele><time>2026-04-18T08:45:09.001Z</time></trkpt><trkpt lat="42.642997362084984" lon="11.582679356843451"><ele>211.0</ele><time>2026-04-18T08:45:10.001Z</time></trkpt><trkpt lat="42.642922316359176" lon="11.582745301321737"><ele>211.0</ele><time>2026-04-18T08:45:11.001Z</time></trkpt><trkpt lat="42.64283229118314" lon="11.582815491411605"><ele>211.0</ele><time>2026-04-18T08:45:12.001Z</time></trkpt><trkpt lat="42.64273196960133" lon="11.582848131014584"><ele>211.0</ele><time>2026-04-18T08:45:13.001Z</time></trkpt><trkpt lat="42.64263937381161" lon="11.582857380956762"><ele>210.0</ele><time>2026-04-18T08:45:14.001Z</time></trkpt><trkpt lat="42.64255612406588" lon="11.582852750016748"><ele>209.0</ele><time>2026-04-18T08:45:15.001Z</time></trkpt><trkpt lat="42.64245080264292" lon="11.582854998965525"><ele>208.0</ele><time>2026-04-18T08:45:16.001Z</time></trkpt><trkpt lat="42.64233235701917" lon="11.582865027137492"><ele>207.0</ele><time>2026-04-18T08:45:17.001Z</time></trkpt><trkpt lat="42.64221551203864" lon="11.58288708264283"><ele>206.0</ele><time>2026-04-18T08:45:18.001Z</time></trkpt><trkpt lat="42.6421022342075" lon="11.582918471165296"><ele>206.0</ele><time>2026-04-18T08:45:19.001Z</time></trkpt><trkpt lat="42.64199964298032" lon="11.582952571767118"><ele>206.0</ele><time>2026-04-18T08:45:20.001Z</time></trkpt><trkpt lat="42.641900096499434" lon="11.582990509211786"><ele>206.0</ele><time>2026-04-18T08:45:21Z</time></trkpt><trkpt lat="42.64180154210027" lon="11.583025384298082"><ele>206.0</ele><time>2026-04-18T08:45:22Z</time></trkpt><trkpt lat="42.641703346708475" lon="11.583023637592433"><ele>206.0</ele><time>2026-04-18T08:45:23Z</time></trkpt><trkpt lat="42.64160342038696" lon="11.583013602522092"><ele>204.75</ele><time>2026-04-18T08:45:24Z</time></trkpt><trkpt lat="42.64147289892791" lon="11.582984280098623"><ele>203.5</ele><time>2026-04-18T08:45:25Z</time></trkpt><trkpt lat="42.64135149064923" lon="11.582966113750436"><ele>202.25</ele><time>2026-04-18T08:45:26Z</time></trkpt><trkpt lat="42.6412349685023" lon="11.582990290357708"><ele>201.0</ele><time>2026-04-18T08:45:27Z</time></trkpt><trkpt lat="42.64108414077724" lon="11.5830561477309"><ele>200.5</ele><time>2026-04-18T08:45:28Z</time></trkpt><trkpt lat="42.64092892876527" lon="11.58315192205595"><ele>200.0</ele><time>2026-04-18T08:45:29Z</time></trkpt><trkpt lat="42.640792717451745" lon="11.583219429899088"><ele>199.5</ele><time>2026-04-18T08:45:30Z</time></trkpt><trkpt lat="42.64066682158776" lon="11.583270737717095"><ele>199.0</ele><time>2026-04-18T08:45:31Z</time></trkpt><trkpt lat="42.64053237953195" lon="11.583310350855017"><ele>199.0</ele><time>2026-04-18T08:45:32Z</time></trkpt><trkpt lat="42.64036592869151" lon="11.58336419991056"><ele>199.0</ele><time>2026-04-18T08:45:33Z</time></trkpt><trkpt lat="42.64020549726803" lon="11.58341855697127"><ele>199.0</ele><time>2026-04-18T08:45:34Z</time></trkpt><trkpt lat="42.64006477995428" lon="11.583479837022463"><ele>197.75</ele><time>2026-04-18T08:45:35Z</time></trkpt><trkpt lat="42.63993008702386" lon="11.583546164166151"><ele>196.5</ele><time>2026-04-18T08:45:36Z</time></trkpt><trkpt lat="42.63980504068964" lon="11.583604827561762"><ele>195.25</ele><time>2026-04-18T08:45:37Z</time></trkpt><trkpt lat="42.63968289344794" lon="11.58365590169062"><ele>194.0</ele><time>2026-04-18T08:45:38Z</time></trkpt><trkpt lat="42.63958215699252" lon="11.583688023065145"><ele>193.79999999999998</ele><time>2026-04-18T08:45:39Z</time></trkpt><trkpt lat="42.63949496682698" lon="11.583733064890115"><ele>193.6</ele><time>2026-04-18T08:45:40Z</time></trkpt><trkpt lat="42.63943023537576" lon="11.583792979992724"><ele>193.4</ele><time>2026-04-18T08:45:41Z</time></trkpt><trkpt lat="42.63938300776467" lon="11.58387225240162"><ele>193.2</ele><time>2026-04-18T08:45:42Z</time></trkpt><trkpt lat="42.639335953116095" lon="11.583992049841676"><ele>193.0</ele><time>2026-04-18T08:45:43Z</time></trkpt><trkpt lat="42.63927541498917" lon="11.584156820649605"><ele>193.0</ele><time>2026-04-18T08:45:44Z</time></trkpt><trkpt lat="42.63921779040083" lon="11.58426878256707"><ele>193.0</ele><time>2026-04-18T08:45:45Z</time></trkpt><trkpt lat="42.63913533721215" lon="11.584416293827001"><ele>193.0</ele><time>2026-04-18T08:45:46Z</time></trkpt><trkpt lat="42.6390803630805" lon="11.58455404960451"><ele>193.0</ele><time>2026-04-18T08:45:47Z</time></trkpt><trkpt lat="42.63905166698999" lon="11.584674029188227"><ele>193.0</ele><time>2026-04-18T08:45:48Z</time></trkpt><trkpt lat="42.638988709276546" lon="11.584808933181971"><ele>191.25</ele><time>2026-04-18T08:45:49Z</time></trkpt><trkpt lat="42.63893343145573" lon="11.584968646536103"><ele>189.5</ele><time>2026-04-18T08:45:50Z</time></trkpt><trkpt lat="42.63887935175395" lon="11.58510325807434"><ele>187.75</ele><time>2026-04-18T08:45:51Z</time></trkpt><trkpt lat="42.63881454826362" lon="11.585231659881064"><ele>186.0</ele><time>2026-04-18T08:45:52Z</time></trkpt><trkpt lat="42.63874201938708" lon="11.58532833057013"><ele>185.0</ele><time>2026-04-18T08:45:53Z</time></trkpt><trkpt lat="42.638669629531655" lon="11.585405285240222"><ele>184.0</ele><time>2026-04-18T08:45:54Z</time></trkpt><trkpt lat="42.63856548189535" lon="11.585522405595233"><ele>183.0</ele><time>2026-04-18T08:45:55Z</time></trkpt><trkpt lat="42.638458497961025" lon="11.585639062422143"><ele>182.0</ele><time>2026-04-18T08:45:56Z</time></trkpt><trkpt lat="42.63836599423937" lon="11.585758296592608"><ele>182.0</ele><time>2026-04-18T08:45:57Z</time></trkpt><trkpt lat="42.6382772662148" lon="11.585815959323677"><ele>182.0</ele><time>2026-04-18T08:45:58Z</time></trkpt><trkpt lat="42.63819434547781" lon="11.585842238363911"><ele>182.0</ele><time>2026-04-18T08:45:59Z</time></trkpt><trkpt lat="42.638112345258975" lon="11.585836273913038"><ele>182.0</ele><time>2026-04-18T08:46:00Z</time></trkpt><trkpt lat="42.6379959904517" lon="11.585848787220534"><ele>182.0</ele><time>2026-04-18T08:46:01Z</time></trkpt><trkpt lat="42.637885196433054" lon="11.585871706478285"><ele>182.0</ele><time>2026-04-18T08:46:02Z</time></trkpt><trkpt lat="42.63781858429728" lon="11.585911158513511"><ele>182.0</ele><time>2026-04-18T08:46:03Z</time></trkpt><trkpt lat="42.63775755823425" lon="11.585953759448806"><ele>182.0</ele><time>2026-04-18T08:46:05Z</time></trkpt><trkpt lat="42.6377119377545" lon="11.585883758540003"><ele>182.0</ele><time>2026-04-18T08:46:07Z</time></trkpt><trkpt lat="42.6376933677231" lon="11.585791532257215"><ele>182.0</ele><time>2026-04-18T08:46:08Z</time></trkpt><trkpt lat="42.637676630427265" lon="11.585662520704012"><ele>182.0</ele><time>2026-04-18T08:46:09Z</time></trkpt><trkpt lat="42.63765449742858" lon="11.585515551998178"><ele>181.0</ele><time>2026-04-18T08:46:10Z</time></trkpt><trkpt lat="42.63762080293467" lon="11.585355086594427"><ele>180.0</ele><time>2026-04-18T08:46:11Z</time></trkpt><trkpt lat="42.63757154045144" lon="11.585177550869158"><ele>179.0</ele><time>2026-04-18T08:46:12Z</time></trkpt><trkpt lat="42.63752043509155" lon="11.584983581770912"><ele>178.0</ele><time>2026-04-18T08:46:13Z</time></trkpt><trkpt lat="42.637469682882156" lon="11.584765921430844"><ele>178.0</ele><time>2026-04-18T08:46:14Z</time></trkpt><trkpt lat="42.637416841116995" lon="11.584543710496266"><ele>178.0</ele><time>2026-04-18T08:46:15Z</time></trkpt><trkpt lat="42.63735960438507" lon="11.584317459979776"><ele>178.0</ele><time>2026-04-18T08:46:16Z</time></trkpt><trkpt lat="42.63729642389189" lon="11.584090283023613"><ele>178.66666666666669</ele><time>2026-04-18T08:46:17Z</time></trkpt><trkpt lat="42.63723124672132" lon="11.583860474611367"><ele>179.33333333333334</ele><time>2026-04-18T08:46:18Z</time></trkpt><trkpt lat="42.63715893413557" lon="11.583625456216826"><ele>180.0</ele><time>2026-04-18T08:46:19Z</time></trkpt><trkpt lat="42.63708186489794" lon="11.58338825987136"><ele>180.0</ele><time>2026-04-18T08:46:20Z</time></trkpt><trkpt lat="42.6370018852798" lon="11.583146732704733"><ele>180.0</ele><time>2026-04-18T08:46:21Z</time></trkpt><trkpt lat="42.63692688236397" lon="11.582906426142282"><ele>180.0</ele><time>2026-04-18T08:46:22Z</time></trkpt><trkpt lat="42.63685086441027" lon="11.582662048526554"><ele>180.0</ele><time>2026-04-18T08:46:23Z</time></trkpt><trkpt lat="42.63677473136832" lon="11.582440049014041"><ele>180.0</ele><time>2026-04-18T08:46:24Z</time></trkpt><trkpt lat="42.63668884017212" lon="11.582275126728861"><ele>180.0</ele><time>2026-04-18T08:46:25Z</time></trkpt><trkpt lat="42.6365785434168" lon="11.582156235299584"><ele>180.0</ele><time>2026-04-18T08:46:25.999Z</time></trkpt><trkpt lat="42.63645899245929" lon="11.582036296007614"><ele>180.0</ele><time>2026-04-18T08:46:26.999Z</time></trkpt><trkpt lat="42.636337717071214" lon="11.58190552745659"><ele>180.0</ele><time>2026-04-18T08:46:27.999Z</time></trkpt><trkpt lat="42.63621368321185" lon="11.581764908502246"><ele>181.0</ele><time>2026-04-18T08:46:28.999Z</time></trkpt><trkpt lat="42.63608882845347" lon="11.581623368923168"><ele>182.0</ele><time>2026-04-18T08:46:29.999Z</time></trkpt><trkpt lat="42.635964492691755" lon="11.581485992132183"><ele>183.0</ele><time>2026-04-18T08:46:30.999Z</time></trkpt><trkpt lat="42.635841721895275" lon="11.581343213057307"><ele>183.0</ele><time>2026-04-18T08:46:31.999Z</time></trkpt><trkpt lat="42.63572108896052" lon="11.581204142582148"><ele>183.0</ele><time>2026-04-18T08:46:32.999Z</time></trkpt><trkpt lat="42.63560053113436" lon="11.581069282587428"><ele>183.0</ele><time>2026-04-18T08:46:33.999Z</time></trkpt><trkpt lat="42.635484851769675" lon="11.580950270668218"><ele>185.0</ele><time>2026-04-18T08:46:34.999Z</time></trkpt><trkpt lat="42.6353621801045" lon="11.580874823078458"><ele>187.0</ele><time>2026-04-18T08:46:35.999Z</time></trkpt><trkpt lat="42.6352192121513" lon="11.580839728033695"><ele>189.0</ele><time>2026-04-18T08:46:36.999Z</time></trkpt><trkpt lat="42.63506222516923" lon="11.580801476039882"><ele>191.0</ele><time>2026-04-18T08:46:37.999Z</time></trkpt><trkpt lat="42.63489934973356" lon="11.580756085055233"><ele>191.0</ele><time>2026-04-18T08:46:38.999Z</time></trkpt><trkpt lat="42.63474383691255" lon="11.580683605447613"><ele>191.0</ele><time>2026-04-18T08:46:39.999Z</time></trkpt><trkpt lat="42.634615159571844" lon="11.58058797830741"><ele>191.0</ele><time>2026-04-18T08:46:40.999Z</time></trkpt><trkpt lat="42.634498950852645" lon="11.580489017922249"><ele>191.0</ele><time>2026-04-18T08:46:41.999Z</time></trkpt><trkpt lat="42.63437927152625" lon="11.580384339764166"><ele>192.66666666666666</ele><time>2026-04-18T08:46:42.999Z</time></trkpt><trkpt lat="42.63425688449283" lon="11.580282557720182"><ele>194.33333333333331</ele><time>2026-04-18T08:46:43.999Z</time></trkpt><trkpt lat="42.63414092341413" lon="11.580116793355938"><ele>196.0</ele><time>2026-04-18T08:46:44.999Z</time></trkpt><trkpt lat="42.63400890505744" lon="11.57997029228283"><ele>196.0</ele><time>2026-04-18T08:46:45.999Z</time></trkpt><trkpt lat="42.63387708820544" lon="11.579823861874491"><ele>196.0</ele><time>2026-04-18T08:46:46.999Z</time></trkpt><trkpt lat="42.633764345793494" lon="11.579683653677021"><ele>196.0</ele><time>2026-04-18T08:46:47.999Z</time></trkpt><trkpt lat="42.63365027408959" lon="11.579551345775432"><ele>194.33333333333331</ele><time>2026-04-18T08:46:48.999Z</time></trkpt><trkpt lat="42.63353156427546" lon="11.579418999632743"><ele>192.66666666666666</ele><time>2026-04-18T08:46:49.999Z</time></trkpt><trkpt lat="42.63340274089314" lon="11.579293225991876"><ele>191.0</ele><time>2026-04-18T08:46:50.999Z</time></trkpt><trkpt lat="42.63327735886964" lon="11.579163569047676"><ele>191.0</ele><time>2026-04-18T08:46:51.999Z</time></trkpt><trkpt lat="42.633147657749014" lon="11.579038200317033"><ele>191.0</ele><time>2026-04-18T08:46:52.999Z</time></trkpt><trkpt lat="42.633031812746715" lon="11.57891906724835"><ele>191.0</ele><time>2026-04-18T08:46:53.999Z</time></trkpt><trkpt lat="42.63291651697682" lon="11.578786207934815"><ele>187.0</ele><time>2026-04-18T08:46:54.999Z</time></trkpt><trkpt lat="42.63277688741331" lon="11.578658402777142"><ele>183.0</ele><time>2026-04-18T08:46:55.999Z</time></trkpt><trkpt lat="42.63262715218508" lon="11.578545871080635"><ele>179.0</ele><time>2026-04-18T08:46:56.999Z</time></trkpt><trkpt lat="42.63247090060839" lon="11.578442759284126"><ele>179.0</ele><time>2026-04-18T08:46:57.999Z</time></trkpt><trkpt lat="42.63231172450357" lon="11.57833250154121"><ele>179.0</ele><time>2026-04-18T08:46:58.999Z</time></trkpt><trkpt lat="42.63216408816908" lon="11.57823440492411"><ele>179.0</ele><time>2026-04-18T08:46:59.999Z</time></trkpt><trkpt lat="42.63202563590627" lon="11.578146092659507"><ele>179.0</ele><time>2026-04-18T08:47:00.999Z</time></trkpt><trkpt lat="42.63188006420792" lon="11.578050459575975"><ele>179.0</ele><time>2026-04-18T08:47:01.999Z</time></trkpt><trkpt lat="42.63173154475919" lon="11.577943291789508"><ele>179.0</ele><time>2026-04-18T08:47:02.999Z</time></trkpt><trkpt lat="42.63158403574329" lon="11.577831098798397"><ele>179.0</ele><time>2026-04-18T08:47:03.999Z</time></trkpt><trkpt lat="42.631440008432996" lon="11.577724039650159"><ele>179.0</ele><time>2026-04-18T08:47:04.999Z</time></trkpt><trkpt lat="42.63128423677563" lon="11.57761055450279"><ele>179.0</ele><time>2026-04-18T08:47:06.001Z</time></trkpt><trkpt lat="42.63113529877899" lon="11.577497310602846"><ele>179.33333333333331</ele><time>2026-04-18T08:47:07.001Z</time></trkpt><trkpt lat="42.63098134447496" lon="11.577387422687327"><ele>179.66666666666666</ele><time>2026-04-18T08:47:08.001Z</time></trkpt><trkpt lat="42.63078906371973" lon="11.577269641260067"><ele>180.0</ele><time>2026-04-18T08:47:09.001Z</time></trkpt><trkpt lat="42.6305821626142" lon="11.577141208295728"><ele>180.0</ele><time>2026-04-18T08:47:10.001Z</time></trkpt><trkpt lat="42.6304006715794" lon="11.577023129464955"><ele>180.0</ele><time>2026-04-18T08:47:11.001Z</time></trkpt><trkpt lat="42.63023503767649" lon="11.576922288906799"><ele>180.0</ele><time>2026-04-18T08:47:12.001Z</time></trkpt><trkpt lat="42.63007393795004" lon="11.57682026624262"><ele>181.0</ele><time>2026-04-18T08:47:13.001Z</time></trkpt><trkpt lat="42.62990011973365" lon="11.576730852722516"><ele>182.0</ele><time>2026-04-18T08:47:14.001Z</time></trkpt><trkpt lat="42.629706725278695" lon="11.576660568381268"><ele>183.0</ele><time>2026-04-18T08:47:15.001Z</time></trkpt><trkpt lat="42.62949623517966" lon="11.576589359409233"><ele>181.66666666666666</ele><time>2026-04-18T08:47:16.001Z</time></trkpt><trkpt lat="42.629285743381686" lon="11.576508325610655"><ele>180.33333333333331</ele><time>2026-04-18T08:47:17.001Z</time></trkpt><trkpt lat="42.62907377750443" lon="11.576424113224798"><ele>179.0</ele><time>2026-04-18T08:47:18.001Z</time></trkpt><trkpt lat="42.62885533199855" lon="11.576331095455648"><ele>179.66666666666666</ele><time>2026-04-18T08:47:19.001Z</time></trkpt><trkpt lat="42.628642692929965" lon="11.576237967877328"><ele>180.33333333333334</ele><time>2026-04-18T08:47:20.001Z</time></trkpt><trkpt lat="42.6284297402176" lon="11.576144149237608"><ele>181.0</ele><time>2026-04-18T08:47:21.001Z</time></trkpt><trkpt lat="42.62824020093033" lon="11.57605301971856"><ele>181.0</ele><time>2026-04-18T08:47:22Z</time></trkpt><trkpt lat="42.628059503866" lon="11.5759656349756"><ele>181.0</ele><time>2026-04-18T08:47:23Z</time></trkpt><trkpt lat="42.62789114698999" lon="11.575869862062914"><ele>181.0</ele><time>2026-04-18T08:47:24Z</time></trkpt><trkpt lat="42.6277276311002" lon="11.57575688395839"><ele>180.33333333333334</ele><time>2026-04-18T08:47:25Z</time></trkpt><trkpt lat="42.627563890434374" lon="11.575624058867492"><ele>179.66666666666666</ele><time>2026-04-18T08:47:26Z</time></trkpt><trkpt lat="42.62740926736731" lon="11.575493932856466"><ele>179.0</ele><time>2026-04-18T08:47:27Z</time></trkpt><trkpt lat="42.62723259575608" lon="11.575385249655215"><ele>180.33333333333331</ele><time>2026-04-18T08:47:28Z</time></trkpt><trkpt lat="42.62706719705862" lon="11.575302728348655"><ele>181.66666666666666</ele><time>2026-04-18T08:47:29Z</time></trkpt><trkpt lat="42.62691310399489" lon="11.575216219669612"><ele>183.0</ele><time>2026-04-18T08:47:30Z</time></trkpt><trkpt lat="42.62676853007849" lon="11.575129679655598"><ele>183.0</ele><time>2026-04-18T08:47:31Z</time></trkpt><trkpt lat="42.62662563961609" lon="11.575049201846658"><ele>183.0</ele><time>2026-04-18T08:47:32Z</time></trkpt><trkpt lat="42.62647463348765" lon="11.574967852689985"><ele>183.0</ele><time>2026-04-18T08:47:33Z</time></trkpt><trkpt lat="42.62632657396215" lon="11.574890743506593"><ele>183.0</ele><time>2026-04-18T08:47:34Z</time></trkpt><trkpt lat="42.62618980511939" lon="11.5748299641899"><ele>183.0</ele><time>2026-04-18T08:47:35Z</time></trkpt><trkpt lat="42.62606345816554" lon="11.574783636469208"><ele>183.0</ele><time>2026-04-18T08:47:36Z</time></trkpt><trkpt lat="42.625942699999456" lon="11.57472631958587"><ele>183.0</ele><time>2026-04-18T08:47:37Z</time></trkpt><trkpt lat="42.62583776003728" lon="11.574646853648346"><ele>183.25</ele><time>2026-04-18T08:47:38Z</time></trkpt><trkpt lat="42.625768155431835" lon="11.574509500449265"><ele>183.5</ele><time>2026-04-18T08:47:39Z</time></trkpt><trkpt lat="42.625666786551676" lon="11.574365245779145"><ele>183.75</ele><time>2026-04-18T08:47:40Z</time></trkpt><trkpt lat="42.62554436140098" lon="11.574194225056507"><ele>184.0</ele><time>2026-04-18T08:47:41Z</time></trkpt><trkpt lat="42.62539154937687" lon="11.574053025653143"><ele>186.66666666666669</ele><time>2026-04-18T08:47:42Z</time></trkpt><trkpt lat="42.62525260731815" lon="11.57394534875357"><ele>189.33333333333334</ele><time>2026-04-18T08:47:43Z</time></trkpt><trkpt lat="42.6251234907739" lon="11.573835905487897"><ele>192.0</ele><time>2026-04-18T08:47:44Z</time></trkpt><trkpt lat="42.624995849837575" lon="11.57371244473404"><ele>195.66666666666669</ele><time>2026-04-18T08:47:45Z</time></trkpt><trkpt lat="42.62487049923089" lon="11.573581652122176"><ele>199.33333333333334</ele><time>2026-04-18T08:47:46Z</time></trkpt><trkpt lat="42.624752520444034" lon="11.573441238976512"><ele>203.0</ele><time>2026-04-18T08:47:47Z</time></trkpt><trkpt lat="42.624644493108995" lon="11.573273737689348"><ele>203.0</ele><time>2026-04-18T08:47:48Z</time></trkpt><trkpt lat="42.6245649205789" lon="11.573107427373381"><ele>203.0</ele><time>2026-04-18T08:47:49Z</time></trkpt><trkpt lat="42.62449407832241" lon="11.572978882988977"><ele>203.0</ele><time>2026-04-18T08:47:50Z</time></trkpt><trkpt lat="42.624402344358344" lon="11.572865816011587"><ele>203.0</ele><time>2026-04-18T08:47:51Z</time></trkpt><trkpt lat="42.62428829795034" lon="11.572773589475089"><ele>207.0</ele><time>2026-04-18T08:47:52Z</time></trkpt><trkpt lat="42.6241510619302" lon="11.572696500500491"><ele>211.0</ele><time>2026-04-18T08:47:53Z</time></trkpt><trkpt lat="42.62397580116697" lon="11.572611026267813"><ele>215.0</ele><time>2026-04-18T08:47:54Z</time></trkpt><trkpt lat="42.62379545200076" lon="11.572523185466704"><ele>215.0</ele><time>2026-04-18T08:47:55Z</time></trkpt><trkpt lat="42.62364713544037" lon="11.572447505197935"><ele>215.0</ele><time>2026-04-18T08:47:56Z</time></trkpt><trkpt lat="42.62352710013204" lon="11.572380536427195"><ele>215.0</ele><time>2026-04-18T08:47:57Z</time></trkpt><trkpt lat="42.623419002772415" lon="11.572298525880756"><ele>215.0</ele><time>2026-04-18T08:47:58Z</time></trkpt><trkpt lat="42.62330513497738" lon="11.57219653890816"><ele>216.66666666666669</ele><time>2026-04-18T08:47:59Z</time></trkpt><trkpt lat="42.62318028369712" lon="11.57208079259427"><ele>218.33333333333331</ele><time>2026-04-18T08:48:00Z</time></trkpt><trkpt lat="42.623057234333935" lon="11.571961106679874"><ele>220.0</ele><time>2026-04-18T08:48:01Z</time></trkpt><trkpt lat="42.62292490399877" lon="11.571827796437333"><ele>225.0</ele><time>2026-04-18T08:48:02Z</time></trkpt><trkpt lat="42.62279745180452" lon="11.57171362138475"><ele>230.0</ele><time>2026-04-18T08:48:03Z</time></trkpt><trkpt lat="42.62266412320357" lon="11.571603179885066"><ele>235.0</ele><time>2026-04-18T08:48:04Z</time></trkpt><trkpt lat="42.622540373373425" lon="11.571488214415501"><ele>235.0</ele><time>2026-04-18T08:48:05Z</time></trkpt><trkpt lat="42.622439365399764" lon="11.571339438800702"><ele>235.0</ele><time>2026-04-18T08:48:06Z</time></trkpt><trkpt lat="42.62233148540167" lon="11.571197550989586"><ele>235.0</ele><time>2026-04-18T08:48:07Z</time></trkpt><trkpt lat="42.622212452201516" lon="11.57106730729044"><ele>236.5</ele><time>2026-04-18T08:48:08Z</time></trkpt><trkpt lat="42.62212189783665" lon="11.57090481822704"><ele>238.0</ele><time>2026-04-18T08:48:09Z</time></trkpt><trkpt lat="42.622030839854965" lon="11.57075596579537"><ele>239.5</ele><time>2026-04-18T08:48:10Z</time></trkpt><trkpt lat="42.62194940929569" lon="11.570607165396419"><ele>241.0</ele><time>2026-04-18T08:48:11Z</time></trkpt><trkpt lat="42.62188959263955" lon="11.570439377401199"><ele>244.75</ele><time>2026-04-18T08:48:12Z</time></trkpt><trkpt lat="42.62182303409197" lon="11.570265147108937"><ele>248.5</ele><time>2026-04-18T08:48:13Z</time></trkpt><trkpt lat="42.621759908851345" lon="11.570087863885949"><ele>252.25</ele><time>2026-04-18T08:48:14Z</time></trkpt><trkpt lat="42.62169399854036" lon="11.569912640384988"><ele>256.0</ele><time>2026-04-18T08:48:15Z</time></trkpt><trkpt lat="42.62163198343642" lon="11.569740894400166"><ele>255.99999999999997</ele><time>2026-04-18T08:48:16Z</time></trkpt><trkpt lat="42.62158238329034" lon="11.569608656351413"><ele>256.0</ele><time>2026-04-18T08:48:17Z</time></trkpt><trkpt lat="42.62153975286074" lon="11.569508270567841"><ele>256.0</ele><time>2026-04-18T08:48:18Z</time></trkpt><trkpt lat="42.62151278243756" lon="11.569429869387523"><ele>256.0</ele><time>2026-04-18T08:48:19Z</time></trkpt><trkpt lat="42.62150078230761" lon="11.569269867440875"><ele>255.99999999999997</ele><time>2026-04-18T08:48:21Z</time></trkpt><trkpt lat="42.62154079512129" lon="11.569193308766518"><ele>256.0</ele><time>2026-04-18T08:48:22Z</time></trkpt><trkpt lat="42.621618456632646" lon="11.56912743461419"><ele>257.0</ele><time>2026-04-18T08:48:23Z</time></trkpt><trkpt lat="42.62172558610569" lon="11.569113336041987"><ele>258.0</ele><time>2026-04-18T08:48:24Z</time></trkpt><trkpt lat="42.62183552120717" lon="11.569053850261332"><ele>259.0</ele><time>2026-04-18T08:48:25Z</time></trkpt><trkpt lat="42.62194131437075" lon="11.569032040617405"><ele>260.0</ele><time>2026-04-18T08:48:25.999Z</time></trkpt><trkpt lat="42.62201313416585" lon="11.568995556619091"><ele>261.0</ele><time>2026-04-18T08:48:26.999Z</time></trkpt><trkpt lat="42.62207788788237" lon="11.568918365815396"><ele>261.0</ele><time>2026-04-18T08:48:27.999Z</time></trkpt><trkpt lat="42.62209816653382" lon="11.568786983116505"><ele>261.0</ele><time>2026-04-18T08:48:28.999Z</time></trkpt><trkpt lat="42.62207399981464" lon="11.568631076436397"><ele>261.0</ele><time>2026-04-18T08:48:29.999Z</time></trkpt><trkpt lat="42.622038351078245" lon="11.568483784463618"><ele>261.0</ele><time>2026-04-18T08:48:30.999Z</time></trkpt><trkpt lat="42.622014459133844" lon="11.568338610427459"><ele>261.0</ele><time>2026-04-18T08:48:31.999Z</time></trkpt><trkpt lat="42.622058166445" lon="11.568197109784597"><ele>263.8</ele><time>2026-04-18T08:48:32.999Z</time></trkpt><trkpt lat="42.62208748499752" lon="11.568050580406167"><ele>266.6</ele><time>2026-04-18T08:48:33.999Z</time></trkpt><trkpt lat="42.62210290375513" lon="11.567902627632167"><ele>269.4</ele><time>2026-04-18T08:48:34.999Z</time></trkpt><trkpt lat="42.62214728407212" lon="11.567775884332118"><ele>272.2</ele><time>2026-04-18T08:48:35.999Z</time></trkpt><trkpt lat="42.622233736179574" lon="11.567708282969548"><ele>275.0</ele><time>2026-04-18T08:48:36.999Z</time></trkpt><trkpt lat="42.622319152365954" lon="11.567660643676502"><ele>277.6</ele><time>2026-04-18T08:48:37.999Z</time></trkpt><trkpt lat="42.622403660036696" lon="11.567593815086088"><ele>280.2</ele><time>2026-04-18T08:48:38.999Z</time></trkpt><trkpt lat="42.6224709937299" lon="11.567559301387819"><ele>282.8</ele><time>2026-04-18T08:48:39.999Z</time></trkpt><trkpt lat="42.62249457349283" lon="11.567457558405629"><ele>285.4</ele><time>2026-04-18T08:48:40.999Z</time></trkpt><trkpt lat="42.6224909805689" lon="11.567315035526454"><ele>288.0</ele><time>2026-04-18T08:48:41.999Z</time></trkpt><trkpt lat="42.622448163077735" lon="11.567182811939267"><ele>288.0</ele><time>2026-04-18T08:48:42.999Z</time></trkpt><trkpt lat="42.62237715583578" lon="11.567039174046831"><ele>288.0</ele><time>2026-04-18T08:48:43.999Z</time></trkpt><trkpt lat="42.622301698054315" lon="11.566878645883799"><ele>288.0</ele><time>2026-04-18T08:48:44.999Z</time></trkpt><trkpt lat="42.62225715346852" lon="11.56669897947009"><ele>288.0</ele><time>2026-04-18T08:48:45.999Z</time></trkpt><trkpt lat="42.6221903812454" lon="11.566508261697187"><ele>289.4</ele><time>2026-04-18T08:48:46.999Z</time></trkpt><trkpt lat="42.62215722910223" lon="11.566354697774715"><ele>290.8</ele><time>2026-04-18T08:48:47.999Z</time></trkpt><trkpt lat="42.622122993396715" lon="11.566233007806634"><ele>292.2</ele><time>2026-04-18T08:48:48.999Z</time></trkpt><trkpt lat="42.622079846455065" lon="11.566116306509624"><ele>293.6</ele><time>2026-04-18T08:48:49.999Z</time></trkpt><trkpt lat="42.62203720004594" lon="11.56599395249362"><ele>295.0</ele><time>2026-04-18T08:48:50.999Z</time></trkpt><trkpt lat="42.62195575171639" lon="11.565864243802828"><ele>299.5</ele><time>2026-04-18T08:48:51.999Z</time></trkpt><trkpt lat="42.62186143538647" lon="11.565764720527012"><ele>304.0</ele><time>2026-04-18T08:48:52.999Z</time></trkpt><trkpt lat="42.62174716675794" lon="11.565700329221109"><ele>308.5</ele><time>2026-04-18T08:48:53.999Z</time></trkpt><trkpt lat="42.62161332220889" lon="11.565641632284926"><ele>313.0</ele><time>2026-04-18T08:48:54.999Z</time></trkpt><trkpt lat="42.62147926949016" lon="11.565613534582075"><ele>313.0</ele><time>2026-04-18T08:48:55.999Z</time></trkpt><trkpt lat="42.62135616057226" lon="11.565627180054996"><ele>313.0</ele><time>2026-04-18T08:48:56.999Z</time></trkpt><trkpt lat="42.62122614736332" lon="11.565664611505772"><ele>313.0</ele><time>2026-04-18T08:48:57.999Z</time></trkpt><trkpt lat="42.62109144423594" lon="11.565722163581206"><ele>313.0</ele><time>2026-04-18T08:48:58.999Z</time></trkpt><trkpt lat="42.620957838103536" lon="11.565770679315058"><ele>316.75</ele><time>2026-04-18T08:48:59.999Z</time></trkpt><trkpt lat="42.62082900690582" lon="11.565808179387767"><ele>320.5</ele><time>2026-04-18T08:49:00.999Z</time></trkpt><trkpt lat="42.62069153482371" lon="11.565838646167663"><ele>324.25</ele><time>2026-04-18T08:49:01.999Z</time></trkpt><trkpt lat="42.620566333968945" lon="11.565853596000256"><ele>328.0</ele><time>2026-04-18T08:49:02.999Z</time></trkpt><trkpt lat="42.6204470914605" lon="11.565845762676963"><ele>328.0</ele><time>2026-04-18T08:49:03.999Z</time></trkpt><trkpt lat="42.62031697595457" lon="11.565835650614519"><ele>328.0</ele><time>2026-04-18T08:49:04.999Z</time></trkpt><trkpt lat="42.62017949034346" lon="11.565806914729682"><ele>328.0</ele><time>2026-04-18T08:49:05.999Z</time></trkpt><trkpt lat="42.62003663768258" lon="11.565772233901017"><ele>328.0</ele><time>2026-04-18T08:49:06.999Z</time></trkpt><trkpt lat="42.61989760270764" lon="11.565733232576001"><ele>330.0</ele><time>2026-04-18T08:49:07.999Z</time></trkpt><trkpt lat="42.61976718134877" lon="11.565686706055706"><ele>332.0</ele><time>2026-04-18T08:49:08.999Z</time></trkpt><trkpt lat="42.61964125539801" lon="11.56563960777219"><ele>334.0</ele><time>2026-04-18T08:49:09.999Z</time></trkpt><trkpt lat="42.61951117881169" lon="11.565588520156222"><ele>336.0</ele><time>2026-04-18T08:49:10.999Z</time></trkpt><trkpt lat="42.61937371958482" lon="11.565541404391912"><ele>336.0</ele><time>2026-04-18T08:49:12Z</time></trkpt><trkpt lat="42.619228275531285" lon="11.56549955400251"><ele>336.0</ele><time>2026-04-18T08:49:13Z</time></trkpt><trkpt lat="42.61908320053078" lon="11.565464572692951"><ele>336.0</ele><time>2026-04-18T08:49:14Z</time></trkpt><trkpt lat="42.61895848532018" lon="11.565439877888819"><ele>336.0</ele><time>2026-04-18T08:49:15Z</time></trkpt><trkpt lat="42.61882816464183" lon="11.565426692664632"><ele>336.0</ele><time>2026-04-18T08:49:16Z</time></trkpt><trkpt lat="42.61869482216299" lon="11.565445481746877"><ele>336.0</ele><time>2026-04-18T08:49:17Z</time></trkpt><trkpt lat="42.618560571486725" lon="11.565492357695588"><ele>336.0</ele><time>2026-04-18T08:49:18Z</time></trkpt><trkpt lat="42.61841689985494" lon="11.565535683089125"><ele>336.0</ele><time>2026-04-18T08:49:19Z</time></trkpt><trkpt lat="42.618279138194204" lon="11.565564274029427"><ele>334.25</ele><time>2026-04-18T08:49:20Z</time></trkpt><trkpt lat="42.61814915369634" lon="11.565574279291614"><ele>332.5</ele><time>2026-04-18T08:49:21Z</time></trkpt><trkpt lat="42.6180197562908" lon="11.565568327982177"><ele>330.75</ele><time>2026-04-18T08:49:22Z</time></trkpt><trkpt lat="42.61788153530003" lon="11.565536763971924"><ele>329.0</ele><time>2026-04-18T08:49:23Z</time></trkpt><trkpt lat="42.61773992039815" lon="11.565510209990379"><ele>325.75</ele><time>2026-04-18T08:49:24Z</time></trkpt><trkpt lat="42.617608230882205" lon="11.565501984940274"><ele>322.5</ele><time>2026-04-18T08:49:25Z</time></trkpt><trkpt lat="42.61749110866198" lon="11.565494561944977"><ele>319.25</ele><time>2026-04-18T08:49:26Z</time></trkpt><trkpt lat="42.61739401502074" lon="11.565460639208041"><ele>316.0</ele><time>2026-04-18T08:49:27Z</time></trkpt><trkpt lat="42.61730575293256" lon="11.565392746928813"><ele>319.5</ele><time>2026-04-18T08:49:28Z</time></trkpt><trkpt lat="42.61722832342606" lon="11.565286625986053"><ele>323.0</ele><time>2026-04-18T08:49:29Z</time></trkpt><trkpt lat="42.61715822108256" lon="11.56513855442842"><ele>326.5</ele><time>2026-04-18T08:49:30Z</time></trkpt><trkpt lat="42.61710819798356" lon="11.56495862495286"><ele>330.0</ele><time>2026-04-18T08:49:31Z</time></trkpt><trkpt lat="42.6170540469695" lon="11.564782630607793"><ele>330.0</ele><time>2026-04-18T08:49:32Z</time></trkpt><trkpt lat="42.61700043512209" lon="11.564616469574748"><ele>330.0</ele><time>2026-04-18T08:49:33Z</time></trkpt><trkpt lat="42.61695692095257" lon="11.564443237416969"><ele>330.0</ele><time>2026-04-18T08:49:34Z</time></trkpt><trkpt lat="42.616926495182526" lon="11.564264053732536"><ele>330.0</ele><time>2026-04-18T08:49:35Z</time></trkpt><trkpt lat="42.61690965580018" lon="11.564098184916768"><ele>323.5</ele><time>2026-04-18T08:49:36Z</time></trkpt><trkpt lat="42.61688643776215" lon="11.563962649130275"><ele>317.0</ele><time>2026-04-18T08:49:37Z</time></trkpt><trkpt lat="42.61684030963462" lon="11.563839628934486"><ele>310.5</ele><time>2026-04-18T08:49:38Z</time></trkpt><trkpt lat="42.61674900638665" lon="11.563736517110627"><ele>304.0</ele><time>2026-04-18T08:49:39Z</time></trkpt><trkpt lat="42.61662319684688" lon="11.56366207986909"><ele>304.0</ele><time>2026-04-18T08:49:40Z</time></trkpt><trkpt lat="42.61647228589843" lon="11.563612912919451"><ele>304.0</ele><time>2026-04-18T08:49:41Z</time></trkpt><trkpt lat="42.61631666880601" lon="11.563545543120284"><ele>304.0</ele><time>2026-04-18T08:49:42Z</time></trkpt><trkpt lat="42.616159896934285" lon="11.563468790720714"><ele>299.0</ele><time>2026-04-18T08:49:43Z</time></trkpt><trkpt lat="42.61600076456828" lon="11.563394346762783"><ele>294.0</ele><time>2026-04-18T08:49:44Z</time></trkpt><trkpt lat="42.6158433686922" lon="11.563319999962731"><ele>289.0</ele><time>2026-04-18T08:49:45Z</time></trkpt><trkpt lat="42.61569000128042" lon="11.563248045605615"><ele>289.0</ele><time>2026-04-18T08:49:46Z</time></trkpt><trkpt lat="42.61554630282891" lon="11.563179772802561"><ele>289.0</ele><time>2026-04-18T08:49:47Z</time></trkpt><trkpt lat="42.615399223753315" lon="11.563106733445332"><ele>289.0</ele><time>2026-04-18T08:49:48Z</time></trkpt><trkpt lat="42.61525491430047" lon="11.56303128800754"><ele>290.0</ele><time>2026-04-18T08:49:49Z</time></trkpt><trkpt lat="42.61511449878276" lon="11.562939103988358"><ele>291.0</ele><time>2026-04-18T08:49:50Z</time></trkpt><trkpt lat="42.614963634483935" lon="11.562882726603224"><ele>292.0</ele><time>2026-04-18T08:49:51Z</time></trkpt><trkpt lat="42.614821905430354" lon="11.562799059895855"><ele>292.66666666666663</ele><time>2026-04-18T08:49:52Z</time></trkpt><trkpt lat="42.614676469916134" lon="11.562719077004402"><ele>293.3333333333333</ele><time>2026-04-18T08:49:53Z</time></trkpt><trkpt lat="42.61453295245205" lon="11.562634528211351"><ele>294.0</ele><time>2026-04-18T08:49:54Z</time></trkpt><trkpt lat="42.61440848126621" lon="11.56249836252715"><ele>294.0</ele><time>2026-04-18T08:49:55Z</time></trkpt><trkpt lat="42.61429625754558" lon="11.562354329963895"><ele>294.0</ele><time>2026-04-18T08:49:56Z</time></trkpt><trkpt lat="42.614191183157494" lon="11.562188189652097"><ele>294.0</ele><time>2026-04-18T08:49:57Z</time></trkpt><trkpt lat="42.61408085851929" lon="11.56203591227405"><ele>293.5</ele><time>2026-04-18T08:49:58Z</time></trkpt><trkpt lat="42.613983394548235" lon="11.561875490292692"><ele>293.0</ele><time>2026-04-18T08:49:59Z</time></trkpt><trkpt lat="42.61389297701006" lon="11.561729600017838"><ele>292.5</ele><time>2026-04-18T08:50:00Z</time></trkpt><trkpt lat="42.613810042821456" lon="11.561605091574163"><ele>292.0</ele><time>2026-04-18T08:50:01Z</time></trkpt><trkpt lat="42.61371434887008" lon="11.561494489221374"><ele>293.66666666666663</ele><time>2026-04-18T08:50:02Z</time></trkpt><trkpt lat="42.61359642953376" lon="11.561342906119506"><ele>295.3333333333333</ele><time>2026-04-18T08:50:03Z</time></trkpt><trkpt lat="42.61345845937908" lon="11.561181170712771"><ele>297.0</ele><time>2026-04-18T08:50:04Z</time></trkpt><trkpt lat="42.61334112922812" lon="11.561009988639706"><ele>297.0</ele><time>2026-04-18T08:50:05Z</time></trkpt><trkpt lat="42.6132307801867" lon="11.560833384802097"><ele>297.0</ele><time>2026-04-18T08:50:06Z</time></trkpt><trkpt lat="42.61313659919549" lon="11.560653645614014"><ele>297.0</ele><time>2026-04-18T08:50:07Z</time></trkpt><trkpt lat="42.613045464591096" lon="11.560460191931439"><ele>296.6666666666667</ele><time>2026-04-18T08:50:08Z</time></trkpt><trkpt lat="42.612965095835776" lon="11.560281677643031"><ele>296.33333333333337</ele><time>2026-04-18T08:50:09Z</time></trkpt><trkpt lat="42.612885981945404" lon="11.56009731232486"><ele>296.0</ele><time>2026-04-18T08:50:10Z</time></trkpt><trkpt lat="42.612798034338326" lon="11.559913559086123"><ele>296.33333333333337</ele><time>2026-04-18T08:50:11Z</time></trkpt><trkpt lat="42.612700084507665" lon="11.559724840083273"><ele>296.6666666666667</ele><time>2026-04-18T08:50:12Z</time></trkpt><trkpt lat="42.61260647542094" lon="11.559531521762539"><ele>297.0</ele><time>2026-04-18T08:50:13Z</time></trkpt><trkpt lat="42.6125193050823" lon="11.559342242303778"><ele>297.0</ele><time>2026-04-18T08:50:14Z</time></trkpt><trkpt lat="42.6124370086816" lon="11.559164796486106"><ele>297.0</ele><time>2026-04-18T08:50:15Z</time></trkpt><trkpt lat="42.61235526325404" lon="11.55900786176108"><ele>297.0</ele><time>2026-04-18T08:50:16Z</time></trkpt><trkpt lat="42.61226247264037" lon="11.558863208244231"><ele>297.0</ele><time>2026-04-18T08:50:17Z</time></trkpt><trkpt lat="42.61214640574454" lon="11.558735013577717"><ele>295.6666666666667</ele><time>2026-04-18T08:50:18Z</time></trkpt><trkpt lat="42.612004724536035" lon="11.558614534707761"><ele>294.33333333333337</ele><time>2026-04-18T08:50:19Z</time></trkpt><trkpt lat="42.611867893399086" lon="11.558516505058513"><ele>293.0</ele><time>2026-04-18T08:50:20Z</time></trkpt><trkpt lat="42.61173752635106" lon="11.55841546282718"><ele>291.25</ele><time>2026-04-18T08:50:21Z</time></trkpt><trkpt lat="42.611628558080604" lon="11.558318913290872"><ele>289.5</ele><time>2026-04-18T08:50:22Z</time></trkpt><trkpt lat="42.61154000749622" lon="11.558227731172005"><ele>287.75</ele><time>2026-04-18T08:50:23Z</time></trkpt><trkpt lat="42.61147663628485" lon="11.558130652055414"><ele>286.0</ele><time>2026-04-18T08:50:24Z</time></trkpt><trkpt lat="42.61143303629052" lon="11.557974585162036"><ele>285.0</ele><time>2026-04-18T08:50:25Z</time></trkpt><trkpt lat="42.61140371321913" lon="11.557764256497094"><ele>284.0</ele><time>2026-04-18T08:50:26Z</time></trkpt><trkpt lat="42.61138265720717" lon="11.55753238871069"><ele>283.0</ele><time>2026-04-18T08:50:27Z</time></trkpt><trkpt lat="42.61132809081733" lon="11.55734081557918"><ele>283.0</ele><time>2026-04-18T08:50:28Z</time></trkpt><trkpt lat="42.611265363394445" lon="11.557160472681199"><ele>283.0</ele><time>2026-04-18T08:50:29Z</time></trkpt><trkpt lat="42.611176412953085" lon="11.556993034444401"><ele>283.0</ele><time>2026-04-18T08:50:30Z</time></trkpt><trkpt lat="42.611084022842256" lon="11.556854417070193"><ele>283.0</ele><time>2026-04-18T08:50:31Z</time></trkpt><trkpt lat="42.610976699006486" lon="11.556727176686726"><ele>280.3333333333333</ele><time>2026-04-18T08:50:31.999Z</time></trkpt><trkpt lat="42.6108525579026" lon="11.556608507591347"><ele>277.6666666666667</ele><time>2026-04-18T08:50:32.999Z</time></trkpt><trkpt lat="42.61071214796191" lon="11.556503496832145"><ele>275.0</ele><time>2026-04-18T08:50:33.999Z</time></trkpt><trkpt lat="42.61056928153973" lon="11.556398054596022"><ele>275.0</ele><time>2026-04-18T08:50:34.999Z</time></trkpt><trkpt lat="42.610421978635095" lon="11.556290768842949"><ele>275.0</ele><time>2026-04-18T08:50:35.999Z</time></trkpt><trkpt lat="42.61026901557599" lon="11.556189647692579"><ele>275.0</ele><time>2026-04-18T08:50:36.999Z</time></trkpt><trkpt lat="42.6101052543999" lon="11.556101682825432"><ele>274.33333333333337</ele><time>2026-04-18T08:50:37.999Z</time></trkpt><trkpt lat="42.60993724887996" lon="11.556017501409304"><ele>273.6666666666667</ele><time>2026-04-18T08:50:38.999Z</time></trkpt><trkpt lat="42.60976280325241" lon="11.55593165420708"><ele>273.0</ele><time>2026-04-18T08:50:39.999Z</time></trkpt><trkpt lat="42.60959315074014" lon="11.555836738355127"><ele>272.6666666666667</ele><time>2026-04-18T08:50:40.999Z</time></trkpt><trkpt lat="42.60942086120013" lon="11.55573315348366"><ele>272.33333333333337</ele><time>2026-04-18T08:50:41.999Z</time></trkpt><trkpt lat="42.609250328401984" lon="11.555638995798294"><ele>272.0</ele><time>2026-04-18T08:50:42.999Z</time></trkpt><trkpt lat="42.609084460224366" lon="11.555532855945623"><ele>272.0</ele><time>2026-04-18T08:50:43.999Z</time></trkpt><trkpt lat="42.608921444230866" lon="11.555421119700153"><ele>272.0</ele><time>2026-04-18T08:50:44.999Z</time></trkpt><trkpt lat="42.60875856761205" lon="11.55530807368145"><ele>272.0</ele><time>2026-04-18T08:50:45.999Z</time></trkpt><trkpt lat="42.608601318364045" lon="11.555203323760301"><ele>272.75</ele><time>2026-04-18T08:50:46.999Z</time></trkpt><trkpt lat="42.608459650489046" lon="11.555097699378365"><ele>273.5</ele><time>2026-04-18T08:50:47.999Z</time></trkpt><trkpt lat="42.608335402755216" lon="11.555009819298638"><ele>274.25</ele><time>2026-04-18T08:50:48.999Z</time></trkpt><trkpt lat="42.60821514753429" lon="11.554924423782511"><ele>275.0</ele><time>2026-04-18T08:50:49.999Z</time></trkpt><trkpt lat="42.60810249923448" lon="11.554837674181458"><ele>275.0</ele><time>2026-04-18T08:50:50.999Z</time></trkpt><trkpt lat="42.60798656845746" lon="11.554753529244609"><ele>275.0</ele><time>2026-04-18T08:50:51.999Z</time></trkpt><trkpt lat="42.60787122585477" lon="11.554680562606487"><ele>275.0</ele><time>2026-04-18T08:50:52.999Z</time></trkpt><trkpt lat="42.60774335357344" lon="11.55460156173925"><ele>275.0</ele><time>2026-04-18T08:50:53.999Z</time></trkpt><trkpt lat="42.60760560781964" lon="11.554521860753193"><ele>274.6666666666667</ele><time>2026-04-18T08:50:54.999Z</time></trkpt><trkpt lat="42.60745835506988" lon="11.554454408943592"><ele>274.3333333333333</ele><time>2026-04-18T08:50:55.999Z</time></trkpt><trkpt lat="42.60731473494435" lon="11.554380913769567"><ele>274.0</ele><time>2026-04-18T08:50:56.999Z</time></trkpt><trkpt lat="42.607170828876136" lon="11.554300186803017"><ele>274.0</ele><time>2026-04-18T08:50:57.999Z</time></trkpt><trkpt lat="42.60703711755772" lon="11.554223466126656"><ele>274.0</ele><time>2026-04-18T08:50:58.999Z</time></trkpt><trkpt lat="42.60690106256199" lon="11.554151784257911"><ele>274.0</ele><time>2026-04-18T08:50:59.999Z</time></trkpt><trkpt lat="42.606773836116396" lon="11.554084288145704"><ele>274.0</ele><time>2026-04-18T08:51:00.999Z</time></trkpt><trkpt lat="42.606660458787175" lon="11.554026861594242"><ele>275.59999999999997</ele><time>2026-04-18T08:51:01.999Z</time></trkpt><trkpt lat="42.60655474423218" lon="11.553968464236355"><ele>277.2</ele><time>2026-04-18T08:51:02.999Z</time></trkpt><trkpt lat="42.606472071297645" lon="11.553914815648694"><ele>278.79999999999995</ele><time>2026-04-18T08:51:03.999Z</time></trkpt><trkpt lat="42.606402259759875" lon="11.553888825131603"><ele>280.4</ele><time>2026-04-18T08:51:04.999Z</time></trkpt><trkpt lat="42.606327934856516" lon="11.553875573685865"><ele>282.0</ele><time>2026-04-18T08:51:05.999Z</time></trkpt><trkpt lat="42.60621502405746" lon="11.553886555594866"><ele>281.0</ele><time>2026-04-18T08:51:07.999Z</time></trkpt><trkpt lat="42.60607627622779" lon="11.553794639326265"><ele>280.0</ele><time>2026-04-18T08:51:09.999Z</time></trkpt><trkpt lat="42.60598865323151" lon="11.553699173611127"><ele>279.0</ele><time>2026-04-18T08:51:10.999Z</time></trkpt><trkpt lat="42.60588569167891" lon="11.553565621120471"><ele>278.0</ele><time>2026-04-18T08:51:11.999Z</time></trkpt><trkpt lat="42.60573540801572" lon="11.553397545472688"><ele>278.0</ele><time>2026-04-18T08:51:12.999Z</time></trkpt><trkpt lat="42.605566903977405" lon="11.553203641906249"><ele>278.0</ele><time>2026-04-18T08:51:13.999Z</time></trkpt><trkpt lat="42.60540830865615" lon="11.553008762358266"><ele>278.0</ele><time>2026-04-18T08:51:14.999Z</time></trkpt><trkpt lat="42.605271560080816" lon="11.552825172697489"><ele>277.6666666666667</ele><time>2026-04-18T08:51:15.999Z</time></trkpt><trkpt lat="42.60514458650711" lon="11.552643755148148"><ele>277.3333333333333</ele><time>2026-04-18T08:51:16.999Z</time></trkpt><trkpt lat="42.60503325322988" lon="11.552446165307906"><ele>277.0</ele><time>2026-04-18T08:51:18.001Z</time></trkpt><trkpt lat="42.604932058099024" lon="11.552234839847724"><ele>276.66666666666663</ele><time>2026-04-18T08:51:19.001Z</time></trkpt><trkpt lat="42.604835506292424" lon="11.552005834789782"><ele>276.3333333333333</ele><time>2026-04-18T08:51:20Z</time></trkpt><trkpt lat="42.60474638903138" lon="11.551777175578023"><ele>276.0</ele><time>2026-04-18T08:51:21.001Z</time></trkpt><trkpt lat="42.60465641392704" lon="11.551532744107314"><ele>276.0</ele><time>2026-04-18T08:51:22.001Z</time></trkpt><trkpt lat="42.60456806137387" lon="11.551290215995804"><ele>276.0</ele><time>2026-04-18T08:51:23Z</time></trkpt><trkpt lat="42.60446786040196" lon="11.551043579139487"><ele>276.0</ele><time>2026-04-18T08:51:24.001Z</time></trkpt><trkpt lat="42.60437431154519" lon="11.550795719004126"><ele>273.3333333333333</ele><time>2026-04-18T08:51:25.001Z</time></trkpt><trkpt lat="42.60428415541177" lon="11.550545623304165"><ele>270.66666666666663</ele><time>2026-04-18T08:51:26Z</time></trkpt><trkpt lat="42.60420306080185" lon="11.550299988551998"><ele>268.0</ele><time>2026-04-18T08:51:27Z</time></trkpt><trkpt lat="42.60414851830454" lon="11.550053294215898"><ele>267.3333333333333</ele><time>2026-04-18T08:51:28Z</time></trkpt><trkpt lat="42.60411204039022" lon="11.549832282105458"><ele>266.6666666666667</ele><time>2026-04-18T08:51:29Z</time></trkpt><trkpt lat="42.60410455870265" lon="11.549598282288091"><ele>266.0</ele><time>2026-04-18T08:51:30Z</time></trkpt><trkpt lat="42.604135379527285" lon="11.549347982021251"><ele>264.33333333333337</ele><time>2026-04-18T08:51:31Z</time></trkpt><trkpt lat="42.6041961446551" lon="11.54909667961577"><ele>262.6666666666667</ele><time>2026-04-18T08:51:32Z</time></trkpt><trkpt lat="42.60428090301908" lon="11.548849120874081"><ele>261.0</ele><time>2026-04-18T08:51:33Z</time></trkpt><trkpt lat="42.60437006666981" lon="11.54860097843001"><ele>260.6666666666667</ele><time>2026-04-18T08:51:34Z</time></trkpt><trkpt lat="42.6044446835021" lon="11.548340597198722"><ele>260.33333333333337</ele><time>2026-04-18T08:51:35Z</time></trkpt><trkpt lat="42.60449825092683" lon="11.548063504100247"><ele>260.0</ele><time>2026-04-18T08:51:36Z</time></trkpt><trkpt lat="42.60452851827681" lon="11.547776974747054"><ele>258.0</ele><time>2026-04-18T08:51:37Z</time></trkpt><trkpt lat="42.604541002239436" lon="11.547488005931479"><ele>256.0</ele><time>2026-04-18T08:51:38Z</time></trkpt><trkpt lat="42.60455353343278" lon="11.547190294634595"><ele>254.0</ele><time>2026-04-18T08:51:39Z</time></trkpt><trkpt lat="42.60456856100294" lon="11.546921790675878"><ele>253.66666666666669</ele><time>2026-04-18T08:51:40Z</time></trkpt><trkpt lat="42.604586595893515" lon="11.546670013533578"><ele>253.33333333333331</ele><time>2026-04-18T08:51:41Z</time></trkpt><trkpt lat="42.60459909089825" lon="11.546423767332884"><ele>253.0</ele><time>2026-04-18T08:51:42Z</time></trkpt><trkpt lat="42.6046129041544" lon="11.546178075303299"><ele>255.66666666666666</ele><time>2026-04-18T08:51:43Z</time></trkpt><trkpt lat="42.60462483543707" lon="11.54593064062902"><ele>258.3333333333333</ele><time>2026-04-18T08:51:44Z</time></trkpt><trkpt lat="42.60461804655815" lon="11.545697071085067"><ele>261.0</ele><time>2026-04-18T08:51:45Z</time></trkpt><trkpt lat="42.604567242339044" lon="11.545466948476134"><ele>263.3333333333333</ele><time>2026-04-18T08:51:46Z</time></trkpt><trkpt lat="42.60448763399623" lon="11.545243658831037"><ele>265.66666666666663</ele><time>2026-04-18T08:51:47Z</time></trkpt><trkpt lat="42.604383288786565" lon="11.545040165970379"><ele>268.0</ele><time>2026-04-18T08:51:48Z</time></trkpt><trkpt lat="42.60425102622321" lon="11.544877305966299"><ele>268.0</ele><time>2026-04-18T08:51:49Z</time></trkpt><trkpt lat="42.60409984616447" lon="11.544742160485887"><ele>268.0</ele><time>2026-04-18T08:51:50Z</time></trkpt><trkpt lat="42.60392521174201" lon="11.544651881237993"><ele>268.0</ele><time>2026-04-18T08:51:51Z</time></trkpt><trkpt lat="42.603721431121514" lon="11.544589895728388"><ele>269.3333333333333</ele><time>2026-04-18T08:51:52Z</time></trkpt><trkpt lat="42.60350033987746" lon="11.54453965232841"><ele>270.6666666666667</ele><time>2026-04-18T08:51:53Z</time></trkpt><trkpt lat="42.60329864345697" lon="11.54445141432315"><ele>272.0</ele><time>2026-04-18T08:51:54Z</time></trkpt><trkpt lat="42.6031074552323" lon="11.544408269647995"><ele>272.0</ele><time>2026-04-18T08:51:55Z</time></trkpt><trkpt lat="42.602930092658596" lon="11.54434957398911"><ele>272.0</ele><time>2026-04-18T08:51:56Z</time></trkpt><trkpt lat="42.6027536881402" lon="11.54429193784936"><ele>272.0</ele><time>2026-04-18T08:51:57Z</time></trkpt><trkpt lat="42.602575293989254" lon="11.54423390493892"><ele>270.6666666666667</ele><time>2026-04-18T08:51:58Z</time></trkpt><trkpt lat="42.60239678424655" lon="11.544177000005941"><ele>269.3333333333333</ele><time>2026-04-18T08:51:59Z</time></trkpt><trkpt lat="42.602212177599554" lon="11.544116458041422"><ele>268.0</ele><time>2026-04-18T08:52:00Z</time></trkpt><trkpt lat="42.60202944228944" lon="11.54405626147672"><ele>266.66666666666663</ele><time>2026-04-18T08:52:01Z</time></trkpt><trkpt lat="42.60184715841065" lon="11.543993338701913"><ele>265.3333333333333</ele><time>2026-04-18T08:52:02Z</time></trkpt><trkpt lat="42.60166436701534" lon="11.543929456424381"><ele>264.0</ele><time>2026-04-18T08:52:03Z</time></trkpt><trkpt lat="42.60147517857689" lon="11.543868052899747"><ele>264.0</ele><time>2026-04-18T08:52:04Z</time></trkpt><trkpt lat="42.60128447491513" lon="11.54380195255292"><ele>264.0</ele><time>2026-04-18T08:52:05Z</time></trkpt><trkpt lat="42.60110152548508" lon="11.5437037243232"><ele>264.0</ele><time>2026-04-18T08:52:06Z</time></trkpt><trkpt lat="42.60093181165346" lon="11.54356999856332"><ele>262.3333333333333</ele><time>2026-04-18T08:52:07Z</time></trkpt><trkpt lat="42.60076875178806" lon="11.543416949853867"><ele>260.66666666666663</ele><time>2026-04-18T08:52:08Z</time></trkpt><trkpt lat="42.600621531763444" lon="11.543249128718806"><ele>259.0</ele><time>2026-04-18T08:52:09Z</time></trkpt><trkpt lat="42.600487675104795" lon="11.543060978545443"><ele>258.3333333333333</ele><time>2026-04-18T08:52:10Z</time></trkpt><trkpt lat="42.60036509667647" lon="11.542868687143931"><ele>257.6666666666667</ele><time>2026-04-18T08:52:11Z</time></trkpt><trkpt lat="42.60023921846673" lon="11.542685316953515"><ele>257.0</ele><time>2026-04-18T08:52:12Z</time></trkpt><trkpt lat="42.600109741774574" lon="11.542510555645343"><ele>257.0</ele><time>2026-04-18T08:52:13Z</time></trkpt><trkpt lat="42.59998324678808" lon="11.542339692721754"><ele>257.0</ele><time>2026-04-18T08:52:14Z</time></trkpt><trkpt lat="42.599849565280834" lon="11.54215843691645"><ele>257.0</ele><time>2026-04-18T08:52:15Z</time></trkpt><trkpt lat="42.59971956323647" lon="11.541979177435659"><ele>257.33333333333337</ele><time>2026-04-18T08:52:16Z</time></trkpt><trkpt lat="42.59958341892135" lon="11.5417946049966"><ele>257.6666666666667</ele><time>2026-04-18T08:52:17Z</time></trkpt><trkpt lat="42.599450817565504" lon="11.541614692309523"><ele>258.0</ele><time>2026-04-18T08:52:18Z</time></trkpt><trkpt lat="42.599316979824046" lon="11.541431649248768"><ele>257.0</ele><time>2026-04-18T08:52:19Z</time></trkpt><trkpt lat="42.59918219479918" lon="11.541245442600175"><ele>256.0</ele><time>2026-04-18T08:52:20Z</time></trkpt><trkpt lat="42.59904494767524" lon="11.54105941705796"><ele>255.0</ele><time>2026-04-18T08:52:21Z</time></trkpt><trkpt lat="42.59891354708675" lon="11.540877331614514"><ele>254.66666666666669</ele><time>2026-04-18T08:52:22Z</time></trkpt><trkpt lat="42.598779951067485" lon="11.540689981785803"><ele>254.33333333333334</ele><time>2026-04-18T08:52:23Z</time></trkpt><trkpt lat="42.59864944845533" lon="11.540505756078788"><ele>254.0</ele><time>2026-04-18T08:52:24Z</time></trkpt><trkpt lat="42.59852114549412" lon="11.54033144221344"><ele>253.79999999999998</ele><time>2026-04-18T08:52:25Z</time></trkpt><trkpt lat="42.59840055545517" lon="11.54017157503141"><ele>253.59999999999997</ele><time>2026-04-18T08:52:26Z</time></trkpt><trkpt lat="42.59831704625232" lon="11.540054307252515"><ele>253.4</ele><time>2026-04-18T08:52:27Z</time></trkpt><trkpt lat="42.598267699492574" lon="11.539975489586356"><ele>253.2</ele><time>2026-04-18T08:52:28Z</time></trkpt><trkpt lat="42.59821453949908" lon="11.539906336239564"><ele>253.0</ele><time>2026-04-18T08:52:29Z</time></trkpt><trkpt lat="42.59814586292244" lon="11.539814823275266"><ele>253.0</ele><time>2026-04-18T08:52:31Z</time></trkpt><trkpt lat="42.59803910765701" lon="11.53989535870697"><ele>253.0</ele><time>2026-04-18T08:52:32Z</time></trkpt><trkpt lat="42.597943805599805" lon="11.53990600802398"><ele>253.0</ele><time>2026-04-18T08:52:33Z</time></trkpt><trkpt lat="42.59782989499591" lon="11.539922615666448"><ele>253.0</ele><time>2026-04-18T08:52:33.999Z</time></trkpt><trkpt lat="42.59771728330838" lon="11.539974066164525"><ele>252.4</ele><time>2026-04-18T08:52:34.999Z</time></trkpt><trkpt lat="42.59762870815747" lon="11.540057721619112"><ele>251.8</ele><time>2026-04-18T08:52:35.999Z</time></trkpt><trkpt lat="42.597544353693316" lon="11.540113519333582"><ele>251.2</ele><time>2026-04-18T08:52:36.999Z</time></trkpt><trkpt lat="42.597468560573525" lon="11.540158192966882"><ele>250.6</ele><time>2026-04-18T08:52:38.999Z</time></trkpt><trkpt lat="42.59738703071384" lon="11.54018790093595"><ele>250.0</ele><time>2026-04-18T08:52:43.999Z</time></trkpt><trkpt lat="42.597301662336584" lon="11.540241562279144"><ele>250.0</ele><time>2026-04-18T08:52:44.999Z</time></trkpt><trkpt lat="42.597212367332006" lon="11.540321362587926"><ele>250.0</ele><time>2026-04-18T08:52:45.999Z</time></trkpt><trkpt lat="42.597087412924154" lon="11.540405351970529"><ele>250.0</ele><time>2026-04-18T08:52:46.999Z</time></trkpt><trkpt lat="42.59694912953897" lon="11.540495641850514"><ele>250.0</ele><time>2026-04-18T08:52:47.999Z</time></trkpt><trkpt lat="42.59682102250343" lon="11.54057537183605"><ele>249.75</ele><time>2026-04-18T08:52:48.999Z</time></trkpt><trkpt lat="42.59669469884654" lon="11.540653755390023"><ele>249.5</ele><time>2026-04-18T08:52:49.999Z</time></trkpt><trkpt lat="42.59656951739201" lon="11.540736927133922"><ele>249.25</ele><time>2026-04-18T08:52:50.999Z</time></trkpt><trkpt lat="42.59643967235524" lon="11.540808938659936"><ele>249.0</ele><time>2026-04-18T08:52:51.999Z</time></trkpt><trkpt lat="42.596301295415905" lon="11.540819413986418"><ele>249.75</ele><time>2026-04-18T08:52:52.999Z</time></trkpt><trkpt lat="42.59615773125236" lon="11.54084985921006"><ele>250.5</ele><time>2026-04-18T08:52:53.999Z</time></trkpt><trkpt lat="42.5960149671137" lon="11.540903636903918"><ele>251.25</ele><time>2026-04-18T08:52:54.999Z</time></trkpt><trkpt lat="42.59586607873879" lon="11.54093705163632"><ele>252.0</ele><time>2026-04-18T08:52:55.999Z</time></trkpt><trkpt lat="42.59571844190998" lon="11.540971831743095"><ele>252.0</ele><time>2026-04-18T08:52:56.999Z</time></trkpt><trkpt lat="42.59556535066934" lon="11.540972408375723"><ele>252.0</ele><time>2026-04-18T08:52:57.999Z</time></trkpt><trkpt lat="42.59541084913272" lon="11.540989881539572"><ele>252.0</ele><time>2026-04-18T08:52:58.999Z</time></trkpt><trkpt lat="42.59525520657773" lon="11.541007483768183"><ele>251.66666666666669</ele><time>2026-04-18T08:52:59.999Z</time></trkpt><trkpt lat="42.595102154241786" lon="11.541031571925826"><ele>251.33333333333334</ele><time>2026-04-18T08:53:00.999Z</time></trkpt><trkpt lat="42.59494803849154" lon="11.54105929738439"><ele>251.0</ele><time>2026-04-18T08:53:01.999Z</time></trkpt><trkpt lat="42.59479605300416" lon="11.541094034242516"><ele>251.0</ele><time>2026-04-18T08:53:02.999Z</time></trkpt><trkpt lat="42.59464702749988" lon="11.541141833473844"><ele>251.0</ele><time>2026-04-18T08:53:03.999Z</time></trkpt><trkpt lat="42.59451084380759" lon="11.54118565826343"><ele>251.0</ele><time>2026-04-18T08:53:04.999Z</time></trkpt><trkpt lat="42.594383001730655" lon="11.541223728185908"><ele>251.0</ele><time>2026-04-18T08:53:05.999Z</time></trkpt><trkpt lat="42.594264594866495" lon="11.541242736859004"><ele>251.25</ele><time>2026-04-18T08:53:06.999Z</time></trkpt><trkpt lat="42.59415389617213" lon="11.541259114048602"><ele>251.5</ele><time>2026-04-18T08:53:07.999Z</time></trkpt><trkpt lat="42.594032398480714" lon="11.541294038995936"><ele>251.75</ele><time>2026-04-18T08:53:08.999Z</time></trkpt><trkpt lat="42.593924135641096" lon="11.541357727465758"><ele>252.0</ele><time>2026-04-18T08:53:09.999Z</time></trkpt><trkpt lat="42.593810482780334" lon="11.541456405429637"><ele>252.0</ele><time>2026-04-18T08:53:10.999Z</time></trkpt><trkpt lat="42.59371542026101" lon="11.541592990437339"><ele>252.0</ele><time>2026-04-18T08:53:11.999Z</time></trkpt><trkpt lat="42.593643728880316" lon="11.541740475213208"><ele>252.0</ele><time>2026-04-18T08:53:12.999Z</time></trkpt><trkpt lat="42.59355431717149" lon="11.54182589411975"><ele>252.0</ele><time>2026-04-18T08:53:13.999Z</time></trkpt><trkpt lat="42.59346648341941" lon="11.541883461376003"><ele>252.25</ele><time>2026-04-18T08:53:14.999Z</time></trkpt><trkpt lat="42.59337011129094" lon="11.54193520222711"><ele>252.5</ele><time>2026-04-18T08:53:15.999Z</time></trkpt><trkpt lat="42.59325463724482" lon="11.54195339043999"><ele>252.75</ele><time>2026-04-18T08:53:16.999Z</time></trkpt><trkpt lat="42.59314051467261" lon="11.541949477309075"><ele>253.0</ele><time>2026-04-18T08:53:17.999Z</time></trkpt><trkpt lat="42.593021475508635" lon="11.541970943857992"><ele>253.0</ele><time>2026-04-18T08:53:18.999Z</time></trkpt><trkpt lat="42.592902042051634" lon="11.541927464456336"><ele>253.0</ele><time>2026-04-18T08:53:19.999Z</time></trkpt><trkpt lat="42.59278462480288" lon="11.541857899098792"><ele>253.0</ele><time>2026-04-18T08:53:20.999Z</time></trkpt><trkpt lat="42.59266792784676" lon="11.541808390631367"><ele>253.0</ele><time>2026-04-18T08:53:21.999Z</time></trkpt><trkpt lat="42.59254691919122" lon="11.541786665096948"><ele>254.25</ele><time>2026-04-18T08:53:23Z</time></trkpt><trkpt lat="42.59243023326277" lon="11.54176238987698"><ele>255.5</ele><time>2026-04-18T08:53:24Z</time></trkpt><trkpt lat="42.5923130218105" lon="11.541764965046843"><ele>256.75</ele><time>2026-04-18T08:53:25Z</time></trkpt><trkpt lat="42.592166750085205" lon="11.541782569809953"><ele>258.0</ele><time>2026-04-18T08:53:26Z</time></trkpt><trkpt lat="42.59202453404974" lon="11.541811277036883"><ele>258.25</ele><time>2026-04-18T08:53:27Z</time></trkpt><trkpt lat="42.591901957836015" lon="11.54183468621799"><ele>258.5</ele><time>2026-04-18T08:53:28Z</time></trkpt><trkpt lat="42.59178748667229" lon="11.541857729662564"><ele>258.75</ele><time>2026-04-18T08:53:29Z</time></trkpt><trkpt lat="42.591675400301504" lon="11.54185683024757"><ele>259.0</ele><time>2026-04-18T08:53:30Z</time></trkpt><trkpt lat="42.59155593584865" lon="11.541890468886393"><ele>259.0</ele><time>2026-04-18T08:53:31Z</time></trkpt><trkpt lat="42.59142259802051" lon="11.541902486608956"><ele>259.0</ele><time>2026-04-18T08:53:32Z</time></trkpt><trkpt lat="42.59131839934715" lon="11.541901240650628"><ele>259.0</ele><time>2026-04-18T08:53:33Z</time></trkpt><trkpt lat="42.59122483265559" lon="11.541914695369076"><ele>259.0</ele><time>2026-04-18T08:53:34Z</time></trkpt><trkpt lat="42.59113879191882" lon="11.541939963744575"><ele>259.0</ele><time>2026-04-18T08:53:35Z</time></trkpt><trkpt lat="42.591055054279956" lon="11.541959911561005"><ele>258.4</ele><time>2026-04-18T08:53:36Z</time></trkpt><trkpt lat="42.59096156378652" lon="11.541987089915956"><ele>257.79999999999995</ele><time>2026-04-18T08:53:37Z</time></trkpt><trkpt lat="42.590849542180585" lon="11.542013685747984"><ele>257.20000000000005</ele><time>2026-04-18T08:53:38Z</time></trkpt><trkpt lat="42.590737563288215" lon="11.542036936251874"><ele>256.6</ele><time>2026-04-18T08:53:39Z</time></trkpt><trkpt lat="42.59063339013612" lon="11.542047559458712"><ele>256.0</ele><time>2026-04-18T08:53:40Z</time></trkpt><trkpt lat="42.59054352641533" lon="11.542042429267758"><ele>256.0</ele><time>2026-04-18T08:53:41Z</time></trkpt><trkpt lat="42.59045911734448" lon="11.542038572351544"><ele>256.0</ele><time>2026-04-18T08:53:42Z</time></trkpt><trkpt lat="42.59037000548151" lon="11.542051077900327"><ele>256.0</ele><time>2026-04-18T08:53:43Z</time></trkpt><trkpt lat="42.59025400600068" lon="11.542070101754083"><ele>256.0</ele><time>2026-04-18T08:53:44Z</time></trkpt><trkpt lat="42.59012730483335" lon="11.54206768693668"><ele>256.0</ele><time>2026-04-18T08:53:45Z</time></trkpt><trkpt lat="42.590018884588126" lon="11.542098806929417"><ele>256.2</ele><time>2026-04-18T08:53:46Z</time></trkpt><trkpt lat="42.58990247322724" lon="11.542096889955358"><ele>256.40000000000003</ele><time>2026-04-18T08:53:47Z</time></trkpt><trkpt lat="42.589800751333144" lon="11.542100549537913"><ele>256.6</ele><time>2026-04-18T08:53:48Z</time></trkpt><trkpt lat="42.589696965857456" lon="11.542111245101868"><ele>256.8</ele><time>2026-04-18T08:53:49Z</time></trkpt><trkpt lat="42.58959046660589" lon="11.542135576180014"><ele>257.0</ele><time>2026-04-18T08:53:50Z</time></trkpt><trkpt lat="42.58946299172682" lon="11.542193245912406"><ele>257.0</ele><time>2026-04-18T08:53:51Z</time></trkpt><trkpt lat="42.5893374162285" lon="11.542261670871058"><ele>257.0</ele><time>2026-04-18T08:53:52Z</time></trkpt><trkpt lat="42.589213139070225" lon="11.542333004137564"><ele>257.0</ele><time>2026-04-18T08:53:53Z</time></trkpt><trkpt lat="42.58908466223223" lon="11.542389452624784"><ele>257.0</ele><time>2026-04-18T08:53:54Z</time></trkpt><trkpt lat="42.58895522876936" lon="11.542414169560583"><ele>257.0</ele><time>2026-04-18T08:53:55Z</time></trkpt><trkpt lat="42.58882845308939" lon="11.542425426088059"><ele>257.0</ele><time>2026-04-18T08:53:56Z</time></trkpt><trkpt lat="42.588697859590305" lon="11.542446096151961"><ele>257.0</ele><time>2026-04-18T08:53:57Z</time></trkpt><trkpt lat="42.58856322114277" lon="11.542462823114619"><ele>257.0</ele><time>2026-04-18T08:53:58Z</time></trkpt><trkpt lat="42.58842966061495" lon="11.542480961442449"><ele>257.5</ele><time>2026-04-18T08:53:59Z</time></trkpt><trkpt lat="42.588296341914536" lon="11.542488524264598"><ele>258.0</ele><time>2026-04-18T08:54:00Z</time></trkpt><trkpt lat="42.588161677475995" lon="11.542502975211884"><ele>258.5</ele><time>2026-04-18T08:54:01Z</time></trkpt><trkpt lat="42.58801909599436" lon="11.542521075147086"><ele>259.0</ele><time>2026-04-18T08:54:02Z</time></trkpt><trkpt lat="42.587880081454905" lon="11.542539816940126"><ele>261.25</ele><time>2026-04-18T08:54:03Z</time></trkpt><trkpt lat="42.58775197154298" lon="11.542558836786396"><ele>263.5</ele><time>2026-04-18T08:54:04Z</time></trkpt><trkpt lat="42.58762385825739" lon="11.542540205493408"><ele>265.75</ele><time>2026-04-18T08:54:05Z</time></trkpt><trkpt lat="42.58748567849242" lon="11.542559730801848"><ele>268.0</ele><time>2026-04-18T08:54:06Z</time></trkpt><trkpt lat="42.58733151309331" lon="11.542562679041389"><ele>268.0</ele><time>2026-04-18T08:54:07Z</time></trkpt><trkpt lat="42.58719841028196" lon="11.54254799237074"><ele>268.0</ele><time>2026-04-18T08:54:08Z</time></trkpt><trkpt lat="42.587087917350274" lon="11.542495744816662"><ele>268.0</ele><time>2026-04-18T08:54:09Z</time></trkpt><trkpt lat="42.58696546170384" lon="11.542443949422042"><ele>268.0</ele><time>2026-04-18T08:54:10Z</time></trkpt><trkpt lat="42.586840156275876" lon="11.54238432424017"><ele>269.5</ele><time>2026-04-18T08:54:11Z</time></trkpt><trkpt lat="42.58672027009849" lon="11.542295031393497"><ele>271.0</ele><time>2026-04-18T08:54:12Z</time></trkpt><trkpt lat="42.58659829375112" lon="11.54221190554243"><ele>272.5</ele><time>2026-04-18T08:54:13Z</time></trkpt><trkpt lat="42.586472568492475" lon="11.54213481887744"><ele>274.0</ele><time>2026-04-18T08:54:14Z</time></trkpt><trkpt lat="42.58634641693366" lon="11.542064186910299"><ele>273.5</ele><time>2026-04-18T08:54:15Z</time></trkpt><trkpt lat="42.58621658648458" lon="11.54200746402995"><ele>273.0</ele><time>2026-04-18T08:54:16Z</time></trkpt><trkpt lat="42.5860898822328" lon="11.541944078508036"><ele>272.5</ele><time>2026-04-18T08:54:17Z</time></trkpt><trkpt lat="42.585974357691526" lon="11.541882620603163"><ele>272.0</ele><time>2026-04-18T08:54:18Z</time></trkpt><trkpt lat="42.585856494592385" lon="11.541831143537516"><ele>272.0</ele><time>2026-04-18T08:54:19Z</time></trkpt><trkpt lat="42.58572927153299" lon="11.541793897114799"><ele>272.0</ele><time>2026-04-18T08:54:20Z</time></trkpt><trkpt lat="42.585598803008246" lon="11.541755925821452"><ele>272.0</ele><time>2026-04-18T08:54:21Z</time></trkpt><trkpt lat="42.585474456001954" lon="11.541746061139117"><ele>272.0</ele><time>2026-04-18T08:54:22Z</time></trkpt><trkpt lat="42.58534112314098" lon="11.54174367744409"><ele>273.75</ele><time>2026-04-18T08:54:23Z</time></trkpt><trkpt lat="42.58519931324832" lon="11.541722708030667"><ele>275.5</ele><time>2026-04-18T08:54:24Z</time></trkpt><trkpt lat="42.5850643604942" lon="11.541747871859537"><ele>277.25</ele><time>2026-04-18T08:54:25Z</time></trkpt><trkpt lat="42.58492023182275" lon="11.541743657238214"><ele>279.0</ele><time>2026-04-18T08:54:26Z</time></trkpt><trkpt lat="42.58477296197125" lon="11.541735625199145"><ele>279.0</ele><time>2026-04-18T08:54:27Z</time></trkpt><trkpt lat="42.58463017740824" lon="11.541719577164464"><ele>279.0</ele><time>2026-04-18T08:54:28Z</time></trkpt><trkpt lat="42.58447655664392" lon="11.541682178072906"><ele>279.0</ele><time>2026-04-18T08:54:29Z</time></trkpt><trkpt lat="42.58432932785286" lon="11.54165715190009"><ele>279.0</ele><time>2026-04-18T08:54:30Z</time></trkpt><trkpt lat="42.58418833983749" lon="11.541655379675907"><ele>280.25</ele><time>2026-04-18T08:54:31Z</time></trkpt><trkpt lat="42.58406685988709" lon="11.541631697430097"><ele>281.5</ele><time>2026-04-18T08:54:32Z</time></trkpt><trkpt lat="42.58395800659714" lon="11.541607464880663"><ele>282.75</ele><time>2026-04-18T08:54:33Z</time></trkpt><trkpt lat="42.583840660080156" lon="11.54160424771508"><ele>284.0</ele><time>2026-04-18T08:54:34Z</time></trkpt><trkpt lat="42.58371257688171" lon="11.541597705497242"><ele>284.75</ele><time>2026-04-18T08:54:35Z</time></trkpt><trkpt lat="42.58357735424591" lon="11.541583608049951"><ele>285.5</ele><time>2026-04-18T08:54:36Z</time></trkpt><trkpt lat="42.583449863920734" lon="11.541561394175975"><ele>286.25</ele><time>2026-04-18T08:54:36.999Z</time></trkpt><trkpt lat="42.58331855189248" lon="11.541530396904351"><ele>287.0</ele><time>2026-04-18T08:54:37.999Z</time></trkpt><trkpt lat="42.58320340856037" lon="11.541506395403925"><ele>287.0</ele><time>2026-04-18T08:54:38.999Z</time></trkpt><trkpt lat="42.58310282383996" lon="11.541464418239682"><ele>287.0</ele><time>2026-04-18T08:54:39.999Z</time></trkpt><trkpt lat="42.58299421323947" lon="11.541441995322204"><ele>287.0</ele><time>2026-04-18T08:54:40.999Z</time></trkpt><trkpt lat="42.58287883678133" lon="11.541438721503377"><ele>287.0</ele><time>2026-04-18T08:54:41.999Z</time></trkpt><trkpt lat="42.58275932529994" lon="11.54147510139306"><ele>287.0</ele><time>2026-04-18T08:54:42.999Z</time></trkpt><trkpt lat="42.582632871567085" lon="11.541549779451765"><ele>287.0</ele><time>2026-04-18T08:54:43.999Z</time></trkpt><trkpt lat="42.582504730713495" lon="11.541570936634765"><ele>287.0</ele><time>2026-04-18T08:54:44.999Z</time></trkpt><trkpt lat="42.58238095758991" lon="11.541587989155534"><ele>287.0</ele><time>2026-04-18T08:54:45.999Z</time></trkpt><trkpt lat="42.58225980428477" lon="11.541586230539712"><ele>287.0</ele><time>2026-04-18T08:54:46.999Z</time></trkpt><trkpt lat="42.582135244814886" lon="11.541582447526695"><ele>287.0</ele><time>2026-04-18T08:54:47.999Z</time></trkpt><trkpt lat="42.58199225688972" lon="11.54157506907284"><ele>287.0</ele><time>2026-04-18T08:54:48.999Z</time></trkpt><trkpt lat="42.58182162489105" lon="11.541566366455513"><ele>287.0</ele><time>2026-04-18T08:54:49.999Z</time></trkpt><trkpt lat="42.58168369314652" lon="11.541566197190148"><ele>287.0</ele><time>2026-04-18T08:54:50.999Z</time></trkpt><trkpt lat="42.58156163447127" lon="11.541567959619723"><ele>287.0</ele><time>2026-04-18T08:54:51.999Z</time></trkpt><trkpt lat="42.58144360080221" lon="11.541563407152646"><ele>287.0</ele><time>2026-04-18T08:54:52.999Z</time></trkpt><trkpt lat="42.58133864260877" lon="11.541561194407183"><ele>287.0</ele><time>2026-04-18T08:54:53.999Z</time></trkpt><trkpt lat="42.58126119101645" lon="11.541564142365207"><ele>287.0</ele><time>2026-04-18T08:54:54.999Z</time></trkpt><trkpt lat="42.58116063539366" lon="11.541555067740292"><ele>287.0</ele><time>2026-04-18T08:54:56.999Z</time></trkpt><trkpt lat="42.58113949862249" lon="11.541722747241293"><ele>287.0</ele><time>2026-04-18T08:55:00.999Z</time></trkpt><trkpt lat="42.581183097808484" lon="11.541799940123642"><ele>287.0</ele><time>2026-04-18T08:55:01.999Z</time></trkpt><trkpt lat="42.5812407617508" lon="11.54188534411296"><ele>287.0</ele><time>2026-04-18T08:55:02.999Z</time></trkpt><trkpt lat="42.58129255395209" lon="11.542006739861106"><ele>287.0</ele><time>2026-04-18T08:55:03.999Z</time></trkpt><trkpt lat="42.58135890884573" lon="11.542121990930116"><ele>288.0</ele><time>2026-04-18T08:55:04.999Z</time></trkpt><trkpt lat="42.58142742338474" lon="11.542243762495463"><ele>289.0</ele><time>2026-04-18T08:55:05.999Z</time></trkpt><trkpt lat="42.58151156508478" lon="11.542366872896745"><ele>290.0</ele><time>2026-04-18T08:55:06.999Z</time></trkpt><trkpt lat="42.581590604896064" lon="11.54253417307432"><ele>291.0</ele><time>2026-04-18T08:55:07.999Z</time></trkpt><trkpt lat="42.58165564275833" lon="11.54268777436565"><ele>291.0</ele><time>2026-04-18T08:55:08.999Z</time></trkpt><trkpt lat="42.58168975014134" lon="11.542849139601506"><ele>291.0</ele><time>2026-04-18T08:55:09.999Z</time></trkpt><trkpt lat="42.58173215713229" lon="11.543003459164199"><ele>291.0</ele><time>2026-04-18T08:55:10.999Z</time></trkpt><trkpt lat="42.581729708317255" lon="11.54318845613206"><ele>291.0</ele><time>2026-04-18T08:55:11.999Z</time></trkpt><trkpt lat="42.58174450420211" lon="11.543405906343978"><ele>292.0</ele><time>2026-04-18T08:55:12.999Z</time></trkpt><trkpt lat="42.581760871436174" lon="11.54363386696549"><ele>293.0</ele><time>2026-04-18T08:55:13.999Z</time></trkpt><trkpt lat="42.581776093610074" lon="11.543855865774077"><ele>294.0</ele><time>2026-04-18T08:55:14.999Z</time></trkpt><trkpt lat="42.58179130533003" lon="11.544058718285545"><ele>296.5</ele><time>2026-04-18T08:55:15.999Z</time></trkpt><trkpt lat="42.58182095853017" lon="11.544228521420681"><ele>299.0</ele><time>2026-04-18T08:55:16.999Z</time></trkpt><trkpt lat="42.58183388782881" lon="11.544383571475242"><ele>301.5</ele><time>2026-04-18T08:55:17.999Z</time></trkpt><trkpt lat="42.58184453959949" lon="11.544549872425087"><ele>304.0</ele><time>2026-04-18T08:55:18.999Z</time></trkpt><trkpt lat="42.58189053951508" lon="11.544707713867334"><ele>307.0</ele><time>2026-04-18T08:55:19.999Z</time></trkpt><trkpt lat="42.58197165107137" lon="11.544844508459322"><ele>310.0</ele><time>2026-04-18T08:55:20.999Z</time></trkpt><trkpt lat="42.58202527666613" lon="11.544996873891606"><ele>313.0</ele><time>2026-04-18T08:55:21.999Z</time></trkpt><trkpt lat="42.58209948431968" lon="11.545163597354803"><ele>316.0</ele><time>2026-04-18T08:55:22.999Z</time></trkpt><trkpt lat="42.58216957245867" lon="11.545318900747455"><ele>318.75</ele><time>2026-04-18T08:55:23.999Z</time></trkpt><trkpt lat="42.58224189749014" lon="11.545479160836686"><ele>321.5</ele><time>2026-04-18T08:55:24.999Z</time></trkpt><trkpt lat="42.58230825702711" lon="11.545628408006602"><ele>324.25</ele><time>2026-04-18T08:55:25.999Z</time></trkpt><trkpt lat="42.58237348575949" lon="11.545778554876101"><ele>327.0</ele><time>2026-04-18T08:55:26.999Z</time></trkpt><trkpt lat="42.58244965903553" lon="11.545911547089576"><ele>327.0</ele><time>2026-04-18T08:55:28Z</time></trkpt><trkpt lat="42.582501720613394" lon="11.546049652770705"><ele>327.0</ele><time>2026-04-18T08:55:29Z</time></trkpt><trkpt lat="42.58255946321998" lon="11.546198459359367"><ele>327.0</ele><time>2026-04-18T08:55:30Z</time></trkpt><trkpt lat="42.582623815849765" lon="11.54634285818569"><ele>327.0</ele><time>2026-04-18T08:55:31Z</time></trkpt><trkpt lat="42.58268578863537" lon="11.546489709316269"><ele>328.0</ele><time>2026-04-18T08:55:32Z</time></trkpt><trkpt lat="42.58275230786853" lon="11.54663765266464"><ele>329.0</ele><time>2026-04-18T08:55:33Z</time></trkpt><trkpt lat="42.582814388790915" lon="11.546786506275996"><ele>330.0</ele><time>2026-04-18T08:55:34Z</time></trkpt><trkpt lat="42.58287636459933" lon="11.546934720880317"><ele>331.0</ele><time>2026-04-18T08:55:35Z</time></trkpt><trkpt lat="42.5829095046016" lon="11.547073976680263"><ele>331.6</ele><time>2026-04-18T08:55:36Z</time></trkpt><trkpt lat="42.58295302199521" lon="11.547179064573518"><ele>332.20000000000005</ele><time>2026-04-18T08:55:37Z</time></trkpt><trkpt lat="42.5829728549031" lon="11.547315148305731"><ele>332.79999999999995</ele><time>2026-04-18T08:55:38Z</time></trkpt><trkpt lat="42.582987749088865" lon="11.547461469459492"><ele>333.4</ele><time>2026-04-18T08:55:39Z</time></trkpt><trkpt lat="42.58299520211619" lon="11.54761888793312"><ele>334.0</ele><time>2026-04-18T08:55:40Z</time></trkpt><trkpt lat="42.58300603774505" lon="11.547791463535672"><ele>334.75</ele><time>2026-04-18T08:55:41Z</time></trkpt><trkpt lat="42.583015012342116" lon="11.547957068903237"><ele>335.5</ele><time>2026-04-18T08:55:42Z</time></trkpt><trkpt lat="42.58302055234071" lon="11.548128818359642"><ele>336.25</ele><time>2026-04-18T08:55:43Z</time></trkpt><trkpt lat="42.583023375700506" lon="11.54828139048708"><ele>337.0</ele><time>2026-04-18T08:55:44Z</time></trkpt><trkpt lat="42.583034481706825" lon="11.548419334562455"><ele>337.0</ele><time>2026-04-18T08:55:45Z</time></trkpt><trkpt lat="42.583032622645206" lon="11.548556087591928"><ele>337.0</ele><time>2026-04-18T08:55:46Z</time></trkpt><trkpt lat="42.583045551752605" lon="11.548700555747002"><ele>337.0</ele><time>2026-04-18T08:55:47Z</time></trkpt><trkpt lat="42.58305226734682" lon="11.548835194252536"><ele>337.0</ele><time>2026-04-18T08:55:48Z</time></trkpt><trkpt lat="42.58305020787051" lon="11.548954722166451"><ele>337.0</ele><time>2026-04-18T08:55:49Z</time></trkpt><trkpt lat="42.583061882463475" lon="11.549095600955164"><ele>336.8</ele><time>2026-04-18T08:55:50Z</time></trkpt><trkpt lat="42.58306209296812" lon="11.549227871235221"><ele>336.6</ele><time>2026-04-18T08:55:51Z</time></trkpt><trkpt lat="42.583074674635235" lon="11.549351545990001"><ele>336.40000000000003</ele><time>2026-04-18T08:55:52Z</time></trkpt><trkpt lat="42.58308949371501" lon="11.54946732487557"><ele>336.20000000000005</ele><time>2026-04-18T08:55:53Z</time></trkpt><trkpt lat="42.583115246729285" lon="11.54961142925946"><ele>336.0</ele><time>2026-04-18T08:55:54Z</time></trkpt><trkpt lat="42.58315185003894" lon="11.549761663634893"><ele>336.0</ele><time>2026-04-18T08:55:55Z</time></trkpt><trkpt lat="42.58319604867869" lon="11.549913752985777"><ele>336.0</ele><time>2026-04-18T08:55:56Z</time></trkpt><trkpt lat="42.5832448001168" lon="11.550070376175027"><ele>336.0</ele><time>2026-04-18T08:55:57Z</time></trkpt><trkpt lat="42.58329687789094" lon="11.55023477169069"><ele>336.0</ele><time>2026-04-18T08:55:58Z</time></trkpt><trkpt lat="42.58334505251628" lon="11.550403621509057"><ele>337.5</ele><time>2026-04-18T08:55:59Z</time></trkpt><trkpt lat="42.58338978329938" lon="11.55057396239366"><ele>339.0</ele><time>2026-04-18T08:56:00Z</time></trkpt><trkpt lat="42.58343743012875" lon="11.55074087484336"><ele>340.5</ele><time>2026-04-18T08:56:01Z</time></trkpt><trkpt lat="42.583477774847616" lon="11.550912403184318"><ele>342.0</ele><time>2026-04-18T08:56:02Z</time></trkpt><trkpt lat="42.583520550666236" lon="11.551074040003435"><ele>345.0</ele><time>2026-04-18T08:56:03Z</time></trkpt><trkpt lat="42.58356750182902" lon="11.551227975892076"><ele>348.0</ele><time>2026-04-18T08:56:04Z</time></trkpt><trkpt lat="42.583613916599035" lon="11.551382052985213"><ele>351.0</ele><time>2026-04-18T08:56:05Z</time></trkpt><trkpt lat="42.5836424908819" lon="11.551537117920017"><ele>354.0</ele><time>2026-04-18T08:56:06Z</time></trkpt><trkpt lat="42.58370023500631" lon="11.551693160875205"><ele>347.75</ele><time>2026-04-18T08:56:07Z</time></trkpt><trkpt lat="42.58372946897774" lon="11.551855905297964"><ele>341.5</ele><time>2026-04-18T08:56:08Z</time></trkpt><trkpt lat="42.583765510165" lon="11.551991494286442"><ele>335.25</ele><time>2026-04-18T08:56:09Z</time></trkpt><trkpt lat="42.58380418809201" lon="11.552151647264793"><ele>329.0</ele><time>2026-04-18T08:56:10Z</time></trkpt><trkpt lat="42.583839516886144" lon="11.552315104708505"><ele>329.0</ele><time>2026-04-18T08:56:11Z</time></trkpt><trkpt lat="42.583869782663825" lon="11.552476462372617"><ele>329.0</ele><time>2026-04-18T08:56:12Z</time></trkpt><trkpt lat="42.58389508731178" lon="11.552645037864787"><ele>329.0</ele><time>2026-04-18T08:56:13Z</time></trkpt><trkpt lat="42.58390961811966" lon="11.552804784585405"><ele>329.0</ele><time>2026-04-18T08:56:14Z</time></trkpt><trkpt lat="42.5839160351921" lon="11.552945351106553"><ele>328.6</ele><time>2026-04-18T08:56:15Z</time></trkpt><trkpt lat="42.58393842674095" lon="11.553085162953982"><ele>328.2</ele><time>2026-04-18T08:56:16Z</time></trkpt><trkpt lat="42.583928910643294" lon="11.553223763650555"><ele>327.8</ele><time>2026-04-18T08:56:17Z</time></trkpt><trkpt lat="42.5839242811177" lon="11.553356894738704"><ele>327.40000000000003</ele><time>2026-04-18T08:56:18Z</time></trkpt><trkpt lat="42.583926364603506" lon="11.553481778108223"><ele>327.0</ele><time>2026-04-18T08:56:19Z</time></trkpt><trkpt lat="42.583924292433494" lon="11.553605984278363"><ele>326.6</ele><time>2026-04-18T08:56:20Z</time></trkpt><trkpt lat="42.583915086958896" lon="11.553760419955477"><ele>326.20000000000005</ele><time>2026-04-18T08:56:21Z</time></trkpt><trkpt lat="42.58389940952278" lon="11.55391789811604"><ele>325.8</ele><time>2026-04-18T08:56:22Z</time></trkpt><trkpt lat="42.5838802157984" lon="11.554064426437344"><ele>325.4</ele><time>2026-04-18T08:56:23Z</time></trkpt><trkpt lat="42.58386215002815" lon="11.554202749387567"><ele>325.0</ele><time>2026-04-18T08:56:24Z</time></trkpt><trkpt lat="42.58384594772397" lon="11.55433131498382"><ele>325.0</ele><time>2026-04-18T08:56:25Z</time></trkpt><trkpt lat="42.58382097487689" lon="11.55444899556229"><ele>325.0</ele><time>2026-04-18T08:56:26Z</time></trkpt><trkpt lat="42.58379263382714" lon="11.554564770631528"><ele>325.0</ele><time>2026-04-18T08:56:27Z</time></trkpt><trkpt lat="42.5837562581142" lon="11.554680371278693"><ele>325.0</ele><time>2026-04-18T08:56:28Z</time></trkpt><trkpt lat="42.58370890230488" lon="11.554790916609383"><ele>325.0</ele><time>2026-04-18T08:56:29Z</time></trkpt><trkpt lat="42.583661713584796" lon="11.554887670572885"><ele>325.8333333333333</ele><time>2026-04-18T08:56:30Z</time></trkpt><trkpt lat="42.583613634096636" lon="11.55499253899104"><ele>326.66666666666663</ele><time>2026-04-18T08:56:31Z</time></trkpt><trkpt lat="42.58357024300077" lon="11.55508821111327"><ele>327.5</ele><time>2026-04-18T08:56:32Z</time></trkpt><trkpt lat="42.58351782755552" lon="11.555196617363293"><ele>328.3333333333333</ele><time>2026-04-18T08:56:33Z</time></trkpt><trkpt lat="42.58346559885924" lon="11.55528842759822"><ele>329.1666666666667</ele><time>2026-04-18T08:56:34Z</time></trkpt><trkpt lat="42.58342201934774" lon="11.55536549667458"><ele>330.0</ele><time>2026-04-18T08:56:35Z</time></trkpt><trkpt lat="42.58335849552172" lon="11.55544229698958"><ele>326.6</ele><time>2026-04-18T08:56:36Z</time></trkpt><trkpt lat="42.583284906691546" lon="11.555505071671735"><ele>323.2</ele><time>2026-04-18T08:56:37Z</time></trkpt><trkpt lat="42.58320565533131" lon="11.555558378123758"><ele>319.8</ele><time>2026-04-18T08:56:38Z</time></trkpt><trkpt lat="42.583141189875136" lon="11.555621348207971"><ele>316.4</ele><time>2026-04-18T08:56:38.999Z</time></trkpt><trkpt lat="42.583063452783236" lon="11.555724676756586"><ele>313.0</ele><time>2026-04-18T08:56:39.999Z</time></trkpt><trkpt lat="42.58301380367283" lon="11.555860778361172"><ele>313.0</ele><time>2026-04-18T08:56:40.999Z</time></trkpt><trkpt lat="42.58299547003738" lon="11.555996195705463"><ele>313.0</ele><time>2026-04-18T08:56:41.999Z</time></trkpt><trkpt lat="42.58294802705622" lon="11.556111764813895"><ele>313.0</ele><time>2026-04-18T08:56:42.999Z</time></trkpt><trkpt lat="42.58289398596088" lon="11.556206108257209"><ele>313.0</ele><time>2026-04-18T08:56:43.999Z</time></trkpt><trkpt lat="42.58283113544392" lon="11.556300205325588"><ele>313.0</ele><time>2026-04-18T08:56:44.999Z</time></trkpt><trkpt lat="42.58277936237247" lon="11.556406283741802"><ele>312.6</ele><time>2026-04-18T08:56:45.999Z</time></trkpt><trkpt lat="42.58274860171517" lon="11.55652282910646"><ele>312.20000000000005</ele><time>2026-04-18T08:56:46.999Z</time></trkpt><trkpt lat="42.58271551281861" lon="11.556661265369438"><ele>311.8</ele><time>2026-04-18T08:56:47.999Z</time></trkpt><trkpt lat="42.58268582199611" lon="11.55679791506127"><ele>311.40000000000003</ele><time>2026-04-18T08:56:48.999Z</time></trkpt><trkpt lat="42.582677237179084" lon="11.55692409310704"><ele>311.0</ele><time>2026-04-18T08:56:49.999Z</time></trkpt><trkpt lat="42.582644222371165" lon="11.557046022121963"><ele>308.0</ele><time>2026-04-18T08:56:50.999Z</time></trkpt><trkpt lat="42.582590961357965" lon="11.557186501435691"><ele>305.0</ele><time>2026-04-18T08:56:51.999Z</time></trkpt><trkpt lat="42.58255635629026" lon="11.557281907315097"><ele>302.0</ele><time>2026-04-18T08:56:52.999Z</time></trkpt><trkpt lat="42.58251483537623" lon="11.557385474143082"><ele>299.0</ele><time>2026-04-18T08:56:53.999Z</time></trkpt><trkpt lat="42.5824688788158" lon="11.557487708268226"><ele>296.0</ele><time>2026-04-18T08:56:54.999Z</time></trkpt><trkpt lat="42.582433410814964" lon="11.557595892047337"><ele>296.0</ele><time>2026-04-18T08:56:55.999Z</time></trkpt><trkpt lat="42.58238085639616" lon="11.557680264505041"><ele>296.0</ele><time>2026-04-18T08:56:56.999Z</time></trkpt><trkpt lat="42.58234905767905" lon="11.557765008142951"><ele>296.0</ele><time>2026-04-18T08:56:57.999Z</time></trkpt><trkpt lat="42.582294692833" lon="11.557860306867932"><ele>296.0</ele><time>2026-04-18T08:56:58.999Z</time></trkpt><trkpt lat="42.58224932347727" lon="11.557956805556675"><ele>296.0</ele><time>2026-04-18T08:56:59.999Z</time></trkpt><trkpt lat="42.582192679477416" lon="11.558055688728055"><ele>296.0</ele><time>2026-04-18T08:57:00.999Z</time></trkpt><trkpt lat="42.582148372200024" lon="11.558144624162757"><ele>295.1666666666667</ele><time>2026-04-18T08:57:01.999Z</time></trkpt><trkpt lat="42.58208404093729" lon="11.558209452670123"><ele>294.33333333333337</ele><time>2026-04-18T08:57:02.999Z</time></trkpt><trkpt lat="42.58201626722743" lon="11.558282747496486"><ele>293.5</ele><time>2026-04-18T08:57:03.999Z</time></trkpt><trkpt lat="42.58195951122793" lon="11.558356169795331"><ele>292.6666666666667</ele><time>2026-04-18T08:57:04.999Z</time></trkpt><trkpt lat="42.58190916415178" lon="11.558421516152956"><ele>291.8333333333333</ele><time>2026-04-18T08:57:05.999Z</time></trkpt><trkpt lat="42.5818901256511" lon="11.558529157463662"><ele>291.0</ele><time>2026-04-18T08:57:06.999Z</time></trkpt><trkpt lat="42.5819123318378" lon="11.55863928097514"><ele>288.6666666666667</ele><time>2026-04-18T08:57:07.999Z</time></trkpt><trkpt lat="42.58188200308769" lon="11.558742313109313"><ele>286.3333333333333</ele><time>2026-04-18T08:57:08.999Z</time></trkpt><trkpt lat="42.58185287995161" lon="11.558840028399471"><ele>284.0</ele><time>2026-04-18T08:57:09.999Z</time></trkpt><trkpt lat="42.58181031249405" lon="11.558934920695267"><ele>281.66666666666663</ele><time>2026-04-18T08:57:10.999Z</time></trkpt><trkpt lat="42.58172821418135" lon="11.559015534153351"><ele>279.3333333333333</ele><time>2026-04-18T08:57:11.999Z</time></trkpt><trkpt lat="42.581639598530124" lon="11.559072034496905"><ele>277.0</ele><time>2026-04-18T08:57:12.999Z</time></trkpt><trkpt lat="42.581544241762465" lon="11.559090348946228"><ele>277.0</ele><time>2026-04-18T08:57:13.999Z</time></trkpt><trkpt lat="42.58145827674113" lon="11.559114515214345"><ele>277.0</ele><time>2026-04-18T08:57:14.999Z</time></trkpt><trkpt lat="42.581373585091505" lon="11.559172994353595"><ele>277.0</ele><time>2026-04-18T08:57:15.999Z</time></trkpt><trkpt lat="42.581299803477044" lon="11.55923430832829"><ele>277.0</ele><time>2026-04-18T08:57:16.999Z</time></trkpt><trkpt lat="42.5812330471894" lon="11.55931986767916"><ele>277.0</ele><time>2026-04-18T08:57:17.999Z</time></trkpt><trkpt lat="42.58117800973517" lon="11.559426225004863"><ele>276.8</ele><time>2026-04-18T08:57:18.999Z</time></trkpt><trkpt lat="42.58115309987364" lon="11.559569930844596"><ele>276.6</ele><time>2026-04-18T08:57:19.999Z</time></trkpt><trkpt lat="42.58110234487155" lon="11.559659971585559"><ele>276.40000000000003</ele><time>2026-04-18T08:57:20.999Z</time></trkpt><trkpt lat="42.5810652745082" lon="11.559771156573886"><ele>276.2</ele><time>2026-04-18T08:57:21.999Z</time></trkpt><trkpt lat="42.58102821647309" lon="11.55989653021023"><ele>276.0</ele><time>2026-04-18T08:57:22.999Z</time></trkpt><trkpt lat="42.580995839203915" lon="11.560011175375031"><ele>276.0</ele><time>2026-04-18T08:57:23.999Z</time></trkpt><trkpt lat="42.58097795048225" lon="11.560136274801845"><ele>276.0</ele><time>2026-04-18T08:57:24.999Z</time></trkpt><trkpt lat="42.58094400361745" lon="11.560231335314402"><ele>276.0</ele><time>2026-04-18T08:57:25.999Z</time></trkpt><trkpt lat="42.580935560934094" lon="11.560330786407098"><ele>276.0</ele><time>2026-04-18T08:57:26.999Z</time></trkpt><trkpt lat="42.580952222069314" lon="11.56044738487591"><ele>276.0</ele><time>2026-04-18T08:57:27.999Z</time></trkpt><trkpt lat="42.58100129051186" lon="11.560549700996127"><ele>276.0</ele><time>2026-04-18T08:57:28.999Z</time></trkpt><trkpt lat="42.58107702939373" lon="11.560649582689926"><ele>273.1666666666667</ele><time>2026-04-18T08:57:29.999Z</time></trkpt><trkpt lat="42.58112740608361" lon="11.560736252738735"><ele>270.3333333333333</ele><time>2026-04-18T08:57:30.999Z</time></trkpt><trkpt lat="42.58116762392857" lon="11.560832569915982"><ele>267.5</ele><time>2026-04-18T08:57:31.999Z</time></trkpt><trkpt lat="42.581196712032416" lon="11.560921777090146"><ele>264.66666666666663</ele><time>2026-04-18T08:57:32.999Z</time></trkpt><trkpt lat="42.58121852013174" lon="11.56104781497663"><ele>261.8333333333333</ele><time>2026-04-18T08:57:35Z</time></trkpt><trkpt lat="42.581190964590085" lon="11.561162971083618"><ele>259.0</ele><time>2026-04-18T08:57:37Z</time></trkpt><trkpt lat="42.58117837490209" lon="11.561287555702572"><ele>256.4</ele><time>2026-04-18T08:57:39Z</time></trkpt><trkpt lat="42.58115011988228" lon="11.561410742784565"><ele>253.79999999999998</ele><time>2026-04-18T08:57:41Z</time></trkpt><trkpt lat="42.5811190870376" lon="11.561525758385804"><ele>251.20000000000002</ele><time>2026-04-18T08:57:43Z</time></trkpt><trkpt lat="42.58105888350627" lon="11.56164526093291"><ele>248.60000000000002</ele><time>2026-04-18T08:57:45Z</time></trkpt><trkpt lat="42.58101527671706" lon="11.561756558847305"><ele>246.0</ele><time>2026-04-18T08:57:47Z</time></trkpt><trkpt lat="42.5809198173845" lon="11.561820618874041"><ele>246.0</ele><time>2026-04-18T08:57:49Z</time></trkpt><trkpt lat="42.580807812353754" lon="11.561849695373192"><ele>246.00000000000003</ele><time>2026-04-18T08:57:51Z</time></trkpt><trkpt lat="42.580690141303464" lon="11.561821921836913"><ele>246.00000000000003</ele><time>2026-04-18T08:57:53Z</time></trkpt><trkpt lat="42.58061477692053" lon="11.561806020957855"><ele>246.0</ele><time>2026-04-18T08:57:54Z</time></trkpt><trkpt lat="42.580533952331386" lon="11.561797891715655"><ele>246.0</ele><time>2026-04-18T08:57:55Z</time></trkpt><trkpt lat="42.58044880037941" lon="11.56179655752612"><ele>246.0</ele><time>2026-04-18T08:57:56Z</time></trkpt><trkpt lat="42.58037695341112" lon="11.561803801098446"><ele>246.0</ele><time>2026-04-18T08:57:57Z</time></trkpt><trkpt lat="42.58031398073883" lon="11.56180321847466"><ele>246.0</ele><time>2026-04-18T08:57:58Z</time></trkpt><trkpt lat="42.58024127164334" lon="11.561803310781315"><ele>246.0</ele><time>2026-04-18T08:57:59Z</time></trkpt><trkpt lat="42.580138327425416" lon="11.561796391600076"><ele>246.0</ele><time>2026-04-18T08:58:01Z</time></trkpt><trkpt lat="42.580045459542184" lon="11.561800849289874"><ele>246.0</ele><time>2026-04-18T08:58:03Z</time></trkpt><trkpt lat="42.579989722095384" lon="11.561848882431017"><ele>245.0</ele><time>2026-04-18T08:58:04Z</time></trkpt><trkpt lat="42.579942472676976" lon="11.562029094827997"><ele>244.00000000000003</ele><time>2026-04-18T08:58:06Z</time></trkpt><trkpt lat="42.579914768763075" lon="11.562114122256249"><ele>243.00000000000003</ele><time>2026-04-18T08:58:07Z</time></trkpt><trkpt lat="42.57986969314296" lon="11.56223807113968"><ele>242.0</ele><time>2026-04-18T08:58:09Z</time></trkpt><trkpt lat="42.579832293720386" lon="11.562314760838117"><ele>241.0</ele><time>2026-04-18T08:58:10Z</time></trkpt><trkpt lat="42.57976234965606" lon="11.562433767531985"><ele>241.0</ele><time>2026-04-18T08:58:12Z</time></trkpt><trkpt lat="42.57968097176531" lon="11.562549360104168"><ele>241.00000000000003</ele><time>2026-04-18T08:58:14Z</time></trkpt><trkpt lat="42.579599820511724" lon="11.562638731256099"><ele>241.00000000000003</ele><time>2026-04-18T08:58:16Z</time></trkpt><trkpt lat="42.57952142983649" lon="11.562705768691782"><ele>241.0</ele><time>2026-04-18T08:58:18Z</time></trkpt><trkpt lat="42.579453138041195" lon="11.56276556161932"><ele>241.0</ele><time>2026-04-18T08:58:20Z</time></trkpt><trkpt lat="42.579379231012176" lon="11.562844395968455"><ele>241.0</ele><time>2026-04-18T08:58:22Z</time></trkpt><trkpt lat="42.57931345675433" lon="11.562916262566048"><ele>241.00000000000003</ele><time>2026-04-18T08:58:24Z</time></trkpt><trkpt lat="42.57924734356862" lon="11.562987481316759"><ele>241.00000000000003</ele><time>2026-04-18T08:58:26Z</time></trkpt><trkpt lat="42.57917162061734" lon="11.563050611673416"><ele>241.0</ele><time>2026-04-18T08:58:28Z</time></trkpt><trkpt lat="42.579084472331985" lon="11.563108025785587"><ele>241.0</ele><time>2026-04-18T08:58:30Z</time></trkpt><trkpt lat="42.57897446424037" lon="11.56314809016898"><ele>241.0</ele><time>2026-04-18T08:58:32Z</time></trkpt><trkpt lat="42.57887772573553" lon="11.563211819884348"><ele>241.0</ele><time>2026-04-18T08:58:34Z</time></trkpt><trkpt lat="42.578780032563" lon="11.563307556400948"><ele>241.0</ele><time>2026-04-18T08:58:36Z</time></trkpt><trkpt lat="42.5786755202821" lon="11.563377767989925"><ele>241.0</ele><time>2026-04-18T08:58:38Z</time></trkpt><trkpt lat="42.57857289234841" lon="11.563453840289855"><ele>241.75</ele><time>2026-04-18T08:58:40Z</time></trkpt><trkpt lat="42.578470814835946" lon="11.56354399207276"><ele>242.5</ele><time>2026-04-18T08:58:42Z</time></trkpt><trkpt lat="42.57838427331878" lon="11.563645431009444"><ele>243.25</ele><time>2026-04-18T08:58:44Z</time></trkpt><trkpt lat="42.5782875460287" lon="11.5637567632312"><ele>244.0</ele><time>2026-04-18T08:58:45.999Z</time></trkpt><trkpt lat="42.57820196439747" lon="11.56386069421271"><ele>243.33333333333331</ele><time>2026-04-18T08:58:47.999Z</time></trkpt><trkpt lat="42.57813745338607" lon="11.56396668254959"><ele>242.66666666666666</ele><time>2026-04-18T08:58:49.999Z</time></trkpt><trkpt lat="42.578070113986335" lon="11.564055325162508"><ele>242.0</ele><time>2026-04-18T08:58:51.999Z</time></trkpt><trkpt lat="42.578021399687685" lon="11.564130669789272"><ele>241.33333333333331</ele><time>2026-04-18T08:58:53.999Z</time></trkpt><trkpt lat="42.577961851626554" lon="11.564186756464652"><ele>240.66666666666666</ele><time>2026-04-18T08:58:55.999Z</time></trkpt><trkpt lat="42.577883700629805" lon="11.564243038080322"><ele>240.0</ele><time>2026-04-18T08:58:57.999Z</time></trkpt><trkpt lat="42.57781710843719" lon="11.564293029010535"><ele>240.0</ele><time>2026-04-18T08:58:59.999Z</time></trkpt><trkpt lat="42.57774653879089" lon="11.564354681027625"><ele>240.0</ele><time>2026-04-18T08:59:01.999Z</time></trkpt><trkpt lat="42.577653782618825" lon="11.564447437032731"><ele>240.0</ele><time>2026-04-18T08:59:03.999Z</time></trkpt><trkpt lat="42.577567581370445" lon="11.564544553618687"><ele>240.0</ele><time>2026-04-18T08:59:05.999Z</time></trkpt><trkpt lat="42.57747538752923" lon="11.564622573328071"><ele>240.0</ele><time>2026-04-18T08:59:07.999Z</time></trkpt><trkpt lat="42.5774013089642" lon="11.564726169613573"><ele>238.4</ele><time>2026-04-18T08:59:09.999Z</time></trkpt><trkpt lat="42.57731881928669" lon="11.564815537436672"><ele>236.8</ele><time>2026-04-18T08:59:11.999Z</time></trkpt><trkpt lat="42.577230979904954" lon="11.564926473062744"><ele>235.2</ele><time>2026-04-18T08:59:13.999Z</time></trkpt><trkpt lat="42.57714265584259" lon="11.56502084772261"><ele>233.6</ele><time>2026-04-18T08:59:15.999Z</time></trkpt><trkpt lat="42.5770693228162" lon="11.565107848946223"><ele>232.0</ele><time>2026-04-18T08:59:17.999Z</time></trkpt><trkpt lat="42.57699675789311" lon="11.56519674019378"><ele>232.0</ele><time>2026-04-18T08:59:19.999Z</time></trkpt><trkpt lat="42.576930099497424" lon="11.565268314436494"><ele>232.0</ele><time>2026-04-18T08:59:21.999Z</time></trkpt><trkpt lat="42.5768422535406" lon="11.565390375579923"><ele>232.0</ele><time>2026-04-18T08:59:23.999Z</time></trkpt><trkpt lat="42.57678173080654" lon="11.565482558875809"><ele>232.0</ele><time>2026-04-18T08:59:24.999Z</time></trkpt><trkpt lat="42.57672927211403" lon="11.56556761774593"><ele>232.0</ele><time>2026-04-18T08:59:25.999Z</time></trkpt><trkpt lat="42.5766718066362" lon="11.565635298466397"><ele>231.16666666666666</ele><time>2026-04-18T08:59:26.999Z</time></trkpt><trkpt lat="42.57662674015794" lon="11.56571538475047"><ele>230.33333333333331</ele><time>2026-04-18T08:59:27.999Z</time></trkpt><trkpt lat="42.57657146511126" lon="11.565796698843988"><ele>229.5</ele><time>2026-04-18T08:59:28.999Z</time></trkpt><trkpt lat="42.57652035895104" lon="11.565861861633417"><ele>228.66666666666669</ele><time>2026-04-18T08:59:29.999Z</time></trkpt><trkpt lat="42.576473285606895" lon="11.565929277610778"><ele>227.83333333333334</ele><time>2026-04-18T08:59:30.999Z</time></trkpt><trkpt lat="42.57640975624429" lon="11.565997706916173"><ele>227.0</ele><time>2026-04-18T08:59:31.999Z</time></trkpt><trkpt lat="42.5763292712482" lon="11.566035013295313"><ele>227.00000000000003</ele><time>2026-04-18T08:59:32.999Z</time></trkpt><trkpt lat="42.57625825459751" lon="11.566085300741948"><ele>227.0</ele><time>2026-04-18T08:59:33.999Z</time></trkpt><trkpt lat="42.576183779735246" lon="11.566132385020527"><ele>227.0</ele><time>2026-04-18T08:59:34.999Z</time></trkpt><trkpt lat="42.57610605892265" lon="11.566195258224674"><ele>227.0</ele><time>2026-04-18T08:59:35.999Z</time></trkpt><trkpt lat="42.57601916619997" lon="11.566229510028275"><ele>227.00000000000003</ele><time>2026-04-18T08:59:36.999Z</time></trkpt><trkpt lat="42.575933809377574" lon="11.566256757523954"><ele>227.0</ele><time>2026-04-18T08:59:37.999Z</time></trkpt><trkpt lat="42.575845606027784" lon="11.566291989968445"><ele>225.6</ele><time>2026-04-18T08:59:38.999Z</time></trkpt><trkpt lat="42.575752911417034" lon="11.566331968120352"><ele>224.2</ele><time>2026-04-18T08:59:40.001Z</time></trkpt><trkpt lat="42.57565836230422" lon="11.566365106650965"><ele>222.8</ele><time>2026-04-18T08:59:41.001Z</time></trkpt><trkpt lat="42.57556811715201" lon="11.566396388668297"><ele>221.4</ele><time>2026-04-18T08:59:42.001Z</time></trkpt><trkpt lat="42.575487443786315" lon="11.566424797028919"><ele>220.0</ele><time>2026-04-18T08:59:43.001Z</time></trkpt><trkpt lat="42.57539918607294" lon="11.566451599198007"><ele>220.66666666666666</ele><time>2026-04-18T08:59:44.001Z</time></trkpt><trkpt lat="42.57531144988117" lon="11.566481807341948"><ele>221.33333333333331</ele><time>2026-04-18T08:59:45.001Z</time></trkpt><trkpt lat="42.575224546653246" lon="11.56651545658351"><ele>222.0</ele><time>2026-04-18T08:59:46.001Z</time></trkpt><trkpt lat="42.57514220916104" lon="11.566548492487986"><ele>222.66666666666669</ele><time>2026-04-18T08:59:47.001Z</time></trkpt><trkpt lat="42.57505690274919" lon="11.566567611604185"><ele>223.33333333333334</ele><time>2026-04-18T08:59:48.001Z</time></trkpt><trkpt lat="42.574969959513936" lon="11.566607254354114"><ele>224.0</ele><time>2026-04-18T08:59:49.001Z</time></trkpt><trkpt lat="42.57487908502293" lon="11.56663864351431"><ele>224.00000000000003</ele><time>2026-04-18T08:59:50.001Z</time></trkpt><trkpt lat="42.57478743201985" lon="11.56667271113528"><ele>224.0</ele><time>2026-04-18T08:59:51.001Z</time></trkpt><trkpt lat="42.574691579665696" lon="11.56670497916977"><ele>224.0</ele><time>2026-04-18T08:59:52.001Z</time></trkpt><trkpt lat="42.57460029944422" lon="11.566745434247752"><ele>224.0</ele><time>2026-04-18T08:59:53.001Z</time></trkpt><trkpt lat="42.57452959637982" lon="11.566781176210155"><ele>224.00000000000003</ele><time>2026-04-18T08:59:54.001Z</time></trkpt><trkpt lat="42.574468270661384" lon="11.566803596117019"><ele>224.0</ele><time>2026-04-18T08:59:55Z</time></trkpt><trkpt lat="42.57440417432586" lon="11.566833131815448"><ele>224.0</ele><time>2026-04-18T08:59:56Z</time></trkpt><trkpt lat="42.57433971871861" lon="11.566851192908686"><ele>224.0</ele><time>2026-04-18T08:59:57Z</time></trkpt><trkpt lat="42.57428159914129" lon="11.566889283051006"><ele>224.0</ele><time>2026-04-18T08:59:58Z</time></trkpt><trkpt lat="42.57422793484194" lon="11.566950969486948"><ele>224.0</ele><time>2026-04-18T08:59:59Z</time></trkpt><trkpt lat="42.57416417541187" lon="11.566984439588973"><ele>224.0</ele><time>2026-04-18T09:00:00Z</time></trkpt><trkpt lat="42.574089045398736" lon="11.567040305187914"><ele>224.0</ele><time>2026-04-18T09:00:01Z</time></trkpt><trkpt lat="42.57400267436096" lon="11.567080097509397"><ele>224.0</ele><time>2026-04-18T09:00:02Z</time></trkpt><trkpt lat="42.57386776623007" lon="11.56710985562393"><ele>224.0</ele><time>2026-04-18T09:00:03Z</time></trkpt><trkpt lat="42.573706563714474" lon="11.567145657633024"><ele>224.0</ele><time>2026-04-18T09:00:04Z</time></trkpt><trkpt lat="42.57355849799854" lon="11.567183514936302"><ele>224.0</ele><time>2026-04-18T09:00:05Z</time></trkpt><trkpt lat="42.573433863789575" lon="11.567247884332629"><ele>224.0</ele><time>2026-04-18T09:00:06Z</time></trkpt><trkpt lat="42.57331287911592" lon="11.56731095546818"><ele>226.0</ele><time>2026-04-18T09:00:07Z</time></trkpt><trkpt lat="42.57318921673322" lon="11.567384792537437"><ele>228.0</ele><time>2026-04-18T09:00:08Z</time></trkpt><trkpt lat="42.57307425428966" lon="11.567456635140603"><ele>230.0</ele><time>2026-04-18T09:00:09Z</time></trkpt><trkpt lat="42.57296141950641" lon="11.56752141878924"><ele>232.0</ele><time>2026-04-18T09:00:10Z</time></trkpt><trkpt lat="42.57283892145678" lon="11.567575200163628"><ele>233.39999999999998</ele><time>2026-04-18T09:00:11Z</time></trkpt><trkpt lat="42.572718069845145" lon="11.567611163692774"><ele>234.79999999999998</ele><time>2026-04-18T09:00:12Z</time></trkpt><trkpt lat="42.57259178315498" lon="11.567641434473483"><ele>236.2</ele><time>2026-04-18T09:00:13Z</time></trkpt><trkpt lat="42.572496742797966" lon="11.56765666168152"><ele>237.6</ele><time>2026-04-18T09:00:14Z</time></trkpt><trkpt lat="42.572425905089005" lon="11.567653635192446"><ele>239.0</ele><time>2026-04-18T09:00:15Z</time></trkpt><trkpt lat="42.57235570883519" lon="11.567628009521181"><ele>239.0</ele><time>2026-04-18T09:00:16Z</time></trkpt><trkpt lat="42.57228512837386" lon="11.567584699567897"><ele>238.99999999999997</ele><time>2026-04-18T09:00:17Z</time></trkpt><trkpt lat="42.572215241663606" lon="11.567537348742396"><ele>238.99999999999997</ele><time>2026-04-18T09:00:18Z</time></trkpt><trkpt lat="42.572137787030115" lon="11.567464024796537"><ele>239.0</ele><time>2026-04-18T09:00:19Z</time></trkpt><trkpt lat="42.57203577760964" lon="11.567373411678494"><ele>239.0</ele><time>2026-04-18T09:00:20Z</time></trkpt><trkpt lat="42.57191608739475" lon="11.567286547513758"><ele>236.25</ele><time>2026-04-18T09:00:21Z</time></trkpt><trkpt lat="42.57180158349833" lon="11.567219714316142"><ele>233.5</ele><time>2026-04-18T09:00:22Z</time></trkpt><trkpt lat="42.57168841899902" lon="11.567176393109353"><ele>230.75</ele><time>2026-04-18T09:00:23Z</time></trkpt><trkpt lat="42.571556328590944" lon="11.567140059901416"><ele>228.0</ele><time>2026-04-18T09:00:24Z</time></trkpt><trkpt lat="42.57145061734391" lon="11.567091363375402"><ele>227.60000000000002</ele><time>2026-04-18T09:00:25Z</time></trkpt><trkpt lat="42.57133680102954" lon="11.567022953795385"><ele>227.20000000000002</ele><time>2026-04-18T09:00:26Z</time></trkpt><trkpt lat="42.57124238479531" lon="11.5669371154968"><ele>226.8</ele><time>2026-04-18T09:00:27Z</time></trkpt><trkpt lat="42.57116787243898" lon="11.566852920456705"><ele>226.4</ele><time>2026-04-18T09:00:28Z</time></trkpt><trkpt lat="42.57109280033963" lon="11.56677578289541"><ele>226.0</ele><time>2026-04-18T09:00:29Z</time></trkpt><trkpt lat="42.571033612317855" lon="11.566691541185625"><ele>225.99999999999997</ele><time>2026-04-18T09:00:30Z</time></trkpt><trkpt lat="42.570981050380304" lon="11.566613554540316"><ele>226.0</ele><time>2026-04-18T09:00:31Z</time></trkpt><trkpt lat="42.57091828456493" lon="11.566550957300963"><ele>226.0</ele><time>2026-04-18T09:00:32Z</time></trkpt><trkpt lat="42.57084584479083" lon="11.566501420205407"><ele>226.0</ele><time>2026-04-18T09:00:33Z</time></trkpt><trkpt lat="42.570767299387555" lon="11.566470982462805"><ele>225.99999999999997</ele><time>2026-04-18T09:00:34Z</time></trkpt><trkpt lat="42.57066285530848" lon="11.566421517245853"><ele>226.0</ele><time>2026-04-18T09:00:35Z</time></trkpt><trkpt lat="42.570564670649205" lon="11.56638494540299"><ele>226.0</ele><time>2026-04-18T09:00:36Z</time></trkpt><trkpt lat="42.57047060841595" lon="11.566369745878042"><ele>226.00000000000003</ele><time>2026-04-18T09:00:37Z</time></trkpt><trkpt lat="42.57039496491519" lon="11.566339417199263"><ele>226.00000000000003</ele><time>2026-04-18T09:00:38Z</time></trkpt><trkpt lat="42.57032352292805" lon="11.566334739224738"><ele>226.0</ele><time>2026-04-18T09:00:39Z</time></trkpt><trkpt lat="42.5702056327539" lon="11.566449259202914"><ele>226.0</ele><time>2026-04-18T09:00:41Z</time></trkpt><trkpt lat="42.570109934144384" lon="11.56650938623934"><ele>223.20000000000002</ele><time>2026-04-18T09:00:42Z</time></trkpt><trkpt lat="42.57002795955091" lon="11.566605119373506"><ele>220.40000000000003</ele><time>2026-04-18T09:00:43Z</time></trkpt><trkpt lat="42.56995089385315" lon="11.566682789247619"><ele>217.6</ele><time>2026-04-18T09:00:44Z</time></trkpt><trkpt lat="42.56987752643375" lon="11.566740510117985"><ele>214.8</ele><time>2026-04-18T09:00:45Z</time></trkpt><trkpt lat="42.569807577488504" lon="11.566806856549627"><ele>212.0</ele><time>2026-04-18T09:00:46Z</time></trkpt><trkpt lat="42.56974241863421" lon="11.56686506117202"><ele>212.0</ele><time>2026-04-18T09:00:47Z</time></trkpt><trkpt lat="42.56968187064173" lon="11.566900386638471"><ele>212.0</ele><time>2026-04-18T09:00:48Z</time></trkpt><trkpt lat="42.56958255397267" lon="11.566967682342336"><ele>212.0</ele><time>2026-04-18T09:00:50Z</time></trkpt><trkpt lat="42.56953024653712" lon="11.567115332939576"><ele>212.0</ele><time>2026-04-18T09:00:51.999Z</time></trkpt><trkpt lat="42.569615072261065" lon="11.567209188294417"><ele>212.0</ele><time>2026-04-18T09:00:52.999Z</time></trkpt><trkpt lat="42.56965304672072" lon="11.567296550234579"><ele>210.66666666666669</ele><time>2026-04-18T09:00:53.999Z</time></trkpt><trkpt lat="42.569718906630044" lon="11.567434911841268"><ele>209.33333333333334</ele><time>2026-04-18T09:00:55.999Z</time></trkpt><trkpt lat="42.569713800239654" lon="11.567529175253105"><ele>208.0</ele><time>2026-04-18T09:00:56.999Z</time></trkpt><trkpt lat="42.569695721551625" lon="11.567617772822363"><ele>206.66666666666669</ele><time>2026-04-18T09:00:57.999Z</time></trkpt><trkpt lat="42.569664357072966" lon="11.567697650595871"><ele>205.33333333333334</ele><time>2026-04-18T09:00:58.999Z</time></trkpt><trkpt lat="42.56959488194106" lon="11.567790390257107"><ele>204.0</ele><time>2026-04-18T09:00:59.999Z</time></trkpt><trkpt lat="42.569546795299146" lon="11.567906956619966"><ele>201.79999999999998</ele><time>2026-04-18T09:01:00.999Z</time></trkpt><trkpt lat="42.569481189905616" lon="11.56800694552573"><ele>199.6</ele><time>2026-04-18T09:01:01.999Z</time></trkpt><trkpt lat="42.56941800931788" lon="11.568109301144922"><ele>197.4</ele><time>2026-04-18T09:01:02.999Z</time></trkpt><trkpt lat="42.56934803977193" lon="11.568227817155469"><ele>195.2</ele><time>2026-04-18T09:01:03.999Z</time></trkpt><trkpt lat="42.569280652815586" lon="11.568338199956237"><ele>193.0</ele><time>2026-04-18T09:01:04.999Z</time></trkpt><trkpt lat="42.56918801028328" lon="11.568434820727257"><ele>193.0</ele><time>2026-04-18T09:01:05.999Z</time></trkpt><trkpt lat="42.569113744182424" lon="11.568549936994058"><ele>193.0</ele><time>2026-04-18T09:01:06.999Z</time></trkpt><trkpt lat="42.56903180400996" lon="11.568627604585162"><ele>193.0</ele><time>2026-04-18T09:01:07.999Z</time></trkpt><trkpt lat="42.56897474209583" lon="11.56872808628018"><ele>193.0</ele><time>2026-04-18T09:01:08.999Z</time></trkpt><trkpt lat="42.568897261740574" lon="11.568823617446132"><ele>193.0</ele><time>2026-04-18T09:01:09.999Z</time></trkpt><trkpt lat="42.56883387980008" lon="11.568939193392934"><ele>191.2</ele><time>2026-04-18T09:01:10.999Z</time></trkpt><trkpt lat="42.568769239152" lon="11.569039926785115"><ele>189.4</ele><time>2026-04-18T09:01:11.999Z</time></trkpt><trkpt lat="42.568701519310295" lon="11.569141542658226"><ele>187.6</ele><time>2026-04-18T09:01:12.999Z</time></trkpt><trkpt lat="42.56862960689293" lon="11.569244828216267"><ele>185.79999999999998</ele><time>2026-04-18T09:01:13.999Z</time></trkpt><trkpt lat="42.568560204686825" lon="11.56935017689112"><ele>184.0</ele><time>2026-04-18T09:01:14.999Z</time></trkpt><trkpt lat="42.56846289870245" lon="11.569432990214194"><ele>183.2</ele><time>2026-04-18T09:01:15.999Z</time></trkpt><trkpt lat="42.56838418930663" lon="11.569518332806211"><ele>182.39999999999998</ele><time>2026-04-18T09:01:16.999Z</time></trkpt><trkpt lat="42.56831347657512" lon="11.569605248034412"><ele>181.6</ele><time>2026-04-18T09:01:17.999Z</time></trkpt><trkpt lat="42.568234212137206" lon="11.569656710408578"><ele>180.8</ele><time>2026-04-18T09:01:18.999Z</time></trkpt><trkpt lat="42.56817971779717" lon="11.569750340638222"><ele>180.0</ele><time>2026-04-18T09:01:19.999Z</time></trkpt><trkpt lat="42.568112741373795" lon="11.569858146830946"><ele>179.2</ele><time>2026-04-18T09:01:20.999Z</time></trkpt><trkpt lat="42.5680924952566" lon="11.570012119849137"><ele>178.4</ele><time>2026-04-18T09:01:21.999Z</time></trkpt><trkpt lat="42.56808641991701" lon="11.570147051516555"><ele>177.60000000000002</ele><time>2026-04-18T09:01:22.999Z</time></trkpt><trkpt lat="42.568073792780176" lon="11.570297102772003"><ele>176.8</ele><time>2026-04-18T09:01:23.999Z</time></trkpt><trkpt lat="42.568085968599064" lon="11.570459525685065"><ele>176.0</ele><time>2026-04-18T09:01:24.999Z</time></trkpt><trkpt lat="42.56811384984302" lon="11.57064257467846"><ele>174.25</ele><time>2026-04-18T09:01:25.999Z</time></trkpt><trkpt lat="42.56814498689749" lon="11.570816028483264"><ele>172.5</ele><time>2026-04-18T09:01:26.999Z</time></trkpt><trkpt lat="42.568172339180784" lon="11.570969251126968"><ele>170.75</ele><time>2026-04-18T09:01:27.999Z</time></trkpt><trkpt lat="42.56819776383389" lon="11.57111650603358"><ele>169.0</ele><time>2026-04-18T09:01:28.999Z</time></trkpt><trkpt lat="42.568239420921635" lon="11.571267023052577"><ele>168.6</ele><time>2026-04-18T09:01:29.999Z</time></trkpt><trkpt lat="42.568267650228854" lon="11.571418851458754"><ele>168.2</ele><time>2026-04-18T09:01:30.999Z</time></trkpt><trkpt lat="42.568290912603246" lon="11.571559880836855"><ele>167.79999999999998</ele><time>2026-04-18T09:01:31.999Z</time></trkpt><trkpt lat="42.5683041241605" lon="11.57170031256801"><ele>167.39999999999998</ele><time>2026-04-18T09:01:32.999Z</time></trkpt><trkpt lat="42.568334485619005" lon="11.571837643540116"><ele>167.0</ele><time>2026-04-18T09:01:33.999Z</time></trkpt><trkpt lat="42.56837833146736" lon="11.571971300040303"><ele>166.0</ele><time>2026-04-18T09:01:34.999Z</time></trkpt><trkpt lat="42.56842142185442" lon="11.57208491318416"><ele>165.0</ele><time>2026-04-18T09:01:35.999Z</time></trkpt><trkpt lat="42.56845904576955" lon="11.572187674194101"><ele>164.0</ele><time>2026-04-18T09:01:36.999Z</time></trkpt><trkpt lat="42.56849059193979" lon="11.572290386553066"><ele>163.0</ele><time>2026-04-18T09:01:37.999Z</time></trkpt><trkpt lat="42.568545086157876" lon="11.57240094478398"><ele>162.0</ele><time>2026-04-18T09:01:38.999Z</time></trkpt><trkpt lat="42.56859535078725" lon="11.572519449457172"><ele>162.0</ele><time>2026-04-18T09:01:39.999Z</time></trkpt><trkpt lat="42.56863223813941" lon="11.572631418424876"><ele>162.0</ele><time>2026-04-18T09:01:40.999Z</time></trkpt><trkpt lat="42.56866810931086" lon="11.572734461371928"><ele>162.0</ele><time>2026-04-18T09:01:41.999Z</time></trkpt><trkpt lat="42.56869633613239" lon="11.572836496529604"><ele>162.0</ele><time>2026-04-18T09:01:42.999Z</time></trkpt><trkpt lat="42.56872119834849" lon="11.57294776977207"><ele>162.0</ele><time>2026-04-18T09:01:43.999Z</time></trkpt><trkpt lat="42.56874740922177" lon="11.573064952292912"><ele>162.0</ele><time>2026-04-18T09:01:44.999Z</time></trkpt><trkpt lat="42.56876904932243" lon="11.573198385499605"><ele>160.5</ele><time>2026-04-18T09:01:46Z</time></trkpt><trkpt lat="42.568783015648805" lon="11.573319368799991"><ele>159.0</ele><time>2026-04-18T09:01:47Z</time></trkpt><trkpt lat="42.56878207827325" lon="11.573421190126773"><ele>157.5</ele><time>2026-04-18T09:01:48Z</time></trkpt><trkpt lat="42.56879860835548" lon="11.573588197499054"><ele>156.0</ele><time>2026-04-18T09:01:50Z</time></trkpt><trkpt lat="42.568817776942545" lon="11.573690739348281"><ele>154.5</ele><time>2026-04-18T09:01:51Z</time></trkpt><trkpt lat="42.568821897317065" lon="11.573801220689036"><ele>153.0</ele><time>2026-04-18T09:01:52Z</time></trkpt><trkpt lat="42.56881277297914" lon="11.573899598259601"><ele>152.16666666666666</ele><time>2026-04-18T09:01:53Z</time></trkpt><trkpt lat="42.56881654173555" lon="11.574004886480658"><ele>151.33333333333334</ele><time>2026-04-18T09:01:54Z</time></trkpt><trkpt lat="42.568813948957285" lon="11.574108779937646"><ele>150.5</ele><time>2026-04-18T09:01:55Z</time></trkpt><trkpt lat="42.56880832042485" lon="11.574206974274853"><ele>149.66666666666669</ele><time>2026-04-18T09:01:56Z</time></trkpt><trkpt lat="42.568802051510765" lon="11.574298571154156"><ele>148.83333333333334</ele><time>2026-04-18T09:01:57Z</time></trkpt><trkpt lat="42.568797145574536" lon="11.574423467070156"><ele>148.0</ele><time>2026-04-18T09:01:59Z</time></trkpt><trkpt lat="42.56876471312255" lon="11.574532925255125"><ele>147.20000000000002</ele><time>2026-04-18T09:02:01Z</time></trkpt><trkpt lat="42.56873517925945" lon="11.57461790640484"><ele>146.4</ele><time>2026-04-18T09:02:03Z</time></trkpt><trkpt lat="42.56865433030987" lon="11.574712662345043"><ele>145.60000000000002</ele><time>2026-04-18T09:02:05Z</time></trkpt><trkpt lat="42.568621795508115" lon="11.57478972067374"><ele>144.8</ele><time>2026-04-18T09:02:06Z</time></trkpt><trkpt lat="42.568585851002375" lon="11.574916228932333"><ele>144.0</ele><time>2026-04-18T09:02:08Z</time></trkpt><trkpt lat="42.56853933363061" lon="11.575054623831944"><ele>144.00000000000003</ele><time>2026-04-18T09:02:10Z</time></trkpt><trkpt lat="42.568502141019245" lon="11.575140582420127"><ele>144.0</ele><time>2026-04-18T09:02:11Z</time></trkpt><trkpt lat="42.56845748134068" lon="11.575214791390483"><ele>144.0</ele><time>2026-04-18T09:02:12Z</time></trkpt><trkpt lat="42.5684233034228" lon="11.575295809669985"><ele>144.0</ele><time>2026-04-18T09:02:13Z</time></trkpt><trkpt lat="42.568385778662815" lon="11.575364557774693"><ele>144.0</ele><time>2026-04-18T09:02:14Z</time></trkpt><trkpt lat="42.56829922121496" lon="11.575423049765075"><ele>144.00000000000003</ele><time>2026-04-18T09:02:16Z</time></trkpt><trkpt lat="42.56823666456022" lon="11.575438292513365"><ele>144.0</ele><time>2026-04-18T09:02:17Z</time></trkpt><trkpt lat="42.568146016341466" lon="11.575490263278907"><ele>143.5</ele><time>2026-04-18T09:02:19Z</time></trkpt><trkpt lat="42.56807750867506" lon="11.575542142538756"><ele>143.0</ele><time>2026-04-18T09:02:21Z</time></trkpt><trkpt lat="42.567982719730225" lon="11.575580722069416"><ele>142.5</ele><time>2026-04-18T09:02:23Z</time></trkpt><trkpt lat="42.56787034086897" lon="11.575603800639678"><ele>142.0</ele><time>2026-04-18T09:02:25Z</time></trkpt><trkpt lat="42.56779072737293" lon="11.57561809898452"><ele>141.5</ele><time>2026-04-18T09:02:27Z</time></trkpt><trkpt lat="42.56772625049946" lon="11.57565864602207"><ele>141.0</ele><time>2026-04-18T09:02:29Z</time></trkpt><trkpt lat="42.56764942827337" lon="11.57571890509675"><ele>139.4</ele><time>2026-04-18T09:02:31Z</time></trkpt><trkpt lat="42.567574945410506" lon="11.57578078583246"><ele>137.8</ele><time>2026-04-18T09:02:33Z</time></trkpt><trkpt lat="42.56749786071037" lon="11.575848670626447"><ele>136.20000000000002</ele><time>2026-04-18T09:02:35Z</time></trkpt><trkpt lat="42.56742072857367" lon="11.575926923734118"><ele>134.6</ele><time>2026-04-18T09:02:37Z</time></trkpt><trkpt lat="42.567368229419" lon="11.575986304114151"><ele>133.0</ele><time>2026-04-18T09:02:47Z</time></trkpt><trkpt lat="42.567229023145984" lon="11.57595478612778"><ele>133.0</ele><time>2026-04-18T09:02:50Z</time></trkpt><trkpt lat="42.56717896925726" lon="11.576022297865185"><ele>133.0</ele><time>2026-04-18T09:02:51.999Z</time></trkpt><trkpt lat="42.5671296504687" lon="11.576099891916224"><ele>133.0</ele><time>2026-04-18T09:02:53.999Z</time></trkpt><trkpt lat="42.567119150038316" lon="11.576208013613606"><ele>133.0</ele><time>2026-04-18T09:02:55.999Z</time></trkpt><trkpt lat="42.56735992664648" lon="11.57656619441038"><ele>132.66666666666669</ele><time>2026-04-18T09:02:56.999Z</time></trkpt><trkpt lat="42.567383714001025" lon="11.576682603655403"><ele>132.33333333333334</ele><time>2026-04-18T09:02:58.999Z</time></trkpt><trkpt lat="42.56741792164535" lon="11.576770493929958"><ele>132.0</ele><time>2026-04-18T09:03:01.999Z</time></trkpt><trkpt lat="42.56739005669144" lon="11.576667101856225"><ele>131.66666666666666</ele><time>2026-04-18T09:03:06.999Z</time></trkpt><trkpt lat="42.567342334668055" lon="11.576599093257293"><ele>131.33333333333331</ele><time>2026-04-18T09:03:08.999Z</time></trkpt><trkpt lat="42.567330612371485" lon="11.576439287680497"><ele>131.0</ele><time>2026-04-18T09:03:10.999Z</time></trkpt><trkpt lat="42.5673198665964" lon="11.576334427553139"><ele>131.0</ele><time>2026-04-18T09:03:12.999Z</time></trkpt><trkpt lat="42.5673131447599" lon="11.57622987166339"><ele>131.0</ele><time>2026-04-18T09:03:14.999Z</time></trkpt><trkpt lat="42.567350885410086" lon="11.576095468889108"><ele>131.0</ele><time>2026-04-18T09:03:17.999Z</time></trkpt><trkpt lat="42.567387497591234" lon="11.576022917130583"><ele>131.0</ele><time>2026-04-18T09:03:18.999Z</time></trkpt><trkpt lat="42.56732933649734" lon="11.575961948681245"><ele>131.0</ele><time>2026-04-18T09:03:22.999Z</time></trkpt><trkpt lat="42.567205509863754" lon="11.576008207110792"><ele>131.0</ele><time>2026-04-18T09:03:24.999Z</time></trkpt><trkpt lat="42.56716159684897" lon="11.576077508134425"><ele>131.0</ele><time>2026-04-18T09:03:26.999Z</time></trkpt><trkpt lat="42.56708340433817" lon="11.576170019875903"><ele>131.0</ele><time>2026-04-18T09:03:28.999Z</time></trkpt><trkpt lat="42.56703208528775" lon="11.576253615852139"><ele>131.0</ele><time>2026-04-18T09:03:30.999Z</time></trkpt><trkpt lat="42.566962482158075" lon="11.576322719577387"><ele>131.0</ele><time>2026-04-18T09:03:32.999Z</time></trkpt><trkpt lat="42.566890686108444" lon="11.576417823983098"><ele>131.0</ele><time>2026-04-18T09:03:34.999Z</time></trkpt><trkpt lat="42.56682282842338" lon="11.576510192666209"><ele>130.75</ele><time>2026-04-18T09:03:36.999Z</time></trkpt><trkpt lat="42.566775552636784" lon="11.576575307451284"><ele>130.5</ele><time>2026-04-18T09:03:37.999Z</time></trkpt><trkpt lat="42.56668958147296" lon="11.576665973828431"><ele>130.25</ele><time>2026-04-18T09:03:39.999Z</time></trkpt><trkpt lat="42.56651341125082" lon="11.576842435324444"><ele>130.0</ele><time>2026-04-18T09:03:41.999Z</time></trkpt><trkpt lat="42.56637972893523" lon="11.576782046155888"><ele>130.0</ele><time>2026-04-18T09:03:42.999Z</time></trkpt><trkpt lat="42.566428265881605" lon="11.57656062803191"><ele>130.0</ele><time>2026-04-18T09:03:43.999Z</time></trkpt><trkpt lat="42.56641698253441" lon="11.576816135159593"><ele>130.0</ele><time>2026-04-18T09:03:44.999Z</time></trkpt><trkpt lat="42.566387541147556" lon="11.576481734182025"><ele>130.0</ele><time>2026-04-18T09:03:46.999Z</time></trkpt><trkpt lat="42.56632573617933" lon="11.576401931633818"><ele>130.0</ele><time>2026-04-18T09:03:48.999Z</time></trkpt><trkpt lat="42.56627288974857" lon="11.57633207648528"><ele>130.0</ele><time>2026-04-18T09:03:50.999Z</time></trkpt><trkpt lat="42.56617292104373" lon="11.576200929847307"><ele>130.0</ele><time>2026-04-18T09:03:53Z</time></trkpt><trkpt lat="42.56611208888309" lon="11.57615060493764"><ele>130.0</ele><time>2026-04-18T09:03:54Z</time></trkpt><trkpt lat="42.5660169606416" lon="11.576051994630621"><ele>129.8</ele><time>2026-04-18T09:03:56Z</time></trkpt><trkpt lat="42.565937735913415" lon="11.576039408455065"><ele>129.6</ele><time>2026-04-18T09:03:57Z</time></trkpt><trkpt lat="42.56584688615889" lon="11.576086126015499"><ele>129.4</ele><time>2026-04-18T09:03:58Z</time></trkpt><trkpt lat="42.5657802452995" lon="11.576154781388455"><ele>129.2</ele><time>2026-04-18T09:03:59Z</time></trkpt><trkpt lat="42.565701676674266" lon="11.576256271181265"><ele>129.0</ele><time>2026-04-18T09:04:00Z</time></trkpt><trkpt lat="42.565620093155005" lon="11.576354867528458"><ele>129.0</ele><time>2026-04-18T09:04:01Z</time></trkpt><trkpt lat="42.565544525598334" lon="11.576446193392346"><ele>129.0</ele><time>2026-04-18T09:04:02Z</time></trkpt><trkpt lat="42.56547444623844" lon="11.576529735748728"><ele>129.0</ele><time>2026-04-18T09:04:03Z</time></trkpt><trkpt lat="42.56540855468616" lon="11.576606111635384"><ele>129.0</ele><time>2026-04-18T09:04:04Z</time></trkpt><trkpt lat="42.56533773031429" lon="11.576684493249408"><ele>129.0</ele><time>2026-04-18T09:04:05Z</time></trkpt><trkpt lat="42.56526224425531" lon="11.576767705287468"><ele>129.0</ele><time>2026-04-18T09:04:06Z</time></trkpt><trkpt lat="42.56519554659119" lon="11.576843575970459"><ele>129.0</ele><time>2026-04-18T09:04:07Z</time></trkpt><trkpt lat="42.56513843778777" lon="11.576911198237733"><ele>129.0</ele><time>2026-04-18T09:04:08Z</time></trkpt><trkpt lat="42.56506854266693" lon="11.576997051193512"><ele>129.0</ele><time>2026-04-18T09:04:09Z</time></trkpt><trkpt lat="42.564989708201395" lon="11.577095261250722"><ele>129.0</ele><time>2026-04-18T09:04:10Z</time></trkpt><trkpt lat="42.56489974260053" lon="11.577198847796048"><ele>129.0</ele><time>2026-04-18T09:04:11Z</time></trkpt><trkpt lat="42.56483755282149" lon="11.577311652500219"><ele>129.0</ele><time>2026-04-18T09:04:12Z</time></trkpt><trkpt lat="42.564762968860094" lon="11.57740377128028"><ele>129.0</ele><time>2026-04-18T09:04:13Z</time></trkpt><trkpt lat="42.56469274044469" lon="11.577472947526783"><ele>129.0</ele><time>2026-04-18T09:04:14Z</time></trkpt><trkpt lat="42.56463126689751" lon="11.577569332664597"><ele>129.0</ele><time>2026-04-18T09:04:15Z</time></trkpt><trkpt lat="42.56455588521943" lon="11.577665657472854"><ele>129.2</ele><time>2026-04-18T09:04:16Z</time></trkpt><trkpt lat="42.56447476946365" lon="11.577769400146655"><ele>129.4</ele><time>2026-04-18T09:04:17Z</time></trkpt><trkpt lat="42.564386325388085" lon="11.57784509264944"><ele>129.6</ele><time>2026-04-18T09:04:18Z</time></trkpt><trkpt lat="42.56430936467197" lon="11.577934201941902"><ele>129.8</ele><time>2026-04-18T09:04:19Z</time></trkpt><trkpt lat="42.56424380988186" lon="11.578008845067322"><ele>130.0</ele><time>2026-04-18T09:04:20Z</time></trkpt><trkpt lat="42.56417751553204" lon="11.578084134661529"><ele>130.0</ele><time>2026-04-18T09:04:21Z</time></trkpt><trkpt lat="42.56411823165837" lon="11.578180431997204"><ele>130.0</ele><time>2026-04-18T09:04:22Z</time></trkpt><trkpt lat="42.56403856385786" lon="11.578241204813654"><ele>130.0</ele><time>2026-04-18T09:04:23Z</time></trkpt><trkpt lat="42.5639653774348" lon="11.578314938102654"><ele>130.0</ele><time>2026-04-18T09:04:24Z</time></trkpt><trkpt lat="42.56389490565167" lon="11.57839314029809"><ele>130.0</ele><time>2026-04-18T09:04:25Z</time></trkpt><trkpt lat="42.56382030087875" lon="11.578460303037822"><ele>130.0</ele><time>2026-04-18T09:04:26Z</time></trkpt><trkpt lat="42.56371577560455" lon="11.578511708527845"><ele>130.0</ele><time>2026-04-18T09:04:27Z</time></trkpt><trkpt lat="42.56364174532777" lon="11.57855894321636"><ele>130.0</ele><time>2026-04-18T09:04:28Z</time></trkpt><trkpt lat="42.563577658769326" lon="11.57859475226641"><ele>130.0</ele><time>2026-04-18T09:04:29Z</time></trkpt><trkpt lat="42.56350700215574" lon="11.578638862523436"><ele>130.0</ele><time>2026-04-18T09:04:30Z</time></trkpt><trkpt lat="42.563441720259945" lon="11.578635740648133"><ele>130.0</ele><time>2026-04-18T09:04:31Z</time></trkpt><trkpt lat="42.56331170046854" lon="11.578613672338022"><ele>129.66666666666669</ele><time>2026-04-18T09:04:33Z</time></trkpt><trkpt lat="42.563240708556414" lon="11.578623824391212"><ele>129.33333333333334</ele><time>2026-04-18T09:04:34Z</time></trkpt><trkpt lat="42.563138093032656" lon="11.578664457618418"><ele>129.0</ele><time>2026-04-18T09:04:35Z</time></trkpt><trkpt lat="42.563062639536845" lon="11.578737162732804"><ele>128.66666666666666</ele><time>2026-04-18T09:04:36Z</time></trkpt><trkpt lat="42.563003172774806" lon="11.578833948591416"><ele>128.33333333333331</ele><time>2026-04-18T09:04:37Z</time></trkpt><trkpt lat="42.562946505166764" lon="11.578910985965058"><ele>128.0</ele><time>2026-04-18T09:04:38Z</time></trkpt><trkpt lat="42.56285483774274" lon="11.578991845520248"><ele>128.0</ele><time>2026-04-18T09:04:40Z</time></trkpt><trkpt lat="42.562782869694765" lon="11.578985235453315"><ele>128.0</ele><time>2026-04-18T09:04:41Z</time></trkpt><trkpt lat="42.56267442621369" lon="11.579022699621202"><ele>128.0</ele><time>2026-04-18T09:04:42Z</time></trkpt><trkpt lat="42.56256474625557" lon="11.579043380835536"><ele>128.0</ele><time>2026-04-18T09:04:43Z</time></trkpt><trkpt lat="42.56246818464238" lon="11.579065827484644"><ele>128.0</ele><time>2026-04-18T09:04:44Z</time></trkpt><trkpt lat="42.56238931452896" lon="11.57908299822361"><ele>128.0</ele><time>2026-04-18T09:04:45Z</time></trkpt><trkpt lat="42.56224798921964" lon="11.579054868569738"><ele>128.0</ele><time>2026-04-18T09:04:47Z</time></trkpt><trkpt lat="42.562162598579725" lon="11.578983873765742"><ele>128.0</ele><time>2026-04-18T09:04:48Z</time></trkpt><trkpt lat="42.56207561769133" lon="11.578926202786555"><ele>128.0</ele><time>2026-04-18T09:04:49Z</time></trkpt><trkpt lat="42.561987953969606" lon="11.57889589440616"><ele>128.0</ele><time>2026-04-18T09:04:50Z</time></trkpt><trkpt lat="42.56189041639853" lon="11.5788899214217"><ele>127.66666666666666</ele><time>2026-04-18T09:04:51Z</time></trkpt><trkpt lat="42.561780581026184" lon="11.578886809185732"><ele>127.33333333333333</ele><time>2026-04-18T09:04:52Z</time></trkpt><trkpt lat="42.56167730636687" lon="11.578896306795146"><ele>127.0</ele><time>2026-04-18T09:04:53Z</time></trkpt><trkpt lat="42.561609633533266" lon="11.578859711470477"><ele>126.66666666666666</ele><time>2026-04-18T09:04:53.999Z</time></trkpt><trkpt lat="42.56154645606564" lon="11.57883529640694"><ele>126.33333333333333</ele><time>2026-04-18T09:04:54.999Z</time></trkpt><trkpt lat="42.56148566662598" lon="11.578801278709731"><ele>126.0</ele><time>2026-04-18T09:04:55.999Z</time></trkpt><trkpt lat="42.561401110664605" lon="11.57874106970323"><ele>126.0</ele><time>2026-04-18T09:04:56.999Z</time></trkpt><trkpt lat="42.561288101316535" lon="11.578688389050397"><ele>126.0</ele><time>2026-04-18T09:04:57.999Z</time></trkpt><trkpt lat="42.561167618181756" lon="11.578628707528898"><ele>126.0</ele><time>2026-04-18T09:04:58.999Z</time></trkpt><trkpt lat="42.56108244729201" lon="11.578567026705988"><ele>126.0</ele><time>2026-04-18T09:04:59.999Z</time></trkpt><trkpt lat="42.56100809229874" lon="11.578530608182252"><ele>126.0</ele><time>2026-04-18T09:05:00.999Z</time></trkpt><trkpt lat="42.56092572388584" lon="11.578477005716481"><ele>125.8</ele><time>2026-04-18T09:05:01.999Z</time></trkpt><trkpt lat="42.560843378276545" lon="11.578463133586883"><ele>125.6</ele><time>2026-04-18T09:05:02.999Z</time></trkpt><trkpt lat="42.56074037970627" lon="11.578452220750183"><ele>125.4</ele><time>2026-04-18T09:05:03.999Z</time></trkpt><trkpt lat="42.560641993945964" lon="11.578443433697416"><ele>125.2</ele><time>2026-04-18T09:05:04.999Z</time></trkpt><trkpt lat="42.560551774200505" lon="11.57843690826449"><ele>125.0</ele><time>2026-04-18T09:05:05.999Z</time></trkpt><trkpt lat="42.56046110038064" lon="11.57843243126705"><ele>125.0</ele><time>2026-04-18T09:05:06.999Z</time></trkpt><trkpt lat="42.56039768052935" lon="11.57842177577686"><ele>125.0</ele><time>2026-04-18T09:05:07.999Z</time></trkpt><trkpt lat="42.560332868991686" lon="11.578401063826552"><ele>125.0</ele><time>2026-04-18T09:05:08.999Z</time></trkpt><trkpt lat="42.56019815845854" lon="11.578339363324865"><ele>125.0</ele><time>2026-04-18T09:05:10.999Z</time></trkpt><trkpt lat="42.56007401634824" lon="11.578264213171627"><ele>125.0</ele><time>2026-04-18T09:05:12.999Z</time></trkpt><trkpt lat="42.55999437930072" lon="11.578241057365043"><ele>124.66666666666666</ele><time>2026-04-18T09:05:13.999Z</time></trkpt><trkpt lat="42.55991795854138" lon="11.578245274786536"><ele>124.33333333333333</ele><time>2026-04-18T09:05:14.999Z</time></trkpt><trkpt lat="42.55984586570163" lon="11.5782467741947"><ele>124.0</ele><time>2026-04-18T09:05:15.999Z</time></trkpt><trkpt lat="42.55977656319107" lon="11.578299725841822"><ele>123.66666666666666</ele><time>2026-04-18T09:05:16.999Z</time></trkpt><trkpt lat="42.55970731245976" lon="11.578311127824522"><ele>123.33333333333333</ele><time>2026-04-18T09:05:17.999Z</time></trkpt><trkpt lat="42.55964339215079" lon="11.578343090457118"><ele>123.0</ele><time>2026-04-18T09:05:18.999Z</time></trkpt><trkpt lat="42.559567060444884" lon="11.578404045709418"><ele>123.25</ele><time>2026-04-18T09:05:19.999Z</time></trkpt><trkpt lat="42.55946844111434" lon="11.57843798680697"><ele>123.5</ele><time>2026-04-18T09:05:20.999Z</time></trkpt><trkpt lat="42.55933026334321" lon="11.578525293634284"><ele>123.75</ele><time>2026-04-18T09:05:21.999Z</time></trkpt><trkpt lat="42.55919321837575" lon="11.57861979738273"><ele>124.0</ele><time>2026-04-18T09:05:22.999Z</time></trkpt><trkpt lat="42.559078260089464" lon="11.578703201026856"><ele>124.2</ele><time>2026-04-18T09:05:23.999Z</time></trkpt><trkpt lat="42.55897201841954" lon="11.57880394223531"><ele>124.4</ele><time>2026-04-18T09:05:24.999Z</time></trkpt><trkpt lat="42.55887300558332" lon="11.578873052143589"><ele>124.6</ele><time>2026-04-18T09:05:25.999Z</time></trkpt><trkpt lat="42.558780306216896" lon="11.57894031874729"><ele>124.8</ele><time>2026-04-18T09:05:26.999Z</time></trkpt><trkpt lat="42.558717278425235" lon="11.579014205434675"><ele>125.0</ele><time>2026-04-18T09:05:27.999Z</time></trkpt><trkpt lat="42.55863801248576" lon="11.579070675378146"><ele>125.6</ele><time>2026-04-18T09:05:28.999Z</time></trkpt><trkpt lat="42.55856863813236" lon="11.579165490880733"><ele>126.2</ele><time>2026-04-18T09:05:29.999Z</time></trkpt><trkpt lat="42.55848501828096" lon="11.579214357809695"><ele>126.80000000000001</ele><time>2026-04-18T09:05:30.999Z</time></trkpt><trkpt lat="42.5584005234948" lon="11.57928175611879"><ele>127.4</ele><time>2026-04-18T09:05:31.999Z</time></trkpt><trkpt lat="42.55832117442027" lon="11.579344843200206"><ele>128.0</ele><time>2026-04-18T09:05:32.999Z</time></trkpt><trkpt lat="42.55822753049305" lon="11.57937209177656"><ele>128.0</ele><time>2026-04-18T09:05:33.999Z</time></trkpt><trkpt lat="42.55813989506143" lon="11.579358888923604"><ele>128.0</ele><time>2026-04-18T09:05:34.999Z</time></trkpt><trkpt lat="42.55802015401104" lon="11.579333258424922"><ele>128.0</ele><time>2026-04-18T09:05:35.999Z</time></trkpt><trkpt lat="42.55790069725306" lon="11.57931922209116"><ele>128.0</ele><time>2026-04-18T09:05:36.999Z</time></trkpt><trkpt lat="42.55780454654319" lon="11.579308355167395"><ele>128.0</ele><time>2026-04-18T09:05:37.999Z</time></trkpt><trkpt lat="42.55770487438666" lon="11.579310447554569"><ele>128.16666666666666</ele><time>2026-04-18T09:05:38.999Z</time></trkpt><trkpt lat="42.55759988130831" lon="11.579329540578277"><ele>128.33333333333331</ele><time>2026-04-18T09:05:39.999Z</time></trkpt><trkpt lat="42.55751123912631" lon="11.57935327000931"><ele>128.5</ele><time>2026-04-18T09:05:40.999Z</time></trkpt><trkpt lat="42.557427801897404" lon="11.579368214218084"><ele>128.66666666666666</ele><time>2026-04-18T09:05:41.999Z</time></trkpt><trkpt lat="42.557348067496186" lon="11.579380982156785"><ele>128.83333333333334</ele><time>2026-04-18T09:05:42.999Z</time></trkpt><trkpt lat="42.557274331753135" lon="11.579408466140944"><ele>129.0</ele><time>2026-04-18T09:05:43.999Z</time></trkpt><trkpt lat="42.55716770431144" lon="11.579403351710999"><ele>129.0</ele><time>2026-04-18T09:05:44.999Z</time></trkpt><trkpt lat="42.557046088494616" lon="11.57941367604225"><ele>129.0</ele><time>2026-04-18T09:05:45.999Z</time></trkpt><trkpt lat="42.556940875939716" lon="11.579438349079561"><ele>129.0</ele><time>2026-04-18T09:05:46.999Z</time></trkpt><trkpt lat="42.55684261014143" lon="11.579441119700789"><ele>129.0</ele><time>2026-04-18T09:05:47.999Z</time></trkpt><trkpt lat="42.55674018661808" lon="11.579487515154874"><ele>129.0</ele><time>2026-04-18T09:05:48.999Z</time></trkpt><trkpt lat="42.55661435711361" lon="11.579501757316972"><ele>127.2</ele><time>2026-04-18T09:05:49.999Z</time></trkpt><trkpt lat="42.556512510848414" lon="11.579505997729445"><ele>125.4</ele><time>2026-04-18T09:05:50.999Z</time></trkpt><trkpt lat="42.55641606770747" lon="11.579509784987534"><ele>123.6</ele><time>2026-04-18T09:05:51.999Z</time></trkpt><trkpt lat="42.55633592309023" lon="11.5795273192918"><ele>121.8</ele><time>2026-04-18T09:05:52.999Z</time></trkpt><trkpt lat="42.556220913799685" lon="11.579566986942359"><ele>120.0</ele><time>2026-04-18T09:05:53.999Z</time></trkpt><trkpt lat="42.55610932009645" lon="11.579559127851532"><ele>118.5</ele><time>2026-04-18T09:05:54.999Z</time></trkpt><trkpt lat="42.55598986353292" lon="11.579572170708708"><ele>117.0</ele><time>2026-04-18T09:05:55.998Z</time></trkpt><trkpt lat="42.55582168851653" lon="11.57960154691055"><ele>115.5</ele><time>2026-04-18T09:05:56.998Z</time></trkpt><trkpt lat="42.555663203196744" lon="11.57960906898825"><ele>114.0</ele><time>2026-04-18T09:05:58Z</time></trkpt><trkpt lat="42.55554680667086" lon="11.579623758980313"><ele>114.0</ele><time>2026-04-18T09:05:59Z</time></trkpt><trkpt lat="42.55543983287462" lon="11.579655001584843"><ele>114.0</ele><time>2026-04-18T09:06:00Z</time></trkpt><trkpt lat="42.555335373929736" lon="11.579650096193415"><ele>114.0</ele><time>2026-04-18T09:06:01Z</time></trkpt><trkpt lat="42.55521068989088" lon="11.579663410022492"><ele>114.0</ele><time>2026-04-18T09:06:02Z</time></trkpt><trkpt lat="42.55511121642243" lon="11.579671389753681"><ele>114.0</ele><time>2026-04-18T09:06:03Z</time></trkpt><trkpt lat="42.55499123801098" lon="11.579678923423415"><ele>114.0</ele><time>2026-04-18T09:06:04Z</time></trkpt><trkpt lat="42.554875132107256" lon="11.579688759767357"><ele>114.0</ele><time>2026-04-18T09:06:05Z</time></trkpt><trkpt lat="42.55475444709833" lon="11.579704798925329"><ele>114.0</ele><time>2026-04-18T09:06:06Z</time></trkpt><trkpt lat="42.554635465498144" lon="11.579723654600762"><ele>114.0</ele><time>2026-04-18T09:06:07Z</time></trkpt><trkpt lat="42.55453665578284" lon="11.57975966595689"><ele>113.80000000000001</ele><time>2026-04-18T09:06:08Z</time></trkpt><trkpt lat="42.55443903938527" lon="11.579771130705664"><ele>113.60000000000001</ele><time>2026-04-18T09:06:09Z</time></trkpt><trkpt lat="42.5543372860083" lon="11.579768408430787"><ele>113.4</ele><time>2026-04-18T09:06:10Z</time></trkpt><trkpt lat="42.554223232869305" lon="11.579781023386493"><ele>113.2</ele><time>2026-04-18T09:06:11Z</time></trkpt><trkpt lat="42.55410396639687" lon="11.579784083802382"><ele>113.0</ele><time>2026-04-18T09:06:12Z</time></trkpt><trkpt lat="42.5539959110325" lon="11.579780538528942"><ele>112.99999999999999</ele><time>2026-04-18T09:06:13Z</time></trkpt><trkpt lat="42.55390366502595" lon="11.579798789279256"><ele>113.0</ele><time>2026-04-18T09:06:14Z</time></trkpt><trkpt lat="42.553818518657806" lon="11.579790268253252"><ele>113.0</ele><time>2026-04-18T09:06:15Z</time></trkpt><trkpt lat="42.55374112379943" lon="11.579786993549027"><ele>113.0</ele><time>2026-04-18T09:06:16Z</time></trkpt><trkpt lat="42.553672505574724" lon="11.579796488142595"><ele>112.99999999999999</ele><time>2026-04-18T09:06:17Z</time></trkpt><trkpt lat="42.55360224797428" lon="11.579785679069223"><ele>113.0</ele><time>2026-04-18T09:06:18Z</time></trkpt><trkpt lat="42.553516781670275" lon="11.579791108651841"><ele>113.5</ele><time>2026-04-18T09:06:19Z</time></trkpt><trkpt lat="42.55341341409748" lon="11.579892028411138"><ele>114.0</ele><time>2026-04-18T09:06:20Z</time></trkpt><trkpt lat="42.55330942756954" lon="11.579914866614297"><ele>114.5</ele><time>2026-04-18T09:06:21Z</time></trkpt><trkpt lat="42.55320625459744" lon="11.57993157714106"><ele>115.0</ele><time>2026-04-18T09:06:22Z</time></trkpt><trkpt lat="42.553087411692616" lon="11.579961860409139"><ele>115.0</ele><time>2026-04-18T09:06:23Z</time></trkpt><trkpt lat="42.55296075045633" lon="11.579961902809362"><ele>115.0</ele><time>2026-04-18T09:06:24Z</time></trkpt><trkpt lat="42.552779304730564" lon="11.579942936797329"><ele>115.0</ele><time>2026-04-18T09:06:25Z</time></trkpt><trkpt lat="42.552620949584224" lon="11.579951236024069"><ele>114.5</ele><time>2026-04-18T09:06:26Z</time></trkpt><trkpt lat="42.552495203268094" lon="11.57996193313494"><ele>114.0</ele><time>2026-04-18T09:06:27Z</time></trkpt><trkpt lat="42.55236262672468" lon="11.579978447545836"><ele>113.5</ele><time>2026-04-18T09:06:28Z</time></trkpt><trkpt lat="42.552223875083385" lon="11.579990607537823"><ele>113.0</ele><time>2026-04-18T09:06:29Z</time></trkpt><trkpt lat="42.552080139146554" lon="11.580003821463132"><ele>112.75</ele><time>2026-04-18T09:06:30Z</time></trkpt><trkpt lat="42.551942965141116" lon="11.58003014867186"><ele>112.5</ele><time>2026-04-18T09:06:31Z</time></trkpt><trkpt lat="42.55180421778037" lon="11.580047427239267"><ele>112.25</ele><time>2026-04-18T09:06:32Z</time></trkpt><trkpt lat="42.55166342985629" lon="11.580048870144106"><ele>112.0</ele><time>2026-04-18T09:06:33Z</time></trkpt><trkpt lat="42.55151655396158" lon="11.580067947683432"><ele>112.0</ele><time>2026-04-18T09:06:34Z</time></trkpt><trkpt lat="42.55137657544693" lon="11.58008795992345"><ele>112.0</ele><time>2026-04-18T09:06:35Z</time></trkpt><trkpt lat="42.55124453374194" lon="11.580106725636494"><ele>112.0</ele><time>2026-04-18T09:06:36Z</time></trkpt><trkpt lat="42.551113329725716" lon="11.580126842197865"><ele>112.0</ele><time>2026-04-18T09:06:37Z</time></trkpt><trkpt lat="42.55098333709179" lon="11.58015081035506"><ele>113.0</ele><time>2026-04-18T09:06:38Z</time></trkpt><trkpt lat="42.55084205000377" lon="11.580173400918738"><ele>114.0</ele><time>2026-04-18T09:06:39Z</time></trkpt><trkpt lat="42.55067560217545" lon="11.58018990550825"><ele>115.0</ele><time>2026-04-18T09:06:40Z</time></trkpt><trkpt lat="42.55051974599731" lon="11.580205626074392"><ele>115.0</ele><time>2026-04-18T09:06:41Z</time></trkpt><trkpt lat="42.55038536000401" lon="11.580224355573721"><ele>115.0</ele><time>2026-04-18T09:06:42Z</time></trkpt><trkpt lat="42.55026252918429" lon="11.580240065201709"><ele>115.0</ele><time>2026-04-18T09:06:43Z</time></trkpt><trkpt lat="42.55015022474556" lon="11.580263687118011"><ele>115.0</ele><time>2026-04-18T09:06:44Z</time></trkpt><trkpt lat="42.55002115927776" lon="11.58028514824442"><ele>115.25</ele><time>2026-04-18T09:06:45Z</time></trkpt><trkpt lat="42.54989560675591" lon="11.580300200166334"><ele>115.5</ele><time>2026-04-18T09:06:46Z</time></trkpt><trkpt lat="42.54976447913565" lon="11.580313840784665"><ele>115.75</ele><time>2026-04-18T09:06:47Z</time></trkpt><trkpt lat="42.549640475501604" lon="11.580304275097722"><ele>116.0</ele><time>2026-04-18T09:06:48Z</time></trkpt><trkpt lat="42.54951269617979" lon="11.580285081000882"><ele>116.0</ele><time>2026-04-18T09:06:48.999Z</time></trkpt><trkpt lat="42.549381743669635" lon="11.58026084692357"><ele>116.0</ele><time>2026-04-18T09:06:49.999Z</time></trkpt><trkpt lat="42.54925037322096" lon="11.58021457425994"><ele>116.0</ele><time>2026-04-18T09:06:50.999Z</time></trkpt><trkpt lat="42.54913399204242" lon="11.58017070492278"><ele>116.0</ele><time>2026-04-18T09:06:51.999Z</time></trkpt><trkpt lat="42.5490425778919" lon="11.580116835210443"><ele>116.0</ele><time>2026-04-18T09:06:52.999Z</time></trkpt><trkpt lat="42.54896434967726" lon="11.58007654013117"><ele>116.0</ele><time>2026-04-18T09:06:53.999Z</time></trkpt><trkpt lat="42.54889628722098" lon="11.58006590093454"><ele>116.0</ele><time>2026-04-18T09:06:54.999Z</time></trkpt><trkpt lat="42.54880423992563" lon="11.580082024432567"><ele>116.0</ele><time>2026-04-18T09:06:55.999Z</time></trkpt><trkpt lat="42.548685740851674" lon="11.580126170401128"><ele>116.0</ele><time>2026-04-18T09:06:56.999Z</time></trkpt><trkpt lat="42.548581380170404" lon="11.580138022478803"><ele>115.8</ele><time>2026-04-18T09:06:57.999Z</time></trkpt><trkpt lat="42.548497460721144" lon="11.580109669299326"><ele>115.6</ele><time>2026-04-18T09:06:58.999Z</time></trkpt><trkpt lat="42.54839438721677" lon="11.580069117129451"><ele>115.4</ele><time>2026-04-18T09:06:59.999Z</time></trkpt><trkpt lat="42.54828083738607" lon="11.580052021928417"><ele>115.2</ele><time>2026-04-18T09:07:00.999Z</time></trkpt><trkpt lat="42.54818140260924" lon="11.580051522832955"><ele>115.0</ele><time>2026-04-18T09:07:01.999Z</time></trkpt><trkpt lat="42.54808403476327" lon="11.580040623282272"><ele>115.0</ele><time>2026-04-18T09:07:02.999Z</time></trkpt><trkpt lat="42.54798420606323" lon="11.580133459204708"><ele>115.0</ele><time>2026-04-18T09:07:04.999Z</time></trkpt><trkpt lat="42.54788873143409" lon="11.58012535215982"><ele>115.0</ele><time>2026-04-18T09:07:05.999Z</time></trkpt><trkpt lat="42.54781158053647" lon="11.580076722202358"><ele>115.0</ele><time>2026-04-18T09:07:06.999Z</time></trkpt><trkpt lat="42.54771113043357" lon="11.580012477884711"><ele>115.0</ele><time>2026-04-18T09:07:07.999Z</time></trkpt><trkpt lat="42.547575923057" lon="11.579942259781053"><ele>114.25</ele><time>2026-04-18T09:07:08.999Z</time></trkpt><trkpt lat="42.547431563576886" lon="11.57990596560282"><ele>113.5</ele><time>2026-04-18T09:07:09.999Z</time></trkpt><trkpt lat="42.547308920421706" lon="11.57988831840012"><ele>112.75</ele><time>2026-04-18T09:07:10.999Z</time></trkpt><trkpt lat="42.547200605618116" lon="11.579837626034188"><ele>112.0</ele><time>2026-04-18T09:07:11.999Z</time></trkpt><trkpt lat="42.5470908355705" lon="11.579769653220744"><ele>112.5</ele><time>2026-04-18T09:07:12.999Z</time></trkpt><trkpt lat="42.54697490932199" lon="11.579687386050585"><ele>113.0</ele><time>2026-04-18T09:07:13.999Z</time></trkpt><trkpt lat="42.546833861164025" lon="11.579580550297031"><ele>113.5</ele><time>2026-04-18T09:07:14.999Z</time></trkpt><trkpt lat="42.54670207277213" lon="11.579482049165495"><ele>114.0</ele><time>2026-04-18T09:07:15.999Z</time></trkpt><trkpt lat="42.546602633167204" lon="11.579411422805963"><ele>115.0</ele><time>2026-04-18T09:07:16.999Z</time></trkpt><trkpt lat="42.546518159615566" lon="11.579342517558402"><ele>116.0</ele><time>2026-04-18T09:07:17.999Z</time></trkpt><trkpt lat="42.54643444404688" lon="11.579249668242031"><ele>117.0</ele><time>2026-04-18T09:07:18.999Z</time></trkpt><trkpt lat="42.54635726084902" lon="11.57915472444988"><ele>118.0</ele><time>2026-04-18T09:07:19.999Z</time></trkpt><trkpt lat="42.54630313261962" lon="11.579055849987643"><ele>119.0</ele><time>2026-04-18T09:07:20.999Z</time></trkpt><trkpt lat="42.546249133451305" lon="11.578984008099363"><ele>118.49999999999999</ele><time>2026-04-18T09:07:21.999Z</time></trkpt><trkpt lat="42.54617669585478" lon="11.578951278189667"><ele>118.0</ele><time>2026-04-18T09:07:23.999Z</time></trkpt><trkpt lat="42.546086814084674" lon="11.57900264611841"><ele>117.5</ele><time>2026-04-18T09:07:25.999Z</time></trkpt><trkpt lat="42.54599510036134" lon="11.579077696174291"><ele>117.0</ele><time>2026-04-18T09:07:27.999Z</time></trkpt><trkpt lat="42.54591949116522" lon="11.579136355331434"><ele>116.49999999999999</ele><time>2026-04-18T09:07:28.999Z</time></trkpt><trkpt lat="42.54584286078088" lon="11.579173461717168"><ele>116.0</ele><time>2026-04-18T09:07:29.999Z</time></trkpt><trkpt lat="42.545767830065984" lon="11.579183398131669"><ele>116.0</ele><time>2026-04-18T09:07:30.999Z</time></trkpt><trkpt lat="42.545687416290676" lon="11.579187325981"><ele>116.0</ele><time>2026-04-18T09:07:31.999Z</time></trkpt><trkpt lat="42.54558838627227" lon="11.579174782755107"><ele>116.0</ele><time>2026-04-18T09:07:32.999Z</time></trkpt><trkpt lat="42.54546824822186" lon="11.579167606844237"><ele>116.0</ele><time>2026-04-18T09:07:33.999Z</time></trkpt><trkpt lat="42.545339850407686" lon="11.579149368935582"><ele>116.0</ele><time>2026-04-18T09:07:34.999Z</time></trkpt><trkpt lat="42.54520829171832" lon="11.579143216553504"><ele>115.4</ele><time>2026-04-18T09:07:35.999Z</time></trkpt><trkpt lat="42.54508949175078" lon="11.579127182105871"><ele>114.8</ele><time>2026-04-18T09:07:36.999Z</time></trkpt><trkpt lat="42.54497607237033" lon="11.57911030274562"><ele>114.20000000000002</ele><time>2026-04-18T09:07:37.999Z</time></trkpt><trkpt lat="42.54487011957589" lon="11.579102994875457"><ele>113.60000000000001</ele><time>2026-04-18T09:07:38.999Z</time></trkpt><trkpt lat="42.54477069517404" lon="11.579099804716645"><ele>113.0</ele><time>2026-04-18T09:07:39.999Z</time></trkpt><trkpt lat="42.544681258348064" lon="11.57910364781593"><ele>113.0</ele><time>2026-04-18T09:07:40.999Z</time></trkpt><trkpt lat="42.544598392888375" lon="11.57909536870823"><ele>113.00000000000001</ele><time>2026-04-18T09:07:41.999Z</time></trkpt><trkpt lat="42.54451996587231" lon="11.579068259579378"><ele>113.00000000000001</ele><time>2026-04-18T09:07:42.999Z</time></trkpt><trkpt lat="42.54443164375942" lon="11.579015754028237"><ele>113.0</ele><time>2026-04-18T09:07:43.999Z</time></trkpt><trkpt lat="42.544347505281046" lon="11.578937389877934"><ele>113.0</ele><time>2026-04-18T09:07:44.999Z</time></trkpt><trkpt lat="42.544254678067055" lon="11.578858939709246"><ele>112.5</ele><time>2026-04-18T09:07:45.999Z</time></trkpt><trkpt lat="42.54414579016447" lon="11.578771064758598"><ele>112.0</ele><time>2026-04-18T09:07:46.999Z</time></trkpt><trkpt lat="42.54401848952722" lon="11.578670672733375"><ele>111.5</ele><time>2026-04-18T09:07:47.999Z</time></trkpt><trkpt lat="42.543890247183725" lon="11.578566690098215"><ele>111.0</ele><time>2026-04-18T09:07:48.999Z</time></trkpt><trkpt lat="42.54374743186231" lon="11.578480063290874"><ele>111.0</ele><time>2026-04-18T09:07:49.999Z</time></trkpt><trkpt lat="42.54358896076465" lon="11.578397227807567"><ele>111.0</ele><time>2026-04-18T09:07:50.999Z</time></trkpt><trkpt lat="42.54343016069708" lon="11.578311766510899"><ele>111.0</ele><time>2026-04-18T09:07:51.999Z</time></trkpt><trkpt lat="42.543296603022604" lon="11.57822228629266"><ele>111.0</ele><time>2026-04-18T09:07:52.998Z</time></trkpt><trkpt lat="42.543181385686175" lon="11.578148239277624"><ele>111.0</ele><time>2026-04-18T09:07:53.998Z</time></trkpt><trkpt lat="42.543069221873445" lon="11.578064132123346"><ele>111.0</ele><time>2026-04-18T09:07:54.998Z</time></trkpt><trkpt lat="42.542949294297756" lon="11.577954227994308"><ele>111.0</ele><time>2026-04-18T09:07:55.998Z</time></trkpt><trkpt lat="42.54282891012721" lon="11.57783374322396"><ele>113.33333333333334</ele><time>2026-04-18T09:07:56.998Z</time></trkpt><trkpt lat="42.542670751759665" lon="11.577679411143718"><ele>115.66666666666667</ele><time>2026-04-18T09:07:57.998Z</time></trkpt><trkpt lat="42.54249711264264" lon="11.577515970539153"><ele>118.0</ele><time>2026-04-18T09:07:58.998Z</time></trkpt><trkpt lat="42.54235612591081" lon="11.577384961137328"><ele>118.0</ele><time>2026-04-18T09:07:59.998Z</time></trkpt><trkpt lat="42.54223928395354" lon="11.577280451409406"><ele>118.0</ele><time>2026-04-18T09:08:00.998Z</time></trkpt><trkpt lat="42.54213399772939" lon="11.577182603906222"><ele>118.0</ele><time>2026-04-18T09:08:01.998Z</time></trkpt><trkpt lat="42.54205296466049" lon="11.577102613145927"><ele>118.0</ele><time>2026-04-18T09:08:03Z</time></trkpt><trkpt lat="42.541969242098084" lon="11.57703123620293"><ele>118.33333333333334</ele><time>2026-04-18T09:08:04Z</time></trkpt><trkpt lat="42.541880290028686" lon="11.576958412720066"><ele>118.66666666666667</ele><time>2026-04-18T09:08:05Z</time></trkpt><trkpt lat="42.54181149020516" lon="11.57689226351732"><ele>119.0</ele><time>2026-04-18T09:08:06Z</time></trkpt><trkpt lat="42.541761523803146" lon="11.576830846556105"><ele>119.33333333333334</ele><time>2026-04-18T09:08:07Z</time></trkpt><trkpt lat="42.541704491624124" lon="11.576747565539176"><ele>119.66666666666667</ele><time>2026-04-18T09:08:08Z</time></trkpt><trkpt lat="42.541659755753344" lon="11.576649383397559"><ele>120.0</ele><time>2026-04-18T09:08:09Z</time></trkpt><trkpt lat="42.541633752008096" lon="11.576549496522677"><ele>120.0</ele><time>2026-04-18T09:08:10Z</time></trkpt><trkpt lat="42.54159970123489" lon="11.576457006945583"><ele>120.0</ele><time>2026-04-18T09:08:11Z</time></trkpt><trkpt lat="42.541555595370276" lon="11.576331849754718"><ele>120.0</ele><time>2026-04-18T09:08:13Z</time></trkpt><trkpt lat="42.54151144834466" lon="11.576266306476793"><ele>120.0</ele><time>2026-04-18T09:08:16Z</time></trkpt><trkpt lat="42.54143531598569" lon="11.576341738101616"><ele>120.0</ele><time>2026-04-18T09:09:00.999Z</time></trkpt><trkpt lat="42.54141493478769" lon="11.576451546700355"><ele>120.0</ele><time>2026-04-18T09:09:01.999Z</time></trkpt><trkpt lat="42.54138207663797" lon="11.576618419834563"><ele>120.0</ele><time>2026-04-18T09:09:02.999Z</time></trkpt><trkpt lat="42.541321961982476" lon="11.576830998800345"><ele>120.0</ele><time>2026-04-18T09:09:03.999Z</time></trkpt><trkpt lat="42.54125934761489" lon="11.5770747451079"><ele>120.0</ele><time>2026-04-18T09:09:04.999Z</time></trkpt><trkpt lat="42.54119185522595" lon="11.577347213140918"><ele>117.0</ele><time>2026-04-18T09:09:05.999Z</time></trkpt><trkpt lat="42.5411150349162" lon="11.577645458286657"><ele>114.0</ele><time>2026-04-18T09:09:06.999Z</time></trkpt><trkpt lat="42.54103949628618" lon="11.57793755849464"><ele>114.0</ele><time>2026-04-18T09:09:07.999Z</time></trkpt><trkpt lat="42.54097037615112" lon="11.578218843064192"><ele>114.0</ele><time>2026-04-18T09:09:08.999Z</time></trkpt><trkpt lat="42.540901584492374" lon="11.57850432857575"><ele>114.0</ele><time>2026-04-18T09:09:09.999Z</time></trkpt><trkpt lat="42.54083481577799" lon="11.578779418605274"><ele>113.33333333333334</ele><time>2026-04-18T09:09:10.999Z</time></trkpt><trkpt lat="42.540767906904904" lon="11.57905238480935"><ele>112.66666666666667</ele><time>2026-04-18T09:09:11.999Z</time></trkpt><trkpt lat="42.54069580677234" lon="11.579324828409819"><ele>112.0</ele><time>2026-04-18T09:09:12.999Z</time></trkpt><trkpt lat="42.54062832967682" lon="11.579593092158587"><ele>112.0</ele><time>2026-04-18T09:09:13.999Z</time></trkpt><trkpt lat="42.54055735126034" lon="11.579874261654796"><ele>112.0</ele><time>2026-04-18T09:09:14.999Z</time></trkpt><trkpt lat="42.54048380334136" lon="11.58015036788525"><ele>112.0</ele><time>2026-04-18T09:09:15.999Z</time></trkpt><trkpt lat="42.54041847611606" lon="11.580415382700766"><ele>110.66666666666667</ele><time>2026-04-18T09:09:16.999Z</time></trkpt><trkpt lat="42.540354074605176" lon="11.580670297104675"><ele>109.33333333333334</ele><time>2026-04-18T09:09:17.999Z</time></trkpt><trkpt lat="42.540293213472836" lon="11.580920754587313"><ele>108.0</ele><time>2026-04-18T09:09:18.999Z</time></trkpt><trkpt lat="42.54023424322467" lon="11.581164797232512"><ele>107.33333333333334</ele><time>2026-04-18T09:09:19.999Z</time></trkpt><trkpt lat="42.54016725853274" lon="11.581419207730674"><ele>106.66666666666667</ele><time>2026-04-18T09:09:20.999Z</time></trkpt><trkpt lat="42.54010112682984" lon="11.581665125420193"><ele>106.0</ele><time>2026-04-18T09:09:21.999Z</time></trkpt><trkpt lat="42.54003834101176" lon="11.58190609256545"><ele>106.0</ele><time>2026-04-18T09:09:22.999Z</time></trkpt><trkpt lat="42.5399774490194" lon="11.582149590301997"><ele>106.0</ele><time>2026-04-18T09:09:23.999Z</time></trkpt><trkpt lat="42.53991897883415" lon="11.58239598896786"><ele>106.0</ele><time>2026-04-18T09:09:24.999Z</time></trkpt><trkpt lat="42.53985872760635" lon="11.582630694904756"><ele>105.66666666666667</ele><time>2026-04-18T09:09:25.999Z</time></trkpt><trkpt lat="42.539796101576556" lon="11.582872877393735"><ele>105.33333333333334</ele><time>2026-04-18T09:09:26.999Z</time></trkpt><trkpt lat="42.53973686873159" lon="11.58311326482119"><ele>105.0</ele><time>2026-04-18T09:09:27.999Z</time></trkpt><trkpt lat="42.539679371853644" lon="11.583349472140112"><ele>105.0</ele><time>2026-04-18T09:09:28.999Z</time></trkpt><trkpt lat="42.53962107197941" lon="11.583591160433555"><ele>105.0</ele><time>2026-04-18T09:09:29.999Z</time></trkpt><trkpt lat="42.53956409609633" lon="11.58383365795193"><ele>105.0</ele><time>2026-04-18T09:09:30.999Z</time></trkpt><trkpt lat="42.539497147385504" lon="11.584079556661246"><ele>106.66666666666666</ele><time>2026-04-18T09:09:31.999Z</time></trkpt><trkpt lat="42.53943499290785" lon="11.58431800285814"><ele>108.33333333333333</ele><time>2026-04-18T09:09:32.999Z</time></trkpt><trkpt lat="42.539379700839184" lon="11.584533670506074"><ele>110.0</ele><time>2026-04-18T09:09:33.999Z</time></trkpt><trkpt lat="42.53932469801792" lon="11.584733060333065"><ele>110.0</ele><time>2026-04-18T09:09:34.999Z</time></trkpt><trkpt lat="42.53925147991216" lon="11.58488613908827"><ele>110.0</ele><time>2026-04-18T09:09:35.999Z</time></trkpt><trkpt lat="42.53914298736517" lon="11.585018795100371"><ele>110.0</ele><time>2026-04-18T09:09:36.999Z</time></trkpt><trkpt lat="42.539005205569744" lon="11.585153353898946"><ele>110.0</ele><time>2026-04-18T09:09:37.999Z</time></trkpt><trkpt lat="42.53884105778105" lon="11.585301186409602"><ele>110.0</ele><time>2026-04-18T09:09:38.999Z</time></trkpt><trkpt lat="42.53868087056067" lon="11.58544614843431"><ele>110.0</ele><time>2026-04-18T09:09:39.999Z</time></trkpt><trkpt lat="42.53852023617438" lon="11.585600910394755"><ele>111.33333333333333</ele><time>2026-04-18T09:09:40.999Z</time></trkpt><trkpt lat="42.53835823667956" lon="11.585761013824158"><ele>112.66666666666666</ele><time>2026-04-18T09:09:41.999Z</time></trkpt><trkpt lat="42.53819357816374" lon="11.58592370325871"><ele>114.0</ele><time>2026-04-18T09:09:42.999Z</time></trkpt><trkpt lat="42.538027786400406" lon="11.586080992442948"><ele>114.66666666666666</ele><time>2026-04-18T09:09:43.999Z</time></trkpt><trkpt lat="42.537862596527404" lon="11.586237003619635"><ele>115.33333333333333</ele><time>2026-04-18T09:09:44.999Z</time></trkpt><trkpt lat="42.53771712442369" lon="11.586405542540408"><ele>116.0</ele><time>2026-04-18T09:09:45.999Z</time></trkpt><trkpt lat="42.537592181116786" lon="11.586622696766206"><ele>116.0</ele><time>2026-04-18T09:09:46.999Z</time></trkpt><trkpt lat="42.537472269072325" lon="11.586893703077175"><ele>116.0</ele><time>2026-04-18T09:09:47.999Z</time></trkpt><trkpt lat="42.537346978037256" lon="11.587194598939885"><ele>114.66666666666666</ele><time>2026-04-18T09:09:48.999Z</time></trkpt><trkpt lat="42.53722654125877" lon="11.587467123476818"><ele>113.33333333333334</ele><time>2026-04-18T09:09:49.999Z</time></trkpt><trkpt lat="42.5371178375411" lon="11.58769101771018"><ele>112.0</ele><time>2026-04-18T09:09:50.999Z</time></trkpt><trkpt lat="42.537032182107744" lon="11.587844919845468"><ele>112.0</ele><time>2026-04-18T09:09:51.999Z</time></trkpt><trkpt lat="42.536935240293076" lon="11.587947217748866"><ele>112.0</ele><time>2026-04-18T09:09:52.999Z</time></trkpt><trkpt lat="42.53681243163944" lon="11.588015590419529"><ele>112.0</ele><time>2026-04-18T09:09:53.998Z</time></trkpt><trkpt lat="42.53663615410345" lon="11.588039803819719"><ele>112.0</ele><time>2026-04-18T09:09:54.998Z</time></trkpt><trkpt lat="42.53642863290528" lon="11.58804790522488"><ele>112.0</ele><time>2026-04-18T09:09:55.998Z</time></trkpt><trkpt lat="42.53622349156022" lon="11.588076388779456"><ele>112.0</ele><time>2026-04-18T09:09:56.998Z</time></trkpt><trkpt lat="42.53604503451524" lon="11.588146772953078"><ele>112.0</ele><time>2026-04-18T09:09:57.998Z</time></trkpt><trkpt lat="42.535881018314306" lon="11.588261706790767"><ele>112.0</ele><time>2026-04-18T09:09:58.998Z</time></trkpt><trkpt lat="42.535711544788526" lon="11.588439768477478"><ele>112.0</ele><time>2026-04-18T09:09:59.998Z</time></trkpt><trkpt lat="42.535533610058174" lon="11.58865871154103"><ele>112.5</ele><time>2026-04-18T09:10:00.998Z</time></trkpt><trkpt lat="42.53533469474229" lon="11.588882019836884"><ele>113.0</ele><time>2026-04-18T09:10:01.998Z</time></trkpt><trkpt lat="42.53513410245388" lon="11.589090982116419"><ele>113.0</ele><time>2026-04-18T09:10:02.998Z</time></trkpt><trkpt lat="42.53494570253146" lon="11.589281139472154"><ele>113.0</ele><time>2026-04-18T09:10:03.998Z</time></trkpt><trkpt lat="42.534778619423456" lon="11.58945555529983"><ele>113.0</ele><time>2026-04-18T09:10:04.998Z</time></trkpt><trkpt lat="42.53463212930177" lon="11.589620640617145"><ele>115.0</ele><time>2026-04-18T09:10:05.998Z</time></trkpt><trkpt lat="42.53450018614252" lon="11.589759083598256"><ele>117.0</ele><time>2026-04-18T09:10:06.998Z</time></trkpt><trkpt lat="42.53437467108411" lon="11.589851743223198"><ele>119.0</ele><time>2026-04-18T09:10:07.999Z</time></trkpt><trkpt lat="42.53422355179247" lon="11.589894994045366"><ele>119.0</ele><time>2026-04-18T09:10:08.999Z</time></trkpt><trkpt lat="42.5340548708088" lon="11.589908172055205"><ele>119.0</ele><time>2026-04-18T09:10:09.999Z</time></trkpt><trkpt lat="42.533875160668835" lon="11.589910753578675"><ele>119.0</ele><time>2026-04-18T09:10:10.999Z</time></trkpt><trkpt lat="42.53369768294002" lon="11.58991080431204"><ele>121.0</ele><time>2026-04-18T09:10:11.999Z</time></trkpt><trkpt lat="42.53351560455353" lon="11.589894144570861"><ele>123.0</ele><time>2026-04-18T09:10:12.999Z</time></trkpt><trkpt lat="42.53334477399103" lon="11.589873938482341"><ele>125.0</ele><time>2026-04-18T09:10:13.999Z</time></trkpt><trkpt lat="42.53318010350759" lon="11.589886355098232"><ele>125.0</ele><time>2026-04-18T09:10:14.999Z</time></trkpt><trkpt lat="42.533002141390554" lon="11.589940279184212"><ele>125.0</ele><time>2026-04-18T09:10:15.999Z</time></trkpt><trkpt lat="42.532824698705824" lon="11.590026700696747"><ele>125.0</ele><time>2026-04-18T09:10:16.999Z</time></trkpt><trkpt lat="42.53266367799477" lon="11.590132913925116"><ele>124.0</ele><time>2026-04-18T09:10:17.999Z</time></trkpt><trkpt lat="42.53250033383061" lon="11.590243979887626"><ele>123.0</ele><time>2026-04-18T09:10:18.999Z</time></trkpt><trkpt lat="42.53233873767472" lon="11.590343187682679"><ele>122.0</ele><time>2026-04-18T09:10:20Z</time></trkpt><trkpt lat="42.53217605471513" lon="11.590449337551194"><ele>127.0</ele><time>2026-04-18T09:10:21Z</time></trkpt><trkpt lat="42.532035713223756" lon="11.590574925609213"><ele>132.0</ele><time>2026-04-18T09:10:22Z</time></trkpt><trkpt lat="42.5319089100484" lon="11.590745623090752"><ele>137.0</ele><time>2026-04-18T09:10:23Z</time></trkpt><trkpt lat="42.53178056581819" lon="11.590971086685498"><ele>131.33333333333331</ele><time>2026-04-18T09:10:24Z</time></trkpt><trkpt lat="42.531645575874904" lon="11.591213790765323"><ele>125.66666666666666</ele><time>2026-04-18T09:10:25Z</time></trkpt><trkpt lat="42.531504292521" lon="11.591447076482108"><ele>120.0</ele><time>2026-04-18T09:10:26Z</time></trkpt><trkpt lat="42.53135730305434" lon="11.591660946985645"><ele>122.33333333333334</ele><time>2026-04-18T09:10:27Z</time></trkpt><trkpt lat="42.53121543810847" lon="11.591881240503373"><ele>124.66666666666667</ele><time>2026-04-18T09:10:28Z</time></trkpt><trkpt lat="42.531081533923285" lon="11.592102176411592"><ele>127.0</ele><time>2026-04-18T09:10:29Z</time></trkpt><trkpt lat="42.5309463286613" lon="11.592319905607965"><ele>127.0</ele><time>2026-04-18T09:10:30Z</time></trkpt><trkpt lat="42.530811592280614" lon="11.592528257637134"><ele>127.0</ele><time>2026-04-18T09:10:31Z</time></trkpt><trkpt lat="42.53067575393794" lon="11.592728725921695"><ele>127.0</ele><time>2026-04-18T09:10:32Z</time></trkpt><trkpt lat="42.53054714189587" lon="11.592917955988662"><ele>123.0</ele><time>2026-04-18T09:10:33Z</time></trkpt><trkpt lat="42.530424486603636" lon="11.59308833893062"><ele>119.0</ele><time>2026-04-18T09:10:34Z</time></trkpt><trkpt lat="42.5303100109355" lon="11.593237041931781"><ele>115.0</ele><time>2026-04-18T09:10:35Z</time></trkpt><trkpt lat="42.53018860622117" lon="11.593362799750738"><ele>117.75</ele><time>2026-04-18T09:10:36Z</time></trkpt><trkpt lat="42.530077955420694" lon="11.59347712293029"><ele>120.5</ele><time>2026-04-18T09:10:37Z</time></trkpt><trkpt lat="42.529998948676294" lon="11.593623693996415"><ele>123.25</ele><time>2026-04-18T09:10:37.999Z</time></trkpt><trkpt lat="42.52994943507747" lon="11.593819704511262"><ele>126.0</ele><time>2026-04-18T09:10:38.999Z</time></trkpt><trkpt lat="42.529922029280975" lon="11.594062633520752"><ele>126.0</ele><time>2026-04-18T09:10:39.999Z</time></trkpt><trkpt lat="42.529892784533466" lon="11.594329340173607"><ele>126.0</ele><time>2026-04-18T09:10:40.999Z</time></trkpt><trkpt lat="42.52984862911092" lon="11.594613351892688"><ele>126.0</ele><time>2026-04-18T09:10:41.999Z</time></trkpt><trkpt lat="42.529801910766786" lon="11.594890960944252"><ele>124.0</ele><time>2026-04-18T09:10:42.999Z</time></trkpt><trkpt lat="42.529753523379" lon="11.595127105930331"><ele>122.0</ele><time>2026-04-18T09:10:43.999Z</time></trkpt><trkpt lat="42.52969559487797" lon="11.595334739873637"><ele>120.0</ele><time>2026-04-18T09:10:44.999Z</time></trkpt><trkpt lat="42.529609607092546" lon="11.595509713189578"><ele>123.75</ele><time>2026-04-18T09:10:45.999Z</time></trkpt><trkpt lat="42.52951489508752" lon="11.595654089629747"><ele>127.5</ele><time>2026-04-18T09:10:46.999Z</time></trkpt><trkpt lat="42.5294304053131" lon="11.595813156459686"><ele>131.25</ele><time>2026-04-18T09:10:47.999Z</time></trkpt><trkpt lat="42.52938578209248" lon="11.596015937193336"><ele>135.0</ele><time>2026-04-18T09:10:48.999Z</time></trkpt><trkpt lat="42.529365338721554" lon="11.596257858966577"><ele>136.0</ele><time>2026-04-18T09:10:49.999Z</time></trkpt><trkpt lat="42.5293605004041" lon="11.596502416175916"><ele>137.0</ele><time>2026-04-18T09:10:50.999Z</time></trkpt><trkpt lat="42.52935305396433" lon="11.596740567069512"><ele>138.0</ele><time>2026-04-18T09:10:51.999Z</time></trkpt><trkpt lat="42.529337079743144" lon="11.596965470611037"><ele>135.33333333333334</ele><time>2026-04-18T09:10:52.999Z</time></trkpt><trkpt lat="42.529291980724885" lon="11.597175742552666"><ele>132.66666666666669</ele><time>2026-04-18T09:10:53.999Z</time></trkpt><trkpt lat="42.529218644637446" lon="11.597380456760366"><ele>130.0</ele><time>2026-04-18T09:10:54.999Z</time></trkpt><trkpt lat="42.52912849014693" lon="11.597583690231511"><ele>130.0</ele><time>2026-04-18T09:10:55.999Z</time></trkpt><trkpt lat="42.52903317771379" lon="11.597793300472114"><ele>130.0</ele><time>2026-04-18T09:10:56.999Z</time></trkpt><trkpt lat="42.52893385488489" lon="11.598001835967953"><ele>130.0</ele><time>2026-04-18T09:10:57.999Z</time></trkpt><trkpt lat="42.52882969275899" lon="11.598199657788694"><ele>127.33333333333334</ele><time>2026-04-18T09:10:58.999Z</time></trkpt><trkpt lat="42.52870926772283" lon="11.59838975778126"><ele>124.66666666666666</ele><time>2026-04-18T09:10:59.999Z</time></trkpt><trkpt lat="42.52857328020988" lon="11.598558075174903"><ele>122.0</ele><time>2026-04-18T09:11:00.999Z</time></trkpt><trkpt lat="42.52843654537607" lon="11.598713264038627"><ele>122.0</ele><time>2026-04-18T09:11:01.999Z</time></trkpt><trkpt lat="42.52832925599578" lon="11.598859771913204"><ele>122.0</ele><time>2026-04-18T09:11:02.999Z</time></trkpt><trkpt lat="42.52826121390582" lon="11.599025741078025"><ele>122.0</ele><time>2026-04-18T09:11:03.999Z</time></trkpt><trkpt lat="42.528226860918444" lon="11.599236395276598"><ele>122.0</ele><time>2026-04-18T09:11:04.999Z</time></trkpt><trkpt lat="42.52819089877475" lon="11.599458579106205"><ele>122.0</ele><time>2026-04-18T09:11:05.999Z</time></trkpt><trkpt lat="42.52810860364888" lon="11.599669150090179"><ele>122.0</ele><time>2026-04-18T09:11:06.999Z</time></trkpt><trkpt lat="42.527987726586495" lon="11.599906086193501"><ele>124.66666666666666</ele><time>2026-04-18T09:11:07.999Z</time></trkpt><trkpt lat="42.52785327901757" lon="11.60016526669777"><ele>127.33333333333334</ele><time>2026-04-18T09:11:08.999Z</time></trkpt><trkpt lat="42.527733878986744" lon="11.600405559435918"><ele>130.0</ele><time>2026-04-18T09:11:09.999Z</time></trkpt><trkpt lat="42.52762741798741" lon="11.600620680438292"><ele>130.0</ele><time>2026-04-18T09:11:10.999Z</time></trkpt><trkpt lat="42.52752648791665" lon="11.600828304209623"><ele>130.0</ele><time>2026-04-18T09:11:11.999Z</time></trkpt><trkpt lat="42.52743949850495" lon="11.60102820418346"><ele>130.0</ele><time>2026-04-18T09:11:12.999Z</time></trkpt><trkpt lat="42.52739094909943" lon="11.601173684828334"><ele>126.2</ele><time>2026-04-18T09:11:13.999Z</time></trkpt><trkpt lat="42.52736886206828" lon="11.601303949122725"><ele>122.4</ele><time>2026-04-18T09:11:15.999Z</time></trkpt><trkpt lat="42.52733027732268" lon="11.601482996223496"><ele>118.6</ele><time>2026-04-18T09:11:17.999Z</time></trkpt><trkpt lat="42.527284998521395" lon="11.601589515055778"><ele>114.8</ele><time>2026-04-18T09:11:18.999Z</time></trkpt><trkpt lat="42.527224934593825" lon="11.601704690108939"><ele>111.0</ele><time>2026-04-18T09:11:19.999Z</time></trkpt><trkpt lat="42.52715961206998" lon="11.601812996646347"><ele>111.0</ele><time>2026-04-18T09:11:20.999Z</time></trkpt><trkpt lat="42.52710369687119" lon="11.601937281407665"><ele>111.0</ele><time>2026-04-18T09:11:21.999Z</time></trkpt><trkpt lat="42.527063730646034" lon="11.60209444121238"><ele>111.0</ele><time>2026-04-18T09:11:22.999Z</time></trkpt><trkpt lat="42.52703233767386" lon="11.602278265052856"><ele>111.0</ele><time>2026-04-18T09:11:23.999Z</time></trkpt><trkpt lat="42.5269720578927" lon="11.602464618838898"><ele>112.75</ele><time>2026-04-18T09:11:24.999Z</time></trkpt><trkpt lat="42.52691160445199" lon="11.602647913184477"><ele>114.5</ele><time>2026-04-18T09:11:25.999Z</time></trkpt><trkpt lat="42.52684682917412" lon="11.602811844366702"><ele>116.25</ele><time>2026-04-18T09:11:26.999Z</time></trkpt><trkpt lat="42.52679094695879" lon="11.602950926333303"><ele>118.0</ele><time>2026-04-18T09:11:27.999Z</time></trkpt><trkpt lat="42.526751032103306" lon="11.603093153977968"><ele>118.0</ele><time>2026-04-18T09:11:28.999Z</time></trkpt><trkpt lat="42.5266956428711" lon="11.603249645454827"><ele>118.0</ele><time>2026-04-18T09:11:29.999Z</time></trkpt><trkpt lat="42.5266360040056" lon="11.603392636497485"><ele>118.0</ele><time>2026-04-18T09:11:30.999Z</time></trkpt><trkpt lat="42.52657380681116" lon="11.60351767235073"><ele>118.0</ele><time>2026-04-18T09:11:31.999Z</time></trkpt><trkpt lat="42.52649583174413" lon="11.603629154395847"><ele>120.2</ele><time>2026-04-18T09:11:32.999Z</time></trkpt><trkpt lat="42.52642130389949" lon="11.603720023506266"><ele>122.4</ele><time>2026-04-18T09:11:33.999Z</time></trkpt><trkpt lat="42.52634779629915" lon="11.603820901739287"><ele>124.60000000000001</ele><time>2026-04-18T09:11:34.999Z</time></trkpt><trkpt lat="42.52628174113031" lon="11.603941991136818"><ele>126.80000000000001</ele><time>2026-04-18T09:11:35.999Z</time></trkpt><trkpt lat="42.52623181653851" lon="11.6040739071767"><ele>129.0</ele><time>2026-04-18T09:11:36.999Z</time></trkpt><trkpt lat="42.526184760120984" lon="11.60421424891488"><ele>129.0</ele><time>2026-04-18T09:11:37.999Z</time></trkpt><trkpt lat="42.52614220155233" lon="11.604363823726077"><ele>129.0</ele><time>2026-04-18T09:11:38.999Z</time></trkpt><trkpt lat="42.52610087738288" lon="11.604504342167006"><ele>129.0</ele><time>2026-04-18T09:11:39.999Z</time></trkpt><trkpt lat="42.52602841746114" lon="11.604663127111285"><ele>129.0</ele><time>2026-04-18T09:11:40.999Z</time></trkpt><trkpt lat="42.52594495573175" lon="11.604813892656091"><ele>124.0</ele><time>2026-04-18T09:11:41.999Z</time></trkpt><trkpt lat="42.52585942286114" lon="11.604960096002099"><ele>119.0</ele><time>2026-04-18T09:11:42.999Z</time></trkpt><trkpt lat="42.52577701743609" lon="11.605097462715136"><ele>114.0</ele><time>2026-04-18T09:11:43.999Z</time></trkpt><trkpt lat="42.52569642183242" lon="11.605243259611994"><ele>109.0</ele><time>2026-04-18T09:11:44.999Z</time></trkpt><trkpt lat="42.52562325456023" lon="11.605368784623472"><ele>110.75</ele><time>2026-04-18T09:11:45.999Z</time></trkpt><trkpt lat="42.525547140695345" lon="11.605503512106859"><ele>112.5</ele><time>2026-04-18T09:11:46.999Z</time></trkpt><trkpt lat="42.52546152796781" lon="11.605643659511069"><ele>114.25</ele><time>2026-04-18T09:11:47.999Z</time></trkpt><trkpt lat="42.525373383580686" lon="11.605781098078744"><ele>116.0</ele><time>2026-04-18T09:11:48.999Z</time></trkpt><trkpt lat="42.52528771275908" lon="11.605902037154952"><ele>116.0</ele><time>2026-04-18T09:11:49.999Z</time></trkpt><trkpt lat="42.52518528355168" lon="11.606013662385777"><ele>116.0</ele><time>2026-04-18T09:11:50.999Z</time></trkpt><trkpt lat="42.52507860653786" lon="11.60610276612829"><ele>116.0</ele><time>2026-04-18T09:11:51.999Z</time></trkpt><trkpt lat="42.52498465805789" lon="11.606161156839635"><ele>116.0</ele><time>2026-04-18T09:11:52.999Z</time></trkpt><trkpt lat="42.52489720807172" lon="11.60618446126567"><ele>116.0</ele><time>2026-04-18T09:11:53.999Z</time></trkpt><trkpt lat="42.5248246685776" lon="11.606177188761295"><ele>117.6</ele><time>2026-04-18T09:11:54.999Z</time></trkpt><trkpt lat="42.52474374594044" lon="11.606176404997342"><ele>119.19999999999999</ele><time>2026-04-18T09:11:55.999Z</time></trkpt><trkpt lat="42.52463533564526" lon="11.606172398831129"><ele>120.80000000000001</ele><time>2026-04-18T09:11:56.999Z</time></trkpt><trkpt lat="42.524519726010354" lon="11.606160769383017"><ele>122.4</ele><time>2026-04-18T09:11:57.999Z</time></trkpt><trkpt lat="42.52440634035751" lon="11.606143298135505"><ele>124.0</ele><time>2026-04-18T09:11:58.999Z</time></trkpt><trkpt lat="42.52430105909111" lon="11.606120993151965"><ele>124.0</ele><time>2026-04-18T09:11:59.998Z</time></trkpt><trkpt lat="42.524214980236394" lon="11.606098600586458"><ele>124.0</ele><time>2026-04-18T09:12:00.998Z</time></trkpt><trkpt lat="42.524134029817226" lon="11.60606539201678"><ele>124.0</ele><time>2026-04-18T09:12:01.998Z</time></trkpt><trkpt lat="42.524040090670454" lon="11.606058551668218"><ele>124.0</ele><time>2026-04-18T09:12:02.998Z</time></trkpt><trkpt lat="42.52394766483369" lon="11.606043605500032"><ele>124.0</ele><time>2026-04-18T09:12:03.998Z</time></trkpt><trkpt lat="42.5238548500604" lon="11.606041462490293"><ele>124.0</ele><time>2026-04-18T09:12:04.998Z</time></trkpt><trkpt lat="42.52376498343816" lon="11.606076987911747"><ele>124.0</ele><time>2026-04-18T09:12:05.998Z</time></trkpt><trkpt lat="42.52366886881739" lon="11.606138580043506"><ele>124.0</ele><time>2026-04-18T09:12:06.998Z</time></trkpt><trkpt lat="42.52357500372566" lon="11.606218649775542"><ele>124.0</ele><time>2026-04-18T09:12:07.998Z</time></trkpt><trkpt lat="42.523493782039054" lon="11.60629243200686"><ele>124.0</ele><time>2026-04-18T09:12:08.998Z</time></trkpt><trkpt lat="42.52340718872066" lon="11.606351100768943"><ele>120.80000000000001</ele><time>2026-04-18T09:12:09.998Z</time></trkpt><trkpt lat="42.52331645217633" lon="11.606390258637585"><ele>117.60000000000001</ele><time>2026-04-18T09:12:10.998Z</time></trkpt><trkpt lat="42.52322152114622" lon="11.606424210604581"><ele>114.4</ele><time>2026-04-18T09:12:11.998Z</time></trkpt><trkpt lat="42.523126809853004" lon="11.606462749609879"><ele>111.2</ele><time>2026-04-18T09:12:12.998Z</time></trkpt><trkpt lat="42.52303038519816" lon="11.606504442098494"><ele>108.0</ele><time>2026-04-18T09:12:14Z</time></trkpt><trkpt lat="42.522934412577925" lon="11.60653636185176"><ele>108.0</ele><time>2026-04-18T09:12:15Z</time></trkpt><trkpt lat="42.52283830255628" lon="11.606558998044994"><ele>108.00000000000001</ele><time>2026-04-18T09:12:16Z</time></trkpt><trkpt lat="42.52274285157733" lon="11.606563373070877"><ele>108.00000000000001</ele><time>2026-04-18T09:12:17Z</time></trkpt><trkpt lat="42.522645536986225" lon="11.606551881985764"><ele>108.0</ele><time>2026-04-18T09:12:18Z</time></trkpt><trkpt lat="42.522538933632724" lon="11.606540289540849"><ele>108.0</ele><time>2026-04-18T09:12:19Z</time></trkpt><trkpt lat="42.52243540931723" lon="11.606533483940664"><ele>108.0</ele><time>2026-04-18T09:12:20Z</time></trkpt><trkpt lat="42.522349294899136" lon="11.606519521392139"><ele>108.0</ele><time>2026-04-18T09:12:21Z</time></trkpt><trkpt lat="42.522261230531676" lon="11.606495678184334"><ele>108.0</ele><time>2026-04-18T09:12:22Z</time></trkpt><trkpt lat="42.52218313248894" lon="11.60646278806151"><ele>108.0</ele><time>2026-04-18T09:12:23Z</time></trkpt><trkpt lat="42.52210795629509" lon="11.606412330554148"><ele>108.0</ele><time>2026-04-18T09:12:24Z</time></trkpt><trkpt lat="42.52203573900401" lon="11.606353879711211"><ele>108.0</ele><time>2026-04-18T09:12:25Z</time></trkpt><trkpt lat="42.521956594338654" lon="11.606318038364815"><ele>106.66666666666667</ele><time>2026-04-18T09:12:26Z</time></trkpt><trkpt lat="42.52188328954428" lon="11.606302745821997"><ele>105.33333333333334</ele><time>2026-04-18T09:12:27Z</time></trkpt><trkpt lat="42.52179980426741" lon="11.606272295393488"><ele>104.0</ele><time>2026-04-18T09:12:28Z</time></trkpt><trkpt lat="42.52171139760532" lon="11.606275202223195"><ele>102.66666666666667</ele><time>2026-04-18T09:12:29Z</time></trkpt><trkpt lat="42.52161412003447" lon="11.60628404343388"><ele>101.33333333333334</ele><time>2026-04-18T09:12:30Z</time></trkpt><trkpt lat="42.52151782763354" lon="11.606290779320037"><ele>100.0</ele><time>2026-04-18T09:12:31Z</time></trkpt><trkpt lat="42.52142872925454" lon="11.606290584715325"><ele>100.00000000000001</ele><time>2026-04-18T09:12:32Z</time></trkpt><trkpt lat="42.52132877145093" lon="11.606288807539999"><ele>100.0</ele><time>2026-04-18T09:12:33Z</time></trkpt><trkpt lat="42.52124098329945" lon="11.606289969093496"><ele>100.0</ele><time>2026-04-18T09:12:34Z</time></trkpt><trkpt lat="42.521158762756514" lon="11.60629331887279"><ele>100.0</ele><time>2026-04-18T09:12:35Z</time></trkpt><trkpt lat="42.52107416742669" lon="11.60630562449409"><ele>100.00000000000001</ele><time>2026-04-18T09:12:36Z</time></trkpt><trkpt lat="42.520987538230656" lon="11.606290563646503"><ele>100.0</ele><time>2026-04-18T09:12:37Z</time></trkpt><trkpt lat="42.520910586843534" lon="11.606268911579715"><ele>99.83333333333334</ele><time>2026-04-18T09:12:38Z</time></trkpt><trkpt lat="42.520832410468" lon="11.606218491015355"><ele>99.66666666666667</ele><time>2026-04-18T09:12:40Z</time></trkpt><trkpt lat="42.52082749684291" lon="11.606116516578055"><ele>99.5</ele><time>2026-04-18T09:12:42Z</time></trkpt><trkpt lat="42.52083313406428" lon="11.606027869976831"><ele>99.33333333333334</ele><time>2026-04-18T09:12:43Z</time></trkpt><trkpt lat="42.520832725791976" lon="11.605915965015138"><ele>99.16666666666667</ele><time>2026-04-18T09:12:44Z</time></trkpt><trkpt lat="42.52082938973763" lon="11.605796144550151"><ele>99.0</ele><time>2026-04-18T09:12:45Z</time></trkpt><trkpt lat="42.52082694388837" lon="11.605680229132478"><ele>101.0</ele><time>2026-04-18T09:12:46Z</time></trkpt><trkpt lat="42.52083439613108" lon="11.605566450248142"><ele>103.0</ele><time>2026-04-18T09:12:47Z</time></trkpt><trkpt lat="42.5208643645924" lon="11.605462348439248"><ele>105.0</ele><time>2026-04-18T09:12:48Z</time></trkpt><trkpt lat="42.52091395586028" lon="11.605375739075"><ele>107.0</ele><time>2026-04-18T09:12:49Z</time></trkpt><trkpt lat="42.520986047052475" lon="11.605307846631847"><ele>109.0</ele><time>2026-04-18T09:12:50Z</time></trkpt><trkpt lat="42.52107601546943" lon="11.605254049845334"><ele>111.0</ele><time>2026-04-18T09:12:51Z</time></trkpt><trkpt lat="42.52115948174678" lon="11.605207951417354"><ele>112.0</ele><time>2026-04-18T09:12:52Z</time></trkpt><trkpt lat="42.52123385872638" lon="11.605153835222994"><ele>113.0</ele><time>2026-04-18T09:12:53Z</time></trkpt><trkpt lat="42.521286090464756" lon="11.605064722516985"><ele>114.0</ele><time>2026-04-18T09:12:54Z</time></trkpt><trkpt lat="42.52131636313916" lon="11.604989673087534"><ele>115.0</ele><time>2026-04-18T09:12:55Z</time></trkpt><trkpt lat="42.52133873602085" lon="11.604906785260486"><ele>116.0</ele><time>2026-04-18T09:12:56Z</time></trkpt><trkpt lat="42.52135502194793" lon="11.604805624891451"><ele>117.0</ele><time>2026-04-18T09:12:57Z</time></trkpt><trkpt lat="42.52137843986468" lon="11.604684721644652"><ele>117.0</ele><time>2026-04-18T09:12:58Z</time></trkpt><trkpt lat="42.52138785192989" lon="11.604539838796624"><ele>116.99999999999999</ele><time>2026-04-18T09:12:59Z</time></trkpt><trkpt lat="42.52138867810359" lon="11.604398639738546"><ele>116.99999999999999</ele><time>2026-04-18T09:13:00Z</time></trkpt><trkpt lat="42.52139957520359" lon="11.604262890635773"><ele>117.0</ele><time>2026-04-18T09:13:01Z</time></trkpt><trkpt lat="42.52141587182738" lon="11.604116794873002"><ele>117.0</ele><time>2026-04-18T09:13:02Z</time></trkpt><trkpt lat="42.52144111853389" lon="11.603963512297735"><ele>116.75</ele><time>2026-04-18T09:13:03Z</time></trkpt><trkpt lat="42.521465652343686" lon="11.603798971992417"><ele>116.5</ele><time>2026-04-18T09:13:04Z</time></trkpt><trkpt lat="42.52147966112219" lon="11.6036334129531"><ele>116.25</ele><time>2026-04-18T09:13:05Z</time></trkpt><trkpt lat="42.52151059013253" lon="11.60347817670994"><ele>116.0</ele><time>2026-04-18T09:13:06Z</time></trkpt><trkpt lat="42.52153809428324" lon="11.603351388921888"><ele>115.99999999999999</ele><time>2026-04-18T09:13:07Z</time></trkpt><trkpt lat="42.52156348999397" lon="11.60323932615069"><ele>116.0</ele><time>2026-04-18T09:13:07.999Z</time></trkpt><trkpt lat="42.52157680023859" lon="11.603144126880622"><ele>116.0</ele><time>2026-04-18T09:13:08.999Z</time></trkpt><trkpt lat="42.52154538607693" lon="11.603003453117692"><ele>116.0</ele><time>2026-04-18T09:13:10.999Z</time></trkpt><trkpt lat="42.52146954448606" lon="11.602993534304359"><ele>115.99999999999999</ele><time>2026-04-18T09:13:12.999Z</time></trkpt><trkpt lat="42.521400088065235" lon="11.603075534040562"><ele>116.0</ele><time>2026-04-18T09:13:14.999Z</time></trkpt><trkpt lat="42.52133971419596" lon="11.603203871330901"><ele>115.99999999999999</ele><time>2026-04-18T09:13:16.999Z</time></trkpt><trkpt lat="42.52131856980478" lon="11.603286786822247"><ele>116.0</ele><time>2026-04-18T09:13:17.999Z</time></trkpt><trkpt lat="42.52129544237917" lon="11.60340723740614"><ele>116.0</ele><time>2026-04-18T09:13:18.999Z</time></trkpt><trkpt lat="42.52126273584437" lon="11.603531195489468"><ele>116.0</ele><time>2026-04-18T09:13:19.999Z</time></trkpt><trkpt lat="42.52122537365817" lon="11.603648311556437"><ele>115.99999999999999</ele><time>2026-04-18T09:13:20.999Z</time></trkpt><trkpt lat="42.52119421215062" lon="11.603765496049729"><ele>116.0</ele><time>2026-04-18T09:13:21.999Z</time></trkpt><trkpt lat="42.52116347997029" lon="11.603893093697929"><ele>117.8</ele><time>2026-04-18T09:13:22.999Z</time></trkpt><trkpt lat="42.52113780894777" lon="11.604044399178214"><ele>119.6</ele><time>2026-04-18T09:13:23.999Z</time></trkpt><trkpt lat="42.521114412213116" lon="11.604180066004394"><ele>121.4</ele><time>2026-04-18T09:13:24.999Z</time></trkpt><trkpt lat="42.52109854682529" lon="11.604305967792023"><ele>123.2</ele><time>2026-04-18T09:13:25.999Z</time></trkpt><trkpt lat="42.52107327555323" lon="11.604432587673909"><ele>125.0</ele><time>2026-04-18T09:13:26.999Z</time></trkpt><trkpt lat="42.52104796884684" lon="11.60455769179757"><ele>125.0</ele><time>2026-04-18T09:13:27.999Z</time></trkpt><trkpt lat="42.521008423976916" lon="11.604675609894132"><ele>125.0</ele><time>2026-04-18T09:13:28.999Z</time></trkpt><trkpt lat="42.5209542191596" lon="11.604762416027244"><ele>125.0</ele><time>2026-04-18T09:13:29.999Z</time></trkpt><trkpt lat="42.52088035274747" lon="11.60482995950011"><ele>125.0</ele><time>2026-04-18T09:13:30.999Z</time></trkpt><trkpt lat="42.52079604475442" lon="11.60491536087771"><ele>125.0</ele><time>2026-04-18T09:13:31.999Z</time></trkpt><trkpt lat="42.520704904478684" lon="11.604988386213707"><ele>125.0</ele><time>2026-04-18T09:13:32.999Z</time></trkpt><trkpt lat="42.52061119702762" lon="11.605077260477987"><ele>125.0</ele><time>2026-04-18T09:13:33.999Z</time></trkpt><trkpt lat="42.52052833016718" lon="11.60515504600631"><ele>125.0</ele><time>2026-04-18T09:13:34.999Z</time></trkpt><trkpt lat="42.52042199150288" lon="11.605260573743028"><ele>125.0</ele><time>2026-04-18T09:13:35.999Z</time></trkpt><trkpt lat="42.520283264941355" lon="11.605418570934326"><ele>129.25</ele><time>2026-04-18T09:13:36.999Z</time></trkpt><trkpt lat="42.52015604319042" lon="11.60556412448939"><ele>133.5</ele><time>2026-04-18T09:13:37.999Z</time></trkpt><trkpt lat="42.520062433095255" lon="11.605670142984037"><ele>137.75</ele><time>2026-04-18T09:13:38.999Z</time></trkpt><trkpt lat="42.51997923282981" lon="11.605753882372325"><ele>142.0</ele><time>2026-04-18T09:13:39.999Z</time></trkpt><trkpt lat="42.51989627106538" lon="11.605836269314871"><ele>142.0</ele><time>2026-04-18T09:13:40.999Z</time></trkpt><trkpt lat="42.51981073895298" lon="11.605909321849493"><ele>142.0</ele><time>2026-04-18T09:13:41.999Z</time></trkpt><trkpt lat="42.51972571338059" lon="11.605961823125286"><ele>142.0</ele><time>2026-04-18T09:13:42.999Z</time></trkpt><trkpt lat="42.51964237974693" lon="11.60598542326281"><ele>142.0</ele><time>2026-04-18T09:13:43.999Z</time></trkpt><trkpt lat="42.519554354656904" lon="11.605982376484317"><ele>142.0</ele><time>2026-04-18T09:13:44.999Z</time></trkpt><trkpt lat="42.51946370153479" lon="11.605981271726636"><ele>142.79999999999998</ele><time>2026-04-18T09:13:45.999Z</time></trkpt><trkpt lat="42.519363929641976" lon="11.606001102942631"><ele>143.6</ele><time>2026-04-18T09:13:46.999Z</time></trkpt><trkpt lat="42.51926335147637" lon="11.606028383475314"><ele>144.39999999999998</ele><time>2026-04-18T09:13:47.999Z</time></trkpt><trkpt lat="42.51915785015587" lon="11.606078254925107"><ele>145.2</ele><time>2026-04-18T09:13:48.999Z</time></trkpt><trkpt lat="42.519079963264375" lon="11.606128540466807"><ele>146.0</ele><time>2026-04-18T09:13:49.999Z</time></trkpt><trkpt lat="42.51899765018352" lon="11.60619193729449"><ele>146.0</ele><time>2026-04-18T09:13:50.999Z</time></trkpt><trkpt lat="42.51891934217002" lon="11.606274713301051"><ele>146.0</ele><time>2026-04-18T09:13:51.999Z</time></trkpt><trkpt lat="42.51882975282297" lon="11.606374399937659"><ele>146.0</ele><time>2026-04-18T09:13:52.999Z</time></trkpt><trkpt lat="42.51875542697971" lon="11.606489973249948"><ele>146.0</ele><time>2026-04-18T09:13:53.999Z</time></trkpt><trkpt lat="42.518690466261" lon="11.60661258043552"><ele>146.0</ele><time>2026-04-18T09:13:54.999Z</time></trkpt><trkpt lat="42.518638753065794" lon="11.60673179352077"><ele>147.2</ele><time>2026-04-18T09:13:55.999Z</time></trkpt><trkpt lat="42.51859833035101" lon="11.606850195441007"><ele>148.39999999999998</ele><time>2026-04-18T09:13:56.999Z</time></trkpt><trkpt lat="42.518565285408904" lon="11.606979088141053"><ele>149.6</ele><time>2026-04-18T09:13:57.999Z</time></trkpt><trkpt lat="42.51851478331985" lon="11.607073799846507"><ele>150.79999999999998</ele><time>2026-04-18T09:13:58.999Z</time></trkpt><trkpt lat="42.51846691785511" lon="11.607165747619096"><ele>152.0</ele><time>2026-04-18T09:13:59.999Z</time></trkpt><trkpt lat="42.5184313612885" lon="11.6072795563883"><ele>152.0</ele><time>2026-04-18T09:14:00.999Z</time></trkpt><trkpt lat="42.51838181615428" lon="11.607358532422717"><ele>152.0</ele><time>2026-04-18T09:14:01.999Z</time></trkpt><trkpt lat="42.5183135399093" lon="11.607378269938145"><ele>152.0</ele><time>2026-04-18T09:14:02.999Z</time></trkpt><trkpt lat="42.5182190270993" lon="11.607453557621232"><ele>152.0</ele><time>2026-04-18T09:14:04.999Z</time></trkpt><trkpt lat="42.518151915320814" lon="11.60750308106588"><ele>152.0</ele><time>2026-04-18T09:14:05.999Z</time></trkpt><trkpt lat="42.518081046303394" lon="11.607530213412803"><ele>152.0</ele><time>2026-04-18T09:14:06.999Z</time></trkpt><trkpt lat="42.518008404737195" lon="11.607563268901187"><ele>152.0</ele><time>2026-04-18T09:14:07.999Z</time></trkpt><trkpt lat="42.51794680378455" lon="11.607608740450884"><ele>152.0</ele><time>2026-04-18T09:14:09.999Z</time></trkpt><trkpt lat="42.51791484620102" lon="11.607746118003428"><ele>152.0</ele><time>2026-04-18T09:14:11.999Z</time></trkpt><trkpt lat="42.51795652698072" lon="11.607838182099531"><ele>152.0</ele><time>2026-04-18T09:14:13.999Z</time></trkpt><trkpt lat="42.518077667886665" lon="11.60783566417726"><ele>152.0</ele><time>2026-04-18T09:14:15.999Z</time></trkpt><trkpt lat="42.51817397991166" lon="11.60789071465106"><ele>148.0</ele><time>2026-04-18T09:14:17.999Z</time></trkpt><trkpt lat="42.51827003245191" lon="11.607971385356173"><ele>144.0</ele><time>2026-04-18T09:14:20Z</time></trkpt><trkpt lat="42.51832006169178" lon="11.608079199317054"><ele>140.0</ele><time>2026-04-18T09:14:22Z</time></trkpt><trkpt lat="42.5183026327145" lon="11.608212760019569"><ele>136.0</ele><time>2026-04-18T09:14:24Z</time></trkpt><trkpt lat="42.51825012647599" lon="11.608341653983064"><ele>132.0</ele><time>2026-04-18T09:14:26Z</time></trkpt><trkpt lat="42.51818562138107" lon="11.608485911737825"><ele>132.0</ele><time>2026-04-18T09:14:28Z</time></trkpt><trkpt lat="42.518134242995814" lon="11.608551004298489"><ele>132.0</ele><time>2026-04-18T09:14:29Z</time></trkpt><trkpt lat="42.51807775894712" lon="11.608613117145634"><ele>132.0</ele><time>2026-04-18T09:14:30Z</time></trkpt><trkpt lat="42.51800931466621" lon="11.608648893859039"><ele>132.0</ele><time>2026-04-18T09:14:31Z</time></trkpt><trkpt lat="42.51793620531077" lon="11.608692054006175"><ele>132.0</ele><time>2026-04-18T09:14:32Z</time></trkpt><trkpt lat="42.517845775663275" lon="11.608748989717181"><ele>132.0</ele><time>2026-04-18T09:14:33Z</time></trkpt><trkpt lat="42.51772411398039" lon="11.608741380158913"><ele>129.6</ele><time>2026-04-18T09:14:34Z</time></trkpt><trkpt lat="42.517601595065706" lon="11.608756761971263"><ele>127.19999999999999</ele><time>2026-04-18T09:14:35Z</time></trkpt><trkpt lat="42.517484384964234" lon="11.608776125503981"><ele>124.8</ele><time>2026-04-18T09:14:36Z</time></trkpt><trkpt lat="42.5173876849797" lon="11.60880891372937"><ele>122.4</ele><time>2026-04-18T09:14:37Z</time></trkpt><trkpt lat="42.51729215899796" lon="11.608833350420621"><ele>120.0</ele><time>2026-04-18T09:14:38Z</time></trkpt><trkpt lat="42.51719602382251" lon="11.608873889713513"><ele>120.0</ele><time>2026-04-18T09:14:39Z</time></trkpt><trkpt lat="42.51711347041163" lon="11.608900876765693"><ele>120.0</ele><time>2026-04-18T09:14:40Z</time></trkpt><trkpt lat="42.51701512331034" lon="11.608927057887962"><ele>120.0</ele><time>2026-04-18T09:14:41Z</time></trkpt><trkpt lat="42.51692325340158" lon="11.608941284617732"><ele>120.0</ele><time>2026-04-18T09:14:42Z</time></trkpt><trkpt lat="42.516831998936794" lon="11.608985930136672"><ele>120.0</ele><time>2026-04-18T09:14:43Z</time></trkpt><trkpt lat="42.516730672922314" lon="11.60899819143691"><ele>120.4</ele><time>2026-04-18T09:14:44Z</time></trkpt><trkpt lat="42.516627570372606" lon="11.609015651759625"><ele>120.8</ele><time>2026-04-18T09:14:45Z</time></trkpt><trkpt lat="42.5165387024633" lon="11.60905334499891"><ele>121.19999999999999</ele><time>2026-04-18T09:14:46Z</time></trkpt><trkpt lat="42.51644640994609" lon="11.609109461281381"><ele>121.6</ele><time>2026-04-18T09:14:47Z</time></trkpt><trkpt lat="42.51637206265315" lon="11.609174355289909"><ele>122.0</ele><time>2026-04-18T09:14:48Z</time></trkpt><trkpt lat="42.516318521656125" lon="11.609233766473984"><ele>122.0</ele><time>2026-04-18T09:14:49Z</time></trkpt><trkpt lat="42.51624583455532" lon="11.609303038144898"><ele>121.99999999999999</ele><time>2026-04-18T09:14:50Z</time></trkpt><trkpt lat="42.51613923636425" lon="11.60936621802669"><ele>121.99999999999999</ele><time>2026-04-18T09:14:51Z</time></trkpt><trkpt lat="42.51602699986094" lon="11.609396759187506"><ele>122.0</ele><time>2026-04-18T09:14:52Z</time></trkpt><trkpt lat="42.515921909769105" lon="11.609406622264705"><ele>122.0</ele><time>2026-04-18T09:14:53Z</time></trkpt><trkpt lat="42.51581693983137" lon="11.609427164632269"><ele>122.49999999999999</ele><time>2026-04-18T09:14:54Z</time></trkpt><trkpt lat="42.51572859322182" lon="11.609439119304538"><ele>123.0</ele><time>2026-04-18T09:14:55Z</time></trkpt><trkpt lat="42.51564760154439" lon="11.60944555385371"><ele>123.5</ele><time>2026-04-18T09:14:56Z</time></trkpt><trkpt lat="42.515551562080304" lon="11.609456995767196"><ele>124.0</ele><time>2026-04-18T09:14:57Z</time></trkpt><trkpt lat="42.51545855316001" lon="11.609479630889576"><ele>124.49999999999999</ele><time>2026-04-18T09:14:58Z</time></trkpt><trkpt lat="42.515374426209505" lon="11.609513942801431"><ele>125.0</ele><time>2026-04-18T09:14:59Z</time></trkpt><trkpt lat="42.51525636883239" lon="11.609591421569341"><ele>125.0</ele><time>2026-04-18T09:15:00Z</time></trkpt><trkpt lat="42.51514914948434" lon="11.609689136555284"><ele>125.0</ele><time>2026-04-18T09:15:01Z</time></trkpt><trkpt lat="42.51506980936431" lon="11.60977933775888"><ele>125.0</ele><time>2026-04-18T09:15:02Z</time></trkpt><trkpt lat="42.51498554323592" lon="11.609870748404322"><ele>125.0</ele><time>2026-04-18T09:15:03Z</time></trkpt><trkpt lat="42.514887889710664" lon="11.60995414621908"><ele>125.0</ele><time>2026-04-18T09:15:04Z</time></trkpt><trkpt lat="42.51479607331289" lon="11.610018038194518"><ele>125.0</ele><time>2026-04-18T09:15:05Z</time></trkpt><trkpt lat="42.514703613933435" lon="11.610066237251587"><ele>125.0</ele><time>2026-04-18T09:15:06Z</time></trkpt><trkpt lat="42.514617497733624" lon="11.61014435974489"><ele>125.0</ele><time>2026-04-18T09:15:07Z</time></trkpt><trkpt lat="42.51452906157619" lon="11.610241689204496"><ele>125.0</ele><time>2026-04-18T09:15:08Z</time></trkpt><trkpt lat="42.51443492400287" lon="11.610348517853772"><ele>125.25</ele><time>2026-04-18T09:15:09Z</time></trkpt><trkpt lat="42.5143492539624" lon="11.610457057822865"><ele>125.5</ele><time>2026-04-18T09:15:10Z</time></trkpt><trkpt lat="42.514255017648" lon="11.61056233393492"><ele>125.75</ele><time>2026-04-18T09:15:11Z</time></trkpt><trkpt lat="42.51415038110116" lon="11.610634195535908"><ele>126.0</ele><time>2026-04-18T09:15:12Z</time></trkpt><trkpt lat="42.51405639043444" lon="11.610729747541862"><ele>126.0</ele><time>2026-04-18T09:15:13Z</time></trkpt><trkpt lat="42.51397506234131" lon="11.610839323806184"><ele>126.0</ele><time>2026-04-18T09:15:14Z</time></trkpt><trkpt lat="42.513888886261" lon="11.610904862761958"><ele>126.0</ele><time>2026-04-18T09:15:15Z</time></trkpt><trkpt lat="42.51380284892212" lon="11.610994071147092"><ele>126.0</ele><time>2026-04-18T09:15:16Z</time></trkpt><trkpt lat="42.51372367788667" lon="11.611072020134582"><ele>126.0</ele><time>2026-04-18T09:15:17Z</time></trkpt><trkpt lat="42.51364414575008" lon="11.611155672976437"><ele>126.6</ele><time>2026-04-18T09:15:18Z</time></trkpt><trkpt lat="42.51356944444821" lon="11.61123245081878"><ele>127.19999999999999</ele><time>2026-04-18T09:15:19Z</time></trkpt><trkpt lat="42.51350827468559" lon="11.611320948678166"><ele>127.80000000000001</ele><time>2026-04-18T09:15:20Z</time></trkpt><trkpt lat="42.51344926320243" lon="11.611442252152445"><ele>128.4</ele><time>2026-04-18T09:15:21Z</time></trkpt><trkpt lat="42.513392542067805" lon="11.611594390565775"><ele>129.0</ele><time>2026-04-18T09:15:22Z</time></trkpt><trkpt lat="42.51331725869473" lon="11.611742276892903"><ele>129.0</ele><time>2026-04-18T09:15:23Z</time></trkpt><trkpt lat="42.51323941279616" lon="11.611884224608845"><ele>129.0</ele><time>2026-04-18T09:15:24Z</time></trkpt><trkpt lat="42.51317121457396" lon="11.612012891651776"><ele>129.0</ele><time>2026-04-18T09:15:25Z</time></trkpt><trkpt lat="42.5130905160722" lon="11.612133459191893"><ele>129.0</ele><time>2026-04-18T09:15:25.999Z</time></trkpt><trkpt lat="42.513012398836786" lon="11.612239281303227"><ele>128.6</ele><time>2026-04-18T09:15:26.999Z</time></trkpt><trkpt lat="42.51293907671426" lon="11.612355677599181"><ele>128.2</ele><time>2026-04-18T09:15:27.999Z</time></trkpt><trkpt lat="42.51285061801061" lon="11.612466017823843"><ele>127.79999999999998</ele><time>2026-04-18T09:15:28.999Z</time></trkpt><trkpt lat="42.51276213524579" lon="11.612556858383055"><ele>127.39999999999999</ele><time>2026-04-18T09:15:29.999Z</time></trkpt><trkpt lat="42.512665683595834" lon="11.612612641227976"><ele>127.0</ele><time>2026-04-18T09:15:30.999Z</time></trkpt><trkpt lat="42.51260089688009" lon="11.612710923091637"><ele>127.0</ele><time>2026-04-18T09:15:31.999Z</time></trkpt><trkpt lat="42.51253017666648" lon="11.612788998924035"><ele>127.0</ele><time>2026-04-18T09:15:32.999Z</time></trkpt><trkpt lat="42.51235692607802" lon="11.612674276738732"><ele>127.0</ele><time>2026-04-18T09:15:33.999Z</time></trkpt><trkpt lat="42.5122539636023" lon="11.612635934673134"><ele>127.0</ele><time>2026-04-18T09:15:34.999Z</time></trkpt><trkpt lat="42.51213874956967" lon="11.612556232602797"><ele>127.19999999999999</ele><time>2026-04-18T09:15:35.999Z</time></trkpt><trkpt lat="42.51202745904862" lon="11.61247595833389"><ele>127.39999999999999</ele><time>2026-04-18T09:15:36.999Z</time></trkpt><trkpt lat="42.5119277217177" lon="11.612410820105167"><ele>127.60000000000001</ele><time>2026-04-18T09:15:37.999Z</time></trkpt><trkpt lat="42.51183948269171" lon="11.612377506662021"><ele>127.80000000000001</ele><time>2026-04-18T09:15:38.999Z</time></trkpt><trkpt lat="42.511751499079494" lon="11.612380022717328"><ele>128.0</ele><time>2026-04-18T09:15:39.999Z</time></trkpt><trkpt lat="42.51166283927543" lon="11.612417686564712"><ele>128.0</ele><time>2026-04-18T09:15:40.999Z</time></trkpt><trkpt lat="42.511575082249465" lon="11.612475449412537"><ele>128.0</ele><time>2026-04-18T09:15:41.999Z</time></trkpt><trkpt lat="42.51147477367364" lon="11.61256564914226"><ele>128.0</ele><time>2026-04-18T09:15:42.999Z</time></trkpt><trkpt lat="42.51134135587941" lon="11.612671708913036"><ele>128.0</ele><time>2026-04-18T09:15:43.999Z</time></trkpt><trkpt lat="42.51122804649885" lon="11.61279002250597"><ele>127.25</ele><time>2026-04-18T09:15:44.999Z</time></trkpt><trkpt lat="42.51113521201907" lon="11.612867007035547"><ele>126.5</ele><time>2026-04-18T09:15:45.999Z</time></trkpt><trkpt lat="42.51103587844791" lon="11.61293388476298"><ele>125.75</ele><time>2026-04-18T09:15:46.999Z</time></trkpt><trkpt lat="42.510916627854044" lon="11.612997246875048"><ele>125.0</ele><time>2026-04-18T09:15:47.999Z</time></trkpt><trkpt lat="42.510791427530975" lon="11.613062985971798"><ele>125.0</ele><time>2026-04-18T09:15:48.999Z</time></trkpt><trkpt lat="42.51066569855898" lon="11.613110265696903"><ele>125.0</ele><time>2026-04-18T09:15:49.999Z</time></trkpt><trkpt lat="42.51054494882322" lon="11.61315736396525"><ele>125.0</ele><time>2026-04-18T09:15:50.999Z</time></trkpt><trkpt lat="42.510448355161955" lon="11.613202940478489"><ele>125.0</ele><time>2026-04-18T09:15:51.999Z</time></trkpt><trkpt lat="42.510339657565886" lon="11.613238606384902"><ele>125.25</ele><time>2026-04-18T09:15:52.999Z</time></trkpt><trkpt lat="42.510220391572275" lon="11.613263943726896"><ele>125.5</ele><time>2026-04-18T09:15:53.999Z</time></trkpt><trkpt lat="42.51009350183658" lon="11.613247743177588"><ele>125.75</ele><time>2026-04-18T09:15:54.999Z</time></trkpt><trkpt lat="42.509976249382824" lon="11.61319726449027"><ele>126.0</ele><time>2026-04-18T09:15:55.999Z</time></trkpt><trkpt lat="42.50988477169081" lon="11.613121613425719"><ele>126.0</ele><time>2026-04-18T09:15:56.999Z</time></trkpt><trkpt lat="42.50978661172666" lon="11.613007185663893"><ele>126.0</ele><time>2026-04-18T09:15:57.999Z</time></trkpt><trkpt lat="42.509639926237796" lon="11.612890004873384"><ele>126.0</ele><time>2026-04-18T09:15:58.999Z</time></trkpt><trkpt lat="42.5095152491627" lon="11.612801356537"><ele>126.0</ele><time>2026-04-18T09:15:59.999Z</time></trkpt><trkpt lat="42.50939832702358" lon="11.61271558254953"><ele>130.0</ele><time>2026-04-18T09:16:00.999Z</time></trkpt><trkpt lat="42.509257569878834" lon="11.612617829833232"><ele>134.0</ele><time>2026-04-18T09:16:01.999Z</time></trkpt><trkpt lat="42.509117279647846" lon="11.612535724418159"><ele>138.0</ele><time>2026-04-18T09:16:02.999Z</time></trkpt><trkpt lat="42.50900274071045" lon="11.612467808553966"><ele>142.0</ele><time>2026-04-18T09:16:03.999Z</time></trkpt><trkpt lat="42.50888568252525" lon="11.612386875877675"><ele>142.0</ele><time>2026-04-18T09:16:04.999Z</time></trkpt><trkpt lat="42.508766814284755" lon="11.61230692959156"><ele>142.0</ele><time>2026-04-18T09:16:05.999Z</time></trkpt><trkpt lat="42.508646613594834" lon="11.612220561202085"><ele>142.0</ele><time>2026-04-18T09:16:06.999Z</time></trkpt><trkpt lat="42.508534129842886" lon="11.61213556245794"><ele>142.0</ele><time>2026-04-18T09:16:07.999Z</time></trkpt><trkpt lat="42.50843253332491" lon="11.612063116629454"><ele>144.25</ele><time>2026-04-18T09:16:08.999Z</time></trkpt><trkpt lat="42.5083225411964" lon="11.611987900059718"><ele>146.5</ele><time>2026-04-18T09:16:09.999Z</time></trkpt><trkpt lat="42.508223197047364" lon="11.611895301000915"><ele>148.75</ele><time>2026-04-18T09:16:10.999Z</time></trkpt><trkpt lat="42.50813384359012" lon="11.611783714365568"><ele>151.0</ele><time>2026-04-18T09:16:11.999Z</time></trkpt><trkpt lat="42.50803065194186" lon="11.611654636691567"><ele>151.0</ele><time>2026-04-18T09:16:12.999Z</time></trkpt><trkpt lat="42.5079304956131" lon="11.611548360066902"><ele>151.0</ele><time>2026-04-18T09:16:13.999Z</time></trkpt><trkpt lat="42.50783856663261" lon="11.611418981356264"><ele>151.0</ele><time>2026-04-18T09:16:14.999Z</time></trkpt><trkpt lat="42.50774616190784" lon="11.61127760296409"><ele>151.0</ele><time>2026-04-18T09:16:15.999Z</time></trkpt><trkpt lat="42.50766067176292" lon="11.611136397654793"><ele>150.25</ele><time>2026-04-18T09:16:16.999Z</time></trkpt><trkpt lat="42.507577301467165" lon="11.610996050738423"><ele>149.5</ele><time>2026-04-18T09:16:17.999Z</time></trkpt><trkpt lat="42.507506764568554" lon="11.610850022080934"><ele>148.75</ele><time>2026-04-18T09:16:18.999Z</time></trkpt><trkpt lat="42.50743407137703" lon="11.610691305290477"><ele>148.0</ele><time>2026-04-18T09:16:19.999Z</time></trkpt><trkpt lat="42.5073640881451" lon="11.610530564550418"><ele>148.0</ele><time>2026-04-18T09:16:20.999Z</time></trkpt><trkpt lat="42.50729172168596" lon="11.610379751296387"><ele>148.0</ele><time>2026-04-18T09:16:21.999Z</time></trkpt><trkpt lat="42.507225806554665" lon="11.610256053686147"><ele>148.0</ele><time>2026-04-18T09:16:22.999Z</time></trkpt><trkpt lat="42.50715867788284" lon="11.610151172818956"><ele>148.0</ele><time>2026-04-18T09:16:23.999Z</time></trkpt><trkpt lat="42.50708744128571" lon="11.610047309380137"><ele>147.6</ele><time>2026-04-18T09:16:24.999Z</time></trkpt><trkpt lat="42.507021882669356" lon="11.60994234843472"><ele>147.20000000000002</ele><time>2026-04-18T09:16:26Z</time></trkpt><trkpt lat="42.506974260120394" lon="11.609817581933997"><ele>146.8</ele><time>2026-04-18T09:16:27Z</time></trkpt><trkpt lat="42.50692201584521" lon="11.609717157207069"><ele>146.4</ele><time>2026-04-18T09:16:28Z</time></trkpt><trkpt lat="42.50685769608364" lon="11.609624776712423"><ele>146.0</ele><time>2026-04-18T09:16:29Z</time></trkpt><trkpt lat="42.50677699479466" lon="11.609552295599737"><ele>146.0</ele><time>2026-04-18T09:16:30Z</time></trkpt><trkpt lat="42.50668849516116" lon="11.60951073131433"><ele>146.0</ele><time>2026-04-18T09:16:31Z</time></trkpt><trkpt lat="42.506544884246665" lon="11.609478498441185"><ele>146.0</ele><time>2026-04-18T09:16:32Z</time></trkpt><trkpt lat="42.50642265926578" lon="11.609437001665674"><ele>146.0</ele><time>2026-04-18T09:16:33Z</time></trkpt><trkpt lat="42.50632529093343" lon="11.609399533298927"><ele>149.4</ele><time>2026-04-18T09:16:34Z</time></trkpt><trkpt lat="42.50624181085849" lon="11.609356459231934"><ele>152.8</ele><time>2026-04-18T09:16:35Z</time></trkpt><trkpt lat="42.50617983452858" lon="11.609324750228495"><ele>156.20000000000002</ele><time>2026-04-18T09:16:36Z</time></trkpt><trkpt lat="42.50605796093296" lon="11.6092983065863"><ele>159.6</ele><time>2026-04-18T09:16:38Z</time></trkpt><trkpt lat="42.50596008250694" lon="11.609399855123796"><ele>163.0</ele><time>2026-04-18T09:16:40Z</time></trkpt><trkpt lat="42.50592996706905" lon="11.609497643502525"><ele>163.0</ele><time>2026-04-18T09:16:41Z</time></trkpt><trkpt lat="42.50592533929911" lon="11.609594078405566"><ele>163.0</ele><time>2026-04-18T09:16:42Z</time></trkpt><trkpt lat="42.505940639131936" lon="11.609715179225724"><ele>163.0</ele><time>2026-04-18T09:16:43Z</time></trkpt><trkpt lat="42.50598593222703" lon="11.609881063875651"><ele>163.0</ele><time>2026-04-18T09:16:44Z</time></trkpt><trkpt lat="42.50604867295512" lon="11.610049399364282"><ele>163.0</ele><time>2026-04-18T09:16:45Z</time></trkpt><trkpt lat="42.5061005163299" lon="11.610211843047104"><ele>166.25</ele><time>2026-04-18T09:16:46Z</time></trkpt><trkpt lat="42.50615777577721" lon="11.610348191224173"><ele>169.5</ele><time>2026-04-18T09:16:47Z</time></trkpt><trkpt lat="42.50622253673551" lon="11.610500516027889"><ele>172.75</ele><time>2026-04-18T09:16:48Z</time></trkpt><trkpt lat="42.506294626167005" lon="11.610646770121003"><ele>176.0</ele><time>2026-04-18T09:16:49Z</time></trkpt><trkpt lat="42.506366132608704" lon="11.610794070107495"><ele>175.0</ele><time>2026-04-18T09:16:50Z</time></trkpt><trkpt lat="42.50643840517382" lon="11.610923865981205"><ele>174.0</ele><time>2026-04-18T09:16:51Z</time></trkpt><trkpt lat="42.50650815346049" lon="11.61103777773162"><ele>173.0</ele><time>2026-04-18T09:16:52Z</time></trkpt><trkpt lat="42.50660565372056" lon="11.611129320904345"><ele>172.0</ele><time>2026-04-18T09:16:53Z</time></trkpt><trkpt lat="42.5066994480593" lon="11.61123205937416"><ele>172.0</ele><time>2026-04-18T09:16:54Z</time></trkpt><trkpt lat="42.50676988494401" lon="11.61136070613635"><ele>172.0</ele><time>2026-04-18T09:16:55Z</time></trkpt><trkpt lat="42.50682678991404" lon="11.611494437172773"><ele>172.0</ele><time>2026-04-18T09:16:56Z</time></trkpt><trkpt lat="42.50688626600768" lon="11.611658151371202"><ele>172.0</ele><time>2026-04-18T09:16:57Z</time></trkpt><trkpt lat="42.5069291682568" lon="11.611780134000107"><ele>172.0</ele><time>2026-04-18T09:16:58Z</time></trkpt><trkpt lat="42.506973150246964" lon="11.611872772914198"><ele>172.0</ele><time>2026-04-18T09:16:59Z</time></trkpt><trkpt lat="42.50701999682577" lon="11.612009965713954"><ele>172.0</ele><time>2026-04-18T09:17:00Z</time></trkpt><trkpt lat="42.50705706924676" lon="11.612176202310518"><ele>172.0</ele><time>2026-04-18T09:17:01Z</time></trkpt><trkpt lat="42.50706274175763" lon="11.612361857299875"><ele>173.66666666666669</ele><time>2026-04-18T09:17:02Z</time></trkpt><trkpt lat="42.507051346333185" lon="11.612501427010315"><ele>175.33333333333334</ele><time>2026-04-18T09:17:03Z</time></trkpt><trkpt lat="42.50705839800982" lon="11.61262596105525"><ele>177.0</ele><time>2026-04-18T09:17:04Z</time></trkpt><trkpt lat="42.50703660053662" lon="11.612731959971509"><ele>178.66666666666666</ele><time>2026-04-18T09:17:05Z</time></trkpt><trkpt lat="42.5069845777862" lon="11.612815679685523"><ele>180.33333333333331</ele><time>2026-04-18T09:17:06Z</time></trkpt><trkpt lat="42.5069158085406" lon="11.61288760502363"><ele>182.0</ele><time>2026-04-18T09:17:07Z</time></trkpt><trkpt lat="42.506838501394064" lon="11.612959979082149"><ele>183.0</ele><time>2026-04-18T09:17:08Z</time></trkpt><trkpt lat="42.506726121984435" lon="11.613029661856354"><ele>184.0</ele><time>2026-04-18T09:17:09Z</time></trkpt><trkpt lat="42.506593057452825" lon="11.613065436066748"><ele>185.0</ele><time>2026-04-18T09:17:10Z</time></trkpt><trkpt lat="42.50645588570922" lon="11.613087158545412"><ele>186.0</ele><time>2026-04-18T09:17:11Z</time></trkpt><trkpt lat="42.50631814911985" lon="11.613106730604489"><ele>185.75</ele><time>2026-04-18T09:17:12Z</time></trkpt><trkpt lat="42.50621061047522" lon="11.613154681349402"><ele>185.5</ele><time>2026-04-18T09:17:13Z</time></trkpt><trkpt lat="42.50609931752068" lon="11.613199201593503"><ele>185.25</ele><time>2026-04-18T09:17:14Z</time></trkpt><trkpt lat="42.50597757230678" lon="11.613278718861686"><ele>185.0</ele><time>2026-04-18T09:17:15Z</time></trkpt><trkpt lat="42.505869510502976" lon="11.613379140884504"><ele>185.0</ele><time>2026-04-18T09:17:16Z</time></trkpt><trkpt lat="42.50575058516585" lon="11.613517191199163"><ele>185.0</ele><time>2026-04-18T09:17:17Z</time></trkpt><trkpt lat="42.50567216398266" lon="11.61361755016664"><ele>185.0</ele><time>2026-04-18T09:17:18Z</time></trkpt><trkpt lat="42.505596510347786" lon="11.61371735970773"><ele>185.0</ele><time>2026-04-18T09:17:19Z</time></trkpt><trkpt lat="42.505487683044706" lon="11.613815828363899"><ele>183.33333333333331</ele><time>2026-04-18T09:17:20Z</time></trkpt><trkpt lat="42.50534817701487" lon="11.613914335977567"><ele>181.66666666666666</ele><time>2026-04-18T09:17:21Z</time></trkpt><trkpt lat="42.505196852163934" lon="11.614042493630166"><ele>180.0</ele><time>2026-04-18T09:17:22Z</time></trkpt><trkpt lat="42.50501298431499" lon="11.614179066603635"><ele>180.0</ele><time>2026-04-18T09:17:23Z</time></trkpt><trkpt lat="42.504845346333" lon="11.614310828635679"><ele>180.0</ele><time>2026-04-18T09:17:24Z</time></trkpt><trkpt lat="42.5046916384463" lon="11.614421934994517"><ele>180.0</ele><time>2026-04-18T09:17:25Z</time></trkpt><trkpt lat="42.50452625718664" lon="11.614539233114337"><ele>178.33333333333334</ele><time>2026-04-18T09:17:26Z</time></trkpt><trkpt lat="42.50436159304363" lon="11.614668762078539"><ele>176.66666666666669</ele><time>2026-04-18T09:17:27Z</time></trkpt><trkpt lat="42.504212300111845" lon="11.614789109709497"><ele>175.0</ele><time>2026-04-18T09:17:28Z</time></trkpt><trkpt lat="42.504066714412296" lon="11.614905889654143"><ele>175.0</ele><time>2026-04-18T09:17:29Z</time></trkpt><trkpt lat="42.50392673118284" lon="11.615010892473899"><ele>175.0</ele><time>2026-04-18T09:17:30Z</time></trkpt><trkpt lat="42.50378250560214" lon="11.615118795072727"><ele>175.0</ele><time>2026-04-18T09:17:31Z</time></trkpt><trkpt lat="42.50364654541966" lon="11.615222155913663"><ele>174.66666666666669</ele><time>2026-04-18T09:17:32Z</time></trkpt><trkpt lat="42.50350860178428" lon="11.615315746323933"><ele>174.33333333333334</ele><time>2026-04-18T09:17:33Z</time></trkpt><trkpt lat="42.503354486053695" lon="11.615422904648717"><ele>174.0</ele><time>2026-04-18T09:17:34Z</time></trkpt><trkpt lat="42.50320702929375" lon="11.615538787043555"><ele>173.33333333333334</ele><time>2026-04-18T09:17:35Z</time></trkpt><trkpt lat="42.50306165846778" lon="11.61566440882501"><ele>172.66666666666669</ele><time>2026-04-18T09:17:36Z</time></trkpt><trkpt lat="42.50290388393021" lon="11.615784297720765"><ele>172.0</ele><time>2026-04-18T09:17:36.999Z</time></trkpt><trkpt lat="42.5027502886145" lon="11.615908822084855"><ele>172.0</ele><time>2026-04-18T09:17:37.999Z</time></trkpt><trkpt lat="42.50261668130694" lon="11.616034940207193"><ele>172.0</ele><time>2026-04-18T09:17:38.999Z</time></trkpt><trkpt lat="42.50249126761119" lon="11.616172303790092"><ele>172.0</ele><time>2026-04-18T09:17:39.999Z</time></trkpt><trkpt lat="42.5023552071099" lon="11.616295952854493"><ele>172.0</ele><time>2026-04-18T09:17:40.999Z</time></trkpt><trkpt lat="42.50221492126064" lon="11.616412138571388"><ele>172.0</ele><time>2026-04-18T09:17:41.999Z</time></trkpt><trkpt lat="42.502075322751324" lon="11.616513209765838"><ele>172.0</ele><time>2026-04-18T09:17:42.999Z</time></trkpt><trkpt lat="42.50193605984052" lon="11.616590577855018"><ele>172.0</ele><time>2026-04-18T09:17:43.999Z</time></trkpt><trkpt lat="42.50180942039111" lon="11.616652684051978"><ele>172.0</ele><time>2026-04-18T09:17:44.999Z</time></trkpt><trkpt lat="42.501679643952976" lon="11.616706518666541"><ele>172.0</ele><time>2026-04-18T09:17:45.999Z</time></trkpt><trkpt lat="42.5015237027426" lon="11.616782242017084"><ele>172.0</ele><time>2026-04-18T09:17:46.999Z</time></trkpt><trkpt lat="42.501375540216415" lon="11.616825569788432"><ele>171.5</ele><time>2026-04-18T09:17:47.999Z</time></trkpt><trkpt lat="42.50124441909567" lon="11.616870171127236"><ele>171.0</ele><time>2026-04-18T09:17:48.999Z</time></trkpt><trkpt lat="42.50111158177177" lon="11.616900513446046"><ele>170.5</ele><time>2026-04-18T09:17:49.999Z</time></trkpt><trkpt lat="42.50096862716828" lon="11.61691580147032"><ele>170.0</ele><time>2026-04-18T09:17:50.999Z</time></trkpt><trkpt lat="42.500782594141455" lon="11.61691553125057"><ele>170.0</ele><time>2026-04-18T09:17:51.999Z</time></trkpt><trkpt lat="42.50059362535577" lon="11.616906794774996"><ele>170.0</ele><time>2026-04-18T09:17:52.999Z</time></trkpt><trkpt lat="42.50042877376274" lon="11.6168973607217"><ele>170.0</ele><time>2026-04-18T09:17:53.999Z</time></trkpt><trkpt lat="42.50028175709119" lon="11.61688911571527"><ele>169.25</ele><time>2026-04-18T09:17:54.999Z</time></trkpt><trkpt lat="42.50013960009186" lon="11.616888402196587"><ele>168.5</ele><time>2026-04-18T09:17:55.999Z</time></trkpt><trkpt lat="42.500009436623934" lon="11.616886245738552"><ele>167.75</ele><time>2026-04-18T09:17:56.999Z</time></trkpt><trkpt lat="42.49988649816976" lon="11.616883317626897"><ele>167.0</ele><time>2026-04-18T09:17:57.999Z</time></trkpt><trkpt lat="42.49977068837438" lon="11.61688035381135"><ele>167.0</ele><time>2026-04-18T09:17:58.999Z</time></trkpt><trkpt lat="42.4996722540032" lon="11.616877292354367"><ele>167.0</ele><time>2026-04-18T09:17:59.999Z</time></trkpt><trkpt lat="42.49954790889507" lon="11.616868365546317"><ele>167.0</ele><time>2026-04-18T09:18:00.999Z</time></trkpt><trkpt lat="42.49942093331761" lon="11.616842743375372"><ele>167.0</ele><time>2026-04-18T09:18:01.999Z</time></trkpt><trkpt lat="42.49928266470468" lon="11.6168224206391"><ele>166.5</ele><time>2026-04-18T09:18:02.999Z</time></trkpt><trkpt lat="42.499145439760554" lon="11.616805659720882"><ele>166.0</ele><time>2026-04-18T09:18:03.999Z</time></trkpt><trkpt lat="42.499015706437724" lon="11.616808882697178"><ele>165.5</ele><time>2026-04-18T09:18:04.999Z</time></trkpt><trkpt lat="42.49890059583814" lon="11.616803787376993"><ele>165.0</ele><time>2026-04-18T09:18:05.999Z</time></trkpt><trkpt lat="42.49876795664706" lon="11.616778940536431"><ele>163.5</ele><time>2026-04-18T09:18:06.999Z</time></trkpt><trkpt lat="42.498633012013194" lon="11.616751880297155"><ele>162.0</ele><time>2026-04-18T09:18:07.999Z</time></trkpt><trkpt lat="42.49850392897668" lon="11.61671553165482"><ele>160.5</ele><time>2026-04-18T09:18:08.999Z</time></trkpt><trkpt lat="42.4983483757028" lon="11.616684234199818"><ele>159.0</ele><time>2026-04-18T09:18:09.999Z</time></trkpt><trkpt lat="42.498224469086715" lon="11.616665886611873"><ele>159.0</ele><time>2026-04-18T09:18:10.999Z</time></trkpt><trkpt lat="42.4980985294606" lon="11.616670934987688"><ele>159.0</ele><time>2026-04-18T09:18:11.999Z</time></trkpt><trkpt lat="42.497972002146426" lon="11.616680033548876"><ele>159.0</ele><time>2026-04-18T09:18:12.999Z</time></trkpt><trkpt lat="42.49785990098561" lon="11.616702340969765"><ele>159.0</ele><time>2026-04-18T09:18:13.999Z</time></trkpt><trkpt lat="42.49772849175393" lon="11.616714975264175"><ele>159.5</ele><time>2026-04-18T09:18:14.999Z</time></trkpt><trkpt lat="42.497592478654745" lon="11.616716928043093"><ele>160.0</ele><time>2026-04-18T09:18:15.999Z</time></trkpt><trkpt lat="42.49745700698812" lon="11.616692328828305"><ele>160.5</ele><time>2026-04-18T09:18:16.999Z</time></trkpt><trkpt lat="42.497315551340655" lon="11.616680347554029"><ele>161.0</ele><time>2026-04-18T09:18:17.999Z</time></trkpt><trkpt lat="42.49717920932185" lon="11.616657475137957"><ele>157.75</ele><time>2026-04-18T09:18:18.999Z</time></trkpt><trkpt lat="42.497032282976015" lon="11.616644446500036"><ele>154.5</ele><time>2026-04-18T09:18:19.999Z</time></trkpt><trkpt lat="42.496885566242135" lon="11.61662171181254"><ele>151.25</ele><time>2026-04-18T09:18:20.999Z</time></trkpt><trkpt lat="42.49674888655294" lon="11.616617435525654"><ele>148.0</ele><time>2026-04-18T09:18:21.999Z</time></trkpt><trkpt lat="42.49661187814931" lon="11.616595964920633"><ele>148.0</ele><time>2026-04-18T09:18:22.999Z</time></trkpt><trkpt lat="42.49646805748841" lon="11.616580759823162"><ele>148.0</ele><time>2026-04-18T09:18:23.999Z</time></trkpt><trkpt lat="42.49633216321541" lon="11.616577508079008"><ele>148.0</ele><time>2026-04-18T09:18:24.999Z</time></trkpt><trkpt lat="42.49619414937754" lon="11.616586784291536"><ele>148.0</ele><time>2026-04-18T09:18:25.999Z</time></trkpt><trkpt lat="42.496062488033864" lon="11.616623580928131"><ele>146.66666666666669</ele><time>2026-04-18T09:18:26.999Z</time></trkpt><trkpt lat="42.495903895180426" lon="11.616690125000563"><ele>145.33333333333334</ele><time>2026-04-18T09:18:27.999Z</time></trkpt><trkpt lat="42.49575567371938" lon="11.616769432251216"><ele>144.0</ele><time>2026-04-18T09:18:28.999Z</time></trkpt><trkpt lat="42.495623121402126" lon="11.616826849569625"><ele>144.0</ele><time>2026-04-18T09:18:29.999Z</time></trkpt><trkpt lat="42.495501402263066" lon="11.616895433887347"><ele>144.0</ele><time>2026-04-18T09:18:30.999Z</time></trkpt><trkpt lat="42.49538571206783" lon="11.616949025883143"><ele>144.0</ele><time>2026-04-18T09:18:32.001Z</time></trkpt><trkpt lat="42.495263950938295" lon="11.617006481027802"><ele>144.0</ele><time>2026-04-18T09:18:33.001Z</time></trkpt><trkpt lat="42.49513406134191" lon="11.61706994688593"><ele>144.25</ele><time>2026-04-18T09:18:34.001Z</time></trkpt><trkpt lat="42.49499172778491" lon="11.617101106493683"><ele>144.5</ele><time>2026-04-18T09:18:35.001Z</time></trkpt><trkpt lat="42.49485890434995" lon="11.61711212866018"><ele>144.75</ele><time>2026-04-18T09:18:36.001Z</time></trkpt><trkpt lat="42.49472891308142" lon="11.61711968167811"><ele>145.0</ele><time>2026-04-18T09:18:37.001Z</time></trkpt><trkpt lat="42.494599449675" lon="11.617112652791564"><ele>145.0</ele><time>2026-04-18T09:18:38.001Z</time></trkpt><trkpt lat="42.494479434646095" lon="11.617100005649014"><ele>145.0</ele><time>2026-04-18T09:18:39.001Z</time></trkpt><trkpt lat="42.494365706067235" lon="11.617058620274852"><ele>145.0</ele><time>2026-04-18T09:18:40.001Z</time></trkpt><trkpt lat="42.494224370993216" lon="11.61698834706574"><ele>145.0</ele><time>2026-04-18T09:18:41.001Z</time></trkpt><trkpt lat="42.494068875397694" lon="11.616915588690468"><ele>145.5</ele><time>2026-04-18T09:18:42.001Z</time></trkpt><trkpt lat="42.49394076632777" lon="11.616861693382981"><ele>146.0</ele><time>2026-04-18T09:18:43.001Z</time></trkpt><trkpt lat="42.49379491843665" lon="11.61680735703926"><ele>146.5</ele><time>2026-04-18T09:18:44.001Z</time></trkpt><trkpt lat="42.493648642471044" lon="11.61673429752402"><ele>147.0</ele><time>2026-04-18T09:18:45.001Z</time></trkpt><trkpt lat="42.49351100266535" lon="11.61667501702719"><ele>147.0</ele><time>2026-04-18T09:18:46.001Z</time></trkpt><trkpt lat="42.49340504658815" lon="11.61663469279049"><ele>147.0</ele><time>2026-04-18T09:18:47Z</time></trkpt><trkpt lat="42.49329181273284" lon="11.61659312828753"><ele>147.0</ele><time>2026-04-18T09:18:48Z</time></trkpt><trkpt lat="42.49318366542551" lon="11.616543217196512"><ele>147.0</ele><time>2026-04-18T09:18:49Z</time></trkpt><trkpt lat="42.493074048557396" lon="11.61652647752662"><ele>147.0</ele><time>2026-04-18T09:18:50Z</time></trkpt><trkpt lat="42.49297419380483" lon="11.616536081177925"><ele>147.0</ele><time>2026-04-18T09:18:51Z</time></trkpt><trkpt lat="42.4928665463177" lon="11.616568309831537"><ele>147.0</ele><time>2026-04-18T09:18:52Z</time></trkpt><trkpt lat="42.492757849880704" lon="11.61661438004175"><ele>147.0</ele><time>2026-04-18T09:18:53Z</time></trkpt><trkpt lat="42.49265767653334" lon="11.616656150567485"><ele>147.0</ele><time>2026-04-18T09:18:54Z</time></trkpt><trkpt lat="42.49257002646952" lon="11.616694168112495"><ele>146.5</ele><time>2026-04-18T09:18:55Z</time></trkpt><trkpt lat="42.49248301394915" lon="11.616710637343116"><ele>146.0</ele><time>2026-04-18T09:18:56Z</time></trkpt><trkpt lat="42.49240770078387" lon="11.616729734209931"><ele>145.5</ele><time>2026-04-18T09:18:57Z</time></trkpt><trkpt lat="42.49232964887328" lon="11.616748030600364"><ele>145.0</ele><time>2026-04-18T09:18:58Z</time></trkpt><trkpt lat="42.4922606224037" lon="11.616763789685155"><ele>144.5</ele><time>2026-04-18T09:18:59Z</time></trkpt><trkpt lat="42.49219235988328" lon="11.61675886518108"><ele>144.0</ele><time>2026-04-18T09:19:00Z</time></trkpt><trkpt lat="42.49212662301472" lon="11.616734295328168"><ele>142.5</ele><time>2026-04-18T09:19:01Z</time></trkpt><trkpt lat="42.4920791609292" lon="11.616631065536119"><ele>141.0</ele><time>2026-04-18T09:19:02Z</time></trkpt><trkpt lat="42.49201969173965" lon="11.61655989258148"><ele>139.5</ele><time>2026-04-18T09:19:03Z</time></trkpt><trkpt lat="42.49197328527628" lon="11.616480585949695"><ele>138.0</ele><time>2026-04-18T09:19:04Z</time></trkpt><trkpt lat="42.49192696792033" lon="11.61639982496358"><ele>136.5</ele><time>2026-04-18T09:19:05Z</time></trkpt><trkpt lat="42.49187053658869" lon="11.616325481749781"><ele>135.0</ele><time>2026-04-18T09:19:06Z</time></trkpt><trkpt lat="42.49183047609453" lon="11.61621353638896"><ele>134.6</ele><time>2026-04-18T09:19:07Z</time></trkpt><trkpt lat="42.491789983373636" lon="11.616110526075584"><ele>134.2</ele><time>2026-04-18T09:19:08Z</time></trkpt><trkpt lat="42.49173248863193" lon="11.615981202220166"><ele>133.8</ele><time>2026-04-18T09:19:09Z</time></trkpt><trkpt lat="42.49167296408638" lon="11.615877069805219"><ele>133.4</ele><time>2026-04-18T09:19:10Z</time></trkpt><trkpt lat="42.49162151258307" lon="11.615772421187486"><ele>133.0</ele><time>2026-04-18T09:19:11Z</time></trkpt><trkpt lat="42.491553361157614" lon="11.615672516853586"><ele>133.0</ele><time>2026-04-18T09:19:12Z</time></trkpt><trkpt lat="42.49150986412145" lon="11.615589194356772"><ele>133.0</ele><time>2026-04-18T09:19:13Z</time></trkpt><trkpt lat="42.491443917619605" lon="11.615467002321926"><ele>133.0</ele><time>2026-04-18T09:19:14Z</time></trkpt><trkpt lat="42.491378622966586" lon="11.61536394247201"><ele>133.0</ele><time>2026-04-18T09:19:15Z</time></trkpt><trkpt lat="42.491317158495676" lon="11.615263306987126"><ele>133.0</ele><time>2026-04-18T09:19:16Z</time></trkpt><trkpt lat="42.49126621308314" lon="11.615180372410702"><ele>130.8</ele><time>2026-04-18T09:19:17Z</time></trkpt><trkpt lat="42.4912068139687" lon="11.61508968000575"><ele>128.60000000000002</ele><time>2026-04-18T09:19:18Z</time></trkpt><trkpt lat="42.49115041840398" lon="11.614981491294138"><ele>126.39999999999999</ele><time>2026-04-18T09:19:19Z</time></trkpt><trkpt lat="42.49109354523078" lon="11.614856091495463"><ele>124.19999999999999</ele><time>2026-04-18T09:19:20Z</time></trkpt><trkpt lat="42.491049309877376" lon="11.614723426015976"><ele>122.0</ele><time>2026-04-18T09:19:21Z</time></trkpt><trkpt lat="42.49100356837995" lon="11.614606189205508"><ele>122.25</ele><time>2026-04-18T09:19:22Z</time></trkpt><trkpt lat="42.49095164770454" lon="11.614478269152881"><ele>122.5</ele><time>2026-04-18T09:19:23Z</time></trkpt><trkpt lat="42.49089275849557" lon="11.614344435344615"><ele>122.75</ele><time>2026-04-18T09:19:24Z</time></trkpt><trkpt lat="42.49083494208999" lon="11.614214471223358"><ele>123.0</ele><time>2026-04-18T09:19:25Z</time></trkpt><trkpt lat="42.490760424786934" lon="11.614086741208292"><ele>123.0</ele><time>2026-04-18T09:19:26Z</time></trkpt><trkpt lat="42.49070554616872" lon="11.613948669653709"><ele>123.00000000000001</ele><time>2026-04-18T09:19:27Z</time></trkpt><trkpt lat="42.49065124364914" lon="11.613823316149153"><ele>123.00000000000001</ele><time>2026-04-18T09:19:28Z</time></trkpt><trkpt lat="42.490609302526586" lon="11.613701204591067"><ele>123.0</ele><time>2026-04-18T09:19:29Z</time></trkpt><trkpt lat="42.49056402212715" lon="11.61359846157358"><ele>123.0</ele><time>2026-04-18T09:19:30Z</time></trkpt><trkpt lat="42.49051356825974" lon="11.613524441214725"><ele>122.5</ele><time>2026-04-18T09:19:31Z</time></trkpt><trkpt lat="42.49045642570041" lon="11.613440127364546"><ele>122.0</ele><time>2026-04-18T09:19:32Z</time></trkpt><trkpt lat="42.490387978829254" lon="11.613391396830924"><ele>121.5</ele><time>2026-04-18T09:19:33Z</time></trkpt><trkpt lat="42.49031626300267" lon="11.613372372523983"><ele>121.0</ele><time>2026-04-18T09:19:34Z</time></trkpt><trkpt lat="42.49021938330519" lon="11.61339333802231"><ele>120.5</ele><time>2026-04-18T09:19:35Z</time></trkpt><trkpt lat="42.49010798359827" lon="11.613431891301666"><ele>120.0</ele><time>2026-04-18T09:19:36Z</time></trkpt><trkpt lat="42.49002797791646" lon="11.613480743709037"><ele>120.0</ele><time>2026-04-18T09:19:37Z</time></trkpt><trkpt lat="42.489954846751026" lon="11.613565858755887"><ele>120.0</ele><time>2026-04-18T09:19:38Z</time></trkpt><trkpt lat="42.4898977607182" lon="11.613693076817045"><ele>120.0</ele><time>2026-04-18T09:19:39Z</time></trkpt><trkpt lat="42.48984341400875" lon="11.613786200432552"><ele>120.0</ele><time>2026-04-18T09:19:40Z</time></trkpt><trkpt lat="42.48978809679581" lon="11.61387535169036"><ele>120.0</ele><time>2026-04-18T09:19:41Z</time></trkpt><trkpt lat="42.48973728392623" lon="11.613942300652957"><ele>118.6</ele><time>2026-04-18T09:19:42Z</time></trkpt><trkpt lat="42.48966613181333" lon="11.614018660584238"><ele>117.2</ele><time>2026-04-18T09:19:43Z</time></trkpt><trkpt lat="42.489571754707804" lon="11.614118220670823"><ele>115.80000000000001</ele><time>2026-04-18T09:19:44Z</time></trkpt><trkpt lat="42.48945874428138" lon="11.614168760212182"><ele>114.4</ele><time>2026-04-18T09:19:45Z</time></trkpt><trkpt lat="42.48934912188983" lon="11.614222009840189"><ele>113.0</ele><time>2026-04-18T09:19:46Z</time></trkpt><trkpt lat="42.48923586353122" lon="11.614281744490448"><ele>113.0</ele><time>2026-04-18T09:19:47Z</time></trkpt><trkpt lat="42.489135676177504" lon="11.614356788015472"><ele>113.0</ele><time>2026-04-18T09:19:48Z</time></trkpt><trkpt lat="42.48903327921424" lon="11.6144187933009"><ele>113.0</ele><time>2026-04-18T09:19:49Z</time></trkpt><trkpt lat="42.48892412711641" lon="11.614473850474235"><ele>113.0</ele><time>2026-04-18T09:19:50Z</time></trkpt><trkpt lat="42.48882282743836" lon="11.614532955748892"><ele>112.80000000000001</ele><time>2026-04-18T09:19:51Z</time></trkpt><trkpt lat="42.48871346409271" lon="11.61461953986797"><ele>112.60000000000001</ele><time>2026-04-18T09:19:51.999Z</time></trkpt><trkpt lat="42.488619787997344" lon="11.61470665902767"><ele>112.39999999999999</ele><time>2026-04-18T09:19:52.999Z</time></trkpt><trkpt lat="42.488550138359024" lon="11.614784443423073"><ele>112.19999999999999</ele><time>2026-04-18T09:19:53.999Z</time></trkpt><trkpt lat="42.488479074197855" lon="11.614864606315928"><ele>112.0</ele><time>2026-04-18T09:19:54.999Z</time></trkpt><trkpt lat="42.48838550447793" lon="11.614941907205257"><ele>112.0</ele><time>2026-04-18T09:19:55.999Z</time></trkpt><trkpt lat="42.48828749329149" lon="11.614977325726347"><ele>111.99999999999999</ele><time>2026-04-18T09:19:56.999Z</time></trkpt><trkpt lat="42.48819102429237" lon="11.614990778076999"><ele>111.99999999999999</ele><time>2026-04-18T09:19:57.999Z</time></trkpt><trkpt lat="42.488097573476146" lon="11.61496803451035"><ele>112.0</ele><time>2026-04-18T09:19:58.999Z</time></trkpt><trkpt lat="42.48800364283895" lon="11.614927476135598"><ele>112.0</ele><time>2026-04-18T09:19:59.999Z</time></trkpt><trkpt lat="42.48790887942953" lon="11.614860668902036"><ele>111.39999999999999</ele><time>2026-04-18T09:20:00.999Z</time></trkpt><trkpt lat="42.48780798089324" lon="11.614774877623322"><ele>110.79999999999998</ele><time>2026-04-18T09:20:01.999Z</time></trkpt><trkpt lat="42.48772474319699" lon="11.614674843640685"><ele>110.2</ele><time>2026-04-18T09:20:02.999Z</time></trkpt><trkpt lat="42.48765926153262" lon="11.614585978911887"><ele>109.6</ele><time>2026-04-18T09:20:03.999Z</time></trkpt><trkpt lat="42.48759632198226" lon="11.614504118877601"><ele>109.0</ele><time>2026-04-18T09:20:04.999Z</time></trkpt><trkpt lat="42.48753480219618" lon="11.614394997332877"><ele>110.4</ele><time>2026-04-18T09:20:05.999Z</time></trkpt><trkpt lat="42.487484062866024" lon="11.614280613567486"><ele>111.80000000000001</ele><time>2026-04-18T09:20:06.999Z</time></trkpt><trkpt lat="42.487441815235805" lon="11.614166762027763"><ele>113.19999999999999</ele><time>2026-04-18T09:20:07.999Z</time></trkpt><trkpt lat="42.487401269047965" lon="11.614052331369994"><ele>114.6</ele><time>2026-04-18T09:20:08.999Z</time></trkpt><trkpt lat="42.487347388570136" lon="11.613952762766425"><ele>116.0</ele><time>2026-04-18T09:20:09.999Z</time></trkpt><trkpt lat="42.48726648730738" lon="11.613876322348085"><ele>116.0</ele><time>2026-04-18T09:20:10.999Z</time></trkpt><trkpt lat="42.487166349823106" lon="11.61381014049854"><ele>116.0</ele><time>2026-04-18T09:20:11.999Z</time></trkpt><trkpt lat="42.48708425345002" lon="11.613749369389808"><ele>116.0</ele><time>2026-04-18T09:20:12.999Z</time></trkpt><trkpt lat="42.48700000077812" lon="11.613633584049833"><ele>116.0</ele><time>2026-04-18T09:20:13.999Z</time></trkpt><trkpt lat="42.486948913068474" lon="11.613490689718935"><ele>116.0</ele><time>2026-04-18T09:20:14.999Z</time></trkpt><trkpt lat="42.48687365162393" lon="11.61335470973056"><ele>116.19999999999999</ele><time>2026-04-18T09:20:15.999Z</time></trkpt><trkpt lat="42.4868256906742" lon="11.61320849753138"><ele>116.39999999999999</ele><time>2026-04-18T09:20:16.999Z</time></trkpt><trkpt lat="42.4867894211482" lon="11.613067834134918"><ele>116.6</ele><time>2026-04-18T09:20:17.999Z</time></trkpt><trkpt lat="42.48675038729517" lon="11.612947306429177"><ele>116.8</ele><time>2026-04-18T09:20:18.999Z</time></trkpt><trkpt lat="42.486690241857815" lon="11.612841254537868"><ele>117.0</ele><time>2026-04-18T09:20:19.999Z</time></trkpt><trkpt lat="42.48662115640075" lon="11.612748269054807"><ele>117.75</ele><time>2026-04-18T09:20:20.999Z</time></trkpt><trkpt lat="42.48653330932168" lon="11.612672401208087"><ele>118.5</ele><time>2026-04-18T09:20:21.999Z</time></trkpt><trkpt lat="42.48642138492105" lon="11.612612111264514"><ele>119.25</ele><time>2026-04-18T09:20:22.999Z</time></trkpt><trkpt lat="42.48631081607364" lon="11.612529502916205"><ele>120.0</ele><time>2026-04-18T09:20:23.999Z</time></trkpt><trkpt lat="42.48620261260883" lon="11.612483366872146"><ele>120.0</ele><time>2026-04-18T09:20:24.999Z</time></trkpt><trkpt lat="42.486125495037435" lon="11.612405809241322"><ele>120.0</ele><time>2026-04-18T09:20:25.999Z</time></trkpt><trkpt lat="42.48605769902567" lon="11.612327165546198"><ele>120.0</ele><time>2026-04-18T09:20:26.999Z</time></trkpt><trkpt lat="42.485983499782854" lon="11.612211217215513"><ele>120.0</ele><time>2026-04-18T09:20:27.999Z</time></trkpt><trkpt lat="42.485861512083765" lon="11.61206836733155"><ele>122.25</ele><time>2026-04-18T09:20:28.999Z</time></trkpt><trkpt lat="42.48575490854259" lon="11.611886449721329"><ele>124.5</ele><time>2026-04-18T09:20:29.999Z</time></trkpt><trkpt lat="42.485670590430914" lon="11.611764718289125"><ele>126.75</ele><time>2026-04-18T09:20:30.999Z</time></trkpt><trkpt lat="42.485605127760245" lon="11.611670208794234"><ele>129.0</ele><time>2026-04-18T09:20:31.999Z</time></trkpt><trkpt lat="42.4855261184915" lon="11.611556469594433"><ele>129.0</ele><time>2026-04-18T09:20:32.999Z</time></trkpt><trkpt lat="42.485445679705485" lon="11.611463000241109"><ele>129.0</ele><time>2026-04-18T09:20:33.999Z</time></trkpt><trkpt lat="42.48538338630974" lon="11.611373279141397"><ele>129.0</ele><time>2026-04-18T09:20:34.999Z</time></trkpt><trkpt lat="42.48532902734382" lon="11.61128197700712"><ele>129.0</ele><time>2026-04-18T09:20:35.999Z</time></trkpt><trkpt lat="42.485278557968684" lon="11.611189545568712"><ele>129.0</ele><time>2026-04-18T09:20:36.999Z</time></trkpt><trkpt lat="42.48522957523871" lon="11.6111117494767"><ele>129.0</ele><time>2026-04-18T09:20:38Z</time></trkpt><trkpt lat="42.485194784206726" lon="11.611028946333754"><ele>129.6</ele><time>2026-04-18T09:20:39Z</time></trkpt><trkpt lat="42.485158104321705" lon="11.610940414296863"><ele>130.2</ele><time>2026-04-18T09:20:40Z</time></trkpt><trkpt lat="42.485075229454736" lon="11.61083172088947"><ele>130.79999999999998</ele><time>2026-04-18T09:20:42Z</time></trkpt><trkpt lat="42.48499306194042" lon="11.610872434560713"><ele>131.4</ele><time>2026-04-18T09:20:43Z</time></trkpt><trkpt lat="42.48488607933296" lon="11.61088035579848"><ele>132.0</ele><time>2026-04-18T09:20:44Z</time></trkpt><trkpt lat="42.48476409397054" lon="11.610909561036014"><ele>132.0</ele><time>2026-04-18T09:20:45Z</time></trkpt><trkpt lat="42.484612837562906" lon="11.6109056369439"><ele>132.0</ele><time>2026-04-18T09:20:46Z</time></trkpt><trkpt lat="42.484454134171315" lon="11.610907979291971"><ele>132.0</ele><time>2026-04-18T09:20:47Z</time></trkpt><trkpt lat="42.48432507920688" lon="11.610915973903174"><ele>132.0</ele><time>2026-04-18T09:20:48Z</time></trkpt><trkpt lat="42.48419822956792" lon="11.610939370946076"><ele>131.75</ele><time>2026-04-18T09:20:49Z</time></trkpt><trkpt lat="42.48408269571842" lon="11.61093925048741"><ele>131.5</ele><time>2026-04-18T09:20:50Z</time></trkpt><trkpt lat="42.48396396937989" lon="11.610942832310641"><ele>131.25</ele><time>2026-04-18T09:20:51Z</time></trkpt><trkpt lat="42.48384234860959" lon="11.610943051763781"><ele>131.0</ele><time>2026-04-18T09:20:52Z</time></trkpt><trkpt lat="42.48374548106326" lon="11.61093713865388"><ele>130.8</ele><time>2026-04-18T09:20:53Z</time></trkpt><trkpt lat="42.48365008301845" lon="11.610916909559892"><ele>130.6</ele><time>2026-04-18T09:20:54Z</time></trkpt><trkpt lat="42.483574276727076" lon="11.610906145835104"><ele>130.4</ele><time>2026-04-18T09:20:55Z</time></trkpt><trkpt lat="42.48350285309276" lon="11.610869321411649"><ele>130.2</ele><time>2026-04-18T09:20:56Z</time></trkpt><trkpt lat="42.48340519043829" lon="11.610810467829687"><ele>130.0</ele><time>2026-04-18T09:20:57Z</time></trkpt><trkpt lat="42.48331476767151" lon="11.610762608024986"><ele>130.0</ele><time>2026-04-18T09:20:58Z</time></trkpt><trkpt lat="42.48322186159364" lon="11.610758271860401"><ele>130.0</ele><time>2026-04-18T09:20:59Z</time></trkpt><trkpt lat="42.48309549847078" lon="11.610790446186558"><ele>130.0</ele><time>2026-04-18T09:21:00Z</time></trkpt><trkpt lat="42.48294685144062" lon="11.610823230239507"><ele>130.0</ele><time>2026-04-18T09:21:01Z</time></trkpt><trkpt lat="42.482811781480386" lon="11.61086622788916"><ele>130.0</ele><time>2026-04-18T09:21:02Z</time></trkpt><trkpt lat="42.48269842287767" lon="11.610903643580217"><ele>130.0</ele><time>2026-04-18T09:21:03Z</time></trkpt><trkpt lat="42.482587318874565" lon="11.610940061708725"><ele>130.0</ele><time>2026-04-18T09:21:04Z</time></trkpt><trkpt lat="42.482477619802836" lon="11.610986036842233"><ele>130.0</ele><time>2026-04-18T09:21:05Z</time></trkpt><trkpt lat="42.482365654349806" lon="11.611015235709766"><ele>130.0</ele><time>2026-04-18T09:21:06Z</time></trkpt><trkpt lat="42.48225509925941" lon="11.611029649599775"><ele>130.0</ele><time>2026-04-18T09:21:07Z</time></trkpt><trkpt lat="42.482140660427895" lon="11.611017366615412"><ele>130.0</ele><time>2026-04-18T09:21:08Z</time></trkpt><trkpt lat="42.482023534761524" lon="11.611007593204228"><ele>130.0</ele><time>2026-04-18T09:21:09Z</time></trkpt><trkpt lat="42.48189706767421" lon="11.610982034266696"><ele>131.0</ele><time>2026-04-18T09:21:10Z</time></trkpt><trkpt lat="42.481765357752465" lon="11.610947355827522"><ele>132.0</ele><time>2026-04-18T09:21:11Z</time></trkpt><trkpt lat="42.481634428259355" lon="11.61090504751513"><ele>133.0</ele><time>2026-04-18T09:21:12Z</time></trkpt><trkpt lat="42.48153268978368" lon="11.61088233323951"><ele>134.0</ele><time>2026-04-18T09:21:13Z</time></trkpt><trkpt lat="42.48140546378054" lon="11.610855686316773"><ele>134.0</ele><time>2026-04-18T09:21:15Z</time></trkpt><trkpt lat="42.48128963185541" lon="11.610833744739349"><ele>134.0</ele><time>2026-04-18T09:21:16Z</time></trkpt><trkpt lat="42.4811675255547" lon="11.610810453910355"><ele>134.0</ele><time>2026-04-18T09:21:17Z</time></trkpt><trkpt lat="42.48106206328517" lon="11.610799462281669"><ele>134.0</ele><time>2026-04-18T09:21:18Z</time></trkpt><trkpt lat="42.48097242480154" lon="11.610796373694962"><ele>134.0</ele><time>2026-04-18T09:21:19Z</time></trkpt><trkpt lat="42.480882322565286" lon="11.610835825314377"><ele>134.0</ele><time>2026-04-18T09:21:20Z</time></trkpt><trkpt lat="42.48077054596707" lon="11.610895607688729"><ele>134.0</ele><time>2026-04-18T09:21:21Z</time></trkpt><trkpt lat="42.48062515331084" lon="11.610954518490706"><ele>134.0</ele><time>2026-04-18T09:21:22Z</time></trkpt><trkpt lat="42.4804766020819" lon="11.611004809641555"><ele>134.0</ele><time>2026-04-18T09:21:23Z</time></trkpt><trkpt lat="42.48037313619365" lon="11.61105436529351"><ele>134.6</ele><time>2026-04-18T09:21:24Z</time></trkpt><trkpt lat="42.48027596671759" lon="11.611096708242124"><ele>135.2</ele><time>2026-04-18T09:21:25Z</time></trkpt><trkpt lat="42.48017595674767" lon="11.61113629260391"><ele>135.79999999999998</ele><time>2026-04-18T09:21:26Z</time></trkpt><trkpt lat="42.480083430499356" lon="11.61118379173804"><ele>136.4</ele><time>2026-04-18T09:21:27Z</time></trkpt><trkpt lat="42.48000229850886" lon="11.611235016132806"><ele>137.0</ele><time>2026-04-18T09:21:28Z</time></trkpt><trkpt lat="42.479904317153945" lon="11.611269593561206"><ele>135.6</ele><time>2026-04-18T09:21:29Z</time></trkpt><trkpt lat="42.47980466537779" lon="11.611269527642998"><ele>134.2</ele><time>2026-04-18T09:21:30Z</time></trkpt><trkpt lat="42.47969498468694" lon="11.61127220037944"><ele>132.8</ele><time>2026-04-18T09:21:31Z</time></trkpt><trkpt lat="42.47959549744543" lon="11.611289174335024"><ele>131.4</ele><time>2026-04-18T09:21:32Z</time></trkpt><trkpt lat="42.47949726108964" lon="11.611271083856636"><ele>130.0</ele><time>2026-04-18T09:21:33Z</time></trkpt><trkpt lat="42.47939596470127" lon="11.611243848641035"><ele>130.0</ele><time>2026-04-18T09:21:34Z</time></trkpt><trkpt lat="42.479264506013585" lon="11.611215081426398"><ele>130.0</ele><time>2026-04-18T09:21:35Z</time></trkpt><trkpt lat="42.47914666824721" lon="11.611151811670286"><ele>130.0</ele><time>2026-04-18T09:21:36Z</time></trkpt><trkpt lat="42.47904041312357" lon="11.61112082128513"><ele>130.0</ele><time>2026-04-18T09:21:37Z</time></trkpt><trkpt lat="42.478933358487794" lon="11.611086713088099"><ele>131.8</ele><time>2026-04-18T09:21:38Z</time></trkpt><trkpt lat="42.47884815592185" lon="11.611070100583369"><ele>133.6</ele><time>2026-04-18T09:21:39Z</time></trkpt><trkpt lat="42.47874052105522" lon="11.611073194952066"><ele>135.4</ele><time>2026-04-18T09:21:40Z</time></trkpt><trkpt lat="42.47863618546701" lon="11.611085077323272"><ele>137.2</ele><time>2026-04-18T09:21:41Z</time></trkpt><trkpt lat="42.478548108662366" lon="11.611100126490788"><ele>139.0</ele><time>2026-04-18T09:21:42Z</time></trkpt><trkpt lat="42.47846587390101" lon="11.61108742589617"><ele>139.0</ele><time>2026-04-18T09:21:43Z</time></trkpt><trkpt lat="42.478357167757885" lon="11.611061654325217"><ele>139.0</ele><time>2026-04-18T09:21:44Z</time></trkpt><trkpt lat="42.4782621312484" lon="11.611052146149028"><ele>139.0</ele><time>2026-04-18T09:21:45Z</time></trkpt><trkpt lat="42.478167760331054" lon="11.611057380953676"><ele>139.0</ele><time>2026-04-18T09:21:46Z</time></trkpt><trkpt lat="42.47806794635166" lon="11.61107810835217"><ele>139.0</ele><time>2026-04-18T09:21:47Z</time></trkpt><trkpt lat="42.47796524701607" lon="11.611109625726588"><ele>139.2</ele><time>2026-04-18T09:21:47.999Z</time></trkpt><trkpt lat="42.47785752338014" lon="11.611124857081924"><ele>139.4</ele><time>2026-04-18T09:21:48.999Z</time></trkpt><trkpt lat="42.47774592466677" lon="11.611137265323647"><ele>139.6</ele><time>2026-04-18T09:21:49.999Z</time></trkpt><trkpt lat="42.47765625892804" lon="11.611141942684126"><ele>139.8</ele><time>2026-04-18T09:21:50.999Z</time></trkpt><trkpt lat="42.47755176574299" lon="11.611160507323243"><ele>140.0</ele><time>2026-04-18T09:21:51.999Z</time></trkpt><trkpt lat="42.47744390021906" lon="11.611164664716405"><ele>138.0</ele><time>2026-04-18T09:21:52.999Z</time></trkpt><trkpt lat="42.477311358326276" lon="11.611163769700077"><ele>136.0</ele><time>2026-04-18T09:21:53.999Z</time></trkpt><trkpt lat="42.477184090371985" lon="11.611186496767788"><ele>134.0</ele><time>2026-04-18T09:21:54.999Z</time></trkpt><trkpt lat="42.47706226360082" lon="11.611204916444224"><ele>132.0</ele><time>2026-04-18T09:21:55.999Z</time></trkpt><trkpt lat="42.4769584266351" lon="11.611214837914615"><ele>132.0</ele><time>2026-04-18T09:21:56.999Z</time></trkpt><trkpt lat="42.47686495235748" lon="11.611224392467772"><ele>132.0</ele><time>2026-04-18T09:21:57.999Z</time></trkpt><trkpt lat="42.47675848698787" lon="11.61123448399629"><ele>132.0</ele><time>2026-04-18T09:21:58.999Z</time></trkpt><trkpt lat="42.47666452379877" lon="11.611265264036193"><ele>132.0</ele><time>2026-04-18T09:21:59.999Z</time></trkpt><trkpt lat="42.47650900624103" lon="11.611287029749368"><ele>132.0</ele><time>2026-04-18T09:22:00.999Z</time></trkpt><trkpt lat="42.476375761210114" lon="11.611293167604083"><ele>132.0</ele><time>2026-04-18T09:22:01.999Z</time></trkpt><trkpt lat="42.476237518522645" lon="11.61129049344359"><ele>132.0</ele><time>2026-04-18T09:22:02.999Z</time></trkpt><trkpt lat="42.476117915001424" lon="11.611317921345211"><ele>132.0</ele><time>2026-04-18T09:22:03.999Z</time></trkpt><trkpt lat="42.476008479654546" lon="11.61132652599738"><ele>132.0</ele><time>2026-04-18T09:22:04.999Z</time></trkpt><trkpt lat="42.47587107402665" lon="11.611353120526573"><ele>132.0</ele><time>2026-04-18T09:22:05.999Z</time></trkpt><trkpt lat="42.47576441389028" lon="11.611403418011683"><ele>132.0</ele><time>2026-04-18T09:22:06.999Z</time></trkpt><trkpt lat="42.47565828136758" lon="11.611437993793107"><ele>132.0</ele><time>2026-04-18T09:22:07.999Z</time></trkpt><trkpt lat="42.4755744907123" lon="11.61148163786782"><ele>132.0</ele><time>2026-04-18T09:22:08.999Z</time></trkpt><trkpt lat="42.47545321534269" lon="11.611521550849737"><ele>132.0</ele><time>2026-04-18T09:22:09.999Z</time></trkpt><trkpt lat="42.475339317087915" lon="11.61156154390572"><ele>132.0</ele><time>2026-04-18T09:22:10.999Z</time></trkpt><trkpt lat="42.475215557892966" lon="11.611615285992672"><ele>132.0</ele><time>2026-04-18T09:22:11.999Z</time></trkpt><trkpt lat="42.475071931175584" lon="11.611682348067797"><ele>131.75</ele><time>2026-04-18T09:22:12.999Z</time></trkpt><trkpt lat="42.47493429816668" lon="11.61175651520333"><ele>131.5</ele><time>2026-04-18T09:22:13.999Z</time></trkpt><trkpt lat="42.47479529834034" lon="11.611792410291741"><ele>131.25</ele><time>2026-04-18T09:22:14.999Z</time></trkpt><trkpt lat="42.4746517132106" lon="11.611852758969075"><ele>131.0</ele><time>2026-04-18T09:22:15.999Z</time></trkpt><trkpt lat="42.47454012112188" lon="11.611917476451223"><ele>131.5</ele><time>2026-04-18T09:22:16.999Z</time></trkpt><trkpt lat="42.47443254522339" lon="11.611966840883444"><ele>132.0</ele><time>2026-04-18T09:22:17.999Z</time></trkpt><trkpt lat="42.47430458412694" lon="11.612006168906747"><ele>132.5</ele><time>2026-04-18T09:22:18.999Z</time></trkpt><trkpt lat="42.474191621279765" lon="11.61204777700488"><ele>133.0</ele><time>2026-04-18T09:22:19.999Z</time></trkpt><trkpt lat="42.4740939844774" lon="11.61209729853851"><ele>132.0</ele><time>2026-04-18T09:22:20.999Z</time></trkpt><trkpt lat="42.47399132721284" lon="11.61214313433189"><ele>131.0</ele><time>2026-04-18T09:22:21.999Z</time></trkpt><trkpt lat="42.47389825065552" lon="11.612187266718962"><ele>130.0</ele><time>2026-04-18T09:22:22.999Z</time></trkpt><trkpt lat="42.473817836091634" lon="11.612233489181845"><ele>129.0</ele><time>2026-04-18T09:22:23.999Z</time></trkpt><trkpt lat="42.47371431686298" lon="11.612285456370369"><ele>128.0</ele><time>2026-04-18T09:22:24.999Z</time></trkpt><trkpt lat="42.473591120063475" lon="11.61234212955585"><ele>128.0</ele><time>2026-04-18T09:22:25.999Z</time></trkpt><trkpt lat="42.473465063746346" lon="11.612386193054327"><ele>128.0</ele><time>2026-04-18T09:22:26.999Z</time></trkpt><trkpt lat="42.47336116942933" lon="11.612422926572926"><ele>128.0</ele><time>2026-04-18T09:22:27.999Z</time></trkpt><trkpt lat="42.47326118865023" lon="11.612451691063503"><ele>128.0</ele><time>2026-04-18T09:22:28.999Z</time></trkpt><trkpt lat="42.473142317925664" lon="11.61249345326055"><ele>128.0</ele><time>2026-04-18T09:22:29.999Z</time></trkpt><trkpt lat="42.47301229611652" lon="11.612546608436837"><ele>128.0</ele><time>2026-04-18T09:22:30.999Z</time></trkpt><trkpt lat="42.47290263711744" lon="11.61259662561375"><ele>128.0</ele><time>2026-04-18T09:22:31.999Z</time></trkpt><trkpt lat="42.47278500307273" lon="11.61264634223188"><ele>128.0</ele><time>2026-04-18T09:22:32.999Z</time></trkpt><trkpt lat="42.47268388932661" lon="11.612650607832212"><ele>128.20000000000002</ele><time>2026-04-18T09:22:33.999Z</time></trkpt><trkpt lat="42.472589680340405" lon="11.612657857395037"><ele>128.4</ele><time>2026-04-18T09:22:34.999Z</time></trkpt><trkpt lat="42.47248557173133" lon="11.612658238411788"><ele>128.60000000000002</ele><time>2026-04-18T09:22:35.999Z</time></trkpt><trkpt lat="42.47240089394129" lon="11.612679211396546"><ele>128.8</ele><time>2026-04-18T09:22:36.999Z</time></trkpt><trkpt lat="42.47231371649431" lon="11.612680503075394"><ele>129.0</ele><time>2026-04-18T09:22:37.999Z</time></trkpt><trkpt lat="42.47221166876923" lon="11.612714575177588"><ele>129.0</ele><time>2026-04-18T09:22:38.999Z</time></trkpt><trkpt lat="42.472117496907686" lon="11.612735377475223"><ele>129.0</ele><time>2026-04-18T09:22:39.999Z</time></trkpt><trkpt lat="42.472041109659536" lon="11.612755092023724"><ele>129.0</ele><time>2026-04-18T09:22:40.999Z</time></trkpt><trkpt lat="42.4719352097471" lon="11.612797445999178"><ele>129.0</ele><time>2026-04-18T09:22:42.999Z</time></trkpt><trkpt lat="42.472012116559036" lon="11.612781356419022"><ele>129.0</ele><time>2026-04-18T09:22:44Z</time></trkpt><trkpt lat="42.47207501136538" lon="11.61276502950613"><ele>129.0</ele><time>2026-04-18T09:23:48Z</time></trkpt><trkpt lat="42.47201337783944" lon="11.612814103612017"><ele>127.0</ele><time>2026-04-18T09:25:05.001Z</time></trkpt><trkpt lat="42.47196334065313" lon="11.612875754242426"><ele>125.0</ele><time>2026-04-18T09:25:07Z</time></trkpt><trkpt lat="42.47188972393853" lon="11.612935420472484"><ele>123.0</ele><time>2026-04-18T09:25:09Z</time></trkpt><trkpt lat="42.471817138891524" lon="11.612996951924314"><ele>121.0</ele><time>2026-04-18T09:25:11Z</time></trkpt><trkpt lat="42.47174594541042" lon="11.613052739805893"><ele>119.0</ele><time>2026-04-18T09:25:13Z</time></trkpt><trkpt lat="42.471653260714625" lon="11.613061240679482"><ele>117.0</ele><time>2026-04-18T09:25:15Z</time></trkpt><trkpt lat="42.47156201998453" lon="11.613028348375689"><ele>117.0</ele><time>2026-04-18T09:25:17Z</time></trkpt><trkpt lat="42.47147161079298" lon="11.612986799378984"><ele>117.0</ele><time>2026-04-18T09:25:19Z</time></trkpt><trkpt lat="42.471392263046866" lon="11.612949330237157"><ele>117.0</ele><time>2026-04-18T09:25:21Z</time></trkpt><trkpt lat="42.47130947380284" lon="11.612908715242886"><ele>117.0</ele><time>2026-04-18T09:25:23Z</time></trkpt><trkpt lat="42.47126505190763" lon="11.612838862464486"><ele>117.0</ele><time>2026-04-18T09:25:25Z</time></trkpt><trkpt lat="42.47120932612756" lon="11.61275878427224"><ele>117.0</ele><time>2026-04-18T09:25:28Z</time></trkpt><trkpt lat="42.47116644304768" lon="11.612694393839062"><ele>116.75</ele><time>2026-04-18T09:25:30Z</time></trkpt><trkpt lat="42.471088482805875" lon="11.612602430366064"><ele>116.5</ele><time>2026-04-18T09:25:32Z</time></trkpt><trkpt lat="42.47096907952801" lon="11.61255674154819"><ele>116.25</ele><time>2026-04-18T09:25:34Z</time></trkpt><trkpt lat="42.47085627470334" lon="11.612589478879805"><ele>116.0</ele><time>2026-04-18T09:25:36Z</time></trkpt><trkpt lat="42.47074175148763" lon="11.612649372613697"><ele>115.99999999999999</ele><time>2026-04-18T09:25:38Z</time></trkpt><trkpt lat="42.47067242344862" lon="11.612640193575707"><ele>116.0</ele><time>2026-04-18T09:25:39Z</time></trkpt><trkpt lat="42.470608129389745" lon="11.612641703702845"><ele>116.0</ele><time>2026-04-18T09:25:40Z</time></trkpt><trkpt lat="42.470543878710885" lon="11.612632070296645"><ele>116.0</ele><time>2026-04-18T09:25:41Z</time></trkpt><trkpt lat="42.470429804682865" lon="11.612605747154412"><ele>115.99999999999999</ele><time>2026-04-18T09:25:43Z</time></trkpt><trkpt lat="42.47032317017644" lon="11.612568439427955"><ele>116.0</ele><time>2026-04-18T09:25:45Z</time></trkpt><trkpt lat="42.4702320042265" lon="11.61254342833022"><ele>114.6</ele><time>2026-04-18T09:25:47Z</time></trkpt><trkpt lat="42.47013437093583" lon="11.61250402213414"><ele>113.19999999999999</ele><time>2026-04-18T09:25:49Z</time></trkpt><trkpt lat="42.470046017485515" lon="11.612492570668767"><ele>111.80000000000001</ele><time>2026-04-18T09:25:51Z</time></trkpt><trkpt lat="42.469962509794485" lon="11.612523695767017"><ele>110.4</ele><time>2026-04-18T09:25:53Z</time></trkpt><trkpt lat="42.46987053442438" lon="11.612486751296032"><ele>109.0</ele><time>2026-04-18T09:25:56Z</time></trkpt><trkpt lat="42.469797652015416" lon="11.61252376658896"><ele>109.0</ele><time>2026-04-18T09:25:58Z</time></trkpt><trkpt lat="42.46972316085486" lon="11.612513547899393"><ele>109.0</ele><time>2026-04-18T09:25:59.999Z</time></trkpt><trkpt lat="42.46962556030923" lon="11.612483791429316"><ele>109.0</ele><time>2026-04-18T09:26:01.999Z</time></trkpt><trkpt lat="42.46951333385902" lon="11.612496106586939"><ele>109.0</ele><time>2026-04-18T09:26:03.999Z</time></trkpt><trkpt lat="42.46941095680875" lon="11.612514847736389"><ele>109.0</ele><time>2026-04-18T09:26:05.999Z</time></trkpt><trkpt lat="42.469311477291434" lon="11.612533199080818"><ele>107.50000000000001</ele><time>2026-04-18T09:26:07.999Z</time></trkpt><trkpt lat="42.469228780357604" lon="11.61254643784384"><ele>106.0</ele><time>2026-04-18T09:26:09.999Z</time></trkpt><trkpt lat="42.469135487487044" lon="11.612544365988038"><ele>104.5</ele><time>2026-04-18T09:26:11.999Z</time></trkpt><trkpt lat="42.469069038944106" lon="11.612549167699946"><ele>103.0</ele><time>2026-04-18T09:26:12.999Z</time></trkpt><trkpt lat="42.46898265490414" lon="11.612547750076715"><ele>101.50000000000001</ele><time>2026-04-18T09:26:13.999Z</time></trkpt><trkpt lat="42.46890800417852" lon="11.612552041897153"><ele>100.0</ele><time>2026-04-18T09:26:14.999Z</time></trkpt><trkpt lat="42.468806394028235" lon="11.612586019377739"><ele>99.4</ele><time>2026-04-18T09:26:16.999Z</time></trkpt><trkpt lat="42.46872468086655" lon="11.612600302554807"><ele>98.8</ele><time>2026-04-18T09:26:18.999Z</time></trkpt><trkpt lat="42.4686605230097" lon="11.612631228072237"><ele>98.19999999999999</ele><time>2026-04-18T09:26:20.999Z</time></trkpt><trkpt lat="42.46856332445315" lon="11.612644652878684"><ele>97.6</ele><time>2026-04-18T09:26:22.999Z</time></trkpt><trkpt lat="42.46843646738628" lon="11.612617567901538"><ele>97.0</ele><time>2026-04-18T09:26:24.999Z</time></trkpt><trkpt lat="42.46832223469498" lon="11.612618642652965"><ele>97.00000000000001</ele><time>2026-04-18T09:26:26.999Z</time></trkpt><trkpt lat="42.468231679573336" lon="11.612606966762613"><ele>97.0</ele><time>2026-04-18T09:26:28.999Z</time></trkpt><trkpt lat="42.468141237786845" lon="11.612615087499025"><ele>97.0</ele><time>2026-04-18T09:26:30.999Z</time></trkpt><trkpt lat="42.4680398064434" lon="11.612641252330803"><ele>97.0</ele><time>2026-04-18T09:26:32.999Z</time></trkpt><trkpt lat="42.46796071290519" lon="11.612630826333412"><ele>97.00000000000001</ele><time>2026-04-18T09:26:34.999Z</time></trkpt><trkpt lat="42.46788450026406" lon="11.61263710806255"><ele>97.0</ele><time>2026-04-18T09:26:36.999Z</time></trkpt><trkpt lat="42.467798443545355" lon="11.612646074670035"><ele>95.66666666666667</ele><time>2026-04-18T09:26:38.999Z</time></trkpt><trkpt lat="42.46771274767605" lon="11.612651194823062"><ele>94.33333333333334</ele><time>2026-04-18T09:26:40.999Z</time></trkpt><trkpt lat="42.46761999298083" lon="11.612623961064717"><ele>93.0</ele><time>2026-04-18T09:26:42.999Z</time></trkpt><trkpt lat="42.46754957932904" lon="11.612613861180996"><ele>91.66666666666667</ele><time>2026-04-18T09:26:44.999Z</time></trkpt><trkpt lat="42.467478758088895" lon="11.612602792932172"><ele>90.33333333333334</ele><time>2026-04-18T09:26:46.999Z</time></trkpt><trkpt lat="42.46740187581552" lon="11.612626577076426"><ele>89.0</ele><time>2026-04-18T09:26:48.999Z</time></trkpt><trkpt lat="42.46731866097394" lon="11.612684542727834"><ele>89.0</ele><time>2026-04-18T09:26:50.999Z</time></trkpt><trkpt lat="42.46723296298149" lon="11.612750631017285"><ele>89.0</ele><time>2026-04-18T09:26:52.999Z</time></trkpt><trkpt lat="42.46716903668865" lon="11.612851259889764"><ele>89.0</ele><time>2026-04-18T09:26:55Z</time></trkpt><trkpt lat="42.467118649024194" lon="11.61296945935457"><ele>89.0</ele><time>2026-04-18T09:26:57Z</time></trkpt><trkpt lat="42.467043903069275" lon="11.613033419485706"><ele>89.0</ele><time>2026-04-18T09:26:59Z</time></trkpt><trkpt lat="42.46698042514664" lon="11.613098858540598"><ele>87.0</ele><time>2026-04-18T09:27:01Z</time></trkpt><trkpt lat="42.46691973235772" lon="11.613174616966953"><ele>85.0</ele><time>2026-04-18T09:27:03Z</time></trkpt><trkpt lat="42.46685941152152" lon="11.613210128840311"><ele>83.0</ele><time>2026-04-18T09:27:04Z</time></trkpt><trkpt lat="42.466800821971674" lon="11.613253067327717"><ele>81.0</ele><time>2026-04-18T09:27:05Z</time></trkpt><trkpt lat="42.46670537192053" lon="11.613304133932534"><ele>79.0</ele><time>2026-04-18T09:27:07Z</time></trkpt><trkpt lat="42.46663830480875" lon="11.613328415721316"><ele>77.0</ele><time>2026-04-18T09:27:10Z</time></trkpt><trkpt lat="42.46655740590221" lon="11.613305847307798"><ele>77.0</ele><time>2026-04-18T09:27:16Z</time></trkpt><trkpt lat="42.46650330073996" lon="11.613252855482335"><ele>77.0</ele><time>2026-04-18T09:27:20Z</time></trkpt><trkpt lat="42.46644557731535" lon="11.613200853441938"><ele>77.0</ele><time>2026-04-18T09:27:23Z</time></trkpt><trkpt lat="42.4663880121562" lon="11.613160571162338"><ele>77.0</ele><time>2026-04-18T09:27:26Z</time></trkpt><trkpt lat="42.46632136931433" lon="11.613125122317369"><ele>77.0</ele><time>2026-04-18T09:27:28Z</time></trkpt><trkpt lat="42.4662683916872" lon="11.613058726315012"><ele>77.0</ele><time>2026-04-18T09:27:30Z</time></trkpt><trkpt lat="42.46618659960849" lon="11.61298481489809"><ele>77.0</ele><time>2026-04-18T09:27:32Z</time></trkpt><trkpt lat="42.4660851741503" lon="11.612973112736924"><ele>76.5</ele><time>2026-04-18T09:27:34Z</time></trkpt><trkpt lat="42.46600843374432" lon="11.612994049460255"><ele>76.0</ele><time>2026-04-18T09:27:36Z</time></trkpt><trkpt lat="42.46592555588082" lon="11.612995766015201"><ele>75.5</ele><time>2026-04-18T09:27:38Z</time></trkpt><trkpt lat="42.46580081374" lon="11.6129476749992"><ele>75.0</ele><time>2026-04-18T09:27:40Z</time></trkpt><trkpt lat="42.46572482911308" lon="11.612916245265763"><ele>74.5</ele><time>2026-04-18T09:27:41Z</time></trkpt><trkpt lat="42.46565333103177" lon="11.612875765826452"><ele>74.0</ele><time>2026-04-18T09:27:43Z</time></trkpt><trkpt lat="42.46558204713833" lon="11.612836126494855"><ele>74.5</ele><time>2026-04-18T09:28:05.999Z</time></trkpt><trkpt lat="42.465504829900866" lon="11.612811921239926"><ele>75.0</ele><time>2026-04-18T09:28:08.999Z</time></trkpt><trkpt lat="42.46541872828778" lon="11.612791660669735"><ele>75.5</ele><time>2026-04-18T09:28:11.999Z</time></trkpt><trkpt lat="42.46534461713185" lon="11.612761970589888"><ele>76.0</ele><time>2026-04-18T09:28:13.999Z</time></trkpt><trkpt lat="42.465262590665745" lon="11.612725990033383"><ele>76.5</ele><time>2026-04-18T09:28:15.999Z</time></trkpt><trkpt lat="42.465186911762714" lon="11.61271018404437"><ele>77.0</ele><time>2026-04-18T09:28:17.999Z</time></trkpt><trkpt lat="42.465101799567364" lon="11.612736463548107"><ele>77.0</ele><time>2026-04-18T09:28:19.999Z</time></trkpt><trkpt lat="42.464985576676575" lon="11.612722316018557"><ele>77.0</ele><time>2026-04-18T09:28:21.999Z</time></trkpt><trkpt lat="42.46491651899597" lon="11.612725405424545"><ele>77.0</ele><time>2026-04-18T09:28:22.999Z</time></trkpt><trkpt lat="42.46484375418014" lon="11.612731750305503"><ele>77.0</ele><time>2026-04-18T09:28:23.999Z</time></trkpt><trkpt lat="42.46476820006528" lon="11.612755917223916"><ele>77.0</ele><time>2026-04-18T09:28:24.999Z</time></trkpt><trkpt lat="42.4646971404542" lon="11.612779680251347"><ele>77.0</ele><time>2026-04-18T09:28:25.999Z</time></trkpt><trkpt lat="42.464637215816936" lon="11.612809992383331"><ele>76.83333333333334</ele><time>2026-04-18T09:28:26.999Z</time></trkpt><trkpt lat="42.46453967442895" lon="11.612875496667098"><ele>76.66666666666667</ele><time>2026-04-18T09:28:28.999Z</time></trkpt><trkpt lat="42.46444540477948" lon="11.612893271965124"><ele>76.5</ele><time>2026-04-18T09:28:30.999Z</time></trkpt><trkpt lat="42.46438495609451" lon="11.612864379027133"><ele>76.33333333333333</ele><time>2026-04-18T09:28:31.999Z</time></trkpt><trkpt lat="42.464307207708146" lon="11.612836710995568"><ele>76.16666666666666</ele><time>2026-04-18T09:28:33.999Z</time></trkpt><trkpt lat="42.46424123676838" lon="11.61283698599128"><ele>76.0</ele><time>2026-04-18T09:28:36.999Z</time></trkpt><trkpt lat="42.46417860520209" lon="11.612803206679253"><ele>76.39999999999999</ele><time>2026-04-18T09:28:43.999Z</time></trkpt><trkpt lat="42.46409374746828" lon="11.612786022132784"><ele>76.8</ele><time>2026-04-18T09:28:49.999Z</time></trkpt><trkpt lat="42.46397775131621" lon="11.612778169979807"><ele>77.19999999999999</ele><time>2026-04-18T09:28:51.998Z</time></trkpt><trkpt lat="42.4638766762372" lon="11.612780100214621"><ele>77.6</ele><time>2026-04-18T09:28:53.998Z</time></trkpt><trkpt lat="42.46375652006353" lon="11.612753640418115"><ele>78.0</ele><time>2026-04-18T09:28:55.998Z</time></trkpt><trkpt lat="42.463686677086436" lon="11.612750170552014"><ele>77.8</ele><time>2026-04-18T09:28:56.998Z</time></trkpt><trkpt lat="42.46361789750526" lon="11.612761702134557"><ele>77.6</ele><time>2026-04-18T09:28:57.998Z</time></trkpt><trkpt lat="42.46355944760607" lon="11.612797529855166"><ele>77.4</ele><time>2026-04-18T09:28:58.998Z</time></trkpt><trkpt lat="42.46344681044753" lon="11.612862231555598"><ele>77.2</ele><time>2026-04-18T09:29:01Z</time></trkpt><trkpt lat="42.46333417859353" lon="11.612912371501608"><ele>77.0</ele><time>2026-04-18T09:29:03Z</time></trkpt><trkpt lat="42.46323987321966" lon="11.612934790161633"><ele>77.0</ele><time>2026-04-18T09:29:05Z</time></trkpt><trkpt lat="42.463110824362396" lon="11.612929367252471"><ele>77.0</ele><time>2026-04-18T09:29:07Z</time></trkpt><trkpt lat="42.46304338339913" lon="11.612927490682297"><ele>77.0</ele><time>2026-04-18T09:29:08Z</time></trkpt><trkpt lat="42.46293507344876" lon="11.612973413997313"><ele>77.0</ele><time>2026-04-18T09:29:10Z</time></trkpt><trkpt lat="42.46281936312308" lon="11.612961945105107"><ele>77.0</ele><time>2026-04-18T09:29:12Z</time></trkpt><trkpt lat="42.462734701404486" lon="11.612944561428339"><ele>76.6</ele><time>2026-04-18T09:29:13Z</time></trkpt><trkpt lat="42.462648267398485" lon="11.612916449020489"><ele>76.2</ele><time>2026-04-18T09:29:14Z</time></trkpt><trkpt lat="42.46255618118793" lon="11.612904108992986"><ele>75.8</ele><time>2026-04-18T09:29:15Z</time></trkpt><trkpt lat="42.46246743372258" lon="11.612904967470854"><ele>75.4</ele><time>2026-04-18T09:29:16Z</time></trkpt><trkpt lat="42.462367534560016" lon="11.612910888440426"><ele>75.0</ele><time>2026-04-18T09:29:17Z</time></trkpt><trkpt lat="42.462276242844624" lon="11.612928242266259"><ele>75.0</ele><time>2026-04-18T09:29:18Z</time></trkpt><trkpt lat="42.46218318174727" lon="11.612956710396091"><ele>75.0</ele><time>2026-04-18T09:29:19Z</time></trkpt><trkpt lat="42.462103315262304" lon="11.612956190026647"><ele>75.0</ele><time>2026-04-18T09:29:20Z</time></trkpt><trkpt lat="42.462025383821384" lon="11.612958999847361"><ele>75.0</ele><time>2026-04-18T09:29:21Z</time></trkpt><trkpt lat="42.46196076923379" lon="11.612952036040635"><ele>75.0</ele><time>2026-04-18T09:29:22Z</time></trkpt><trkpt lat="42.46189523911737" lon="11.612914270309629"><ele>75.0</ele><time>2026-04-18T09:29:23Z</time></trkpt><trkpt lat="42.46182349921086" lon="11.61287367562988"><ele>75.0</ele><time>2026-04-18T09:29:24Z</time></trkpt><trkpt lat="42.4617641604855" lon="11.612834888018085"><ele>75.0</ele><time>2026-04-18T09:29:25Z</time></trkpt><trkpt lat="42.46170121127394" lon="11.612776033722872"><ele>75.0</ele><time>2026-04-18T09:29:28Z</time></trkpt><trkpt lat="42.461589921159955" lon="11.61275198430067"><ele>75.0</ele><time>2026-04-18T09:29:30Z</time></trkpt><trkpt lat="42.461511282827686" lon="11.612747549947136"><ele>75.0</ele><time>2026-04-18T09:29:31Z</time></trkpt><trkpt lat="42.46144306866345" lon="11.61274829198477"><ele>75.0</ele><time>2026-04-18T09:29:31.999Z</time></trkpt><trkpt lat="42.461377826178314" lon="11.612766171162686"><ele>75.4</ele><time>2026-04-18T09:29:32.999Z</time></trkpt><trkpt lat="42.46126924403412" lon="11.612789356756007"><ele>75.8</ele><time>2026-04-18T09:29:34.999Z</time></trkpt><trkpt lat="42.46117954263924" lon="11.612790331340848"><ele>76.2</ele><time>2026-04-18T09:29:36.999Z</time></trkpt><trkpt lat="42.46104438792057" lon="11.612802967712463"><ele>76.6</ele><time>2026-04-18T09:29:38.999Z</time></trkpt><trkpt lat="42.460963948150045" lon="11.612793867593776"><ele>77.0</ele><time>2026-04-18T09:29:39.999Z</time></trkpt><trkpt lat="42.46089829727581" lon="11.612776935825721"><ele>77.0</ele><time>2026-04-18T09:29:40.999Z</time></trkpt><trkpt lat="42.460819610665936" lon="11.612767658903342"><ele>77.0</ele><time>2026-04-18T09:29:42.999Z</time></trkpt><trkpt lat="42.46074628743317" lon="11.612737853456869"><ele>77.0</ele><time>2026-04-18T09:29:44.999Z</time></trkpt><trkpt lat="42.46066655323335" lon="11.612692497059484"><ele>77.0</ele><time>2026-04-18T09:29:47.999Z</time></trkpt><trkpt lat="42.46059331592265" lon="11.612666171975956"><ele>77.0</ele><time>2026-04-18T09:29:50.999Z</time></trkpt><trkpt lat="42.460515074252704" lon="11.612639034017683"><ele>77.0</ele><time>2026-04-18T09:29:52.999Z</time></trkpt><trkpt lat="42.46043210591898" lon="11.612610081914378"><ele>76.83333333333334</ele><time>2026-04-18T09:29:54.999Z</time></trkpt><trkpt lat="42.460358142228785" lon="11.612581738894614"><ele>76.66666666666667</ele><time>2026-04-18T09:29:56.999Z</time></trkpt><trkpt lat="42.460266742409296" lon="11.612569707347577"><ele>76.5</ele><time>2026-04-18T09:29:58.999Z</time></trkpt><trkpt lat="42.46017787027484" lon="11.61256404319167"><ele>76.33333333333333</ele><time>2026-04-18T09:30:00.999Z</time></trkpt><trkpt lat="42.460098847952935" lon="11.61254172786324"><ele>76.16666666666666</ele><time>2026-04-18T09:30:02.999Z</time></trkpt><trkpt lat="42.460007936123915" lon="11.612543330653073"><ele>76.0</ele><time>2026-04-18T09:30:04.999Z</time></trkpt><trkpt lat="42.45993587910762" lon="11.612523301195163"><ele>76.0</ele><time>2026-04-18T09:30:06.999Z</time></trkpt><trkpt lat="42.45985031004797" lon="11.61251819060623"><ele>76.0</ele><time>2026-04-18T09:30:08.999Z</time></trkpt><trkpt lat="42.459728023213984" lon="11.61252558521503"><ele>76.0</ele><time>2026-04-18T09:30:10.999Z</time></trkpt><trkpt lat="42.459654535970834" lon="11.612535910742194"><ele>76.0</ele><time>2026-04-18T09:30:11.999Z</time></trkpt><trkpt lat="42.45958797002713" lon="11.612532737829062"><ele>76.0</ele><time>2026-04-18T09:30:12.999Z</time></trkpt><trkpt lat="42.45949627653192" lon="11.612531087754224"><ele>76.0</ele><time>2026-04-18T09:30:14.999Z</time></trkpt><trkpt lat="42.45942712990488" lon="11.612510950693428"><ele>75.83333333333333</ele><time>2026-04-18T09:30:16.999Z</time></trkpt><trkpt lat="42.4593212626121" lon="11.612507083333892"><ele>75.66666666666666</ele><time>2026-04-18T09:30:18.999Z</time></trkpt><trkpt lat="42.45924344051003" lon="11.612492650456057"><ele>75.5</ele><time>2026-04-18T09:30:19.999Z</time></trkpt><trkpt lat="42.4591601197445" lon="11.61248962048454"><ele>75.33333333333333</ele><time>2026-04-18T09:30:20.999Z</time></trkpt><trkpt lat="42.459071444295006" lon="11.612481633354003"><ele>75.16666666666667</ele><time>2026-04-18T09:30:21.999Z</time></trkpt><trkpt lat="42.45898093188259" lon="11.6124693861874"><ele>75.0</ele><time>2026-04-18T09:30:22.999Z</time></trkpt><trkpt lat="42.45889524993779" lon="11.612462849119252"><ele>75.0</ele><time>2026-04-18T09:30:23.999Z</time></trkpt><trkpt lat="42.45882067210253" lon="11.612455498772858"><ele>75.0</ele><time>2026-04-18T09:30:24.999Z</time></trkpt><trkpt lat="42.45874264499092" lon="11.612462017345736"><ele>75.0</ele><time>2026-04-18T09:30:25.999Z</time></trkpt><trkpt lat="42.45865768025918" lon="11.612477205771999"><ele>75.0</ele><time>2026-04-18T09:30:26.999Z</time></trkpt><trkpt lat="42.45857832305368" lon="11.612497579681875"><ele>75.0</ele><time>2026-04-18T09:30:27.999Z</time></trkpt><trkpt lat="42.458494534611035" lon="11.612497877975139"><ele>75.0</ele><time>2026-04-18T09:30:28.999Z</time></trkpt><trkpt lat="42.45841522710855" lon="11.61250421784776"><ele>75.0</ele><time>2026-04-18T09:30:29.999Z</time></trkpt><trkpt lat="42.458328241257" lon="11.612504917833313"><ele>75.0</ele><time>2026-04-18T09:30:30.999Z</time></trkpt><trkpt lat="42.4582373622919" lon="11.612517278550648"><ele>75.0</ele><time>2026-04-18T09:30:31.999Z</time></trkpt><trkpt lat="42.458136650240434" lon="11.612545690503005"><ele>75.0</ele><time>2026-04-18T09:30:32.999Z</time></trkpt><trkpt lat="42.45801986088659" lon="11.612560847314212"><ele>75.0</ele><time>2026-04-18T09:30:33.999Z</time></trkpt><trkpt lat="42.45790029711352" lon="11.612573367460762"><ele>75.0</ele><time>2026-04-18T09:30:34.999Z</time></trkpt><trkpt lat="42.457783370148526" lon="11.612597373925286"><ele>75.0</ele><time>2026-04-18T09:30:35.999Z</time></trkpt><trkpt lat="42.457661198502976" lon="11.612616247451651"><ele>75.0</ele><time>2026-04-18T09:30:36.999Z</time></trkpt><trkpt lat="42.4575500794488" lon="11.612637701189994"><ele>75.0</ele><time>2026-04-18T09:30:37.999Z</time></trkpt><trkpt lat="42.457435385077815" lon="11.612668777882392"><ele>75.0</ele><time>2026-04-18T09:30:38.999Z</time></trkpt><trkpt lat="42.457321211069534" lon="11.6127033809447"><ele>75.0</ele><time>2026-04-18T09:30:39.999Z</time></trkpt><trkpt lat="42.45720863780692" lon="11.612734221796442"><ele>75.0</ele><time>2026-04-18T09:30:40.999Z</time></trkpt><trkpt lat="42.45709910216198" lon="11.612765652856892"><ele>75.0</ele><time>2026-04-18T09:30:41.999Z</time></trkpt><trkpt lat="42.4569860897785" lon="11.612767571567991"><ele>75.0</ele><time>2026-04-18T09:30:42.999Z</time></trkpt><trkpt lat="42.45687165773639" lon="11.612758148670412"><ele>75.0</ele><time>2026-04-18T09:30:43.999Z</time></trkpt><trkpt lat="42.45676511643883" lon="11.612725978353387"><ele>75.0</ele><time>2026-04-18T09:30:44.998Z</time></trkpt><trkpt lat="42.45664757573882" lon="11.612682239918541"><ele>75.0</ele><time>2026-04-18T09:30:45.998Z</time></trkpt><trkpt lat="42.45652376669673" lon="11.61263236477256"><ele>75.0</ele><time>2026-04-18T09:30:46.998Z</time></trkpt><trkpt lat="42.45640837880912" lon="11.612592157606805"><ele>75.0</ele><time>2026-04-18T09:30:47.998Z</time></trkpt><trkpt lat="42.45631635855469" lon="11.61254985069603"><ele>75.0</ele><time>2026-04-18T09:30:48.998Z</time></trkpt><trkpt lat="42.456243590047215" lon="11.612511508657843"><ele>75.0</ele><time>2026-04-18T09:30:49.998Z</time></trkpt><trkpt lat="42.456184140644176" lon="11.612476604563344"><ele>75.0</ele><time>2026-04-18T09:30:50.998Z</time></trkpt><trkpt lat="42.45605121085454" lon="11.61240113708428"><ele>74.4</ele><time>2026-04-18T09:30:52.998Z</time></trkpt><trkpt lat="42.45594641406281" lon="11.612338722434398"><ele>73.8</ele><time>2026-04-18T09:30:53.998Z</time></trkpt><trkpt lat="42.455840600791554" lon="11.612277124126901"><ele>73.2</ele><time>2026-04-18T09:30:54.998Z</time></trkpt><trkpt lat="42.455741216278895" lon="11.612225797147937"><ele>72.6</ele><time>2026-04-18T09:30:55.998Z</time></trkpt><trkpt lat="42.45564140981447" lon="11.612167299929546"><ele>72.0</ele><time>2026-04-18T09:30:56.998Z</time></trkpt><trkpt lat="42.4555562362761" lon="11.612107673597984"><ele>72.0</ele><time>2026-04-18T09:30:57.998Z</time></trkpt><trkpt lat="42.45546851740204" lon="11.61203318099325"><ele>72.0</ele><time>2026-04-18T09:30:58.998Z</time></trkpt><trkpt lat="42.4553706730139" lon="11.61196476575829"><ele>72.0</ele><time>2026-04-18T09:30:59.998Z</time></trkpt><trkpt lat="42.45529789077277" lon="11.61190328401059"><ele>72.0</ele><time>2026-04-18T09:31:00.998Z</time></trkpt><trkpt lat="42.455234343458685" lon="11.611858350947797"><ele>72.0</ele><time>2026-04-18T09:31:01.998Z</time></trkpt><trkpt lat="42.45515765091341" lon="11.611822811241101"><ele>72.0</ele><time>2026-04-18T09:31:02.998Z</time></trkpt><trkpt lat="42.455077804820746" lon="11.611768833645007"><ele>72.0</ele><time>2026-04-18T09:31:03.998Z</time></trkpt><trkpt lat="42.455001073419986" lon="11.611719277351183"><ele>72.0</ele><time>2026-04-18T09:31:04.998Z</time></trkpt><trkpt lat="42.454928362541345" lon="11.611660655348992"><ele>72.0</ele><time>2026-04-18T09:31:05.998Z</time></trkpt><trkpt lat="42.45484508237845" lon="11.611612725739109"><ele>72.0</ele><time>2026-04-18T09:31:06.999Z</time></trkpt><trkpt lat="42.454761036567874" lon="11.611551943882565"><ele>72.0</ele><time>2026-04-18T09:31:07.999Z</time></trkpt><trkpt lat="42.454698004325856" lon="11.61149418262852"><ele>72.0</ele><time>2026-04-18T09:31:08.999Z</time></trkpt><trkpt lat="42.45464716690961" lon="11.611434633201355"><ele>72.0</ele><time>2026-04-18T09:31:09.999Z</time></trkpt><trkpt lat="42.454576170862445" lon="11.611382123040954"><ele>72.0</ele><time>2026-04-18T09:31:10.999Z</time></trkpt><trkpt lat="42.45448938563839" lon="11.611327218170139"><ele>72.0</ele><time>2026-04-18T09:31:11.999Z</time></trkpt><trkpt lat="42.45441877085282" lon="11.611270886901735"><ele>72.0</ele><time>2026-04-18T09:31:12.999Z</time></trkpt><trkpt lat="42.454353877535944" lon="11.611206853906541"><ele>72.0</ele><time>2026-04-18T09:31:13.999Z</time></trkpt><trkpt lat="42.45429238693036" lon="11.611159658469068"><ele>72.16666666666667</ele><time>2026-04-18T09:31:14.999Z</time></trkpt><trkpt lat="42.45422500441763" lon="11.611064106960729"><ele>72.33333333333333</ele><time>2026-04-18T09:31:16.999Z</time></trkpt><trkpt lat="42.45418104179868" lon="11.610956511116102"><ele>72.5</ele><time>2026-04-18T09:31:18.999Z</time></trkpt><trkpt lat="42.45411482525165" lon="11.610932630670268"><ele>72.66666666666666</ele><time>2026-04-18T09:31:20.999Z</time></trkpt><trkpt lat="42.454050390899354" lon="11.610916734061401"><ele>72.83333333333333</ele><time>2026-04-18T09:31:22.999Z</time></trkpt><trkpt lat="42.45398863464907" lon="11.610835743343705"><ele>73.0</ele><time>2026-04-18T09:31:24.999Z</time></trkpt><trkpt lat="42.453933751379566" lon="11.610787530027386"><ele>73.0</ele><time>2026-04-18T09:31:25.999Z</time></trkpt><trkpt lat="42.453869349896316" lon="11.610743250224766"><ele>73.0</ele><time>2026-04-18T09:31:26.999Z</time></trkpt><trkpt lat="42.45381323878524" lon="11.610694026267986"><ele>73.0</ele><time>2026-04-18T09:31:27.999Z</time></trkpt><trkpt lat="42.45376727967565" lon="11.610617045182257"><ele>73.0</ele><time>2026-04-18T09:31:28.999Z</time></trkpt><trkpt lat="42.45371888978231" lon="11.610561420031203"><ele>73.0</ele><time>2026-04-18T09:31:29.999Z</time></trkpt><trkpt lat="42.453655475611725" lon="11.61050837205611"><ele>73.0</ele><time>2026-04-18T09:31:30.999Z</time></trkpt><trkpt lat="42.45359048147097" lon="11.61045341162425"><ele>73.0</ele><time>2026-04-18T09:31:31.999Z</time></trkpt><trkpt lat="42.4535209320659" lon="11.61039818467592"><ele>72.83333333333333</ele><time>2026-04-18T09:31:32.999Z</time></trkpt><trkpt lat="42.45345097270378" lon="11.610335706717704"><ele>72.66666666666666</ele><time>2026-04-18T09:31:33.999Z</time></trkpt><trkpt lat="42.45337983458618" lon="11.610272280663821"><ele>72.5</ele><time>2026-04-18T09:31:34.999Z</time></trkpt><trkpt lat="42.4533125818959" lon="11.610212055357135"><ele>72.33333333333333</ele><time>2026-04-18T09:31:35.999Z</time></trkpt><trkpt lat="42.45322813398556" lon="11.610144257816277"><ele>72.16666666666667</ele><time>2026-04-18T09:31:36.999Z</time></trkpt><trkpt lat="42.45315017633279" lon="11.610064234119411"><ele>72.0</ele><time>2026-04-18T09:31:37.999Z</time></trkpt><trkpt lat="42.45307193291796" lon="11.609999601803908"><ele>72.00000000000001</ele><time>2026-04-18T09:31:38.999Z</time></trkpt><trkpt lat="42.4529957277314" lon="11.609959754711447"><ele>72.0</ele><time>2026-04-18T09:31:39.999Z</time></trkpt><trkpt lat="42.45291614366731" lon="11.609931946158072"><ele>72.0</ele><time>2026-04-18T09:31:41.999Z</time></trkpt><trkpt lat="42.45284705014152" lon="11.609916592606044"><ele>72.0</ele><time>2026-04-18T09:31:43.999Z</time></trkpt><trkpt lat="42.45278241937188" lon="11.609906206899684"><ele>72.0</ele><time>2026-04-18T09:31:46.999Z</time></trkpt><trkpt lat="42.452714456044255" lon="11.609904586266005"><ele>72.00000000000001</ele><time>2026-04-18T09:31:54.999Z</time></trkpt><trkpt lat="42.45264307656192" lon="11.60985503654722"><ele>72.0</ele><time>2026-04-18T09:31:56.999Z</time></trkpt><trkpt lat="42.45254616021679" lon="11.609847883319548"><ele>72.16666666666667</ele><time>2026-04-18T09:31:58.999Z</time></trkpt><trkpt lat="42.452451596359595" lon="11.609838551041724"><ele>72.33333333333333</ele><time>2026-04-18T09:32:00.999Z</time></trkpt><trkpt lat="42.45236857119884" lon="11.609827826285072"><ele>72.5</ele><time>2026-04-18T09:32:01.999Z</time></trkpt><trkpt lat="42.452276617123744" lon="11.609810625601513"><ele>72.66666666666666</ele><time>2026-04-18T09:32:02.999Z</time></trkpt><trkpt lat="42.452194283205294" lon="11.609768016284129"><ele>72.83333333333333</ele><time>2026-04-18T09:32:03.999Z</time></trkpt><trkpt lat="42.452121762332304" lon="11.60970947385732"><ele>73.0</ele><time>2026-04-18T09:32:04.999Z</time></trkpt><trkpt lat="42.45203912970668" lon="11.609632546300329"><ele>73.2</ele><time>2026-04-18T09:32:05.999Z</time></trkpt><trkpt lat="42.45195733590113" lon="11.609544024120478"><ele>73.4</ele><time>2026-04-18T09:32:06.999Z</time></trkpt><trkpt lat="42.451885569644105" lon="11.609455873134895"><ele>73.60000000000001</ele><time>2026-04-18T09:32:07.999Z</time></trkpt><trkpt lat="42.45182810877003" lon="11.609358362448946"><ele>73.8</ele><time>2026-04-18T09:32:08.999Z</time></trkpt><trkpt lat="42.4517663330441" lon="11.609252157813627"><ele>74.0</ele><time>2026-04-18T09:32:09.999Z</time></trkpt><trkpt lat="42.45170384002634" lon="11.609130656044444"><ele>74.5</ele><time>2026-04-18T09:32:10.999Z</time></trkpt><trkpt lat="42.4516487517653" lon="11.609001393808192"><ele>75.0</ele><time>2026-04-18T09:32:11.999Z</time></trkpt><trkpt lat="42.4515679073683" lon="11.608829459608907"><ele>75.5</ele><time>2026-04-18T09:32:12.999Z</time></trkpt><trkpt lat="42.45149342381797" lon="11.608661277802895"><ele>76.0</ele><time>2026-04-18T09:32:13.999Z</time></trkpt><trkpt lat="42.451429664103784" lon="11.608521491896875"><ele>77.25</ele><time>2026-04-18T09:32:14.999Z</time></trkpt><trkpt lat="42.45136298074118" lon="11.608382580709176"><ele>78.5</ele><time>2026-04-18T09:32:15.999Z</time></trkpt><trkpt lat="42.45128935101018" lon="11.608259096122838"><ele>79.75</ele><time>2026-04-18T09:32:16.999Z</time></trkpt><trkpt lat="42.45121944411278" lon="11.608138092322346"><ele>81.0</ele><time>2026-04-18T09:32:17.999Z</time></trkpt><trkpt lat="42.451156661651844" lon="11.60802843395325"><ele>80.8</ele><time>2026-04-18T09:32:18.999Z</time></trkpt><trkpt lat="42.45111654871404" lon="11.60792177479303"><ele>80.6</ele><time>2026-04-18T09:32:19.999Z</time></trkpt><trkpt lat="42.45108953268722" lon="11.607797335692826"><ele>80.4</ele><time>2026-04-18T09:32:20.999Z</time></trkpt><trkpt lat="42.45107558437996" lon="11.607675845193562"><ele>80.2</ele><time>2026-04-18T09:32:21.999Z</time></trkpt><trkpt lat="42.451048896970995" lon="11.607539368563197"><ele>80.0</ele><time>2026-04-18T09:32:22.999Z</time></trkpt><trkpt lat="42.45101516356787" lon="11.607394131220737"><ele>80.0</ele><time>2026-04-18T09:32:23.999Z</time></trkpt><trkpt lat="42.45097464426989" lon="11.607245300984683"><ele>80.0</ele><time>2026-04-18T09:32:24.999Z</time></trkpt><trkpt lat="42.4509269232793" lon="11.607077477430957"><ele>80.0</ele><time>2026-04-18T09:32:25.999Z</time></trkpt><trkpt lat="42.45088099967729" lon="11.606902781250138"><ele>80.0</ele><time>2026-04-18T09:32:26.999Z</time></trkpt><trkpt lat="42.45082992170349" lon="11.606726709792035"><ele>80.5</ele><time>2026-04-18T09:32:27.999Z</time></trkpt><trkpt lat="42.450784601347785" lon="11.606543077821035"><ele>81.0</ele><time>2026-04-18T09:32:28.999Z</time></trkpt><trkpt lat="42.45073715118963" lon="11.606366510323689"><ele>81.5</ele><time>2026-04-18T09:32:29.999Z</time></trkpt><trkpt lat="42.45069374795749" lon="11.606188233189531"><ele>82.0</ele><time>2026-04-18T09:32:30.999Z</time></trkpt><trkpt lat="42.45064708854118" lon="11.606033950426776"><ele>82.39999999999999</ele><time>2026-04-18T09:32:31.999Z</time></trkpt><trkpt lat="42.4506080455254" lon="11.60590100554183"><ele>82.8</ele><time>2026-04-18T09:32:32.999Z</time></trkpt><trkpt lat="42.45057137552914" lon="11.605782670200599"><ele>83.2</ele><time>2026-04-18T09:32:33.999Z</time></trkpt><trkpt lat="42.45054151316302" lon="11.60567998692244"><ele>83.6</ele><time>2026-04-18T09:32:34.999Z</time></trkpt><trkpt lat="42.45051603744729" lon="11.60558800998821"><ele>84.0</ele><time>2026-04-18T09:32:35.999Z</time></trkpt><trkpt lat="42.450486256694916" lon="11.605453412594805"><ele>84.0</ele><time>2026-04-18T09:32:36.999Z</time></trkpt><trkpt lat="42.450436890207584" lon="11.605319359542992"><ele>84.0</ele><time>2026-04-18T09:32:37.999Z</time></trkpt><trkpt lat="42.45039842594666" lon="11.605196715768601"><ele>84.0</ele><time>2026-04-18T09:32:38.999Z</time></trkpt><trkpt lat="42.45034306865735" lon="11.60507940402205"><ele>84.0</ele><time>2026-04-18T09:32:39.999Z</time></trkpt><trkpt lat="42.45030307463561" lon="11.604975870371488"><ele>84.0</ele><time>2026-04-18T09:32:40.999Z</time></trkpt><trkpt lat="42.45024950907157" lon="11.60487894038893"><ele>84.0</ele><time>2026-04-18T09:32:41.999Z</time></trkpt><trkpt lat="42.45017809748779" lon="11.60477086191203"><ele>84.0</ele><time>2026-04-18T09:32:42.999Z</time></trkpt><trkpt lat="42.450101605641294" lon="11.604689764150386"><ele>84.0</ele><time>2026-04-18T09:32:43.999Z</time></trkpt><trkpt lat="42.45001443782254" lon="11.60461814967071"><ele>84.0</ele><time>2026-04-18T09:32:44.999Z</time></trkpt><trkpt lat="42.44991829506473" lon="11.604529473997127"><ele>84.0</ele><time>2026-04-18T09:32:45.999Z</time></trkpt><trkpt lat="42.44983201287569" lon="11.60443460933569"><ele>84.5</ele><time>2026-04-18T09:32:46.998Z</time></trkpt><trkpt lat="42.449743044307205" lon="11.604336156264095"><ele>85.0</ele><time>2026-04-18T09:32:47.998Z</time></trkpt><trkpt lat="42.44964822716912" lon="11.604238156267643"><ele>85.5</ele><time>2026-04-18T09:32:48.998Z</time></trkpt><trkpt lat="42.4495538947409" lon="11.604142925083092"><ele>86.0</ele><time>2026-04-18T09:32:49.998Z</time></trkpt><trkpt lat="42.449462246357044" lon="11.604043910381113"><ele>86.0</ele><time>2026-04-18T09:32:50.998Z</time></trkpt><trkpt lat="42.449384296543826" lon="11.603956554101819"><ele>86.0</ele><time>2026-04-18T09:32:51.998Z</time></trkpt><trkpt lat="42.449325799477435" lon="11.603884318994819"><ele>86.0</ele><time>2026-04-18T09:32:52.998Z</time></trkpt><trkpt lat="42.449276057169754" lon="11.603831446875207"><ele>86.0</ele><time>2026-04-18T09:32:53.998Z</time></trkpt><trkpt lat="42.449207647643796" lon="11.603788120138212"><ele>86.0</ele><time>2026-04-18T09:32:54.998Z</time></trkpt><trkpt lat="42.44912536352086" lon="11.60377378991344"><ele>86.0</ele><time>2026-04-18T09:32:55.998Z</time></trkpt><trkpt lat="42.44902179370904" lon="11.60378947949526"><ele>86.0</ele><time>2026-04-18T09:32:56.998Z</time></trkpt><trkpt lat="42.44890041563786" lon="11.60382580030415"><ele>86.0</ele><time>2026-04-18T09:32:57.998Z</time></trkpt><trkpt lat="42.44875666505714" lon="11.60388066531668"><ele>86.0</ele><time>2026-04-18T09:32:58.998Z</time></trkpt><trkpt lat="42.44861402381137" lon="11.603936863236134"><ele>86.0</ele><time>2026-04-18T09:32:59.998Z</time></trkpt><trkpt lat="42.44847592497332" lon="11.603987444981515"><ele>87.0</ele><time>2026-04-18T09:33:00.998Z</time></trkpt><trkpt lat="42.448332629869654" lon="11.60403916683108"><ele>88.0</ele><time>2026-04-18T09:33:01.998Z</time></trkpt><trkpt lat="42.44820504105818" lon="11.60409818048879"><ele>89.0</ele><time>2026-04-18T09:33:02.998Z</time></trkpt><trkpt lat="42.44807548421215" lon="11.604141439338177"><ele>90.0</ele><time>2026-04-18T09:33:03.998Z</time></trkpt><trkpt lat="42.447963588855785" lon="11.604175583496595"><ele>91.0</ele><time>2026-04-18T09:33:04.998Z</time></trkpt><trkpt lat="42.447851855808295" lon="11.604205729347541"><ele>92.0</ele><time>2026-04-18T09:33:05.998Z</time></trkpt><trkpt lat="42.44773957136135" lon="11.604235271316439"><ele>93.0</ele><time>2026-04-18T09:33:06.998Z</time></trkpt><trkpt lat="42.447622689298406" lon="11.60427423252791"><ele>94.0</ele><time>2026-04-18T09:33:07.998Z</time></trkpt><trkpt lat="42.44749541296882" lon="11.604321528187398"><ele>94.0</ele><time>2026-04-18T09:33:08.998Z</time></trkpt><trkpt lat="42.44738417494429" lon="11.604379710248166"><ele>94.0</ele><time>2026-04-18T09:33:09.998Z</time></trkpt><trkpt lat="42.44725516113658" lon="11.604431230457479"><ele>94.0</ele><time>2026-04-18T09:33:10.998Z</time></trkpt><trkpt lat="42.447145396246896" lon="11.60447005105793"><ele>94.0</ele><time>2026-04-18T09:33:11.998Z</time></trkpt><trkpt lat="42.447055141661096" lon="11.604495891439228"><ele>95.0</ele><time>2026-04-18T09:33:12.999Z</time></trkpt><trkpt lat="42.44696182233607" lon="11.604521773771413"><ele>96.0</ele><time>2026-04-18T09:33:13.999Z</time></trkpt><trkpt lat="42.446871906166216" lon="11.604571759742502"><ele>97.0</ele><time>2026-04-18T09:33:14.999Z</time></trkpt><trkpt lat="42.446796533894364" lon="11.604593972547097"><ele>98.0</ele><time>2026-04-18T09:33:15.999Z</time></trkpt><trkpt lat="42.44668875382602" lon="11.604599390074577"><ele>99.0</ele><time>2026-04-18T09:33:17.999Z</time></trkpt><trkpt lat="42.44660795765678" lon="11.604633555057061"><ele>99.0</ele><time>2026-04-18T09:33:19.999Z</time></trkpt><trkpt lat="42.44654226852425" lon="11.604638860306467"><ele>99.0</ele><time>2026-04-18T09:34:04.999Z</time></trkpt><trkpt lat="42.44642772007972" lon="11.604685381920808"><ele>99.0</ele><time>2026-04-18T09:34:06.999Z</time></trkpt><trkpt lat="42.44636711588972" lon="11.604735792606737"><ele>99.0</ele><time>2026-04-18T09:34:07.999Z</time></trkpt><trkpt lat="42.44629331642613" lon="11.604797291568493"><ele>99.0</ele><time>2026-04-18T09:34:08.999Z</time></trkpt><trkpt lat="42.446210311308434" lon="11.604853933256223"><ele>99.0</ele><time>2026-04-18T09:34:09.999Z</time></trkpt><trkpt lat="42.44612288365948" lon="11.60491083034547"><ele>97.75</ele><time>2026-04-18T09:34:10.999Z</time></trkpt><trkpt lat="42.44602648821819" lon="11.60497571831852"><ele>96.5</ele><time>2026-04-18T09:34:11.999Z</time></trkpt><trkpt lat="42.445923010996076" lon="11.605044407721119"><ele>95.25</ele><time>2026-04-18T09:34:12.999Z</time></trkpt><trkpt lat="42.445813378577526" lon="11.605115789576352"><ele>94.0</ele><time>2026-04-18T09:34:13.999Z</time></trkpt><trkpt lat="42.4456962600709" lon="11.605195107025962"><ele>94.0</ele><time>2026-04-18T09:34:14.999Z</time></trkpt><trkpt lat="42.445579683877796" lon="11.605272838265307"><ele>94.0</ele><time>2026-04-18T09:34:15.999Z</time></trkpt><trkpt lat="42.44545839603456" lon="11.605355315940098"><ele>94.0</ele><time>2026-04-18T09:34:16.999Z</time></trkpt><trkpt lat="42.44533059404817" lon="11.605439060568983"><ele>94.0</ele><time>2026-04-18T09:34:17.999Z</time></trkpt><trkpt lat="42.44519810319906" lon="11.605529514240756"><ele>93.33333333333333</ele><time>2026-04-18T09:34:18.999Z</time></trkpt><trkpt lat="42.445059586484625" lon="11.605625033601108"><ele>92.66666666666667</ele><time>2026-04-18T09:34:19.999Z</time></trkpt><trkpt lat="42.44492119532262" lon="11.605718353427129"><ele>92.0</ele><time>2026-04-18T09:34:20.999Z</time></trkpt><trkpt lat="42.44477744843048" lon="11.605814903518464"><ele>90.66666666666667</ele><time>2026-04-18T09:34:21.999Z</time></trkpt><trkpt lat="42.44462809132228" lon="11.605911381009621"><ele>89.33333333333333</ele><time>2026-04-18T09:34:22.999Z</time></trkpt><trkpt lat="42.444477076879835" lon="11.606010758144576"><ele>88.0</ele><time>2026-04-18T09:34:23.999Z</time></trkpt><trkpt lat="42.44431916877514" lon="11.606119292522571"><ele>88.0</ele><time>2026-04-18T09:34:24.999Z</time></trkpt><trkpt lat="42.44416173331535" lon="11.606227740897827"><ele>88.0</ele><time>2026-04-18T09:34:25.999Z</time></trkpt><trkpt lat="42.44400236969139" lon="11.606338053647452"><ele>88.0</ele><time>2026-04-18T09:34:26.999Z</time></trkpt><trkpt lat="42.44383751047807" lon="11.606447170332734"><ele>87.0</ele><time>2026-04-18T09:34:27.999Z</time></trkpt><trkpt lat="42.44367303624596" lon="11.606554360370835"><ele>86.0</ele><time>2026-04-18T09:34:28.999Z</time></trkpt><trkpt lat="42.44350545499232" lon="11.606667358562854"><ele>85.0</ele><time>2026-04-18T09:34:29.999Z</time></trkpt><trkpt lat="42.443337845257865" lon="11.606783119283161"><ele>85.0</ele><time>2026-04-18T09:34:30.999Z</time></trkpt><trkpt lat="42.44317048449346" lon="11.606892998620621"><ele>85.0</ele><time>2026-04-18T09:34:31.999Z</time></trkpt><trkpt lat="42.44299713928659" lon="11.607007393352594"><ele>85.0</ele><time>2026-04-18T09:34:32.999Z</time></trkpt><trkpt lat="42.44282349854556" lon="11.607123838994339"><ele>85.33333333333333</ele><time>2026-04-18T09:34:33.999Z</time></trkpt><trkpt lat="42.44265268093706" lon="11.607241566179123"><ele>85.66666666666667</ele><time>2026-04-18T09:34:34.999Z</time></trkpt><trkpt lat="42.442478446027934" lon="11.607357545571908"><ele>86.0</ele><time>2026-04-18T09:34:35.999Z</time></trkpt><trkpt lat="42.44230967580782" lon="11.607483601685832"><ele>86.0</ele><time>2026-04-18T09:34:36.999Z</time></trkpt><trkpt lat="42.442144270479446" lon="11.607625341469907"><ele>86.0</ele><time>2026-04-18T09:34:37.999Z</time></trkpt><trkpt lat="42.44198240936342" lon="11.607772286637045"><ele>86.0</ele><time>2026-04-18T09:34:38.999Z</time></trkpt><trkpt lat="42.441819390610014" lon="11.6079218627108"><ele>85.66666666666667</ele><time>2026-04-18T09:34:39.999Z</time></trkpt><trkpt lat="42.441655301328126" lon="11.60808350111147"><ele>85.33333333333333</ele><time>2026-04-18T09:34:40.999Z</time></trkpt><trkpt lat="42.441494730856775" lon="11.60823738807309"><ele>85.0</ele><time>2026-04-18T09:34:41.999Z</time></trkpt><trkpt lat="42.44132640937916" lon="11.608389764765182"><ele>85.33333333333333</ele><time>2026-04-18T09:34:42.999Z</time></trkpt><trkpt lat="42.44116155766798" lon="11.608544632647652"><ele>85.66666666666667</ele><time>2026-04-18T09:34:43.999Z</time></trkpt><trkpt lat="42.44100193554937" lon="11.608700875033584"><ele>86.0</ele><time>2026-04-18T09:34:44.999Z</time></trkpt><trkpt lat="42.44083225055654" lon="11.608860480931254"><ele>86.33333333333334</ele><time>2026-04-18T09:34:45.999Z</time></trkpt><trkpt lat="42.44066720187037" lon="11.609015684316008"><ele>86.66666666666667</ele><time>2026-04-18T09:34:46.999Z</time></trkpt><trkpt lat="42.44049908072268" lon="11.609172189907408"><ele>87.0</ele><time>2026-04-18T09:34:47.999Z</time></trkpt><trkpt lat="42.44033169668615" lon="11.609327169884885"><ele>87.33333333333333</ele><time>2026-04-18T09:34:48.999Z</time></trkpt><trkpt lat="42.44016005365547" lon="11.609484988674696"><ele>87.66666666666666</ele><time>2026-04-18T09:34:49.999Z</time></trkpt><trkpt lat="42.43998729198909" lon="11.609646580561096"><ele>88.0</ele><time>2026-04-18T09:34:50.999Z</time></trkpt><trkpt lat="42.4398148886061" lon="11.609811104730214"><ele>87.33333333333333</ele><time>2026-04-18T09:34:51.999Z</time></trkpt><trkpt lat="42.439643177237876" lon="11.60997950361829"><ele>86.66666666666667</ele><time>2026-04-18T09:34:52.998Z</time></trkpt><trkpt lat="42.439463490124446" lon="11.610147893614082"><ele>86.0</ele><time>2026-04-18T09:34:53.998Z</time></trkpt><trkpt lat="42.43928712333823" lon="11.610306589070403"><ele>87.0</ele><time>2026-04-18T09:34:54.998Z</time></trkpt><trkpt lat="42.439127676792296" lon="11.61045579180779"><ele>88.0</ele><time>2026-04-18T09:34:55.998Z</time></trkpt><trkpt lat="42.438981056153224" lon="11.610596528399363"><ele>89.0</ele><time>2026-04-18T09:34:56.998Z</time></trkpt><trkpt lat="42.43884455603701" lon="11.610728622251818"><ele>89.66666666666667</ele><time>2026-04-18T09:34:57.998Z</time></trkpt><trkpt lat="42.43871339304249" lon="11.610845874470202"><ele>90.33333333333333</ele><time>2026-04-18T09:34:58.998Z</time></trkpt><trkpt lat="42.43858940115069" lon="11.610954330749484"><ele>91.0</ele><time>2026-04-18T09:34:59.998Z</time></trkpt><trkpt lat="42.4384639696879" lon="11.611058619833953"><ele>91.0</ele><time>2026-04-18T09:35:00.998Z</time></trkpt><trkpt lat="42.43833989963417" lon="11.611155363125134"><ele>91.0</ele><time>2026-04-18T09:35:01.998Z</time></trkpt><trkpt lat="42.43821336577304" lon="11.611253662531796"><ele>91.0</ele><time>2026-04-18T09:35:02.998Z</time></trkpt><trkpt lat="42.438082817000556" lon="11.611358197699966"><ele>91.0</ele><time>2026-04-18T09:35:03.998Z</time></trkpt><trkpt lat="42.437954929663775" lon="11.611459927183565"><ele>91.0</ele><time>2026-04-18T09:35:04.998Z</time></trkpt><trkpt lat="42.43782351829006" lon="11.6115629852705"><ele>91.0</ele><time>2026-04-18T09:35:05.998Z</time></trkpt><trkpt lat="42.43768791371609" lon="11.611669694366208"><ele>91.0</ele><time>2026-04-18T09:35:06.998Z</time></trkpt><trkpt lat="42.437549985742265" lon="11.611779611671453"><ele>91.0</ele><time>2026-04-18T09:35:07.998Z</time></trkpt><trkpt lat="42.43740507260441" lon="11.611891144820888"><ele>91.0</ele><time>2026-04-18T09:35:08.998Z</time></trkpt><trkpt lat="42.437255658550605" lon="11.612006715595967"><ele>91.0</ele><time>2026-04-18T09:35:09.998Z</time></trkpt><trkpt lat="42.43710605155873" lon="11.612121739076644"><ele>90.0</ele><time>2026-04-18T09:35:10.998Z</time></trkpt><trkpt lat="42.436952503288445" lon="11.612240561787095"><ele>89.0</ele><time>2026-04-18T09:35:11.998Z</time></trkpt><trkpt lat="42.4368068434956" lon="11.612357909751497"><ele>88.0</ele><time>2026-04-18T09:35:12.998Z</time></trkpt><trkpt lat="42.43666280293615" lon="11.612474055722926"><ele>88.0</ele><time>2026-04-18T09:35:13.998Z</time></trkpt><trkpt lat="42.43652046178088" lon="11.612586826246414"><ele>88.0</ele><time>2026-04-18T09:35:14.998Z</time></trkpt><trkpt lat="42.43637072428051" lon="11.612706063163973"><ele>88.0</ele><time>2026-04-18T09:35:15.998Z</time></trkpt><trkpt lat="42.436229679386855" lon="11.612829258870713"><ele>87.66666666666666</ele><time>2026-04-18T09:35:16.998Z</time></trkpt><trkpt lat="42.43608914275821" lon="11.612965582182635"><ele>87.33333333333333</ele><time>2026-04-18T09:35:17.998Z</time></trkpt><trkpt lat="42.435950117936954" lon="11.613108231388388"><ele>87.0</ele><time>2026-04-18T09:35:18.999Z</time></trkpt><trkpt lat="42.435808525160866" lon="11.613249679843745"><ele>87.0</ele><time>2026-04-18T09:35:19.999Z</time></trkpt><trkpt lat="42.43566561654482" lon="11.6133865190102"><ele>87.0</ele><time>2026-04-18T09:35:20.999Z</time></trkpt><trkpt lat="42.4355192764547" lon="11.613524612647403"><ele>87.0</ele><time>2026-04-18T09:35:21.999Z</time></trkpt><trkpt lat="42.43537448199398" lon="11.61366562452615"><ele>86.0</ele><time>2026-04-18T09:35:22.999Z</time></trkpt><trkpt lat="42.43522708163764" lon="11.613810324336729"><ele>85.0</ele><time>2026-04-18T09:35:23.999Z</time></trkpt><trkpt lat="42.43508165643016" lon="11.613956299225025"><ele>84.0</ele><time>2026-04-18T09:35:24.999Z</time></trkpt><trkpt lat="42.434932409642634" lon="11.61410009610572"><ele>84.0</ele><time>2026-04-18T09:35:25.999Z</time></trkpt><trkpt lat="42.43477885711024" lon="11.614241122832052"><ele>84.0</ele><time>2026-04-18T09:35:26.999Z</time></trkpt><trkpt lat="42.4346279811229" lon="11.614385624103656"><ele>84.0</ele><time>2026-04-18T09:35:27.999Z</time></trkpt><trkpt lat="42.43447646205168" lon="11.614535319571512"><ele>83.33333333333333</ele><time>2026-04-18T09:35:28.999Z</time></trkpt><trkpt lat="42.434323489456055" lon="11.614684472272774"><ele>82.66666666666666</ele><time>2026-04-18T09:35:29.999Z</time></trkpt><trkpt lat="42.434164347735404" lon="11.614837270019905"><ele>82.0</ele><time>2026-04-18T09:35:30.999Z</time></trkpt><trkpt lat="42.43400550900604" lon="11.614991739117276"><ele>82.0</ele><time>2026-04-18T09:35:31.999Z</time></trkpt><trkpt lat="42.43385804660621" lon="11.615132571193792"><ele>82.0</ele><time>2026-04-18T09:35:32.999Z</time></trkpt><trkpt lat="42.43372126489605" lon="11.615262827562171"><ele>82.0</ele><time>2026-04-18T09:35:33.999Z</time></trkpt><trkpt lat="42.43358856607882" lon="11.615390880142646"><ele>80.66666666666666</ele><time>2026-04-18T09:35:34.999Z</time></trkpt><trkpt lat="42.43346133500798" lon="11.61551140389738"><ele>79.33333333333333</ele><time>2026-04-18T09:35:35.999Z</time></trkpt><trkpt lat="42.43333384567191" lon="11.615632634682106"><ele>78.0</ele><time>2026-04-18T09:35:36.999Z</time></trkpt><trkpt lat="42.43320487447673" lon="11.61575259855369"><ele>78.0</ele><time>2026-04-18T09:35:37.999Z</time></trkpt><trkpt lat="42.433082016702876" lon="11.615868848978307"><ele>78.0</ele><time>2026-04-18T09:35:38.999Z</time></trkpt><trkpt lat="42.43296144322958" lon="11.61598878499214"><ele>78.0</ele><time>2026-04-18T09:35:39.999Z</time></trkpt><trkpt lat="42.43285285996414" lon="11.616099187680742"><ele>78.0</ele><time>2026-04-18T09:35:40.999Z</time></trkpt><trkpt lat="42.432749752101934" lon="11.61620872127815"><ele>77.8</ele><time>2026-04-18T09:35:41.999Z</time></trkpt><trkpt lat="42.43266334872094" lon="11.616324752721109"><ele>77.6</ele><time>2026-04-18T09:35:42.999Z</time></trkpt><trkpt lat="42.43259667187149" lon="11.616451582557719"><ele>77.4</ele><time>2026-04-18T09:35:43.999Z</time></trkpt><trkpt lat="42.432553109693174" lon="11.616561759646782"><ele>77.2</ele><time>2026-04-18T09:35:44.999Z</time></trkpt><trkpt lat="42.43251939042107" lon="11.616646215169716"><ele>77.0</ele><time>2026-04-18T09:35:45.999Z</time></trkpt><trkpt lat="42.43245449183162" lon="11.616728195887452"><ele>77.0</ele><time>2026-04-18T09:35:47.999Z</time></trkpt><trkpt lat="42.432394328927714" lon="11.616813790441448"><ele>77.0</ele><time>2026-04-18T09:35:49.999Z</time></trkpt><trkpt lat="42.432502496928166" lon="11.617043801395836"><ele>77.0</ele><time>2026-04-18T09:35:50.999Z</time></trkpt><trkpt lat="42.43252632491006" lon="11.617179151291065"><ele>77.0</ele><time>2026-04-18T09:35:51.999Z</time></trkpt><trkpt lat="42.43255080131254" lon="11.61732201982389"><ele>76.75</ele><time>2026-04-18T09:35:52.999Z</time></trkpt><trkpt lat="42.43257615072264" lon="11.617481749560772"><ele>76.5</ele><time>2026-04-18T09:35:53.999Z</time></trkpt><trkpt lat="42.432603166250125" lon="11.617655068465249"><ele>76.25</ele><time>2026-04-18T09:35:54.999Z</time></trkpt><trkpt lat="42.43264475192285" lon="11.617832404834123"><ele>76.0</ele><time>2026-04-18T09:35:55.999Z</time></trkpt><trkpt lat="42.43266870096685" lon="11.61802804968831"><ele>75.33333333333333</ele><time>2026-04-18T09:35:56.999Z</time></trkpt><trkpt lat="42.43269724685438" lon="11.618228184695296"><ele>74.66666666666667</ele><time>2026-04-18T09:35:57.999Z</time></trkpt><trkpt lat="42.43268683549984" lon="11.61843566325616"><ele>74.0</ele><time>2026-04-18T09:35:58.999Z</time></trkpt><trkpt lat="42.4326919589744" lon="11.618646823924545"><ele>74.0</ele><time>2026-04-18T09:35:59.999Z</time></trkpt><trkpt lat="42.432626787123695" lon="11.618849180507004"><ele>74.0</ele><time>2026-04-18T09:36:00.999Z</time></trkpt><trkpt lat="42.43256874003967" lon="11.619058039312575"><ele>74.0</ele><time>2026-04-18T09:36:01.999Z</time></trkpt><trkpt lat="42.432510091916" lon="11.619305725595522"><ele>74.66666666666667</ele><time>2026-04-18T09:36:02.999Z</time></trkpt><trkpt lat="42.43243298463277" lon="11.619561977896746"><ele>75.33333333333333</ele><time>2026-04-18T09:36:03.999Z</time></trkpt><trkpt lat="42.43234906868733" lon="11.619859513558124"><ele>76.0</ele><time>2026-04-18T09:36:04.999Z</time></trkpt><trkpt lat="42.432256699428194" lon="11.620184816498066"><ele>75.66666666666666</ele><time>2026-04-18T09:36:05.999Z</time></trkpt><trkpt lat="42.43217254687275" lon="11.62047076708779"><ele>75.33333333333333</ele><time>2026-04-18T09:36:06.999Z</time></trkpt><trkpt lat="42.43210355646385" lon="11.620719357205344"><ele>75.0</ele><time>2026-04-18T09:36:07.999Z</time></trkpt><trkpt lat="42.43203296927397" lon="11.620950513321096"><ele>74.66666666666667</ele><time>2026-04-18T09:36:08.999Z</time></trkpt><trkpt lat="42.431969058727695" lon="11.621170596720244"><ele>74.33333333333334</ele><time>2026-04-18T09:36:09.999Z</time></trkpt><trkpt lat="42.4319072907291" lon="11.621399845093913"><ele>74.0</ele><time>2026-04-18T09:36:10.999Z</time></trkpt><trkpt lat="42.431853677488036" lon="11.621626424527712"><ele>74.0</ele><time>2026-04-18T09:36:11.999Z</time></trkpt><trkpt lat="42.43180331561429" lon="11.621868864288725"><ele>74.0</ele><time>2026-04-18T09:36:12.999Z</time></trkpt><trkpt lat="42.431763538295336" lon="11.622103464651468"><ele>74.0</ele><time>2026-04-18T09:36:13.999Z</time></trkpt><trkpt lat="42.43172176845942" lon="11.62234625787098"><ele>74.33333333333334</ele><time>2026-04-18T09:36:14.999Z</time></trkpt><trkpt lat="42.431680789617175" lon="11.62258557859941"><ele>74.66666666666667</ele><time>2026-04-18T09:36:15.999Z</time></trkpt><trkpt lat="42.431639194455464" lon="11.622823848751617"><ele>75.0</ele><time>2026-04-18T09:36:16.999Z</time></trkpt><trkpt lat="42.43159620712401" lon="11.623074745734828"><ele>75.0</ele><time>2026-04-18T09:36:17.999Z</time></trkpt><trkpt lat="42.43155426697381" lon="11.623322877698868"><ele>75.0</ele><time>2026-04-18T09:36:18.999Z</time></trkpt><trkpt lat="42.431497632548734" lon="11.62356725313704"><ele>75.0</ele><time>2026-04-18T09:36:19.999Z</time></trkpt><trkpt lat="42.431454043800585" lon="11.623818435993115"><ele>75.0</ele><time>2026-04-18T09:36:20.999Z</time></trkpt><trkpt lat="42.431424842456074" lon="11.624078436233791"><ele>75.0</ele><time>2026-04-18T09:36:21.999Z</time></trkpt><trkpt lat="42.43137704009585" lon="11.624331816817516"><ele>75.0</ele><time>2026-04-18T09:36:22.999Z</time></trkpt><trkpt lat="42.43133479179066" lon="11.624560039378276"><ele>74.25</ele><time>2026-04-18T09:36:23.999Z</time></trkpt><trkpt lat="42.4312986045458" lon="11.624772063384723"><ele>73.5</ele><time>2026-04-18T09:36:24.999Z</time></trkpt><trkpt lat="42.431266310247835" lon="11.62496351286996"><ele>72.75</ele><time>2026-04-18T09:36:25.999Z</time></trkpt><trkpt lat="42.431234203164856" lon="11.625145556056998"><ele>72.0</ele><time>2026-04-18T09:36:26.999Z</time></trkpt><trkpt lat="42.43120454076998" lon="11.625318393326575"><ele>71.75</ele><time>2026-04-18T09:36:27.999Z</time></trkpt><trkpt lat="42.43117988716551" lon="11.625485072836748"><ele>71.5</ele><time>2026-04-18T09:36:28.999Z</time></trkpt><trkpt lat="42.43116773912751" lon="11.625663896998214"><ele>71.25</ele><time>2026-04-18T09:36:29.998Z</time></trkpt><trkpt lat="42.43117267468975" lon="11.625849694701682"><ele>71.0</ele><time>2026-04-18T09:36:30.998Z</time></trkpt><trkpt lat="42.43119454901667" lon="11.626015509763937"><ele>70.83333333333334</ele><time>2026-04-18T09:36:31.998Z</time></trkpt><trkpt lat="42.43121826796973" lon="11.626164849157593"><ele>70.66666666666667</ele><time>2026-04-18T09:36:32.998Z</time></trkpt><trkpt lat="42.43123676363459" lon="11.626284295262119"><ele>70.5</ele><time>2026-04-18T09:36:33.998Z</time></trkpt><trkpt lat="42.43125102770085" lon="11.626377072726623"><ele>70.33333333333333</ele><time>2026-04-18T09:36:34.998Z</time></trkpt><trkpt lat="42.43126023743399" lon="11.626492898104487"><ele>70.16666666666666</ele><time>2026-04-18T09:36:36.998Z</time></trkpt><trkpt lat="42.431185887930816" lon="11.62654494910366"><ele>70.0</ele><time>2026-04-18T09:36:38.998Z</time></trkpt><trkpt lat="42.431117708064356" lon="11.626528096577305"><ele>70.0</ele><time>2026-04-18T09:36:39.998Z</time></trkpt><trkpt lat="42.431037385883684" lon="11.626517364876715"><ele>70.0</ele><time>2026-04-18T09:36:40.998Z</time></trkpt><trkpt lat="42.43094460014151" lon="11.626511448814254"><ele>70.0</ele><time>2026-04-18T09:36:41.998Z</time></trkpt><trkpt lat="42.430846349364565" lon="11.626516795499096"><ele>70.0</ele><time>2026-04-18T09:36:42.998Z</time></trkpt><trkpt lat="42.430741105777" lon="11.626516651208773"><ele>70.0</ele><time>2026-04-18T09:36:43.998Z</time></trkpt><trkpt lat="42.430632250837384" lon="11.626553414520068"><ele>70.0</ele><time>2026-04-18T09:36:44.998Z</time></trkpt><trkpt lat="42.43052155506455" lon="11.626614764121422"><ele>70.0</ele><time>2026-04-18T09:36:45.998Z</time></trkpt><trkpt lat="42.430402597792096" lon="11.62668455012345"><ele>70.0</ele><time>2026-04-18T09:36:46.998Z</time></trkpt><trkpt lat="42.430272861204124" lon="11.626758527657657"><ele>70.0</ele><time>2026-04-18T09:36:47.998Z</time></trkpt><trkpt lat="42.43014101118412" lon="11.626831041080774"><ele>70.0</ele><time>2026-04-18T09:36:48.998Z</time></trkpt><trkpt lat="42.43000743064456" lon="11.626898848864613"><ele>70.0</ele><time>2026-04-18T09:36:49.998Z</time></trkpt><trkpt lat="42.42986597390969" lon="11.626970852485968"><ele>70.0</ele><time>2026-04-18T09:36:50.998Z</time></trkpt><trkpt lat="42.429718587810434" lon="11.627042049612617"><ele>70.0</ele><time>2026-04-18T09:36:51.998Z</time></trkpt><trkpt lat="42.42956535455809" lon="11.627117965928765"><ele>70.0</ele><time>2026-04-18T09:36:52.998Z</time></trkpt><trkpt lat="42.429408590707446" lon="11.627198434153657"><ele>70.0</ele><time>2026-04-18T09:36:53.998Z</time></trkpt><trkpt lat="42.42925347670522" lon="11.627277691594784"><ele>70.0</ele><time>2026-04-18T09:36:54.998Z</time></trkpt><trkpt lat="42.4291056857142" lon="11.627348541556923"><ele>70.0</ele><time>2026-04-18T09:36:55.998Z</time></trkpt><trkpt lat="42.42897658694903" lon="11.627401317350213"><ele>70.0</ele><time>2026-04-18T09:36:56.998Z</time></trkpt><trkpt lat="42.428851291987876" lon="11.62744547366905"><ele>70.0</ele><time>2026-04-18T09:36:57.998Z</time></trkpt><trkpt lat="42.42871822966619" lon="11.627473990681416"><ele>70.25</ele><time>2026-04-18T09:36:58.998Z</time></trkpt><trkpt lat="42.428579716108004" lon="11.62749018147767"><ele>70.5</ele><time>2026-04-18T09:36:59.998Z</time></trkpt><trkpt lat="42.428438618991954" lon="11.62749034099867"><ele>70.75</ele><time>2026-04-18T09:37:00.998Z</time></trkpt><trkpt lat="42.428296616783335" lon="11.627463166967123"><ele>71.0</ele><time>2026-04-18T09:37:01.998Z</time></trkpt><trkpt lat="42.42815251840217" lon="11.627422685911213"><ele>71.0</ele><time>2026-04-18T09:37:02.998Z</time></trkpt><trkpt lat="42.428008706210484" lon="11.627371229956077"><ele>71.0</ele><time>2026-04-18T09:37:03.998Z</time></trkpt><trkpt lat="42.42786139858457" lon="11.627320595990197"><ele>71.0</ele><time>2026-04-18T09:37:04.998Z</time></trkpt><trkpt lat="42.42771228150286" lon="11.627268328078932"><ele>70.66666666666667</ele><time>2026-04-18T09:37:05.998Z</time></trkpt><trkpt lat="42.42756247718125" lon="11.62720944777288"><ele>70.33333333333333</ele><time>2026-04-18T09:37:06.998Z</time></trkpt><trkpt lat="42.427412275111344" lon="11.627137088865023"><ele>70.0</ele><time>2026-04-18T09:37:07.998Z</time></trkpt><trkpt lat="42.42726764890213" lon="11.627055711907218"><ele>70.0</ele><time>2026-04-18T09:37:08.998Z</time></trkpt><trkpt lat="42.4271250328171" lon="11.62698038862929"><ele>70.0</ele><time>2026-04-18T09:37:09.998Z</time></trkpt><trkpt lat="42.42698326159532" lon="11.626914981226376"><ele>70.0</ele><time>2026-04-18T09:37:10.998Z</time></trkpt><trkpt lat="42.42683896419895" lon="11.62686607221411"><ele>70.25</ele><time>2026-04-18T09:37:11.998Z</time></trkpt><trkpt lat="42.42670257259457" lon="11.626826765089941"><ele>70.5</ele><time>2026-04-18T09:37:12.998Z</time></trkpt><trkpt lat="42.426564713091054" lon="11.62679825118994"><ele>70.75</ele><time>2026-04-18T09:37:13.998Z</time></trkpt><trkpt lat="42.42643919567833" lon="11.626776570954146"><ele>71.0</ele><time>2026-04-18T09:37:14.998Z</time></trkpt><trkpt lat="42.42632488527242" lon="11.626761903113765"><ele>71.0</ele><time>2026-04-18T09:37:15.998Z</time></trkpt><trkpt lat="42.426215262609574" lon="11.62676825372399"><ele>71.0</ele><time>2026-04-18T09:37:16.998Z</time></trkpt><trkpt lat="42.426115205897446" lon="11.626787584493062"><ele>71.0</ele><time>2026-04-18T09:37:17.998Z</time></trkpt><trkpt lat="42.426020796052086" lon="11.626810442906088"><ele>71.0</ele><time>2026-04-18T09:37:18.998Z</time></trkpt><trkpt lat="42.425935621872014" lon="11.626828301150647"><ele>71.0</ele><time>2026-04-18T09:37:19.998Z</time></trkpt><trkpt lat="42.42585663355426" lon="11.626837765714374"><ele>71.0</ele><time>2026-04-18T09:37:20.998Z</time></trkpt><trkpt lat="42.42579137853548" lon="11.626838465231108"><ele>71.0</ele><time>2026-04-18T09:37:21.998Z</time></trkpt><trkpt lat="42.4257178246961" lon="11.626828078065767"><ele>71.0</ele><time>2026-04-18T09:37:23.998Z</time></trkpt><trkpt lat="42.42564356263128" lon="11.626850945819285"><ele>71.0</ele><time>2026-04-18T09:37:26.999Z</time></trkpt><trkpt lat="42.42559042570845" lon="11.627153983962787"><ele>71.0</ele><time>2026-04-18T09:37:30.999Z</time></trkpt><trkpt lat="42.42561087560969" lon="11.627251157387128"><ele>70.66666666666667</ele><time>2026-04-18T09:37:33.999Z</time></trkpt><trkpt lat="42.42561117797215" lon="11.627350357718138"><ele>70.33333333333334</ele><time>2026-04-18T09:37:37.999Z</time></trkpt><trkpt lat="42.42568346217637" lon="11.627290498144035"><ele>70.0</ele><time>2026-04-18T10:01:21.999Z</time></trkpt><trkpt lat="42.425642473517364" lon="11.62722427271301"><ele>69.66666666666667</ele><time>2026-04-18T10:01:24.999Z</time></trkpt><trkpt lat="42.42556136845984" lon="11.627231241037412"><ele>69.33333333333333</ele><time>2026-04-18T10:01:27.999Z</time></trkpt><trkpt lat="42.425490686803876" lon="11.627253619173812"><ele>69.0</ele><time>2026-04-18T10:01:30.999Z</time></trkpt><trkpt lat="42.42541595837311" lon="11.627243029049582"><ele>68.0</ele><time>2026-04-18T10:01:33.999Z</time></trkpt><trkpt lat="42.4254025765501" lon="11.627159574155774"><ele>68.0</ele><time>2026-04-18T10:01:36.999Z</time></trkpt><trkpt lat="42.42547135834099" lon="11.627171743647711"><ele>68.0</ele><time>2026-04-18T10:04:22.998Z</time></trkpt></trkseg></trk></gpx>